<?xml version="1.0" encoding="UTF-8" standalone="no" ?>
<gpx xmlns="http://www.topografix.com/GPX/1/1" xmlns:xsi="http://www.w3.org/2001/XMLSchema-instance" xsi:schemaLocation="http://www.topografix.com/GPX/1/1 http://www.topografix.com/GPX/1/1/gpx.xsd" version="1.1" creator="VisuGPX - https://www.visugpx.com">
  <metadata>
    <name>Pornichet 27/01/2022</name>
    <desc><![CDATA[Sortie jeudi 27 janvier 2022]]></desc>
  </metadata>
  <trk>
    <name><![CDATA[Pornichet Cyclisme]]></name>
    <trkseg>
      <trkpt lat="47.26407" lon="-2.31565">
        <ele>9.7</ele>
        <time>2022-01-27T08:17:02.000Z</time>
      </trkpt>
      <trkpt lat="47.26407" lon="-2.31575">
        <ele>9.7</ele>
        <time>2022-01-27T08:17:05.000Z</time>
      </trkpt>
      <trkpt lat="47.26407" lon="-2.31579">
        <ele>1.2000000476837</ele>
        <time>2022-01-27T08:17:06.000Z</time>
      </trkpt>
      <trkpt lat="47.26407" lon="-2.31582">
        <ele>2.2000000476837</ele>
        <time>2022-01-27T08:17:07.000Z</time>
      </trkpt>
      <trkpt lat="47.26406" lon="-2.31586">
        <ele>3.2000000476837</ele>
        <time>2022-01-27T08:17:08.000Z</time>
      </trkpt>
      <trkpt lat="47.26406" lon="-2.3159">
        <ele>3.2000000476837</ele>
        <time>2022-01-27T08:17:09.000Z</time>
      </trkpt>
      <trkpt lat="47.26406" lon="-2.31618">
        <ele>3.2000000476837</ele>
        <time>2022-01-27T08:17:15.000Z</time>
      </trkpt>
      <trkpt lat="47.26406" lon="-2.31648">
        <ele>3.2000000476837</ele>
        <time>2022-01-27T08:17:21.000Z</time>
      </trkpt>
      <trkpt lat="47.26406" lon="-2.3166">
        <ele>3.2000000476837</ele>
        <time>2022-01-27T08:17:24.000Z</time>
      </trkpt>
      <trkpt lat="47.26406" lon="-2.3166">
        <ele>3.2000000476837</ele>
        <time>2022-01-27T08:17:25.000Z</time>
      </trkpt>
      <trkpt lat="47.26404" lon="-2.31662">
        <ele>3.2000000476837</ele>
        <time>2022-01-27T08:17:26.000Z</time>
      </trkpt>
      <trkpt lat="47.26395" lon="-2.31668">
        <ele>3.2000000476837</ele>
        <time>2022-01-27T08:17:29.000Z</time>
      </trkpt>
      <trkpt lat="47.26378" lon="-2.31678">
        <ele>3.2000000476837</ele>
        <time>2022-01-27T08:17:34.000Z</time>
      </trkpt>
      <trkpt lat="47.26374" lon="-2.31681">
        <ele>2.2000000476837</ele>
        <time>2022-01-27T08:17:35.000Z</time>
      </trkpt>
      <trkpt lat="47.2637" lon="-2.31683">
        <ele>1.2000000476837</ele>
        <time>2022-01-27T08:17:36.000Z</time>
      </trkpt>
      <trkpt lat="47.26366" lon="-2.31686">
        <ele>7.3</ele>
        <time>2022-01-27T08:17:37.000Z</time>
      </trkpt>
      <trkpt lat="47.26362" lon="-2.31688">
        <ele>-1</ele>
        <time>2022-01-27T08:17:38.000Z</time>
      </trkpt>
      <trkpt lat="47.26358" lon="-2.3169">
        <ele>-2.2000000476837</ele>
        <time>2022-01-27T08:17:39.000Z</time>
      </trkpt>
      <trkpt lat="47.26346" lon="-2.31698">
        <ele>-2.2000000476837</ele>
        <time>2022-01-27T08:17:42.000Z</time>
      </trkpt>
      <trkpt lat="47.26324" lon="-2.31711">
        <ele>-2.2000000476837</ele>
        <time>2022-01-27T08:17:47.000Z</time>
      </trkpt>
      <trkpt lat="47.26314" lon="-2.31714">
        <ele>-2.5999999046326</ele>
        <time>2022-01-27T08:17:49.000Z</time>
      </trkpt>
      <trkpt lat="47.26309" lon="-2.31717">
        <ele>-3</ele>
        <time>2022-01-27T08:17:50.000Z</time>
      </trkpt>
      <trkpt lat="47.26305" lon="-2.31719">
        <ele>-3.4000000953674</ele>
        <time>2022-01-27T08:17:51.000Z</time>
      </trkpt>
      <trkpt lat="47.26301" lon="-2.31722">
        <ele>-3.7999999523163</ele>
        <time>2022-01-27T08:17:52.000Z</time>
      </trkpt>
      <trkpt lat="47.263" lon="-2.31727">
        <ele>-4.1999998092651</ele>
        <time>2022-01-27T08:17:53.000Z</time>
      </trkpt>
      <trkpt lat="47.26301" lon="-2.31732">
        <ele>-4.1999998092651</ele>
        <time>2022-01-27T08:17:54.000Z</time>
      </trkpt>
      <trkpt lat="47.26302" lon="-2.31742">
        <ele>-4.1999998092651</ele>
        <time>2022-01-27T08:17:56.000Z</time>
      </trkpt>
      <trkpt lat="47.26305" lon="-2.31762">
        <ele>-4.1999998092651</ele>
        <time>2022-01-27T08:18:00.000Z</time>
      </trkpt>
      <trkpt lat="47.26307" lon="-2.31772">
        <ele>-4.1999998092651</ele>
        <time>2022-01-27T08:18:02.000Z</time>
      </trkpt>
      <trkpt lat="47.26306" lon="-2.31788">
        <ele>-4.1999998092651</ele>
        <time>2022-01-27T08:18:05.000Z</time>
      </trkpt>
      <trkpt lat="47.26303" lon="-2.31831">
        <ele>-4.1999998092651</ele>
        <time>2022-01-27T08:18:13.000Z</time>
      </trkpt>
      <trkpt lat="47.263" lon="-2.31867">
        <ele>-4.1999998092651</ele>
        <time>2022-01-27T08:18:20.000Z</time>
      </trkpt>
      <trkpt lat="47.26298" lon="-2.31875">
        <ele>-4.1999998092651</ele>
        <time>2022-01-27T08:18:22.000Z</time>
      </trkpt>
      <trkpt lat="47.26293" lon="-2.31881">
        <ele>-4.1999998092651</ele>
        <time>2022-01-27T08:18:24.000Z</time>
      </trkpt>
      <trkpt lat="47.26284" lon="-2.31889">
        <ele>-4.1999998092651</ele>
        <time>2022-01-27T08:18:27.000Z</time>
      </trkpt>
      <trkpt lat="47.26274" lon="-2.31902">
        <ele>-4.1999998092651</ele>
        <time>2022-01-27T08:18:30.000Z</time>
      </trkpt>
      <trkpt lat="47.26259" lon="-2.31926">
        <ele>-4.1999998092651</ele>
        <time>2022-01-27T08:18:36.000Z</time>
      </trkpt>
      <trkpt lat="47.26248" lon="-2.31945">
        <ele>-4.1999998092651</ele>
        <time>2022-01-27T08:18:41.000Z</time>
      </trkpt>
      <trkpt lat="47.26241" lon="-2.31952">
        <ele>-4.5999999046326</ele>
        <time>2022-01-27T08:18:43.000Z</time>
      </trkpt>
      <trkpt lat="47.26238" lon="-2.31956">
        <ele>-5</ele>
        <time>2022-01-27T08:18:44.000Z</time>
      </trkpt>
      <trkpt lat="47.26235" lon="-2.31959">
        <ele>-5.4000000953674</ele>
        <time>2022-01-27T08:18:45.000Z</time>
      </trkpt>
      <trkpt lat="47.26233" lon="-2.31961">
        <ele>-5.8000001907349</ele>
        <time>2022-01-27T08:18:46.000Z</time>
      </trkpt>
      <trkpt lat="47.26231" lon="-2.31963">
        <ele>-6.4000000953674</ele>
        <time>2022-01-27T08:18:47.000Z</time>
      </trkpt>
      <trkpt lat="47.26221" lon="-2.31977">
        <ele>-6.4000000953674</ele>
        <time>2022-01-27T08:18:52.000Z</time>
      </trkpt>
      <trkpt lat="47.26219" lon="-2.3198">
        <ele>-6.4000000953674</ele>
        <time>2022-01-27T08:18:53.000Z</time>
      </trkpt>
      <trkpt lat="47.26206" lon="-2.31991">
        <ele>-6.4000000953674</ele>
        <time>2022-01-27T08:18:58.000Z</time>
      </trkpt>
      <trkpt lat="47.26203" lon="-2.32006">
        <ele>-6.4000000953674</ele>
        <time>2022-01-27T08:19:02.000Z</time>
      </trkpt>
      <trkpt lat="47.26197" lon="-2.32014">
        <ele>-6.4000000953674</ele>
        <time>2022-01-27T08:19:07.000Z</time>
      </trkpt>
      <trkpt lat="47.26184" lon="-2.32014">
        <ele>-6.4000000953674</ele>
        <time>2022-01-27T08:19:11.000Z</time>
      </trkpt>
      <trkpt lat="47.26178" lon="-2.32018">
        <ele>-6.4000000953674</ele>
        <time>2022-01-27T08:19:13.000Z</time>
      </trkpt>
      <trkpt lat="47.26163" lon="-2.32029">
        <ele>-6.4000000953674</ele>
        <time>2022-01-27T08:19:17.000Z</time>
      </trkpt>
      <trkpt lat="47.26161" lon="-2.32035">
        <ele>-6.4000000953674</ele>
        <time>2022-01-27T08:19:18.000Z</time>
      </trkpt>
      <trkpt lat="47.26154" lon="-2.32061">
        <ele>-6.4000000953674</ele>
        <time>2022-01-27T08:19:22.000Z</time>
      </trkpt>
      <trkpt lat="47.26151" lon="-2.32073">
        <ele>-6.4000000953674</ele>
        <time>2022-01-27T08:19:24.000Z</time>
      </trkpt>
      <trkpt lat="47.26135" lon="-2.32125">
        <ele>-6.4000000953674</ele>
        <time>2022-01-27T08:19:33.000Z</time>
      </trkpt>
      <trkpt lat="47.26123" lon="-2.32158">
        <ele>-6.4000000953674</ele>
        <time>2022-01-27T08:19:39.000Z</time>
      </trkpt>
      <trkpt lat="47.26105" lon="-2.32202">
        <ele>-6.4000000953674</ele>
        <time>2022-01-27T08:19:47.000Z</time>
      </trkpt>
      <trkpt lat="47.2609" lon="-2.32227">
        <ele>-6.4000000953674</ele>
        <time>2022-01-27T08:19:52.000Z</time>
      </trkpt>
      <trkpt lat="47.2608" lon="-2.3224">
        <ele>-6.4000000953674</ele>
        <time>2022-01-27T08:19:55.000Z</time>
      </trkpt>
      <trkpt lat="47.26052" lon="-2.32272">
        <ele>-6.4000000953674</ele>
        <time>2022-01-27T08:20:03.000Z</time>
      </trkpt>
      <trkpt lat="47.26028" lon="-2.323">
        <ele>-6.4000000953674</ele>
        <time>2022-01-27T08:20:10.000Z</time>
      </trkpt>
      <trkpt lat="47.26025" lon="-2.32303">
        <ele>-6.4000000953674</ele>
        <time>2022-01-27T08:20:11.000Z</time>
      </trkpt>
      <trkpt lat="47.26008" lon="-2.32323">
        <ele>-6.4000000953674</ele>
        <time>2022-01-27T08:20:16.000Z</time>
      </trkpt>
      <trkpt lat="47.25997" lon="-2.32335">
        <ele>-6.4000000953674</ele>
        <time>2022-01-27T08:20:19.000Z</time>
      </trkpt>
      <trkpt lat="47.25984" lon="-2.32353">
        <ele>-6.4000000953674</ele>
        <time>2022-01-27T08:20:23.000Z</time>
      </trkpt>
      <trkpt lat="47.25981" lon="-2.32357">
        <ele>-6.4000000953674</ele>
        <time>2022-01-27T08:20:24.000Z</time>
      </trkpt>
      <trkpt lat="47.25963" lon="-2.32383">
        <ele>-6.4000000953674</ele>
        <time>2022-01-27T08:20:30.000Z</time>
      </trkpt>
      <trkpt lat="47.25937" lon="-2.32417">
        <ele>-6.4000000953674</ele>
        <time>2022-01-27T08:20:38.000Z</time>
      </trkpt>
      <trkpt lat="47.25915" lon="-2.32445">
        <ele>-6</ele>
        <time>2022-01-27T08:20:45.000Z</time>
      </trkpt>
      <trkpt lat="47.25912" lon="-2.32449">
        <ele>-5.5999999046326</ele>
        <time>2022-01-27T08:20:46.000Z</time>
      </trkpt>
      <trkpt lat="47.25909" lon="-2.32452">
        <ele>-5.1999998092651</ele>
        <time>2022-01-27T08:20:47.000Z</time>
      </trkpt>
      <trkpt lat="47.25907" lon="-2.32457">
        <ele>-4.8000001907349</ele>
        <time>2022-01-27T08:20:48.000Z</time>
      </trkpt>
      <trkpt lat="47.25906" lon="-2.32461">
        <ele>-4.4000000953674</ele>
        <time>2022-01-27T08:20:49.000Z</time>
      </trkpt>
      <trkpt lat="47.25905" lon="-2.32466">
        <ele>-4.4000000953674</ele>
        <time>2022-01-27T08:20:50.000Z</time>
      </trkpt>
      <trkpt lat="47.25906" lon="-2.3247">
        <ele>-4.4000000953674</ele>
        <time>2022-01-27T08:20:51.000Z</time>
      </trkpt>
      <trkpt lat="47.2591" lon="-2.32475">
        <ele>-4.4000000953674</ele>
        <time>2022-01-27T08:20:53.000Z</time>
      </trkpt>
      <trkpt lat="47.2592" lon="-2.32483">
        <ele>-4.4000000953674</ele>
        <time>2022-01-27T08:20:56.000Z</time>
      </trkpt>
      <trkpt lat="47.25923" lon="-2.32488">
        <ele>-4.4000000953674</ele>
        <time>2022-01-27T08:20:57.000Z</time>
      </trkpt>
      <trkpt lat="47.25926" lon="-2.32493">
        <ele>-4.4000000953674</ele>
        <time>2022-01-27T08:20:58.000Z</time>
      </trkpt>
      <trkpt lat="47.25932" lon="-2.32511">
        <ele>-4.4000000953674</ele>
        <time>2022-01-27T08:21:01.000Z</time>
      </trkpt>
      <trkpt lat="47.25934" lon="-2.32517">
        <ele>-4.4000000953674</ele>
        <time>2022-01-27T08:21:02.000Z</time>
      </trkpt>
      <trkpt lat="47.25935" lon="-2.32523">
        <ele>-4.4000000953674</ele>
        <time>2022-01-27T08:21:03.000Z</time>
      </trkpt>
      <trkpt lat="47.25948" lon="-2.32564">
        <ele>-4.4000000953674</ele>
        <time>2022-01-27T08:21:10.000Z</time>
      </trkpt>
      <trkpt lat="47.25958" lon="-2.32607">
        <ele>-4.4000000953674</ele>
        <time>2022-01-27T08:21:17.000Z</time>
      </trkpt>
      <trkpt lat="47.25962" lon="-2.32636">
        <ele>-4.4000000953674</ele>
        <time>2022-01-27T08:21:22.000Z</time>
      </trkpt>
      <trkpt lat="47.25961" lon="-2.32648">
        <ele>-4.4000000953674</ele>
        <time>2022-01-27T08:21:24.000Z</time>
      </trkpt>
      <trkpt lat="47.25962" lon="-2.32656">
        <ele>-4.4000000953674</ele>
        <time>2022-01-27T08:21:26.000Z</time>
      </trkpt>
      <trkpt lat="47.25968" lon="-2.32656">
        <ele>-4.4000000953674</ele>
        <time>2022-01-27T08:21:28.000Z</time>
      </trkpt>
      <trkpt lat="47.25983" lon="-2.32656">
        <ele>-4.4000000953674</ele>
        <time>2022-01-27T08:21:32.000Z</time>
      </trkpt>
      <trkpt lat="47.26005" lon="-2.32653">
        <ele>-4.4000000953674</ele>
        <time>2022-01-27T08:21:38.000Z</time>
      </trkpt>
      <trkpt lat="47.26019" lon="-2.32651">
        <ele>-4.4000000953674</ele>
        <time>2022-01-27T08:21:42.000Z</time>
      </trkpt>
      <trkpt lat="47.26026" lon="-2.32652">
        <ele>-4.4000000953674</ele>
        <time>2022-01-27T08:21:44.000Z</time>
      </trkpt>
      <trkpt lat="47.26035" lon="-2.32651">
        <ele>-4.4000000953674</ele>
        <time>2022-01-27T08:21:46.000Z</time>
      </trkpt>
      <trkpt lat="47.26047" lon="-2.32648">
        <ele>-4.4000000953674</ele>
        <time>2022-01-27T08:21:49.000Z</time>
      </trkpt>
      <trkpt lat="47.26074" lon="-2.32642">
        <ele>-3.4000000953674</ele>
        <time>2022-01-27T08:21:56.000Z</time>
      </trkpt>
      <trkpt lat="47.26079" lon="-2.32641">
        <ele>-3</ele>
        <time>2022-01-27T08:21:57.000Z</time>
      </trkpt>
      <trkpt lat="47.26083" lon="-2.32641">
        <ele>-2.5999999046326</ele>
        <time>2022-01-27T08:21:58.000Z</time>
      </trkpt>
      <trkpt lat="47.26087" lon="-2.3264">
        <ele>-2.2000000476837</ele>
        <time>2022-01-27T08:21:59.000Z</time>
      </trkpt>
      <trkpt lat="47.26107" lon="-2.32637">
        <ele>-2.2000000476837</ele>
        <time>2022-01-27T08:22:04.000Z</time>
      </trkpt>
      <trkpt lat="47.26139" lon="-2.32639">
        <ele>-2.2000000476837</ele>
        <time>2022-01-27T08:22:12.000Z</time>
      </trkpt>
      <trkpt lat="47.26143" lon="-2.3264">
        <ele>-2.2000000476837</ele>
        <time>2022-01-27T08:22:13.000Z</time>
      </trkpt>
      <trkpt lat="47.26163" lon="-2.3265">
        <ele>-2.2000000476837</ele>
        <time>2022-01-27T08:22:18.000Z</time>
      </trkpt>
      <trkpt lat="47.26183" lon="-2.32665">
        <ele>-2.2000000476837</ele>
        <time>2022-01-27T08:22:23.000Z</time>
      </trkpt>
      <trkpt lat="47.26191" lon="-2.32672">
        <ele>-2.2000000476837</ele>
        <time>2022-01-27T08:22:25.000Z</time>
      </trkpt>
      <trkpt lat="47.26216" lon="-2.327">
        <ele>-2.2000000476837</ele>
        <time>2022-01-27T08:22:32.000Z</time>
      </trkpt>
      <trkpt lat="47.26237" lon="-2.3273">
        <ele>-2.2000000476837</ele>
        <time>2022-01-27T08:22:38.000Z</time>
      </trkpt>
      <trkpt lat="47.26266" lon="-2.32775">
        <ele>-2.2000000476837</ele>
        <time>2022-01-27T08:22:46.000Z</time>
      </trkpt>
      <trkpt lat="47.26272" lon="-2.32788">
        <ele>-2.2000000476837</ele>
        <time>2022-01-27T08:22:48.000Z</time>
      </trkpt>
      <trkpt lat="47.26281" lon="-2.32814">
        <ele>-2.2000000476837</ele>
        <time>2022-01-27T08:22:52.000Z</time>
      </trkpt>
      <trkpt lat="47.26286" lon="-2.32836">
        <ele>-2.2000000476837</ele>
        <time>2022-01-27T08:22:55.000Z</time>
      </trkpt>
      <trkpt lat="47.26289" lon="-2.3285">
        <ele>-2.2000000476837</ele>
        <time>2022-01-27T08:22:57.000Z</time>
      </trkpt>
      <trkpt lat="47.26291" lon="-2.32856">
        <ele>-2.2000000476837</ele>
        <time>2022-01-27T08:22:58.000Z</time>
      </trkpt>
      <trkpt lat="47.26304" lon="-2.32865">
        <ele>-2.2000000476837</ele>
        <time>2022-01-27T08:23:01.000Z</time>
      </trkpt>
      <trkpt lat="47.26308" lon="-2.32867">
        <ele>-2.2000000476837</ele>
        <time>2022-01-27T08:23:02.000Z</time>
      </trkpt>
      <trkpt lat="47.26313" lon="-2.32871">
        <ele>-2.2000000476837</ele>
        <time>2022-01-27T08:23:03.000Z</time>
      </trkpt>
      <trkpt lat="47.26319" lon="-2.32882">
        <ele>-2.2000000476837</ele>
        <time>2022-01-27T08:23:05.000Z</time>
      </trkpt>
      <trkpt lat="47.26325" lon="-2.32901">
        <ele>-2.2000000476837</ele>
        <time>2022-01-27T08:23:08.000Z</time>
      </trkpt>
      <trkpt lat="47.26327" lon="-2.32908">
        <ele>-2.2000000476837</ele>
        <time>2022-01-27T08:23:09.000Z</time>
      </trkpt>
      <trkpt lat="47.26329" lon="-2.32914">
        <ele>-2.2000000476837</ele>
        <time>2022-01-27T08:23:10.000Z</time>
      </trkpt>
      <trkpt lat="47.26352" lon="-2.32976">
        <ele>-2.2000000476837</ele>
        <time>2022-01-27T08:23:20.000Z</time>
      </trkpt>
      <trkpt lat="47.26363" lon="-2.32993">
        <ele>-2.2000000476837</ele>
        <time>2022-01-27T08:23:24.000Z</time>
      </trkpt>
      <trkpt lat="47.26367" lon="-2.33023">
        <ele>-2.2000000476837</ele>
        <time>2022-01-27T08:23:29.000Z</time>
      </trkpt>
      <trkpt lat="47.2637" lon="-2.33081">
        <ele>-2.2000000476837</ele>
        <time>2022-01-27T08:23:38.000Z</time>
      </trkpt>
      <trkpt lat="47.26374" lon="-2.33128">
        <ele>-2.2000000476837</ele>
        <time>2022-01-27T08:23:45.000Z</time>
      </trkpt>
      <trkpt lat="47.26377" lon="-2.3319">
        <ele>-2.2000000476837</ele>
        <time>2022-01-27T08:23:54.000Z</time>
      </trkpt>
      <trkpt lat="47.2638" lon="-2.33237">
        <ele>-2.2000000476837</ele>
        <time>2022-01-27T08:24:01.000Z</time>
      </trkpt>
      <trkpt lat="47.26382" lon="-2.33244">
        <ele>-2.2000000476837</ele>
        <time>2022-01-27T08:24:02.000Z</time>
      </trkpt>
      <trkpt lat="47.26384" lon="-2.3325">
        <ele>-2.2000000476837</ele>
        <time>2022-01-27T08:24:03.000Z</time>
      </trkpt>
      <trkpt lat="47.26389" lon="-2.33261">
        <ele>-2.2000000476837</ele>
        <time>2022-01-27T08:24:05.000Z</time>
      </trkpt>
      <trkpt lat="47.26396" lon="-2.33266">
        <ele>-2.2000000476837</ele>
        <time>2022-01-27T08:24:07.000Z</time>
      </trkpt>
      <trkpt lat="47.26406" lon="-2.33267">
        <ele>-2.2000000476837</ele>
        <time>2022-01-27T08:24:09.000Z</time>
      </trkpt>
      <trkpt lat="47.26416" lon="-2.33268">
        <ele>-2.2000000476837</ele>
        <time>2022-01-27T08:24:11.000Z</time>
      </trkpt>
      <trkpt lat="47.26457" lon="-2.33274">
        <ele>-2.2000000476837</ele>
        <time>2022-01-27T08:24:20.000Z</time>
      </trkpt>
      <trkpt lat="47.26478" lon="-2.33279">
        <ele>-2.2000000476837</ele>
        <time>2022-01-27T08:24:25.000Z</time>
      </trkpt>
      <trkpt lat="47.26491" lon="-2.3328">
        <ele>-2.2000000476837</ele>
        <time>2022-01-27T08:24:28.000Z</time>
      </trkpt>
      <trkpt lat="47.26507" lon="-2.33284">
        <ele>-2.2000000476837</ele>
        <time>2022-01-27T08:24:32.000Z</time>
      </trkpt>
      <trkpt lat="47.2651" lon="-2.33287">
        <ele>-2.2000000476837</ele>
        <time>2022-01-27T08:24:33.000Z</time>
      </trkpt>
      <trkpt lat="47.26517" lon="-2.33295">
        <ele>-2.2000000476837</ele>
        <time>2022-01-27T08:24:35.000Z</time>
      </trkpt>
      <trkpt lat="47.26525" lon="-2.33311">
        <ele>-2.2000000476837</ele>
        <time>2022-01-27T08:24:38.000Z</time>
      </trkpt>
      <trkpt lat="47.26527" lon="-2.3334">
        <ele>-2.2000000476837</ele>
        <time>2022-01-27T08:24:42.000Z</time>
      </trkpt>
      <trkpt lat="47.26532" lon="-2.3337">
        <ele>-2.2000000476837</ele>
        <time>2022-01-27T08:24:46.000Z</time>
      </trkpt>
      <trkpt lat="47.26534" lon="-2.33377">
        <ele>-2.2000000476837</ele>
        <time>2022-01-27T08:24:47.000Z</time>
      </trkpt>
      <trkpt lat="47.26545" lon="-2.33433">
        <ele>-2.2000000476837</ele>
        <time>2022-01-27T08:24:55.000Z</time>
      </trkpt>
      <trkpt lat="47.26555" lon="-2.3349">
        <ele>-2.2000000476837</ele>
        <time>2022-01-27T08:25:03.000Z</time>
      </trkpt>
      <trkpt lat="47.26558" lon="-2.33502">
        <ele>-2.2000000476837</ele>
        <time>2022-01-27T08:25:05.000Z</time>
      </trkpt>
      <trkpt lat="47.26562" lon="-2.33514">
        <ele>-2.2000000476837</ele>
        <time>2022-01-27T08:25:07.000Z</time>
      </trkpt>
      <trkpt lat="47.26564" lon="-2.3352">
        <ele>-2.2000000476837</ele>
        <time>2022-01-27T08:25:08.000Z</time>
      </trkpt>
      <trkpt lat="47.26566" lon="-2.33538">
        <ele>-2.2000000476837</ele>
        <time>2022-01-27T08:25:11.000Z</time>
      </trkpt>
      <trkpt lat="47.26572" lon="-2.33587">
        <ele>-2.2000000476837</ele>
        <time>2022-01-27T08:25:19.000Z</time>
      </trkpt>
      <trkpt lat="47.26574" lon="-2.33604">
        <ele>-2.2000000476837</ele>
        <time>2022-01-27T08:25:22.000Z</time>
      </trkpt>
      <trkpt lat="47.26577" lon="-2.33621">
        <ele>-2.2000000476837</ele>
        <time>2022-01-27T08:25:25.000Z</time>
      </trkpt>
      <trkpt lat="47.26576" lon="-2.33648">
        <ele>-2.2000000476837</ele>
        <time>2022-01-27T08:25:30.000Z</time>
      </trkpt>
      <trkpt lat="47.26582" lon="-2.33669">
        <ele>-1.7999999523163</ele>
        <time>2022-01-27T08:25:34.000Z</time>
      </trkpt>
      <trkpt lat="47.26585" lon="-2.33674">
        <ele>-1.3999999761581</ele>
        <time>2022-01-27T08:25:35.000Z</time>
      </trkpt>
      <trkpt lat="47.26587" lon="-2.33678">
        <ele>-1</ele>
        <time>2022-01-27T08:25:36.000Z</time>
      </trkpt>
      <trkpt lat="47.2659" lon="-2.33683">
        <ele>-0.60000002384186</ele>
        <time>2022-01-27T08:25:37.000Z</time>
      </trkpt>
      <trkpt lat="47.26593" lon="-2.33688">
        <ele>-0.20000000298023</ele>
        <time>2022-01-27T08:25:38.000Z</time>
      </trkpt>
      <trkpt lat="47.26596" lon="-2.33692">
        <ele>-0.20000000298023</ele>
        <time>2022-01-27T08:25:39.000Z</time>
      </trkpt>
      <trkpt lat="47.26604" lon="-2.33705">
        <ele>-0.20000000298023</ele>
        <time>2022-01-27T08:25:42.000Z</time>
      </trkpt>
      <trkpt lat="47.26606" lon="-2.3371">
        <ele>-0.20000000298023</ele>
        <time>2022-01-27T08:25:43.000Z</time>
      </trkpt>
      <trkpt lat="47.26606" lon="-2.33724">
        <ele>-0.20000000298023</ele>
        <time>2022-01-27T08:25:45.000Z</time>
      </trkpt>
      <trkpt lat="47.26605" lon="-2.33736">
        <ele>-0.20000000298023</ele>
        <time>2022-01-27T08:25:47.000Z</time>
      </trkpt>
      <trkpt lat="47.26603" lon="-2.33763">
        <ele>0.20000000298023</ele>
        <time>2022-01-27T08:25:51.000Z</time>
      </trkpt>
      <trkpt lat="47.26602" lon="-2.3377">
        <ele>0.80000001192093</ele>
        <time>2022-01-27T08:25:52.000Z</time>
      </trkpt>
      <trkpt lat="47.26601" lon="-2.33776">
        <ele>1.2000000476837</ele>
        <time>2022-01-27T08:25:53.000Z</time>
      </trkpt>
      <trkpt lat="47.26601" lon="-2.33783">
        <ele>1.6000000238419</ele>
        <time>2022-01-27T08:25:54.000Z</time>
      </trkpt>
      <trkpt lat="47.266" lon="-2.33789">
        <ele>2.2000000476837</ele>
        <time>2022-01-27T08:25:55.000Z</time>
      </trkpt>
      <trkpt lat="47.26598" lon="-2.3381">
        <ele>2.2000000476837</ele>
        <time>2022-01-27T08:25:58.000Z</time>
      </trkpt>
      <trkpt lat="47.26592" lon="-2.33858">
        <ele>2.5999999046326</ele>
        <time>2022-01-27T08:26:05.000Z</time>
      </trkpt>
      <trkpt lat="47.26592" lon="-2.33865">
        <ele>3</ele>
        <time>2022-01-27T08:26:06.000Z</time>
      </trkpt>
      <trkpt lat="47.26591" lon="-2.33872">
        <ele>3.4000000953674</ele>
        <time>2022-01-27T08:26:07.000Z</time>
      </trkpt>
      <trkpt lat="47.26591" lon="-2.33879">
        <ele>3.7999999523163</ele>
        <time>2022-01-27T08:26:08.000Z</time>
      </trkpt>
      <trkpt lat="47.26591" lon="-2.33886">
        <ele>4.1999998092651</ele>
        <time>2022-01-27T08:26:09.000Z</time>
      </trkpt>
      <trkpt lat="47.2659" lon="-2.33901">
        <ele>4.1999998092651</ele>
        <time>2022-01-27T08:26:11.000Z</time>
      </trkpt>
      <trkpt lat="47.26583" lon="-2.33966">
        <ele>4.1999998092651</ele>
        <time>2022-01-27T08:26:20.000Z</time>
      </trkpt>
      <trkpt lat="47.26576" lon="-2.34016">
        <ele>4.1999998092651</ele>
        <time>2022-01-27T08:26:27.000Z</time>
      </trkpt>
      <trkpt lat="47.26571" lon="-2.34046">
        <ele>4.1999998092651</ele>
        <time>2022-01-27T08:26:31.000Z</time>
      </trkpt>
      <trkpt lat="47.26572" lon="-2.34051">
        <ele>4.1999998092651</ele>
        <time>2022-01-27T08:26:32.000Z</time>
      </trkpt>
      <trkpt lat="47.2658" lon="-2.34061">
        <ele>4.1999998092651</ele>
        <time>2022-01-27T08:26:35.000Z</time>
      </trkpt>
      <trkpt lat="47.26588" lon="-2.34064">
        <ele>4.1999998092651</ele>
        <time>2022-01-27T08:26:37.000Z</time>
      </trkpt>
      <trkpt lat="47.26592" lon="-2.34067">
        <ele>4.1999998092651</ele>
        <time>2022-01-27T08:26:38.000Z</time>
      </trkpt>
      <trkpt lat="47.26605" lon="-2.34075">
        <ele>4.1999998092651</ele>
        <time>2022-01-27T08:26:41.000Z</time>
      </trkpt>
      <trkpt lat="47.2662" lon="-2.34088">
        <ele>4.1999998092651</ele>
        <time>2022-01-27T08:26:45.000Z</time>
      </trkpt>
      <trkpt lat="47.26628" lon="-2.34093">
        <ele>4.1999998092651</ele>
        <time>2022-01-27T08:26:47.000Z</time>
      </trkpt>
      <trkpt lat="47.26645" lon="-2.34105">
        <ele>4.1999998092651</ele>
        <time>2022-01-27T08:26:51.000Z</time>
      </trkpt>
      <trkpt lat="47.26657" lon="-2.34113">
        <ele>4.1999998092651</ele>
        <time>2022-01-27T08:26:54.000Z</time>
      </trkpt>
      <trkpt lat="47.26681" lon="-2.34131">
        <ele>4.1999998092651</ele>
        <time>2022-01-27T08:27:00.000Z</time>
      </trkpt>
      <trkpt lat="47.26694" lon="-2.3414">
        <ele>4.1999998092651</ele>
        <time>2022-01-27T08:27:03.000Z</time>
      </trkpt>
      <trkpt lat="47.26706" lon="-2.34148">
        <ele>4.1999998092651</ele>
        <time>2022-01-27T08:27:06.000Z</time>
      </trkpt>
      <trkpt lat="47.26739" lon="-2.34171">
        <ele>4.1999998092651</ele>
        <time>2022-01-27T08:27:14.000Z</time>
      </trkpt>
      <trkpt lat="47.26763" lon="-2.34188">
        <ele>4.1999998092651</ele>
        <time>2022-01-27T08:27:20.000Z</time>
      </trkpt>
      <trkpt lat="47.26797" lon="-2.34214">
        <ele>4.1999998092651</ele>
        <time>2022-01-27T08:27:28.000Z</time>
      </trkpt>
      <trkpt lat="47.26813" lon="-2.34228">
        <ele>4.1999998092651</ele>
        <time>2022-01-27T08:27:32.000Z</time>
      </trkpt>
      <trkpt lat="47.26821" lon="-2.34236">
        <ele>4.1999998092651</ele>
        <time>2022-01-27T08:27:34.000Z</time>
      </trkpt>
      <trkpt lat="47.26825" lon="-2.34239">
        <ele>4.1999998092651</ele>
        <time>2022-01-27T08:27:35.000Z</time>
      </trkpt>
      <trkpt lat="47.26844" lon="-2.3425">
        <ele>4.1999998092651</ele>
        <time>2022-01-27T08:27:39.000Z</time>
      </trkpt>
      <trkpt lat="47.26861" lon="-2.34259">
        <ele>4.1999998092651</ele>
        <time>2022-01-27T08:27:43.000Z</time>
      </trkpt>
      <trkpt lat="47.2687" lon="-2.34265">
        <ele>4.1999998092651</ele>
        <time>2022-01-27T08:27:45.000Z</time>
      </trkpt>
      <trkpt lat="47.26902" lon="-2.34286">
        <ele>4.1999998092651</ele>
        <time>2022-01-27T08:27:52.000Z</time>
      </trkpt>
      <trkpt lat="47.26914" lon="-2.34295">
        <ele>4.1999998092651</ele>
        <time>2022-01-27T08:27:55.000Z</time>
      </trkpt>
      <trkpt lat="47.2692" lon="-2.34303">
        <ele>4.1999998092651</ele>
        <time>2022-01-27T08:27:57.000Z</time>
      </trkpt>
      <trkpt lat="47.26934" lon="-2.34305">
        <ele>4.1999998092651</ele>
        <time>2022-01-27T08:28:00.000Z</time>
      </trkpt>
      <trkpt lat="47.26939" lon="-2.34305">
        <ele>4.1999998092651</ele>
        <time>2022-01-27T08:28:01.000Z</time>
      </trkpt>
      <trkpt lat="47.26958" lon="-2.34308">
        <ele>4.1999998092651</ele>
        <time>2022-01-27T08:28:05.000Z</time>
      </trkpt>
      <trkpt lat="47.26967" lon="-2.34311">
        <ele>4.1999998092651</ele>
        <time>2022-01-27T08:28:07.000Z</time>
      </trkpt>
      <trkpt lat="47.26998" lon="-2.34317">
        <ele>4.1999998092651</ele>
        <time>2022-01-27T08:28:14.000Z</time>
      </trkpt>
      <trkpt lat="47.27029" lon="-2.34322">
        <ele>4.1999998092651</ele>
        <time>2022-01-27T08:28:21.000Z</time>
      </trkpt>
      <trkpt lat="47.27044" lon="-2.34331">
        <ele>4.1999998092651</ele>
        <time>2022-01-27T08:28:25.000Z</time>
      </trkpt>
      <trkpt lat="47.2705" lon="-2.34358">
        <ele>4.1999998092651</ele>
        <time>2022-01-27T08:28:29.000Z</time>
      </trkpt>
      <trkpt lat="47.27061" lon="-2.3441">
        <ele>4.1999998092651</ele>
        <time>2022-01-27T08:28:37.000Z</time>
      </trkpt>
      <trkpt lat="47.2707" lon="-2.3445">
        <ele>4.1999998092651</ele>
        <time>2022-01-27T08:28:43.000Z</time>
      </trkpt>
      <trkpt lat="47.27071" lon="-2.34456">
        <ele>4.1999998092651</ele>
        <time>2022-01-27T08:28:44.000Z</time>
      </trkpt>
      <trkpt lat="47.27079" lon="-2.34495">
        <ele>4.1999998092651</ele>
        <time>2022-01-27T08:28:50.000Z</time>
      </trkpt>
      <trkpt lat="47.27084" lon="-2.34522">
        <ele>4.5999999046326</ele>
        <time>2022-01-27T08:28:54.000Z</time>
      </trkpt>
      <trkpt lat="47.27086" lon="-2.34529">
        <ele>5</ele>
        <time>2022-01-27T08:28:55.000Z</time>
      </trkpt>
      <trkpt lat="47.27087" lon="-2.34535">
        <ele>5.8000001907349</ele>
        <time>2022-01-27T08:28:56.000Z</time>
      </trkpt>
      <trkpt lat="47.27089" lon="-2.34541">
        <ele>6.1999998092651</ele>
        <time>2022-01-27T08:28:57.000Z</time>
      </trkpt>
      <trkpt lat="47.27091" lon="-2.34547">
        <ele>6.1999998092651</ele>
        <time>2022-01-27T08:28:58.000Z</time>
      </trkpt>
      <trkpt lat="47.27104" lon="-2.346">
        <ele>6.1999998092651</ele>
        <time>2022-01-27T08:29:06.000Z</time>
      </trkpt>
      <trkpt lat="47.27116" lon="-2.34653">
        <ele>6.1999998092651</ele>
        <time>2022-01-27T08:29:13.000Z</time>
      </trkpt>
      <trkpt lat="47.27127" lon="-2.34714">
        <ele>6.1999998092651</ele>
        <time>2022-01-27T08:29:21.000Z</time>
      </trkpt>
      <trkpt lat="47.27137" lon="-2.34765">
        <ele>6.1999998092651</ele>
        <time>2022-01-27T08:29:28.000Z</time>
      </trkpt>
      <trkpt lat="47.27148" lon="-2.34816">
        <ele>6.1999998092651</ele>
        <time>2022-01-27T08:29:35.000Z</time>
      </trkpt>
      <trkpt lat="47.27158" lon="-2.34866">
        <ele>6.1999998092651</ele>
        <time>2022-01-27T08:29:42.000Z</time>
      </trkpt>
      <trkpt lat="47.27172" lon="-2.34914">
        <ele>6.1999998092651</ele>
        <time>2022-01-27T08:29:49.000Z</time>
      </trkpt>
      <trkpt lat="47.2719" lon="-2.34967">
        <ele>6.1999998092651</ele>
        <time>2022-01-27T08:29:57.000Z</time>
      </trkpt>
      <trkpt lat="47.27206" lon="-2.35015">
        <ele>6.1999998092651</ele>
        <time>2022-01-27T08:30:05.000Z</time>
      </trkpt>
      <trkpt lat="47.27209" lon="-2.3502">
        <ele>6.5999999046326</ele>
        <time>2022-01-27T08:30:06.000Z</time>
      </trkpt>
      <trkpt lat="47.27211" lon="-2.35026">
        <ele>7</ele>
        <time>2022-01-27T08:30:07.000Z</time>
      </trkpt>
      <trkpt lat="47.27213" lon="-2.35033">
        <ele>7.4000000953674</ele>
        <time>2022-01-27T08:30:08.000Z</time>
      </trkpt>
      <trkpt lat="47.27216" lon="-2.3504">
        <ele>8.3999996185303</ele>
        <time>2022-01-27T08:30:09.000Z</time>
      </trkpt>
      <trkpt lat="47.27225" lon="-2.35066">
        <ele>8.3999996185303</ele>
        <time>2022-01-27T08:30:13.000Z</time>
      </trkpt>
      <trkpt lat="47.27245" lon="-2.35109">
        <ele>8.3999996185303</ele>
        <time>2022-01-27T08:30:20.000Z</time>
      </trkpt>
      <trkpt lat="47.27252" lon="-2.35125">
        <ele>8.3999996185303</ele>
        <time>2022-01-27T08:30:23.000Z</time>
      </trkpt>
      <trkpt lat="47.27258" lon="-2.35123">
        <ele>8.3999996185303</ele>
        <time>2022-01-27T08:30:24.000Z</time>
      </trkpt>
      <trkpt lat="47.27269" lon="-2.35119">
        <ele>8.3999996185303</ele>
        <time>2022-01-27T08:30:27.000Z</time>
      </trkpt>
      <trkpt lat="47.27283" lon="-2.35111">
        <ele>8.3999996185303</ele>
        <time>2022-01-27T08:30:31.000Z</time>
      </trkpt>
      <trkpt lat="47.27298" lon="-2.35107">
        <ele>8.3999996185303</ele>
        <time>2022-01-27T08:30:37.000Z</time>
      </trkpt>
      <trkpt lat="47.27308" lon="-2.35099">
        <ele>8.3999996185303</ele>
        <time>2022-01-27T08:30:42.000Z</time>
      </trkpt>
      <trkpt lat="47.27315" lon="-2.35093">
        <ele>8.8000001907349</ele>
        <time>2022-01-27T08:30:45.000Z</time>
      </trkpt>
      <trkpt lat="47.27318" lon="-2.35092">
        <ele>9.1999998092651</ele>
        <time>2022-01-27T08:30:46.000Z</time>
      </trkpt>
      <trkpt lat="47.27321" lon="-2.35091">
        <ele>9.6000003814697</ele>
        <time>2022-01-27T08:30:47.000Z</time>
      </trkpt>
      <trkpt lat="47.27324" lon="-2.3509">
        <ele>10</ele>
        <time>2022-01-27T08:30:48.000Z</time>
      </trkpt>
      <trkpt lat="47.27327" lon="-2.35089">
        <ele>10.39999961853</ele>
        <time>2022-01-27T08:30:49.000Z</time>
      </trkpt>
      <trkpt lat="47.27338" lon="-2.35084">
        <ele>10.800000190735</ele>
        <time>2022-01-27T08:30:53.000Z</time>
      </trkpt>
      <trkpt lat="47.2734" lon="-2.35083">
        <ele>11.39999961853</ele>
        <time>2022-01-27T08:30:54.000Z</time>
      </trkpt>
      <trkpt lat="47.27343" lon="-2.35081">
        <ele>11.800000190735</ele>
        <time>2022-01-27T08:30:55.000Z</time>
      </trkpt>
      <trkpt lat="47.27346" lon="-2.35079">
        <ele>12.199999809265</ele>
        <time>2022-01-27T08:30:56.000Z</time>
      </trkpt>
      <trkpt lat="47.27349" lon="-2.35078">
        <ele>12.60000038147</ele>
        <time>2022-01-27T08:30:57.000Z</time>
      </trkpt>
      <trkpt lat="47.2736" lon="-2.35071">
        <ele>12.60000038147</ele>
        <time>2022-01-27T08:31:00.000Z</time>
      </trkpt>
      <trkpt lat="47.27374" lon="-2.35063">
        <ele>13.199999809265</ele>
        <time>2022-01-27T08:31:04.000Z</time>
      </trkpt>
      <trkpt lat="47.27377" lon="-2.35061">
        <ele>13.60000038147</ele>
        <time>2022-01-27T08:31:05.000Z</time>
      </trkpt>
      <trkpt lat="47.2738" lon="-2.3506">
        <ele>14</ele>
        <time>2022-01-27T08:31:06.000Z</time>
      </trkpt>
      <trkpt lat="47.27383" lon="-2.35059">
        <ele>14.39999961853</ele>
        <time>2022-01-27T08:31:07.000Z</time>
      </trkpt>
      <trkpt lat="47.27386" lon="-2.35059">
        <ele>14.800000190735</ele>
        <time>2022-01-27T08:31:08.000Z</time>
      </trkpt>
      <trkpt lat="47.27396" lon="-2.3506">
        <ele>14.800000190735</ele>
        <time>2022-01-27T08:31:12.000Z</time>
      </trkpt>
      <trkpt lat="47.27404" lon="-2.35077">
        <ele>14.800000190735</ele>
        <time>2022-01-27T08:31:16.000Z</time>
      </trkpt>
      <trkpt lat="47.27407" lon="-2.35087">
        <ele>14.800000190735</ele>
        <time>2022-01-27T08:31:18.000Z</time>
      </trkpt>
      <trkpt lat="47.27414" lon="-2.35117">
        <ele>14.800000190735</ele>
        <time>2022-01-27T08:31:24.000Z</time>
      </trkpt>
      <trkpt lat="47.27415" lon="-2.35122">
        <ele>15.199999809265</ele>
        <time>2022-01-27T08:31:25.000Z</time>
      </trkpt>
      <trkpt lat="47.27416" lon="-2.35127">
        <ele>15.60000038147</ele>
        <time>2022-01-27T08:31:26.000Z</time>
      </trkpt>
      <trkpt lat="47.27417" lon="-2.35132">
        <ele>16</ele>
        <time>2022-01-27T08:31:27.000Z</time>
      </trkpt>
      <trkpt lat="47.27419" lon="-2.35137">
        <ele>16.39999961853</ele>
        <time>2022-01-27T08:31:28.000Z</time>
      </trkpt>
      <trkpt lat="47.2742" lon="-2.35142">
        <ele>16.799999237061</ele>
        <time>2022-01-27T08:31:29.000Z</time>
      </trkpt>
      <trkpt lat="47.27421" lon="-2.35147">
        <ele>16.799999237061</ele>
        <time>2022-01-27T08:31:30.000Z</time>
      </trkpt>
      <trkpt lat="47.27428" lon="-2.35171">
        <ele>16.799999237061</ele>
        <time>2022-01-27T08:31:35.000Z</time>
      </trkpt>
      <trkpt lat="47.27431" lon="-2.35173">
        <ele>16.799999237061</ele>
        <time>2022-01-27T08:31:36.000Z</time>
      </trkpt>
      <trkpt lat="47.27446" lon="-2.35171">
        <ele>16.799999237061</ele>
        <time>2022-01-27T08:31:41.000Z</time>
      </trkpt>
      <trkpt lat="47.27457" lon="-2.35162">
        <ele>16.799999237061</ele>
        <time>2022-01-27T08:31:44.000Z</time>
      </trkpt>
      <trkpt lat="47.27472" lon="-2.35152">
        <ele>16.799999237061</ele>
        <time>2022-01-27T08:31:48.000Z</time>
      </trkpt>
      <trkpt lat="47.27498" lon="-2.35135">
        <ele>17.200000762939</ele>
        <time>2022-01-27T08:31:56.000Z</time>
      </trkpt>
      <trkpt lat="47.275" lon="-2.35132">
        <ele>17.60000038147</ele>
        <time>2022-01-27T08:31:57.000Z</time>
      </trkpt>
      <trkpt lat="47.27502" lon="-2.35128">
        <ele>18</ele>
        <time>2022-01-27T08:31:58.000Z</time>
      </trkpt>
      <trkpt lat="47.27505" lon="-2.35126">
        <ele>18.39999961853</ele>
        <time>2022-01-27T08:31:59.000Z</time>
      </trkpt>
      <trkpt lat="47.27508" lon="-2.35127">
        <ele>18.799999237061</ele>
        <time>2022-01-27T08:32:00.000Z</time>
      </trkpt>
      <trkpt lat="47.27528" lon="-2.35135">
        <ele>18.799999237061</ele>
        <time>2022-01-27T08:32:06.000Z</time>
      </trkpt>
      <trkpt lat="47.27549" lon="-2.35137">
        <ele>18.799999237061</ele>
        <time>2022-01-27T08:32:11.000Z</time>
      </trkpt>
      <trkpt lat="47.27572" lon="-2.35131">
        <ele>18.799999237061</ele>
        <time>2022-01-27T08:32:17.000Z</time>
      </trkpt>
      <trkpt lat="47.27585" lon="-2.35131">
        <ele>18.799999237061</ele>
        <time>2022-01-27T08:32:20.000Z</time>
      </trkpt>
      <trkpt lat="47.27593" lon="-2.35131">
        <ele>18.799999237061</ele>
        <time>2022-01-27T08:32:22.000Z</time>
      </trkpt>
      <trkpt lat="47.27608" lon="-2.3514">
        <ele>18.799999237061</ele>
        <time>2022-01-27T08:32:26.000Z</time>
      </trkpt>
      <trkpt lat="47.27616" lon="-2.35146">
        <ele>18.799999237061</ele>
        <time>2022-01-27T08:32:29.000Z</time>
      </trkpt>
      <trkpt lat="47.2763" lon="-2.35148">
        <ele>18.799999237061</ele>
        <time>2022-01-27T08:32:33.000Z</time>
      </trkpt>
      <trkpt lat="47.27642" lon="-2.35143">
        <ele>18.799999237061</ele>
        <time>2022-01-27T08:32:36.000Z</time>
      </trkpt>
      <trkpt lat="47.27652" lon="-2.35146">
        <ele>18.799999237061</ele>
        <time>2022-01-27T08:32:39.000Z</time>
      </trkpt>
      <trkpt lat="47.27656" lon="-2.35149">
        <ele>18.799999237061</ele>
        <time>2022-01-27T08:32:40.000Z</time>
      </trkpt>
      <trkpt lat="47.2766" lon="-2.35151">
        <ele>18.799999237061</ele>
        <time>2022-01-27T08:32:41.000Z</time>
      </trkpt>
      <trkpt lat="47.27669" lon="-2.35154">
        <ele>18.799999237061</ele>
        <time>2022-01-27T08:32:43.000Z</time>
      </trkpt>
      <trkpt lat="47.27676" lon="-2.35167">
        <ele>18.799999237061</ele>
        <time>2022-01-27T08:32:46.000Z</time>
      </trkpt>
      <trkpt lat="47.27676" lon="-2.35172">
        <ele>18.39999961853</ele>
        <time>2022-01-27T08:32:47.000Z</time>
      </trkpt>
      <trkpt lat="47.27677" lon="-2.35178">
        <ele>18</ele>
        <time>2022-01-27T08:32:48.000Z</time>
      </trkpt>
      <trkpt lat="47.27677" lon="-2.35186">
        <ele>17.60000038147</ele>
        <time>2022-01-27T08:32:49.000Z</time>
      </trkpt>
      <trkpt lat="47.27678" lon="-2.35193">
        <ele>17.200000762939</ele>
        <time>2022-01-27T08:32:50.000Z</time>
      </trkpt>
      <trkpt lat="47.27678" lon="-2.352">
        <ele>16.799999237061</ele>
        <time>2022-01-27T08:32:51.000Z</time>
      </trkpt>
      <trkpt lat="47.27681" lon="-2.35217">
        <ele>16.799999237061</ele>
        <time>2022-01-27T08:32:54.000Z</time>
      </trkpt>
      <trkpt lat="47.27684" lon="-2.35219">
        <ele>16.799999237061</ele>
        <time>2022-01-27T08:32:55.000Z</time>
      </trkpt>
      <trkpt lat="47.27692" lon="-2.35217">
        <ele>16</ele>
        <time>2022-01-27T08:32:57.000Z</time>
      </trkpt>
      <trkpt lat="47.27696" lon="-2.35216">
        <ele>15.39999961853</ele>
        <time>2022-01-27T08:32:58.000Z</time>
      </trkpt>
      <trkpt lat="47.277" lon="-2.35215">
        <ele>15</ele>
        <time>2022-01-27T08:32:59.000Z</time>
      </trkpt>
      <trkpt lat="47.27704" lon="-2.35214">
        <ele>14.60000038147</ele>
        <time>2022-01-27T08:33:00.000Z</time>
      </trkpt>
      <trkpt lat="47.27714" lon="-2.35211">
        <ele>14.60000038147</ele>
        <time>2022-01-27T08:33:02.000Z</time>
      </trkpt>
      <trkpt lat="47.27724" lon="-2.35209">
        <ele>14.60000038147</ele>
        <time>2022-01-27T08:33:04.000Z</time>
      </trkpt>
      <trkpt lat="47.27759" lon="-2.35199">
        <ele>14.60000038147</ele>
        <time>2022-01-27T08:33:11.000Z</time>
      </trkpt>
      <trkpt lat="47.27764" lon="-2.35198">
        <ele>14.60000038147</ele>
        <time>2022-01-27T08:33:12.000Z</time>
      </trkpt>
      <trkpt lat="47.27769" lon="-2.35198">
        <ele>14.199999809265</ele>
        <time>2022-01-27T08:33:14.000Z</time>
      </trkpt>
      <trkpt lat="47.2777" lon="-2.35198">
        <ele>13.800000190735</ele>
        <time>2022-01-27T08:33:15.000Z</time>
      </trkpt>
      <trkpt lat="47.2777" lon="-2.35199">
        <ele>13.39999961853</ele>
        <time>2022-01-27T08:33:16.000Z</time>
      </trkpt>
      <trkpt lat="47.2777" lon="-2.35199">
        <ele>12.800000190735</ele>
        <time>2022-01-27T08:33:17.000Z</time>
      </trkpt>
      <trkpt lat="47.27771" lon="-2.352">
        <ele>12.39999961853</ele>
        <time>2022-01-27T08:33:18.000Z</time>
      </trkpt>
      <trkpt lat="47.27773" lon="-2.35202">
        <ele>12.39999961853</ele>
        <time>2022-01-27T08:33:19.000Z</time>
      </trkpt>
      <trkpt lat="47.27779" lon="-2.35217">
        <ele>12.39999961853</ele>
        <time>2022-01-27T08:33:23.000Z</time>
      </trkpt>
      <trkpt lat="47.27781" lon="-2.35228">
        <ele>12.39999961853</ele>
        <time>2022-01-27T08:33:25.000Z</time>
      </trkpt>
      <trkpt lat="47.27785" lon="-2.35247">
        <ele>12.39999961853</ele>
        <time>2022-01-27T08:33:28.000Z</time>
      </trkpt>
      <trkpt lat="47.27791" lon="-2.35288">
        <ele>12.39999961853</ele>
        <time>2022-01-27T08:33:34.000Z</time>
      </trkpt>
      <trkpt lat="47.27793" lon="-2.35295">
        <ele>12.39999961853</ele>
        <time>2022-01-27T08:33:35.000Z</time>
      </trkpt>
      <trkpt lat="47.27806" lon="-2.35348">
        <ele>12.39999961853</ele>
        <time>2022-01-27T08:33:43.000Z</time>
      </trkpt>
      <trkpt lat="47.27821" lon="-2.35361">
        <ele>12.39999961853</ele>
        <time>2022-01-27T08:33:47.000Z</time>
      </trkpt>
      <trkpt lat="47.27825" lon="-2.35361">
        <ele>12.39999961853</ele>
        <time>2022-01-27T08:33:48.000Z</time>
      </trkpt>
      <trkpt lat="47.27852" lon="-2.35359">
        <ele>12.39999961853</ele>
        <time>2022-01-27T08:33:54.000Z</time>
      </trkpt>
      <trkpt lat="47.27868" lon="-2.35359">
        <ele>12.39999961853</ele>
        <time>2022-01-27T08:33:58.000Z</time>
      </trkpt>
      <trkpt lat="47.27879" lon="-2.35365">
        <ele>12.39999961853</ele>
        <time>2022-01-27T08:34:01.000Z</time>
      </trkpt>
      <trkpt lat="47.27888" lon="-2.35377">
        <ele>12.39999961853</ele>
        <time>2022-01-27T08:34:04.000Z</time>
      </trkpt>
      <trkpt lat="47.27897" lon="-2.3539">
        <ele>12.800000190735</ele>
        <time>2022-01-27T08:34:07.000Z</time>
      </trkpt>
      <trkpt lat="47.279" lon="-2.35395">
        <ele>13.199999809265</ele>
        <time>2022-01-27T08:34:08.000Z</time>
      </trkpt>
      <trkpt lat="47.27903" lon="-2.35399">
        <ele>13.60000038147</ele>
        <time>2022-01-27T08:34:09.000Z</time>
      </trkpt>
      <trkpt lat="47.27906" lon="-2.35403">
        <ele>14</ele>
        <time>2022-01-27T08:34:10.000Z</time>
      </trkpt>
      <trkpt lat="47.27909" lon="-2.35408">
        <ele>14.39999961853</ele>
        <time>2022-01-27T08:34:11.000Z</time>
      </trkpt>
      <trkpt lat="47.27913" lon="-2.35412">
        <ele>14.39999961853</ele>
        <time>2022-01-27T08:34:12.000Z</time>
      </trkpt>
      <trkpt lat="47.2792" lon="-2.3542">
        <ele>14.39999961853</ele>
        <time>2022-01-27T08:34:14.000Z</time>
      </trkpt>
      <trkpt lat="47.27937" lon="-2.35443">
        <ele>14.39999961853</ele>
        <time>2022-01-27T08:34:19.000Z</time>
      </trkpt>
      <trkpt lat="47.27945" lon="-2.35451">
        <ele>14.39999961853</ele>
        <time>2022-01-27T08:34:21.000Z</time>
      </trkpt>
      <trkpt lat="47.27957" lon="-2.35461">
        <ele>14.39999961853</ele>
        <time>2022-01-27T08:34:24.000Z</time>
      </trkpt>
      <trkpt lat="47.2797" lon="-2.35467">
        <ele>14.39999961853</ele>
        <time>2022-01-27T08:34:27.000Z</time>
      </trkpt>
      <trkpt lat="47.27983" lon="-2.35485">
        <ele>14.39999961853</ele>
        <time>2022-01-27T08:34:31.000Z</time>
      </trkpt>
      <trkpt lat="47.27986" lon="-2.3549">
        <ele>14.39999961853</ele>
        <time>2022-01-27T08:34:32.000Z</time>
      </trkpt>
      <trkpt lat="47.27991" lon="-2.35501">
        <ele>14.39999961853</ele>
        <time>2022-01-27T08:34:34.000Z</time>
      </trkpt>
      <trkpt lat="47.27998" lon="-2.35515">
        <ele>14.39999961853</ele>
        <time>2022-01-27T08:34:37.000Z</time>
      </trkpt>
      <trkpt lat="47.28007" lon="-2.35542">
        <ele>14.39999961853</ele>
        <time>2022-01-27T08:34:43.000Z</time>
      </trkpt>
      <trkpt lat="47.28014" lon="-2.35564">
        <ele>14.39999961853</ele>
        <time>2022-01-27T08:34:49.000Z</time>
      </trkpt>
      <trkpt lat="47.28016" lon="-2.35565">
        <ele>14.39999961853</ele>
        <time>2022-01-27T08:34:50.000Z</time>
      </trkpt>
      <trkpt lat="47.28019" lon="-2.35565">
        <ele>14.800000190735</ele>
        <time>2022-01-27T08:34:51.000Z</time>
      </trkpt>
      <trkpt lat="47.28022" lon="-2.35564">
        <ele>15.199999809265</ele>
        <time>2022-01-27T08:34:52.000Z</time>
      </trkpt>
      <trkpt lat="47.28025" lon="-2.35564">
        <ele>15.60000038147</ele>
        <time>2022-01-27T08:34:53.000Z</time>
      </trkpt>
      <trkpt lat="47.28028" lon="-2.35565">
        <ele>16</ele>
        <time>2022-01-27T08:34:54.000Z</time>
      </trkpt>
      <trkpt lat="47.28031" lon="-2.35567">
        <ele>16.60000038147</ele>
        <time>2022-01-27T08:34:55.000Z</time>
      </trkpt>
      <trkpt lat="47.28034" lon="-2.35569">
        <ele>16.60000038147</ele>
        <time>2022-01-27T08:34:56.000Z</time>
      </trkpt>
      <trkpt lat="47.28052" lon="-2.35575">
        <ele>16.60000038147</ele>
        <time>2022-01-27T08:35:02.000Z</time>
      </trkpt>
      <trkpt lat="47.28063" lon="-2.35579">
        <ele>16.60000038147</ele>
        <time>2022-01-27T08:35:08.000Z</time>
      </trkpt>
      <trkpt lat="47.28065" lon="-2.35581">
        <ele>16.60000038147</ele>
        <time>2022-01-27T08:35:10.000Z</time>
      </trkpt>
      <trkpt lat="47.28065" lon="-2.35581">
        <ele>16.60000038147</ele>
        <time>2022-01-27T08:35:12.000Z</time>
      </trkpt>
      <trkpt lat="47.28059" lon="-2.35577">
        <ele>18.60000038147</ele>
        <time>2022-01-27T08:40:42.000Z</time>
      </trkpt>
      <trkpt lat="47.28048" lon="-2.35573">
        <ele>18.60000038147</ele>
        <time>2022-01-27T08:40:47.000Z</time>
      </trkpt>
      <trkpt lat="47.28035" lon="-2.35567">
        <ele>18.60000038147</ele>
        <time>2022-01-27T08:40:51.000Z</time>
      </trkpt>
      <trkpt lat="47.28034" lon="-2.35563">
        <ele>18.60000038147</ele>
        <time>2022-01-27T08:40:52.000Z</time>
      </trkpt>
      <trkpt lat="47.28035" lon="-2.35554">
        <ele>18.200000762939</ele>
        <time>2022-01-27T08:40:54.000Z</time>
      </trkpt>
      <trkpt lat="47.28037" lon="-2.35551">
        <ele>17.799999237061</ele>
        <time>2022-01-27T08:40:55.000Z</time>
      </trkpt>
      <trkpt lat="47.28039" lon="-2.35548">
        <ele>17.39999961853</ele>
        <time>2022-01-27T08:40:56.000Z</time>
      </trkpt>
      <trkpt lat="47.28043" lon="-2.35548">
        <ele>17</ele>
        <time>2022-01-27T08:40:57.000Z</time>
      </trkpt>
      <trkpt lat="47.28047" lon="-2.35547">
        <ele>16.60000038147</ele>
        <time>2022-01-27T08:40:58.000Z</time>
      </trkpt>
      <trkpt lat="47.28065" lon="-2.35547">
        <ele>16.60000038147</ele>
        <time>2022-01-27T08:41:03.000Z</time>
      </trkpt>
      <trkpt lat="47.28075" lon="-2.35548">
        <ele>16.60000038147</ele>
        <time>2022-01-27T08:41:07.000Z</time>
      </trkpt>
      <trkpt lat="47.28076" lon="-2.35545">
        <ele>16.60000038147</ele>
        <time>2022-01-27T08:41:11.000Z</time>
      </trkpt>
      <trkpt lat="47.28076" lon="-2.35541">
        <ele>16.60000038147</ele>
        <time>2022-01-27T08:41:13.000Z</time>
      </trkpt>
      <trkpt lat="47.28076" lon="-2.35531">
        <ele>16.60000038147</ele>
        <time>2022-01-27T08:41:16.000Z</time>
      </trkpt>
      <trkpt lat="47.28075" lon="-2.35506">
        <ele>16.60000038147</ele>
        <time>2022-01-27T08:41:21.000Z</time>
      </trkpt>
      <trkpt lat="47.28064" lon="-2.35496">
        <ele>16.60000038147</ele>
        <time>2022-01-27T08:41:25.000Z</time>
      </trkpt>
      <trkpt lat="47.2806" lon="-2.35495">
        <ele>16.60000038147</ele>
        <time>2022-01-27T08:41:26.000Z</time>
      </trkpt>
      <trkpt lat="47.28051" lon="-2.35492">
        <ele>16.60000038147</ele>
        <time>2022-01-27T08:41:28.000Z</time>
      </trkpt>
      <trkpt lat="47.28044" lon="-2.35487">
        <ele>16.60000038147</ele>
        <time>2022-01-27T08:41:30.000Z</time>
      </trkpt>
      <trkpt lat="47.28036" lon="-2.35482">
        <ele>16.60000038147</ele>
        <time>2022-01-27T08:41:32.000Z</time>
      </trkpt>
      <trkpt lat="47.28023" lon="-2.35472">
        <ele>16.60000038147</ele>
        <time>2022-01-27T08:41:35.000Z</time>
      </trkpt>
      <trkpt lat="47.28015" lon="-2.35468">
        <ele>16.60000038147</ele>
        <time>2022-01-27T08:41:37.000Z</time>
      </trkpt>
      <trkpt lat="47.27998" lon="-2.35462">
        <ele>16.60000038147</ele>
        <time>2022-01-27T08:41:41.000Z</time>
      </trkpt>
      <trkpt lat="47.27983" lon="-2.35458">
        <ele>16</ele>
        <time>2022-01-27T08:41:44.000Z</time>
      </trkpt>
      <trkpt lat="47.27979" lon="-2.35458">
        <ele>15.60000038147</ele>
        <time>2022-01-27T08:41:45.000Z</time>
      </trkpt>
      <trkpt lat="47.27974" lon="-2.35459">
        <ele>15.199999809265</ele>
        <time>2022-01-27T08:41:46.000Z</time>
      </trkpt>
      <trkpt lat="47.27969" lon="-2.35459">
        <ele>14.800000190735</ele>
        <time>2022-01-27T08:41:47.000Z</time>
      </trkpt>
      <trkpt lat="47.27964" lon="-2.3546">
        <ele>14.39999961853</ele>
        <time>2022-01-27T08:41:48.000Z</time>
      </trkpt>
      <trkpt lat="47.27959" lon="-2.35459">
        <ele>14.39999961853</ele>
        <time>2022-01-27T08:41:49.000Z</time>
      </trkpt>
      <trkpt lat="47.27953" lon="-2.35451">
        <ele>14.39999961853</ele>
        <time>2022-01-27T08:41:51.000Z</time>
      </trkpt>
      <trkpt lat="47.27948" lon="-2.35436">
        <ele>14.39999961853</ele>
        <time>2022-01-27T08:41:54.000Z</time>
      </trkpt>
      <trkpt lat="47.27942" lon="-2.35428">
        <ele>14.39999961853</ele>
        <time>2022-01-27T08:41:56.000Z</time>
      </trkpt>
      <trkpt lat="47.27935" lon="-2.35413">
        <ele>14.39999961853</ele>
        <time>2022-01-27T08:41:59.000Z</time>
      </trkpt>
      <trkpt lat="47.27931" lon="-2.35387">
        <ele>14.39999961853</ele>
        <time>2022-01-27T08:42:03.000Z</time>
      </trkpt>
      <trkpt lat="47.27929" lon="-2.35373">
        <ele>14.39999961853</ele>
        <time>2022-01-27T08:42:05.000Z</time>
      </trkpt>
      <trkpt lat="47.27929" lon="-2.35344">
        <ele>14.39999961853</ele>
        <time>2022-01-27T08:42:10.000Z</time>
      </trkpt>
      <trkpt lat="47.27924" lon="-2.35318">
        <ele>14.39999961853</ele>
        <time>2022-01-27T08:42:15.000Z</time>
      </trkpt>
      <trkpt lat="47.27923" lon="-2.35307">
        <ele>14.39999961853</ele>
        <time>2022-01-27T08:42:17.000Z</time>
      </trkpt>
      <trkpt lat="47.27924" lon="-2.35296">
        <ele>14.39999961853</ele>
        <time>2022-01-27T08:42:19.000Z</time>
      </trkpt>
      <trkpt lat="47.27924" lon="-2.3529">
        <ele>14.39999961853</ele>
        <time>2022-01-27T08:42:20.000Z</time>
      </trkpt>
      <trkpt lat="47.27922" lon="-2.35264">
        <ele>14.39999961853</ele>
        <time>2022-01-27T08:42:24.000Z</time>
      </trkpt>
      <trkpt lat="47.27914" lon="-2.35224">
        <ele>14.39999961853</ele>
        <time>2022-01-27T08:42:30.000Z</time>
      </trkpt>
      <trkpt lat="47.27909" lon="-2.35182">
        <ele>14.39999961853</ele>
        <time>2022-01-27T08:42:36.000Z</time>
      </trkpt>
      <trkpt lat="47.27909" lon="-2.35175">
        <ele>14.39999961853</ele>
        <time>2022-01-27T08:42:37.000Z</time>
      </trkpt>
      <trkpt lat="47.27907" lon="-2.35149">
        <ele>14.39999961853</ele>
        <time>2022-01-27T08:42:41.000Z</time>
      </trkpt>
      <trkpt lat="47.27906" lon="-2.35136">
        <ele>14.39999961853</ele>
        <time>2022-01-27T08:42:43.000Z</time>
      </trkpt>
      <trkpt lat="47.27905" lon="-2.35093">
        <ele>14.39999961853</ele>
        <time>2022-01-27T08:42:50.000Z</time>
      </trkpt>
      <trkpt lat="47.27905" lon="-2.35075">
        <ele>14.800000190735</ele>
        <time>2022-01-27T08:42:53.000Z</time>
      </trkpt>
      <trkpt lat="47.27905" lon="-2.35069">
        <ele>15.39999961853</ele>
        <time>2022-01-27T08:42:54.000Z</time>
      </trkpt>
      <trkpt lat="47.27904" lon="-2.35063">
        <ele>15.800000190735</ele>
        <time>2022-01-27T08:42:55.000Z</time>
      </trkpt>
      <trkpt lat="47.27904" lon="-2.35058">
        <ele>16.200000762939</ele>
        <time>2022-01-27T08:42:56.000Z</time>
      </trkpt>
      <trkpt lat="47.27903" lon="-2.35052">
        <ele>16.60000038147</ele>
        <time>2022-01-27T08:42:57.000Z</time>
      </trkpt>
      <trkpt lat="47.27902" lon="-2.35046">
        <ele>16.60000038147</ele>
        <time>2022-01-27T08:42:58.000Z</time>
      </trkpt>
      <trkpt lat="47.27899" lon="-2.35035">
        <ele>16.60000038147</ele>
        <time>2022-01-27T08:43:00.000Z</time>
      </trkpt>
      <trkpt lat="47.27895" lon="-2.35013">
        <ele>16.60000038147</ele>
        <time>2022-01-27T08:43:04.000Z</time>
      </trkpt>
      <trkpt lat="47.27897" lon="-2.35004">
        <ele>16.60000038147</ele>
        <time>2022-01-27T08:43:06.000Z</time>
      </trkpt>
      <trkpt lat="47.279" lon="-2.34996">
        <ele>16.60000038147</ele>
        <time>2022-01-27T08:43:08.000Z</time>
      </trkpt>
      <trkpt lat="47.27909" lon="-2.34985">
        <ele>16.60000038147</ele>
        <time>2022-01-27T08:43:11.000Z</time>
      </trkpt>
      <trkpt lat="47.27916" lon="-2.34978">
        <ele>16.60000038147</ele>
        <time>2022-01-27T08:43:13.000Z</time>
      </trkpt>
      <trkpt lat="47.27936" lon="-2.34955">
        <ele>17</ele>
        <time>2022-01-27T08:43:19.000Z</time>
      </trkpt>
      <trkpt lat="47.2794" lon="-2.34951">
        <ele>17.39999961853</ele>
        <time>2022-01-27T08:43:20.000Z</time>
      </trkpt>
      <trkpt lat="47.27944" lon="-2.34947">
        <ele>17.799999237061</ele>
        <time>2022-01-27T08:43:21.000Z</time>
      </trkpt>
      <trkpt lat="47.27948" lon="-2.34943">
        <ele>18.200000762939</ele>
        <time>2022-01-27T08:43:22.000Z</time>
      </trkpt>
      <trkpt lat="47.27952" lon="-2.34939">
        <ele>18.799999237061</ele>
        <time>2022-01-27T08:43:23.000Z</time>
      </trkpt>
      <trkpt lat="47.27968" lon="-2.34922">
        <ele>18.799999237061</ele>
        <time>2022-01-27T08:43:27.000Z</time>
      </trkpt>
      <trkpt lat="47.27972" lon="-2.34918">
        <ele>18.799999237061</ele>
        <time>2022-01-27T08:43:28.000Z</time>
      </trkpt>
      <trkpt lat="47.27993" lon="-2.34897">
        <ele>18.799999237061</ele>
        <time>2022-01-27T08:43:33.000Z</time>
      </trkpt>
      <trkpt lat="47.27997" lon="-2.34894">
        <ele>18.799999237061</ele>
        <time>2022-01-27T08:43:34.000Z</time>
      </trkpt>
      <trkpt lat="47.28019" lon="-2.3488">
        <ele>18.799999237061</ele>
        <time>2022-01-27T08:43:39.000Z</time>
      </trkpt>
      <trkpt lat="47.28032" lon="-2.34873">
        <ele>18.799999237061</ele>
        <time>2022-01-27T08:43:42.000Z</time>
      </trkpt>
      <trkpt lat="47.28042" lon="-2.34866">
        <ele>18.799999237061</ele>
        <time>2022-01-27T08:43:45.000Z</time>
      </trkpt>
      <trkpt lat="47.28041" lon="-2.34851">
        <ele>18.799999237061</ele>
        <time>2022-01-27T08:43:48.000Z</time>
      </trkpt>
      <trkpt lat="47.28036" lon="-2.34841">
        <ele>18.799999237061</ele>
        <time>2022-01-27T08:43:50.000Z</time>
      </trkpt>
      <trkpt lat="47.28026" lon="-2.34819">
        <ele>19.200000762939</ele>
        <time>2022-01-27T08:43:54.000Z</time>
      </trkpt>
      <trkpt lat="47.28024" lon="-2.34813">
        <ele>19.60000038147</ele>
        <time>2022-01-27T08:43:55.000Z</time>
      </trkpt>
      <trkpt lat="47.28022" lon="-2.34807">
        <ele>20</ele>
        <time>2022-01-27T08:43:56.000Z</time>
      </trkpt>
      <trkpt lat="47.28019" lon="-2.34801">
        <ele>20.39999961853</ele>
        <time>2022-01-27T08:43:57.000Z</time>
      </trkpt>
      <trkpt lat="47.28017" lon="-2.34795">
        <ele>20.799999237061</ele>
        <time>2022-01-27T08:43:58.000Z</time>
      </trkpt>
      <trkpt lat="47.28009" lon="-2.34774">
        <ele>20.799999237061</ele>
        <time>2022-01-27T08:44:02.000Z</time>
      </trkpt>
      <trkpt lat="47.28003" lon="-2.34744">
        <ele>20.799999237061</ele>
        <time>2022-01-27T08:44:07.000Z</time>
      </trkpt>
      <trkpt lat="47.28002" lon="-2.34738">
        <ele>20.799999237061</ele>
        <time>2022-01-27T08:44:08.000Z</time>
      </trkpt>
      <trkpt lat="47.28002" lon="-2.34712">
        <ele>20.799999237061</ele>
        <time>2022-01-27T08:44:12.000Z</time>
      </trkpt>
      <trkpt lat="47.28001" lon="-2.34687">
        <ele>20.799999237061</ele>
        <time>2022-01-27T08:44:16.000Z</time>
      </trkpt>
      <trkpt lat="47.27994" lon="-2.34636">
        <ele>20.799999237061</ele>
        <time>2022-01-27T08:44:24.000Z</time>
      </trkpt>
      <trkpt lat="47.27982" lon="-2.34588">
        <ele>20.799999237061</ele>
        <time>2022-01-27T08:44:32.000Z</time>
      </trkpt>
      <trkpt lat="47.27976" lon="-2.34572">
        <ele>20.799999237061</ele>
        <time>2022-01-27T08:44:35.000Z</time>
      </trkpt>
      <trkpt lat="47.27973" lon="-2.34561">
        <ele>20.799999237061</ele>
        <time>2022-01-27T08:44:37.000Z</time>
      </trkpt>
      <trkpt lat="47.27975" lon="-2.34536">
        <ele>20.799999237061</ele>
        <time>2022-01-27T08:44:41.000Z</time>
      </trkpt>
      <trkpt lat="47.27982" lon="-2.34517">
        <ele>20.799999237061</ele>
        <time>2022-01-27T08:44:44.000Z</time>
      </trkpt>
      <trkpt lat="47.27987" lon="-2.34505">
        <ele>20.799999237061</ele>
        <time>2022-01-27T08:44:46.000Z</time>
      </trkpt>
      <trkpt lat="47.28" lon="-2.34469">
        <ele>20.799999237061</ele>
        <time>2022-01-27T08:44:52.000Z</time>
      </trkpt>
      <trkpt lat="47.28001" lon="-2.34462">
        <ele>20.799999237061</ele>
        <time>2022-01-27T08:44:53.000Z</time>
      </trkpt>
      <trkpt lat="47.27998" lon="-2.34443">
        <ele>20.799999237061</ele>
        <time>2022-01-27T08:44:56.000Z</time>
      </trkpt>
      <trkpt lat="47.27993" lon="-2.34432">
        <ele>21.200000762939</ele>
        <time>2022-01-27T08:44:58.000Z</time>
      </trkpt>
      <trkpt lat="47.27989" lon="-2.34428">
        <ele>21.60000038147</ele>
        <time>2022-01-27T08:44:59.000Z</time>
      </trkpt>
      <trkpt lat="47.27986" lon="-2.34423">
        <ele>22</ele>
        <time>2022-01-27T08:45:00.000Z</time>
      </trkpt>
      <trkpt lat="47.27983" lon="-2.3442">
        <ele>22.39999961853</ele>
        <time>2022-01-27T08:45:01.000Z</time>
      </trkpt>
      <trkpt lat="47.27979" lon="-2.34415">
        <ele>22.799999237061</ele>
        <time>2022-01-27T08:45:02.000Z</time>
      </trkpt>
      <trkpt lat="47.27965" lon="-2.34395">
        <ele>22.799999237061</ele>
        <time>2022-01-27T08:45:06.000Z</time>
      </trkpt>
      <trkpt lat="47.27935" lon="-2.3435">
        <ele>22.799999237061</ele>
        <time>2022-01-27T08:45:15.000Z</time>
      </trkpt>
      <trkpt lat="47.27913" lon="-2.34303">
        <ele>22.799999237061</ele>
        <time>2022-01-27T08:45:23.000Z</time>
      </trkpt>
      <trkpt lat="47.27907" lon="-2.34292">
        <ele>22.799999237061</ele>
        <time>2022-01-27T08:45:25.000Z</time>
      </trkpt>
      <trkpt lat="47.27898" lon="-2.34277">
        <ele>22.799999237061</ele>
        <time>2022-01-27T08:45:28.000Z</time>
      </trkpt>
      <trkpt lat="47.27895" lon="-2.34272">
        <ele>22.799999237061</ele>
        <time>2022-01-27T08:45:29.000Z</time>
      </trkpt>
      <trkpt lat="47.27883" lon="-2.34251">
        <ele>23.200000762939</ele>
        <time>2022-01-27T08:45:33.000Z</time>
      </trkpt>
      <trkpt lat="47.2788" lon="-2.34245">
        <ele>23.60000038147</ele>
        <time>2022-01-27T08:45:34.000Z</time>
      </trkpt>
      <trkpt lat="47.27877" lon="-2.34239">
        <ele>24</ele>
        <time>2022-01-27T08:45:35.000Z</time>
      </trkpt>
      <trkpt lat="47.27874" lon="-2.34233">
        <ele>24.39999961853</ele>
        <time>2022-01-27T08:45:36.000Z</time>
      </trkpt>
      <trkpt lat="47.27871" lon="-2.34227">
        <ele>24.799999237061</ele>
        <time>2022-01-27T08:45:37.000Z</time>
      </trkpt>
      <trkpt lat="47.27857" lon="-2.34197">
        <ele>24.799999237061</ele>
        <time>2022-01-27T08:45:42.000Z</time>
      </trkpt>
      <trkpt lat="47.27849" lon="-2.34178">
        <ele>24.799999237061</ele>
        <time>2022-01-27T08:45:45.000Z</time>
      </trkpt>
      <trkpt lat="47.27837" lon="-2.34155">
        <ele>24.799999237061</ele>
        <time>2022-01-27T08:45:49.000Z</time>
      </trkpt>
      <trkpt lat="47.27829" lon="-2.34145">
        <ele>24.799999237061</ele>
        <time>2022-01-27T08:45:51.000Z</time>
      </trkpt>
      <trkpt lat="47.27809" lon="-2.34121">
        <ele>24.799999237061</ele>
        <time>2022-01-27T08:45:56.000Z</time>
      </trkpt>
      <trkpt lat="47.2779" lon="-2.34098">
        <ele>24.799999237061</ele>
        <time>2022-01-27T08:46:01.000Z</time>
      </trkpt>
      <trkpt lat="47.27768" lon="-2.34067">
        <ele>24.799999237061</ele>
        <time>2022-01-27T08:46:08.000Z</time>
      </trkpt>
      <trkpt lat="47.2776" lon="-2.34054">
        <ele>24.799999237061</ele>
        <time>2022-01-27T08:46:11.000Z</time>
      </trkpt>
      <trkpt lat="47.27761" lon="-2.34048">
        <ele>24.799999237061</ele>
        <time>2022-01-27T08:46:12.000Z</time>
      </trkpt>
      <trkpt lat="47.2777" lon="-2.34036">
        <ele>24.799999237061</ele>
        <time>2022-01-27T08:46:15.000Z</time>
      </trkpt>
      <trkpt lat="47.27773" lon="-2.34031">
        <ele>24.799999237061</ele>
        <time>2022-01-27T08:46:16.000Z</time>
      </trkpt>
      <trkpt lat="47.27779" lon="-2.34012">
        <ele>24.799999237061</ele>
        <time>2022-01-27T08:46:19.000Z</time>
      </trkpt>
      <trkpt lat="47.2778" lon="-2.3398">
        <ele>24.799999237061</ele>
        <time>2022-01-27T08:46:23.000Z</time>
      </trkpt>
      <trkpt lat="47.27778" lon="-2.33972">
        <ele>24.799999237061</ele>
        <time>2022-01-27T08:46:24.000Z</time>
      </trkpt>
      <trkpt lat="47.27769" lon="-2.33937">
        <ele>24.799999237061</ele>
        <time>2022-01-27T08:46:28.000Z</time>
      </trkpt>
      <trkpt lat="47.27745" lon="-2.33864">
        <ele>24.799999237061</ele>
        <time>2022-01-27T08:46:37.000Z</time>
      </trkpt>
      <trkpt lat="47.27725" lon="-2.33805">
        <ele>24.799999237061</ele>
        <time>2022-01-27T08:46:45.000Z</time>
      </trkpt>
      <trkpt lat="47.27711" lon="-2.33761">
        <ele>24.799999237061</ele>
        <time>2022-01-27T08:46:51.000Z</time>
      </trkpt>
      <trkpt lat="47.27709" lon="-2.33755">
        <ele>24.799999237061</ele>
        <time>2022-01-27T08:46:52.000Z</time>
      </trkpt>
      <trkpt lat="47.27703" lon="-2.3374">
        <ele>24.799999237061</ele>
        <time>2022-01-27T08:46:54.000Z</time>
      </trkpt>
      <trkpt lat="47.27698" lon="-2.33717">
        <ele>24.799999237061</ele>
        <time>2022-01-27T08:46:57.000Z</time>
      </trkpt>
      <trkpt lat="47.27692" lon="-2.33703">
        <ele>24.799999237061</ele>
        <time>2022-01-27T08:46:59.000Z</time>
      </trkpt>
      <trkpt lat="47.2768" lon="-2.33673">
        <ele>24.799999237061</ele>
        <time>2022-01-27T08:47:03.000Z</time>
      </trkpt>
      <trkpt lat="47.27656" lon="-2.33617">
        <ele>24.799999237061</ele>
        <time>2022-01-27T08:47:11.000Z</time>
      </trkpt>
      <trkpt lat="47.27629" lon="-2.33565">
        <ele>24.799999237061</ele>
        <time>2022-01-27T08:47:19.000Z</time>
      </trkpt>
      <trkpt lat="47.27624" lon="-2.33559">
        <ele>24.799999237061</ele>
        <time>2022-01-27T08:47:20.000Z</time>
      </trkpt>
      <trkpt lat="47.27611" lon="-2.33542">
        <ele>24.799999237061</ele>
        <time>2022-01-27T08:47:23.000Z</time>
      </trkpt>
      <trkpt lat="47.27602" lon="-2.33533">
        <ele>24.799999237061</ele>
        <time>2022-01-27T08:47:25.000Z</time>
      </trkpt>
      <trkpt lat="47.27582" lon="-2.33519">
        <ele>24.799999237061</ele>
        <time>2022-01-27T08:47:29.000Z</time>
      </trkpt>
      <trkpt lat="47.2757" lon="-2.33515">
        <ele>24.799999237061</ele>
        <time>2022-01-27T08:47:31.000Z</time>
      </trkpt>
      <trkpt lat="47.27528" lon="-2.33498">
        <ele>24.799999237061</ele>
        <time>2022-01-27T08:47:39.000Z</time>
      </trkpt>
      <trkpt lat="47.2749" lon="-2.33484">
        <ele>24.799999237061</ele>
        <time>2022-01-27T08:47:46.000Z</time>
      </trkpt>
      <trkpt lat="47.27461" lon="-2.33472">
        <ele>24.799999237061</ele>
        <time>2022-01-27T08:47:52.000Z</time>
      </trkpt>
      <trkpt lat="47.27456" lon="-2.33469">
        <ele>24.799999237061</ele>
        <time>2022-01-27T08:47:53.000Z</time>
      </trkpt>
      <trkpt lat="47.27445" lon="-2.33453">
        <ele>24.799999237061</ele>
        <time>2022-01-27T08:47:56.000Z</time>
      </trkpt>
      <trkpt lat="47.27442" lon="-2.33447">
        <ele>24.799999237061</ele>
        <time>2022-01-27T08:47:57.000Z</time>
      </trkpt>
      <trkpt lat="47.27438" lon="-2.33441">
        <ele>24.799999237061</ele>
        <time>2022-01-27T08:47:58.000Z</time>
      </trkpt>
      <trkpt lat="47.27426" lon="-2.33422">
        <ele>24.799999237061</ele>
        <time>2022-01-27T08:48:01.000Z</time>
      </trkpt>
      <trkpt lat="47.27417" lon="-2.33399">
        <ele>24.39999961853</ele>
        <time>2022-01-27T08:48:04.000Z</time>
      </trkpt>
      <trkpt lat="47.27415" lon="-2.3339">
        <ele>24</ele>
        <time>2022-01-27T08:48:05.000Z</time>
      </trkpt>
      <trkpt lat="47.27413" lon="-2.33382">
        <ele>23.60000038147</ele>
        <time>2022-01-27T08:48:06.000Z</time>
      </trkpt>
      <trkpt lat="47.27411" lon="-2.33373">
        <ele>23.200000762939</ele>
        <time>2022-01-27T08:48:07.000Z</time>
      </trkpt>
      <trkpt lat="47.27409" lon="-2.33365">
        <ele>22.799999237061</ele>
        <time>2022-01-27T08:48:08.000Z</time>
      </trkpt>
      <trkpt lat="47.27401" lon="-2.33334">
        <ele>22.799999237061</ele>
        <time>2022-01-27T08:48:12.000Z</time>
      </trkpt>
      <trkpt lat="47.27398" lon="-2.33308">
        <ele>22.799999237061</ele>
        <time>2022-01-27T08:48:15.000Z</time>
      </trkpt>
      <trkpt lat="47.27399" lon="-2.33291">
        <ele>22.799999237061</ele>
        <time>2022-01-27T08:48:17.000Z</time>
      </trkpt>
      <trkpt lat="47.274" lon="-2.33284">
        <ele>22.799999237061</ele>
        <time>2022-01-27T08:48:18.000Z</time>
      </trkpt>
      <trkpt lat="47.27404" lon="-2.33268">
        <ele>22.799999237061</ele>
        <time>2022-01-27T08:48:20.000Z</time>
      </trkpt>
      <trkpt lat="47.27406" lon="-2.33261">
        <ele>22.799999237061</ele>
        <time>2022-01-27T08:48:21.000Z</time>
      </trkpt>
      <trkpt lat="47.27422" lon="-2.33211">
        <ele>22.799999237061</ele>
        <time>2022-01-27T08:48:28.000Z</time>
      </trkpt>
      <trkpt lat="47.27425" lon="-2.33204">
        <ele>22.799999237061</ele>
        <time>2022-01-27T08:48:29.000Z</time>
      </trkpt>
      <trkpt lat="47.2743" lon="-2.33182">
        <ele>22.799999237061</ele>
        <time>2022-01-27T08:48:32.000Z</time>
      </trkpt>
      <trkpt lat="47.27431" lon="-2.33174">
        <ele>22.799999237061</ele>
        <time>2022-01-27T08:48:33.000Z</time>
      </trkpt>
      <trkpt lat="47.27442" lon="-2.33119">
        <ele>22.39999961853</ele>
        <time>2022-01-27T08:48:40.000Z</time>
      </trkpt>
      <trkpt lat="47.27443" lon="-2.33111">
        <ele>22</ele>
        <time>2022-01-27T08:48:41.000Z</time>
      </trkpt>
      <trkpt lat="47.27445" lon="-2.33102">
        <ele>21.60000038147</ele>
        <time>2022-01-27T08:48:42.000Z</time>
      </trkpt>
      <trkpt lat="47.27447" lon="-2.33094">
        <ele>21.200000762939</ele>
        <time>2022-01-27T08:48:43.000Z</time>
      </trkpt>
      <trkpt lat="47.27447" lon="-2.33085">
        <ele>20.799999237061</ele>
        <time>2022-01-27T08:48:44.000Z</time>
      </trkpt>
      <trkpt lat="47.27445" lon="-2.33067">
        <ele>20.799999237061</ele>
        <time>2022-01-27T08:48:46.000Z</time>
      </trkpt>
      <trkpt lat="47.27452" lon="-2.33045">
        <ele>20.799999237061</ele>
        <time>2022-01-27T08:48:49.000Z</time>
      </trkpt>
      <trkpt lat="47.2746" lon="-2.33036">
        <ele>20.799999237061</ele>
        <time>2022-01-27T08:48:51.000Z</time>
      </trkpt>
      <trkpt lat="47.27464" lon="-2.33029">
        <ele>20.39999961853</ele>
        <time>2022-01-27T08:48:52.000Z</time>
      </trkpt>
      <trkpt lat="47.27468" lon="-2.33021">
        <ele>20</ele>
        <time>2022-01-27T08:48:53.000Z</time>
      </trkpt>
      <trkpt lat="47.27471" lon="-2.33013">
        <ele>19.39999961853</ele>
        <time>2022-01-27T08:48:54.000Z</time>
      </trkpt>
      <trkpt lat="47.27474" lon="-2.33004">
        <ele>19</ele>
        <time>2022-01-27T08:48:55.000Z</time>
      </trkpt>
      <trkpt lat="47.27477" lon="-2.32996">
        <ele>18.60000038147</ele>
        <time>2022-01-27T08:48:56.000Z</time>
      </trkpt>
      <trkpt lat="47.27486" lon="-2.32969">
        <ele>18.60000038147</ele>
        <time>2022-01-27T08:48:59.000Z</time>
      </trkpt>
      <trkpt lat="47.27489" lon="-2.32961">
        <ele>18.200000762939</ele>
        <time>2022-01-27T08:49:00.000Z</time>
      </trkpt>
      <trkpt lat="47.27492" lon="-2.32953">
        <ele>17.60000038147</ele>
        <time>2022-01-27T08:49:01.000Z</time>
      </trkpt>
      <trkpt lat="47.27495" lon="-2.32945">
        <ele>17.200000762939</ele>
        <time>2022-01-27T08:49:02.000Z</time>
      </trkpt>
      <trkpt lat="47.27498" lon="-2.32937">
        <ele>16.799999237061</ele>
        <time>2022-01-27T08:49:03.000Z</time>
      </trkpt>
      <trkpt lat="47.275" lon="-2.32928">
        <ele>16.39999961853</ele>
        <time>2022-01-27T08:49:04.000Z</time>
      </trkpt>
      <trkpt lat="47.27503" lon="-2.3292">
        <ele>16.39999961853</ele>
        <time>2022-01-27T08:49:05.000Z</time>
      </trkpt>
      <trkpt lat="47.27509" lon="-2.32893">
        <ele>15.800000190735</ele>
        <time>2022-01-27T08:49:08.000Z</time>
      </trkpt>
      <trkpt lat="47.27512" lon="-2.32884">
        <ele>15.39999961853</ele>
        <time>2022-01-27T08:49:09.000Z</time>
      </trkpt>
      <trkpt lat="47.27515" lon="-2.32876">
        <ele>15</ele>
        <time>2022-01-27T08:49:10.000Z</time>
      </trkpt>
      <trkpt lat="47.27519" lon="-2.3287">
        <ele>14.60000038147</ele>
        <time>2022-01-27T08:49:11.000Z</time>
      </trkpt>
      <trkpt lat="47.27522" lon="-2.32865">
        <ele>14.199999809265</ele>
        <time>2022-01-27T08:49:12.000Z</time>
      </trkpt>
      <trkpt lat="47.27528" lon="-2.32856">
        <ele>14.199999809265</ele>
        <time>2022-01-27T08:49:14.000Z</time>
      </trkpt>
      <trkpt lat="47.27542" lon="-2.32841">
        <ele>14.199999809265</ele>
        <time>2022-01-27T08:49:19.000Z</time>
      </trkpt>
      <trkpt lat="47.27557" lon="-2.32833">
        <ele>13.39999961853</ele>
        <time>2022-01-27T08:49:24.000Z</time>
      </trkpt>
      <trkpt lat="47.2756" lon="-2.32831">
        <ele>13</ele>
        <time>2022-01-27T08:49:25.000Z</time>
      </trkpt>
      <trkpt lat="47.27561" lon="-2.3283">
        <ele>12.60000038147</ele>
        <time>2022-01-27T08:49:26.000Z</time>
      </trkpt>
      <trkpt lat="47.27563" lon="-2.32829">
        <ele>12.199999809265</ele>
        <time>2022-01-27T08:49:27.000Z</time>
      </trkpt>
      <trkpt lat="47.27563" lon="-2.32828">
        <ele>12.199999809265</ele>
        <time>2022-01-27T08:49:28.000Z</time>
      </trkpt>
      <trkpt lat="47.27567" lon="-2.32824">
        <ele>12.199999809265</ele>
        <time>2022-01-27T08:49:31.000Z</time>
      </trkpt>
      <trkpt lat="47.27567" lon="-2.3282">
        <ele>12.199999809265</ele>
        <time>2022-01-27T08:49:33.000Z</time>
      </trkpt>
      <trkpt lat="47.2757" lon="-2.32803">
        <ele>12.199999809265</ele>
        <time>2022-01-27T08:49:36.000Z</time>
      </trkpt>
      <trkpt lat="47.27573" lon="-2.32796">
        <ele>12.199999809265</ele>
        <time>2022-01-27T08:49:37.000Z</time>
      </trkpt>
      <trkpt lat="47.2758" lon="-2.32774">
        <ele>11.60000038147</ele>
        <time>2022-01-27T08:49:41.000Z</time>
      </trkpt>
      <trkpt lat="47.27582" lon="-2.32771">
        <ele>11.199999809265</ele>
        <time>2022-01-27T08:49:42.000Z</time>
      </trkpt>
      <trkpt lat="47.27584" lon="-2.32768">
        <ele>10.800000190735</ele>
        <time>2022-01-27T08:49:43.000Z</time>
      </trkpt>
      <trkpt lat="47.27584" lon="-2.32765">
        <ele>10.39999961853</ele>
        <time>2022-01-27T08:49:44.000Z</time>
      </trkpt>
      <trkpt lat="47.27585" lon="-2.32761">
        <ele>10</ele>
        <time>2022-01-27T08:49:45.000Z</time>
      </trkpt>
      <trkpt lat="47.27586" lon="-2.32752">
        <ele>10</ele>
        <time>2022-01-27T08:49:47.000Z</time>
      </trkpt>
      <trkpt lat="47.27585" lon="-2.32742">
        <ele>9.6000003814697</ele>
        <time>2022-01-27T08:49:49.000Z</time>
      </trkpt>
      <trkpt lat="47.27585" lon="-2.32736">
        <ele>9</ele>
        <time>2022-01-27T08:49:50.000Z</time>
      </trkpt>
      <trkpt lat="47.27587" lon="-2.32729">
        <ele>8.3999996185303</ele>
        <time>2022-01-27T08:49:51.000Z</time>
      </trkpt>
      <trkpt lat="47.27589" lon="-2.32722">
        <ele>8</ele>
        <time>2022-01-27T08:49:52.000Z</time>
      </trkpt>
      <trkpt lat="47.27591" lon="-2.32716">
        <ele>7.4000000953674</ele>
        <time>2022-01-27T08:49:53.000Z</time>
      </trkpt>
      <trkpt lat="47.27593" lon="-2.32709">
        <ele>6.8000001907349</ele>
        <time>2022-01-27T08:49:54.000Z</time>
      </trkpt>
      <trkpt lat="47.27596" lon="-2.32702">
        <ele>6.1999998092651</ele>
        <time>2022-01-27T08:49:55.000Z</time>
      </trkpt>
      <trkpt lat="47.27598" lon="-2.32696">
        <ele>5.5999999046326</ele>
        <time>2022-01-27T08:49:56.000Z</time>
      </trkpt>
      <trkpt lat="47.27602" lon="-2.32691">
        <ele>5</ele>
        <time>2022-01-27T08:49:57.000Z</time>
      </trkpt>
      <trkpt lat="47.2761" lon="-2.32687">
        <ele>5</ele>
        <time>2022-01-27T08:49:59.000Z</time>
      </trkpt>
      <trkpt lat="47.27622" lon="-2.32697">
        <ele>5</ele>
        <time>2022-01-27T08:50:03.000Z</time>
      </trkpt>
      <trkpt lat="47.27628" lon="-2.32701">
        <ele>5</ele>
        <time>2022-01-27T08:50:05.000Z</time>
      </trkpt>
      <trkpt lat="47.27633" lon="-2.32704">
        <ele>5</ele>
        <time>2022-01-27T08:50:07.000Z</time>
      </trkpt>
      <trkpt lat="47.27645" lon="-2.32711">
        <ele>5</ele>
        <time>2022-01-27T08:50:11.000Z</time>
      </trkpt>
      <trkpt lat="47.27652" lon="-2.32716">
        <ele>5</ele>
        <time>2022-01-27T08:50:13.000Z</time>
      </trkpt>
      <trkpt lat="47.27669" lon="-2.32722">
        <ele>5</ele>
        <time>2022-01-27T08:50:18.000Z</time>
      </trkpt>
      <trkpt lat="47.27678" lon="-2.32721">
        <ele>5</ele>
        <time>2022-01-27T08:50:23.000Z</time>
      </trkpt>
      <trkpt lat="47.27682" lon="-2.32721">
        <ele>5</ele>
        <time>2022-01-27T08:50:26.000Z</time>
      </trkpt>
      <trkpt lat="47.27686" lon="-2.32719">
        <ele>5</ele>
        <time>2022-01-27T08:50:38.000Z</time>
      </trkpt>
      <trkpt lat="47.27689" lon="-2.32716">
        <ele>5</ele>
        <time>2022-01-27T08:50:39.000Z</time>
      </trkpt>
      <trkpt lat="47.2771" lon="-2.32696">
        <ele>5</ele>
        <time>2022-01-27T08:50:46.000Z</time>
      </trkpt>
      <trkpt lat="47.27719" lon="-2.32682">
        <ele>5</ele>
        <time>2022-01-27T08:50:50.000Z</time>
      </trkpt>
      <trkpt lat="47.27723" lon="-2.32677">
        <ele>5</ele>
        <time>2022-01-27T08:50:52.000Z</time>
      </trkpt>
      <trkpt lat="47.27726" lon="-2.32671">
        <ele>5.5999999046326</ele>
        <time>2022-01-27T08:50:54.000Z</time>
      </trkpt>
      <trkpt lat="47.27728" lon="-2.32667">
        <ele>6</ele>
        <time>2022-01-27T08:50:55.000Z</time>
      </trkpt>
      <trkpt lat="47.2773" lon="-2.32663">
        <ele>6.4000000953674</ele>
        <time>2022-01-27T08:50:56.000Z</time>
      </trkpt>
      <trkpt lat="47.27732" lon="-2.32659">
        <ele>6.8000001907349</ele>
        <time>2022-01-27T08:50:57.000Z</time>
      </trkpt>
      <trkpt lat="47.27733" lon="-2.32656">
        <ele>7.1999998092651</ele>
        <time>2022-01-27T08:50:58.000Z</time>
      </trkpt>
      <trkpt lat="47.27734" lon="-2.32653">
        <ele>7.5999999046326</ele>
        <time>2022-01-27T08:50:59.000Z</time>
      </trkpt>
      <trkpt lat="47.27736" lon="-2.32649">
        <ele>8.1999998092651</ele>
        <time>2022-01-27T08:51:00.000Z</time>
      </trkpt>
      <trkpt lat="47.27737" lon="-2.32646">
        <ele>8.6000003814697</ele>
        <time>2022-01-27T08:51:01.000Z</time>
      </trkpt>
      <trkpt lat="47.27739" lon="-2.32642">
        <ele>9</ele>
        <time>2022-01-27T08:51:02.000Z</time>
      </trkpt>
      <trkpt lat="47.27741" lon="-2.32639">
        <ele>9.3999996185303</ele>
        <time>2022-01-27T08:51:03.000Z</time>
      </trkpt>
      <trkpt lat="47.27743" lon="-2.32635">
        <ele>9.8000001907349</ele>
        <time>2022-01-27T08:51:04.000Z</time>
      </trkpt>
      <trkpt lat="47.27744" lon="-2.32633">
        <ele>10.39999961853</ele>
        <time>2022-01-27T08:51:05.000Z</time>
      </trkpt>
      <trkpt lat="47.27746" lon="-2.32629">
        <ele>10.800000190735</ele>
        <time>2022-01-27T08:51:06.000Z</time>
      </trkpt>
      <trkpt lat="47.27747" lon="-2.32626">
        <ele>11.199999809265</ele>
        <time>2022-01-27T08:51:07.000Z</time>
      </trkpt>
      <trkpt lat="47.27749" lon="-2.32623">
        <ele>11.60000038147</ele>
        <time>2022-01-27T08:51:08.000Z</time>
      </trkpt>
      <trkpt lat="47.27758" lon="-2.3261">
        <ele>11.60000038147</ele>
        <time>2022-01-27T08:51:12.000Z</time>
      </trkpt>
      <trkpt lat="47.27767" lon="-2.32594">
        <ele>12</ele>
        <time>2022-01-27T08:51:16.000Z</time>
      </trkpt>
      <trkpt lat="47.2777" lon="-2.3259">
        <ele>12.39999961853</ele>
        <time>2022-01-27T08:51:17.000Z</time>
      </trkpt>
      <trkpt lat="47.27772" lon="-2.32586">
        <ele>12.800000190735</ele>
        <time>2022-01-27T08:51:18.000Z</time>
      </trkpt>
      <trkpt lat="47.27775" lon="-2.32582">
        <ele>13.199999809265</ele>
        <time>2022-01-27T08:51:19.000Z</time>
      </trkpt>
      <trkpt lat="47.27777" lon="-2.32579">
        <ele>13.60000038147</ele>
        <time>2022-01-27T08:51:20.000Z</time>
      </trkpt>
      <trkpt lat="47.27786" lon="-2.32566">
        <ele>13.60000038147</ele>
        <time>2022-01-27T08:51:24.000Z</time>
      </trkpt>
      <trkpt lat="47.27801" lon="-2.32544">
        <ele>13.60000038147</ele>
        <time>2022-01-27T08:51:31.000Z</time>
      </trkpt>
      <trkpt lat="47.27814" lon="-2.32527">
        <ele>13.60000038147</ele>
        <time>2022-01-27T08:51:37.000Z</time>
      </trkpt>
      <trkpt lat="47.27832" lon="-2.32501">
        <ele>13.60000038147</ele>
        <time>2022-01-27T08:51:44.000Z</time>
      </trkpt>
      <trkpt lat="47.27852" lon="-2.32469">
        <ele>13.60000038147</ele>
        <time>2022-01-27T08:51:52.000Z</time>
      </trkpt>
      <trkpt lat="47.27865" lon="-2.32454">
        <ele>13.60000038147</ele>
        <time>2022-01-27T08:51:57.000Z</time>
      </trkpt>
      <trkpt lat="47.2787" lon="-2.32449">
        <ele>13.60000038147</ele>
        <time>2022-01-27T08:51:59.000Z</time>
      </trkpt>
      <trkpt lat="47.27876" lon="-2.32437">
        <ele>13.60000038147</ele>
        <time>2022-01-27T08:52:02.000Z</time>
      </trkpt>
      <trkpt lat="47.27891" lon="-2.32409">
        <ele>13.60000038147</ele>
        <time>2022-01-27T08:52:09.000Z</time>
      </trkpt>
      <trkpt lat="47.27899" lon="-2.32394">
        <ele>13.60000038147</ele>
        <time>2022-01-27T08:52:14.000Z</time>
      </trkpt>
      <trkpt lat="47.27899" lon="-2.32387">
        <ele>13.60000038147</ele>
        <time>2022-01-27T08:52:18.000Z</time>
      </trkpt>
      <trkpt lat="47.27894" lon="-2.32386">
        <ele>13.60000038147</ele>
        <time>2022-01-27T08:52:24.000Z</time>
      </trkpt>
      <trkpt lat="47.27887" lon="-2.32386">
        <ele>13.60000038147</ele>
        <time>2022-01-27T08:52:31.000Z</time>
      </trkpt>
      <trkpt lat="47.27886" lon="-2.32387">
        <ele>13.60000038147</ele>
        <time>2022-01-27T08:52:33.000Z</time>
      </trkpt>
      <trkpt lat="47.27902" lon="-2.32386">
        <ele>13.60000038147</ele>
        <time>2022-01-27T08:53:01.000Z</time>
      </trkpt>
      <trkpt lat="47.27903" lon="-2.32385">
        <ele>13.60000038147</ele>
        <time>2022-01-27T08:53:02.000Z</time>
      </trkpt>
      <trkpt lat="47.27907" lon="-2.32386">
        <ele>13.60000038147</ele>
        <time>2022-01-27T08:53:08.000Z</time>
      </trkpt>
      <trkpt lat="47.27908" lon="-2.32386">
        <ele>13.60000038147</ele>
        <time>2022-01-27T08:53:09.000Z</time>
      </trkpt>
      <trkpt lat="47.27918" lon="-2.3239">
        <ele>13.60000038147</ele>
        <time>2022-01-27T08:53:18.000Z</time>
      </trkpt>
      <trkpt lat="47.27921" lon="-2.32394">
        <ele>13.60000038147</ele>
        <time>2022-01-27T08:53:21.000Z</time>
      </trkpt>
      <trkpt lat="47.27926" lon="-2.32399">
        <ele>13.60000038147</ele>
        <time>2022-01-27T08:53:26.000Z</time>
      </trkpt>
      <trkpt lat="47.27933" lon="-2.324">
        <ele>13.60000038147</ele>
        <time>2022-01-27T08:53:33.000Z</time>
      </trkpt>
      <trkpt lat="47.27939" lon="-2.32402">
        <ele>13.60000038147</ele>
        <time>2022-01-27T08:53:40.000Z</time>
      </trkpt>
      <trkpt lat="47.27944" lon="-2.32401">
        <ele>13.60000038147</ele>
        <time>2022-01-27T08:53:56.000Z</time>
      </trkpt>
      <trkpt lat="47.27953" lon="-2.32405">
        <ele>13.60000038147</ele>
        <time>2022-01-27T08:54:00.000Z</time>
      </trkpt>
      <trkpt lat="47.27954" lon="-2.32407">
        <ele>13.60000038147</ele>
        <time>2022-01-27T08:54:01.000Z</time>
      </trkpt>
      <trkpt lat="47.27956" lon="-2.32407">
        <ele>13.60000038147</ele>
        <time>2022-01-27T08:54:02.000Z</time>
      </trkpt>
      <trkpt lat="47.27964" lon="-2.3241">
        <ele>13.60000038147</ele>
        <time>2022-01-27T08:54:05.000Z</time>
      </trkpt>
      <trkpt lat="47.27975" lon="-2.32412">
        <ele>13.60000038147</ele>
        <time>2022-01-27T08:54:10.000Z</time>
      </trkpt>
      <trkpt lat="47.27992" lon="-2.32416">
        <ele>13.60000038147</ele>
        <time>2022-01-27T08:54:17.000Z</time>
      </trkpt>
      <trkpt lat="47.28009" lon="-2.32421">
        <ele>13.60000038147</ele>
        <time>2022-01-27T08:54:24.000Z</time>
      </trkpt>
      <trkpt lat="47.28023" lon="-2.32425">
        <ele>13.60000038147</ele>
        <time>2022-01-27T08:54:31.000Z</time>
      </trkpt>
      <trkpt lat="47.28037" lon="-2.32426">
        <ele>13.60000038147</ele>
        <time>2022-01-27T08:54:39.000Z</time>
      </trkpt>
      <trkpt lat="47.28048" lon="-2.32428">
        <ele>13.60000038147</ele>
        <time>2022-01-27T08:54:45.000Z</time>
      </trkpt>
      <trkpt lat="47.28067" lon="-2.32429">
        <ele>13.60000038147</ele>
        <time>2022-01-27T08:54:52.000Z</time>
      </trkpt>
      <trkpt lat="47.28087" lon="-2.3243">
        <ele>13.60000038147</ele>
        <time>2022-01-27T08:54:59.000Z</time>
      </trkpt>
      <trkpt lat="47.28092" lon="-2.32433">
        <ele>13.60000038147</ele>
        <time>2022-01-27T08:55:01.000Z</time>
      </trkpt>
      <trkpt lat="47.28096" lon="-2.32438">
        <ele>13.60000038147</ele>
        <time>2022-01-27T08:55:04.000Z</time>
      </trkpt>
      <trkpt lat="47.28106" lon="-2.32446">
        <ele>13.60000038147</ele>
        <time>2022-01-27T08:55:08.000Z</time>
      </trkpt>
      <trkpt lat="47.28126" lon="-2.32448">
        <ele>13.60000038147</ele>
        <time>2022-01-27T08:55:13.000Z</time>
      </trkpt>
      <trkpt lat="47.28152" lon="-2.32446">
        <ele>13.60000038147</ele>
        <time>2022-01-27T08:55:18.000Z</time>
      </trkpt>
      <trkpt lat="47.28175" lon="-2.32444">
        <ele>13.199999809265</ele>
        <time>2022-01-27T08:55:22.000Z</time>
      </trkpt>
      <trkpt lat="47.28181" lon="-2.32444">
        <ele>12.800000190735</ele>
        <time>2022-01-27T08:55:23.000Z</time>
      </trkpt>
      <trkpt lat="47.28187" lon="-2.32445">
        <ele>12.39999961853</ele>
        <time>2022-01-27T08:55:24.000Z</time>
      </trkpt>
      <trkpt lat="47.28192" lon="-2.32446">
        <ele>12</ele>
        <time>2022-01-27T08:55:25.000Z</time>
      </trkpt>
      <trkpt lat="47.28197" lon="-2.32447">
        <ele>11.60000038147</ele>
        <time>2022-01-27T08:55:26.000Z</time>
      </trkpt>
      <trkpt lat="47.28219" lon="-2.32457">
        <ele>11.60000038147</ele>
        <time>2022-01-27T08:55:30.000Z</time>
      </trkpt>
      <trkpt lat="47.28236" lon="-2.32476">
        <ele>11.60000038147</ele>
        <time>2022-01-27T08:55:34.000Z</time>
      </trkpt>
      <trkpt lat="47.28263" lon="-2.32509">
        <ele>11.60000038147</ele>
        <time>2022-01-27T08:55:40.000Z</time>
      </trkpt>
      <trkpt lat="47.28279" lon="-2.32514">
        <ele>11.60000038147</ele>
        <time>2022-01-27T08:55:43.000Z</time>
      </trkpt>
      <trkpt lat="47.2829" lon="-2.32516">
        <ele>11.60000038147</ele>
        <time>2022-01-27T08:55:45.000Z</time>
      </trkpt>
      <trkpt lat="47.28315" lon="-2.32516">
        <ele>11.60000038147</ele>
        <time>2022-01-27T08:55:50.000Z</time>
      </trkpt>
      <trkpt lat="47.28346" lon="-2.32516">
        <ele>11.60000038147</ele>
        <time>2022-01-27T08:55:56.000Z</time>
      </trkpt>
      <trkpt lat="47.28357" lon="-2.32522">
        <ele>11.60000038147</ele>
        <time>2022-01-27T08:56:00.000Z</time>
      </trkpt>
      <trkpt lat="47.28358" lon="-2.32537">
        <ele>11.60000038147</ele>
        <time>2022-01-27T08:56:04.000Z</time>
      </trkpt>
      <trkpt lat="47.28362" lon="-2.32558">
        <ele>11.60000038147</ele>
        <time>2022-01-27T08:56:09.000Z</time>
      </trkpt>
      <trkpt lat="47.28364" lon="-2.3256">
        <ele>11.60000038147</ele>
        <time>2022-01-27T08:56:10.000Z</time>
      </trkpt>
      <trkpt lat="47.28367" lon="-2.32563">
        <ele>11.60000038147</ele>
        <time>2022-01-27T08:56:11.000Z</time>
      </trkpt>
      <trkpt lat="47.28378" lon="-2.32565">
        <ele>11.60000038147</ele>
        <time>2022-01-27T08:56:14.000Z</time>
      </trkpt>
      <trkpt lat="47.2839" lon="-2.32571">
        <ele>11.60000038147</ele>
        <time>2022-01-27T08:56:18.000Z</time>
      </trkpt>
      <trkpt lat="47.28392" lon="-2.32576">
        <ele>11.60000038147</ele>
        <time>2022-01-27T08:56:19.000Z</time>
      </trkpt>
      <trkpt lat="47.28399" lon="-2.32591">
        <ele>11.60000038147</ele>
        <time>2022-01-27T08:56:22.000Z</time>
      </trkpt>
      <trkpt lat="47.28405" lon="-2.32604">
        <ele>11.60000038147</ele>
        <time>2022-01-27T08:56:25.000Z</time>
      </trkpt>
      <trkpt lat="47.28406" lon="-2.3261">
        <ele>11.60000038147</ele>
        <time>2022-01-27T08:56:26.000Z</time>
      </trkpt>
      <trkpt lat="47.28401" lon="-2.3264">
        <ele>11.60000038147</ele>
        <time>2022-01-27T08:56:30.000Z</time>
      </trkpt>
      <trkpt lat="47.28386" lon="-2.32714">
        <ele>11.60000038147</ele>
        <time>2022-01-27T08:56:39.000Z</time>
      </trkpt>
      <trkpt lat="47.28373" lon="-2.32774">
        <ele>11.60000038147</ele>
        <time>2022-01-27T08:56:47.000Z</time>
      </trkpt>
      <trkpt lat="47.28371" lon="-2.3278">
        <ele>10.800000190735</ele>
        <time>2022-01-27T08:56:48.000Z</time>
      </trkpt>
      <trkpt lat="47.2837" lon="-2.32787">
        <ele>10.39999961853</ele>
        <time>2022-01-27T08:56:49.000Z</time>
      </trkpt>
      <trkpt lat="47.28369" lon="-2.32795">
        <ele>10</ele>
        <time>2022-01-27T08:56:50.000Z</time>
      </trkpt>
      <trkpt lat="47.28367" lon="-2.32803">
        <ele>9.6000003814697</ele>
        <time>2022-01-27T08:56:51.000Z</time>
      </trkpt>
      <trkpt lat="47.28365" lon="-2.32819">
        <ele>9.6000003814697</ele>
        <time>2022-01-27T08:56:53.000Z</time>
      </trkpt>
      <trkpt lat="47.28364" lon="-2.32851">
        <ele>9.6000003814697</ele>
        <time>2022-01-27T08:56:57.000Z</time>
      </trkpt>
      <trkpt lat="47.28365" lon="-2.32859">
        <ele>9.6000003814697</ele>
        <time>2022-01-27T08:56:58.000Z</time>
      </trkpt>
      <trkpt lat="47.28362" lon="-2.32909">
        <ele>9.6000003814697</ele>
        <time>2022-01-27T08:57:04.000Z</time>
      </trkpt>
      <trkpt lat="47.28349" lon="-2.32937">
        <ele>9.6000003814697</ele>
        <time>2022-01-27T08:57:08.000Z</time>
      </trkpt>
      <trkpt lat="47.28333" lon="-2.32952">
        <ele>9.6000003814697</ele>
        <time>2022-01-27T08:57:11.000Z</time>
      </trkpt>
      <trkpt lat="47.28328" lon="-2.32956">
        <ele>9.6000003814697</ele>
        <time>2022-01-27T08:57:12.000Z</time>
      </trkpt>
      <trkpt lat="47.28317" lon="-2.32964">
        <ele>9.6000003814697</ele>
        <time>2022-01-27T08:57:14.000Z</time>
      </trkpt>
      <trkpt lat="47.28294" lon="-2.32985">
        <ele>9.6000003814697</ele>
        <time>2022-01-27T08:57:18.000Z</time>
      </trkpt>
      <trkpt lat="47.28267" lon="-2.33009">
        <ele>9.6000003814697</ele>
        <time>2022-01-27T08:57:23.000Z</time>
      </trkpt>
      <trkpt lat="47.2823" lon="-2.33038">
        <ele>9.6000003814697</ele>
        <time>2022-01-27T08:57:30.000Z</time>
      </trkpt>
      <trkpt lat="47.28226" lon="-2.33044">
        <ele>9.6000003814697</ele>
        <time>2022-01-27T08:57:31.000Z</time>
      </trkpt>
      <trkpt lat="47.28214" lon="-2.33064">
        <ele>9.6000003814697</ele>
        <time>2022-01-27T08:57:34.000Z</time>
      </trkpt>
      <trkpt lat="47.28195" lon="-2.33111">
        <ele>9.6000003814697</ele>
        <time>2022-01-27T08:57:40.000Z</time>
      </trkpt>
      <trkpt lat="47.28191" lon="-2.33154">
        <ele>9.6000003814697</ele>
        <time>2022-01-27T08:57:45.000Z</time>
      </trkpt>
      <trkpt lat="47.28188" lon="-2.33223">
        <ele>9.6000003814697</ele>
        <time>2022-01-27T08:57:53.000Z</time>
      </trkpt>
      <trkpt lat="47.28178" lon="-2.33293">
        <ele>9.6000003814697</ele>
        <time>2022-01-27T08:58:02.000Z</time>
      </trkpt>
      <trkpt lat="47.28165" lon="-2.33333">
        <ele>9.6000003814697</ele>
        <time>2022-01-27T08:58:08.000Z</time>
      </trkpt>
      <trkpt lat="47.28138" lon="-2.33393">
        <ele>9.6000003814697</ele>
        <time>2022-01-27T08:58:18.000Z</time>
      </trkpt>
      <trkpt lat="47.28132" lon="-2.33404">
        <ele>10</ele>
        <time>2022-01-27T08:58:20.000Z</time>
      </trkpt>
      <trkpt lat="47.28129" lon="-2.3341">
        <ele>10.39999961853</ele>
        <time>2022-01-27T08:58:21.000Z</time>
      </trkpt>
      <trkpt lat="47.28127" lon="-2.33416">
        <ele>10.800000190735</ele>
        <time>2022-01-27T08:58:22.000Z</time>
      </trkpt>
      <trkpt lat="47.28124" lon="-2.33422">
        <ele>11.199999809265</ele>
        <time>2022-01-27T08:58:23.000Z</time>
      </trkpt>
      <trkpt lat="47.28121" lon="-2.33428">
        <ele>11.60000038147</ele>
        <time>2022-01-27T08:58:24.000Z</time>
      </trkpt>
      <trkpt lat="47.28115" lon="-2.3344">
        <ele>11.60000038147</ele>
        <time>2022-01-27T08:58:26.000Z</time>
      </trkpt>
      <trkpt lat="47.28087" lon="-2.33499">
        <ele>11.60000038147</ele>
        <time>2022-01-27T08:58:36.000Z</time>
      </trkpt>
      <trkpt lat="47.28076" lon="-2.33515">
        <ele>11.60000038147</ele>
        <time>2022-01-27T08:58:39.000Z</time>
      </trkpt>
      <trkpt lat="47.28074" lon="-2.33522">
        <ele>11.60000038147</ele>
        <time>2022-01-27T08:58:40.000Z</time>
      </trkpt>
      <trkpt lat="47.28074" lon="-2.33543">
        <ele>11.60000038147</ele>
        <time>2022-01-27T08:58:43.000Z</time>
      </trkpt>
      <trkpt lat="47.28076" lon="-2.33558">
        <ele>11.60000038147</ele>
        <time>2022-01-27T08:58:45.000Z</time>
      </trkpt>
      <trkpt lat="47.28083" lon="-2.33588">
        <ele>11.60000038147</ele>
        <time>2022-01-27T08:58:49.000Z</time>
      </trkpt>
      <trkpt lat="47.28087" lon="-2.3361">
        <ele>12.39999961853</ele>
        <time>2022-01-27T08:58:52.000Z</time>
      </trkpt>
      <trkpt lat="47.28089" lon="-2.33618">
        <ele>12.800000190735</ele>
        <time>2022-01-27T08:58:53.000Z</time>
      </trkpt>
      <trkpt lat="47.28089" lon="-2.33625">
        <ele>13.199999809265</ele>
        <time>2022-01-27T08:58:54.000Z</time>
      </trkpt>
      <trkpt lat="47.28089" lon="-2.33631">
        <ele>13.60000038147</ele>
        <time>2022-01-27T08:58:55.000Z</time>
      </trkpt>
      <trkpt lat="47.28093" lon="-2.33649">
        <ele>13.60000038147</ele>
        <time>2022-01-27T08:58:59.000Z</time>
      </trkpt>
      <trkpt lat="47.28099" lon="-2.3366">
        <ele>13.60000038147</ele>
        <time>2022-01-27T08:59:02.000Z</time>
      </trkpt>
      <trkpt lat="47.28103" lon="-2.33666">
        <ele>13.60000038147</ele>
        <time>2022-01-27T08:59:04.000Z</time>
      </trkpt>
      <trkpt lat="47.28105" lon="-2.33668">
        <ele>13.60000038147</ele>
        <time>2022-01-27T08:59:05.000Z</time>
      </trkpt>
      <trkpt lat="47.28109" lon="-2.33677">
        <ele>13.60000038147</ele>
        <time>2022-01-27T08:59:08.000Z</time>
      </trkpt>
      <trkpt lat="47.28117" lon="-2.33687">
        <ele>13.60000038147</ele>
        <time>2022-01-27T08:59:11.000Z</time>
      </trkpt>
      <trkpt lat="47.28121" lon="-2.33691">
        <ele>13.60000038147</ele>
        <time>2022-01-27T08:59:12.000Z</time>
      </trkpt>
      <trkpt lat="47.28127" lon="-2.337">
        <ele>13.60000038147</ele>
        <time>2022-01-27T08:59:14.000Z</time>
      </trkpt>
      <trkpt lat="47.2814" lon="-2.33721">
        <ele>13.60000038147</ele>
        <time>2022-01-27T08:59:18.000Z</time>
      </trkpt>
      <trkpt lat="47.28143" lon="-2.33726">
        <ele>13.60000038147</ele>
        <time>2022-01-27T08:59:19.000Z</time>
      </trkpt>
      <trkpt lat="47.2816" lon="-2.33744">
        <ele>13.60000038147</ele>
        <time>2022-01-27T08:59:23.000Z</time>
      </trkpt>
      <trkpt lat="47.28177" lon="-2.33763">
        <ele>13.60000038147</ele>
        <time>2022-01-27T08:59:27.000Z</time>
      </trkpt>
      <trkpt lat="47.28185" lon="-2.33773">
        <ele>13.60000038147</ele>
        <time>2022-01-27T08:59:29.000Z</time>
      </trkpt>
      <trkpt lat="47.2821" lon="-2.33795">
        <ele>14.199999809265</ele>
        <time>2022-01-27T08:59:34.000Z</time>
      </trkpt>
      <trkpt lat="47.28216" lon="-2.33798">
        <ele>14.60000038147</ele>
        <time>2022-01-27T08:59:35.000Z</time>
      </trkpt>
      <trkpt lat="47.28222" lon="-2.338">
        <ele>15</ele>
        <time>2022-01-27T08:59:36.000Z</time>
      </trkpt>
      <trkpt lat="47.28228" lon="-2.33802">
        <ele>15.39999961853</ele>
        <time>2022-01-27T08:59:37.000Z</time>
      </trkpt>
      <trkpt lat="47.28234" lon="-2.33804">
        <ele>15.800000190735</ele>
        <time>2022-01-27T08:59:38.000Z</time>
      </trkpt>
      <trkpt lat="47.28245" lon="-2.33809">
        <ele>15.800000190735</ele>
        <time>2022-01-27T08:59:40.000Z</time>
      </trkpt>
      <trkpt lat="47.2825" lon="-2.33812">
        <ele>15.800000190735</ele>
        <time>2022-01-27T08:59:41.000Z</time>
      </trkpt>
      <trkpt lat="47.28259" lon="-2.3382">
        <ele>15.800000190735</ele>
        <time>2022-01-27T08:59:43.000Z</time>
      </trkpt>
      <trkpt lat="47.28267" lon="-2.33833">
        <ele>15.800000190735</ele>
        <time>2022-01-27T08:59:45.000Z</time>
      </trkpt>
      <trkpt lat="47.28276" lon="-2.33855">
        <ele>15.800000190735</ele>
        <time>2022-01-27T08:59:48.000Z</time>
      </trkpt>
      <trkpt lat="47.28287" lon="-2.33883">
        <ele>15.800000190735</ele>
        <time>2022-01-27T08:59:52.000Z</time>
      </trkpt>
      <trkpt lat="47.28304" lon="-2.33926">
        <ele>15.800000190735</ele>
        <time>2022-01-27T08:59:59.000Z</time>
      </trkpt>
      <trkpt lat="47.28307" lon="-2.33929">
        <ele>15.800000190735</ele>
        <time>2022-01-27T09:00:00.000Z</time>
      </trkpt>
      <trkpt lat="47.28316" lon="-2.33928">
        <ele>15.800000190735</ele>
        <time>2022-01-27T09:00:02.000Z</time>
      </trkpt>
      <trkpt lat="47.28325" lon="-2.33922">
        <ele>16.200000762939</ele>
        <time>2022-01-27T09:00:04.000Z</time>
      </trkpt>
      <trkpt lat="47.28329" lon="-2.33918">
        <ele>16.60000038147</ele>
        <time>2022-01-27T09:00:05.000Z</time>
      </trkpt>
      <trkpt lat="47.28334" lon="-2.33914">
        <ele>17</ele>
        <time>2022-01-27T09:00:06.000Z</time>
      </trkpt>
      <trkpt lat="47.28338" lon="-2.3391">
        <ele>17.799999237061</ele>
        <time>2022-01-27T09:00:07.000Z</time>
      </trkpt>
      <trkpt lat="47.28342" lon="-2.33906">
        <ele>17.799999237061</ele>
        <time>2022-01-27T09:00:08.000Z</time>
      </trkpt>
      <trkpt lat="47.28374" lon="-2.33877">
        <ele>18.200000762939</ele>
        <time>2022-01-27T09:00:15.000Z</time>
      </trkpt>
      <trkpt lat="47.28378" lon="-2.33873">
        <ele>18.60000038147</ele>
        <time>2022-01-27T09:00:16.000Z</time>
      </trkpt>
      <trkpt lat="47.28383" lon="-2.33869">
        <ele>19</ele>
        <time>2022-01-27T09:00:17.000Z</time>
      </trkpt>
      <trkpt lat="47.28387" lon="-2.33865">
        <ele>19.39999961853</ele>
        <time>2022-01-27T09:00:18.000Z</time>
      </trkpt>
      <trkpt lat="47.28391" lon="-2.33861">
        <ele>19.799999237061</ele>
        <time>2022-01-27T09:00:19.000Z</time>
      </trkpt>
      <trkpt lat="47.28412" lon="-2.33841">
        <ele>19.799999237061</ele>
        <time>2022-01-27T09:00:24.000Z</time>
      </trkpt>
      <trkpt lat="47.2845" lon="-2.33801">
        <ele>19.799999237061</ele>
        <time>2022-01-27T09:00:33.000Z</time>
      </trkpt>
      <trkpt lat="47.28479" lon="-2.33766">
        <ele>19.799999237061</ele>
        <time>2022-01-27T09:00:40.000Z</time>
      </trkpt>
      <trkpt lat="47.28506" lon="-2.33736">
        <ele>19.799999237061</ele>
        <time>2022-01-27T09:00:46.000Z</time>
      </trkpt>
      <trkpt lat="47.28511" lon="-2.33732">
        <ele>19.799999237061</ele>
        <time>2022-01-27T09:00:47.000Z</time>
      </trkpt>
      <trkpt lat="47.28522" lon="-2.33727">
        <ele>20.200000762939</ele>
        <time>2022-01-27T09:00:49.000Z</time>
      </trkpt>
      <trkpt lat="47.28528" lon="-2.33727">
        <ele>20.60000038147</ele>
        <time>2022-01-27T09:00:50.000Z</time>
      </trkpt>
      <trkpt lat="47.28533" lon="-2.33727">
        <ele>21</ele>
        <time>2022-01-27T09:00:51.000Z</time>
      </trkpt>
      <trkpt lat="47.28539" lon="-2.33727">
        <ele>21.39999961853</ele>
        <time>2022-01-27T09:00:52.000Z</time>
      </trkpt>
      <trkpt lat="47.28545" lon="-2.33727">
        <ele>21.799999237061</ele>
        <time>2022-01-27T09:00:53.000Z</time>
      </trkpt>
      <trkpt lat="47.28573" lon="-2.3373">
        <ele>21.799999237061</ele>
        <time>2022-01-27T09:00:58.000Z</time>
      </trkpt>
      <trkpt lat="47.28585" lon="-2.33731">
        <ele>21.799999237061</ele>
        <time>2022-01-27T09:01:00.000Z</time>
      </trkpt>
      <trkpt lat="47.28603" lon="-2.33726">
        <ele>21.799999237061</ele>
        <time>2022-01-27T09:01:03.000Z</time>
      </trkpt>
      <trkpt lat="47.28657" lon="-2.33704">
        <ele>21.799999237061</ele>
        <time>2022-01-27T09:01:12.000Z</time>
      </trkpt>
      <trkpt lat="47.28701" lon="-2.3369">
        <ele>21.799999237061</ele>
        <time>2022-01-27T09:01:19.000Z</time>
      </trkpt>
      <trkpt lat="47.28725" lon="-2.33697">
        <ele>21.799999237061</ele>
        <time>2022-01-27T09:01:23.000Z</time>
      </trkpt>
      <trkpt lat="47.28745" lon="-2.3372">
        <ele>21.799999237061</ele>
        <time>2022-01-27T09:01:27.000Z</time>
      </trkpt>
      <trkpt lat="47.28756" lon="-2.33752">
        <ele>21.799999237061</ele>
        <time>2022-01-27T09:01:31.000Z</time>
      </trkpt>
      <trkpt lat="47.28758" lon="-2.33761">
        <ele>21.799999237061</ele>
        <time>2022-01-27T09:01:32.000Z</time>
      </trkpt>
      <trkpt lat="47.28764" lon="-2.33815">
        <ele>21.799999237061</ele>
        <time>2022-01-27T09:01:38.000Z</time>
      </trkpt>
      <trkpt lat="47.28771" lon="-2.3385">
        <ele>21.799999237061</ele>
        <time>2022-01-27T09:01:42.000Z</time>
      </trkpt>
      <trkpt lat="47.28776" lon="-2.33866">
        <ele>21.799999237061</ele>
        <time>2022-01-27T09:01:44.000Z</time>
      </trkpt>
      <trkpt lat="47.28791" lon="-2.33896">
        <ele>22.39999961853</ele>
        <time>2022-01-27T09:01:48.000Z</time>
      </trkpt>
      <trkpt lat="47.28794" lon="-2.33904">
        <ele>22.799999237061</ele>
        <time>2022-01-27T09:01:49.000Z</time>
      </trkpt>
      <trkpt lat="47.28798" lon="-2.33912">
        <ele>23.200000762939</ele>
        <time>2022-01-27T09:01:50.000Z</time>
      </trkpt>
      <trkpt lat="47.28801" lon="-2.33919">
        <ele>23.60000038147</ele>
        <time>2022-01-27T09:01:51.000Z</time>
      </trkpt>
      <trkpt lat="47.28804" lon="-2.33927">
        <ele>24</ele>
        <time>2022-01-27T09:01:52.000Z</time>
      </trkpt>
      <trkpt lat="47.28824" lon="-2.33988">
        <ele>24</ele>
        <time>2022-01-27T09:02:00.000Z</time>
      </trkpt>
      <trkpt lat="47.28841" lon="-2.34055">
        <ele>24</ele>
        <time>2022-01-27T09:02:09.000Z</time>
      </trkpt>
      <trkpt lat="47.28843" lon="-2.34062">
        <ele>24.799999237061</ele>
        <time>2022-01-27T09:02:10.000Z</time>
      </trkpt>
      <trkpt lat="47.28845" lon="-2.3407">
        <ele>25.200000762939</ele>
        <time>2022-01-27T09:02:11.000Z</time>
      </trkpt>
      <trkpt lat="47.28846" lon="-2.34078">
        <ele>25.60000038147</ele>
        <time>2022-01-27T09:02:12.000Z</time>
      </trkpt>
      <trkpt lat="47.28848" lon="-2.34086">
        <ele>26</ele>
        <time>2022-01-27T09:02:13.000Z</time>
      </trkpt>
      <trkpt lat="47.28854" lon="-2.34126">
        <ele>26</ele>
        <time>2022-01-27T09:02:18.000Z</time>
      </trkpt>
      <trkpt lat="47.28863" lon="-2.3419">
        <ele>26</ele>
        <time>2022-01-27T09:02:26.000Z</time>
      </trkpt>
      <trkpt lat="47.2887" lon="-2.34248">
        <ele>26</ele>
        <time>2022-01-27T09:02:33.000Z</time>
      </trkpt>
      <trkpt lat="47.28883" lon="-2.34326">
        <ele>26</ele>
        <time>2022-01-27T09:02:42.000Z</time>
      </trkpt>
      <trkpt lat="47.28898" lon="-2.34408">
        <ele>26</ele>
        <time>2022-01-27T09:02:51.000Z</time>
      </trkpt>
      <trkpt lat="47.28913" lon="-2.34489">
        <ele>26</ele>
        <time>2022-01-27T09:02:59.000Z</time>
      </trkpt>
      <trkpt lat="47.28925" lon="-2.34571">
        <ele>26</ele>
        <time>2022-01-27T09:03:07.000Z</time>
      </trkpt>
      <trkpt lat="47.28928" lon="-2.34591">
        <ele>26</ele>
        <time>2022-01-27T09:03:09.000Z</time>
      </trkpt>
      <trkpt lat="47.28938" lon="-2.34632">
        <ele>26</ele>
        <time>2022-01-27T09:03:13.000Z</time>
      </trkpt>
      <trkpt lat="47.28956" lon="-2.34716">
        <ele>26</ele>
        <time>2022-01-27T09:03:21.000Z</time>
      </trkpt>
      <trkpt lat="47.2897" lon="-2.34798">
        <ele>26</ele>
        <time>2022-01-27T09:03:29.000Z</time>
      </trkpt>
      <trkpt lat="47.28983" lon="-2.34875">
        <ele>26</ele>
        <time>2022-01-27T09:03:37.000Z</time>
      </trkpt>
      <trkpt lat="47.28998" lon="-2.34957">
        <ele>26</ele>
        <time>2022-01-27T09:03:46.000Z</time>
      </trkpt>
      <trkpt lat="47.29011" lon="-2.35017">
        <ele>26</ele>
        <time>2022-01-27T09:03:53.000Z</time>
      </trkpt>
      <trkpt lat="47.29024" lon="-2.35083">
        <ele>26</ele>
        <time>2022-01-27T09:04:01.000Z</time>
      </trkpt>
      <trkpt lat="47.29037" lon="-2.35152">
        <ele>26</ele>
        <time>2022-01-27T09:04:09.000Z</time>
      </trkpt>
      <trkpt lat="47.29041" lon="-2.35186">
        <ele>26</ele>
        <time>2022-01-27T09:04:13.000Z</time>
      </trkpt>
      <trkpt lat="47.2904" lon="-2.35202">
        <ele>26</ele>
        <time>2022-01-27T09:04:15.000Z</time>
      </trkpt>
      <trkpt lat="47.29037" lon="-2.3522">
        <ele>26</ele>
        <time>2022-01-27T09:04:17.000Z</time>
      </trkpt>
      <trkpt lat="47.29039" lon="-2.35238">
        <ele>26</ele>
        <time>2022-01-27T09:04:19.000Z</time>
      </trkpt>
      <trkpt lat="47.29048" lon="-2.3526">
        <ele>26</ele>
        <time>2022-01-27T09:04:22.000Z</time>
      </trkpt>
      <trkpt lat="47.29053" lon="-2.35266">
        <ele>26</ele>
        <time>2022-01-27T09:04:23.000Z</time>
      </trkpt>
      <trkpt lat="47.29056" lon="-2.35273">
        <ele>26</ele>
        <time>2022-01-27T09:04:24.000Z</time>
      </trkpt>
      <trkpt lat="47.29061" lon="-2.35289">
        <ele>26</ele>
        <time>2022-01-27T09:04:26.000Z</time>
      </trkpt>
      <trkpt lat="47.29064" lon="-2.35306">
        <ele>26</ele>
        <time>2022-01-27T09:04:28.000Z</time>
      </trkpt>
      <trkpt lat="47.29066" lon="-2.35315">
        <ele>26.60000038147</ele>
        <time>2022-01-27T09:04:29.000Z</time>
      </trkpt>
      <trkpt lat="47.29067" lon="-2.35324">
        <ele>27</ele>
        <time>2022-01-27T09:04:30.000Z</time>
      </trkpt>
      <trkpt lat="47.29069" lon="-2.35332">
        <ele>27.39999961853</ele>
        <time>2022-01-27T09:04:31.000Z</time>
      </trkpt>
      <trkpt lat="47.2907" lon="-2.35341">
        <ele>27.799999237061</ele>
        <time>2022-01-27T09:04:32.000Z</time>
      </trkpt>
      <trkpt lat="47.29072" lon="-2.35349">
        <ele>28.200000762939</ele>
        <time>2022-01-27T09:04:33.000Z</time>
      </trkpt>
      <trkpt lat="47.29084" lon="-2.35413">
        <ele>28.200000762939</ele>
        <time>2022-01-27T09:04:41.000Z</time>
      </trkpt>
      <trkpt lat="47.29086" lon="-2.3544">
        <ele>28.200000762939</ele>
        <time>2022-01-27T09:04:45.000Z</time>
      </trkpt>
      <trkpt lat="47.29087" lon="-2.35446">
        <ele>28.200000762939</ele>
        <time>2022-01-27T09:04:46.000Z</time>
      </trkpt>
      <trkpt lat="47.29091" lon="-2.35467">
        <ele>28.200000762939</ele>
        <time>2022-01-27T09:04:50.000Z</time>
      </trkpt>
      <trkpt lat="47.29098" lon="-2.35475">
        <ele>28.200000762939</ele>
        <time>2022-01-27T09:04:53.000Z</time>
      </trkpt>
      <trkpt lat="47.291" lon="-2.35474">
        <ele>28.200000762939</ele>
        <time>2022-01-27T09:04:54.000Z</time>
      </trkpt>
      <trkpt lat="47.29103" lon="-2.35467">
        <ele>28.200000762939</ele>
        <time>2022-01-27T09:04:58.000Z</time>
      </trkpt>
      <trkpt lat="47.29107" lon="-2.35464">
        <ele>28.200000762939</ele>
        <time>2022-01-27T09:05:02.000Z</time>
      </trkpt>
      <trkpt lat="47.29112" lon="-2.35468">
        <ele>28.200000762939</ele>
        <time>2022-01-27T09:05:04.000Z</time>
      </trkpt>
      <trkpt lat="47.29117" lon="-2.3547">
        <ele>28.200000762939</ele>
        <time>2022-01-27T09:05:06.000Z</time>
      </trkpt>
      <trkpt lat="47.2913" lon="-2.35464">
        <ele>28.200000762939</ele>
        <time>2022-01-27T09:05:10.000Z</time>
      </trkpt>
      <trkpt lat="47.29139" lon="-2.35458">
        <ele>28.60000038147</ele>
        <time>2022-01-27T09:05:13.000Z</time>
      </trkpt>
      <trkpt lat="47.29143" lon="-2.35457">
        <ele>29</ele>
        <time>2022-01-27T09:05:14.000Z</time>
      </trkpt>
      <trkpt lat="47.29147" lon="-2.35455">
        <ele>29.39999961853</ele>
        <time>2022-01-27T09:05:15.000Z</time>
      </trkpt>
      <trkpt lat="47.29151" lon="-2.35454">
        <ele>29.799999237061</ele>
        <time>2022-01-27T09:05:16.000Z</time>
      </trkpt>
      <trkpt lat="47.29155" lon="-2.35452">
        <ele>30.200000762939</ele>
        <time>2022-01-27T09:05:17.000Z</time>
      </trkpt>
      <trkpt lat="47.29182" lon="-2.35441">
        <ele>30.200000762939</ele>
        <time>2022-01-27T09:05:23.000Z</time>
      </trkpt>
      <trkpt lat="47.29214" lon="-2.3543">
        <ele>30.200000762939</ele>
        <time>2022-01-27T09:05:30.000Z</time>
      </trkpt>
      <trkpt lat="47.29227" lon="-2.35424">
        <ele>30.200000762939</ele>
        <time>2022-01-27T09:05:33.000Z</time>
      </trkpt>
      <trkpt lat="47.29236" lon="-2.3542">
        <ele>30.200000762939</ele>
        <time>2022-01-27T09:05:35.000Z</time>
      </trkpt>
      <trkpt lat="47.29261" lon="-2.35408">
        <ele>30.200000762939</ele>
        <time>2022-01-27T09:05:42.000Z</time>
      </trkpt>
      <trkpt lat="47.2928" lon="-2.35393">
        <ele>30.200000762939</ele>
        <time>2022-01-27T09:05:48.000Z</time>
      </trkpt>
      <trkpt lat="47.29313" lon="-2.35362">
        <ele>30.200000762939</ele>
        <time>2022-01-27T09:05:57.000Z</time>
      </trkpt>
      <trkpt lat="47.29343" lon="-2.35331">
        <ele>30.200000762939</ele>
        <time>2022-01-27T09:06:06.000Z</time>
      </trkpt>
      <trkpt lat="47.29353" lon="-2.3532">
        <ele>29.799999237061</ele>
        <time>2022-01-27T09:06:09.000Z</time>
      </trkpt>
      <trkpt lat="47.29356" lon="-2.35316">
        <ele>29.39999961853</ele>
        <time>2022-01-27T09:06:10.000Z</time>
      </trkpt>
      <trkpt lat="47.29359" lon="-2.35312">
        <ele>29</ele>
        <time>2022-01-27T09:06:11.000Z</time>
      </trkpt>
      <trkpt lat="47.29363" lon="-2.35308">
        <ele>28.60000038147</ele>
        <time>2022-01-27T09:06:12.000Z</time>
      </trkpt>
      <trkpt lat="47.29366" lon="-2.35304">
        <ele>28.200000762939</ele>
        <time>2022-01-27T09:06:13.000Z</time>
      </trkpt>
      <trkpt lat="47.29387" lon="-2.35276">
        <ele>28.200000762939</ele>
        <time>2022-01-27T09:06:20.000Z</time>
      </trkpt>
      <trkpt lat="47.29405" lon="-2.35252">
        <ele>28.200000762939</ele>
        <time>2022-01-27T09:06:26.000Z</time>
      </trkpt>
      <trkpt lat="47.29418" lon="-2.35233">
        <ele>28.200000762939</ele>
        <time>2022-01-27T09:06:30.000Z</time>
      </trkpt>
      <trkpt lat="47.29425" lon="-2.35223">
        <ele>28.200000762939</ele>
        <time>2022-01-27T09:06:32.000Z</time>
      </trkpt>
      <trkpt lat="47.2943" lon="-2.35212">
        <ele>28.200000762939</ele>
        <time>2022-01-27T09:06:34.000Z</time>
      </trkpt>
      <trkpt lat="47.29439" lon="-2.35194">
        <ele>28.200000762939</ele>
        <time>2022-01-27T09:06:37.000Z</time>
      </trkpt>
      <trkpt lat="47.29441" lon="-2.35188">
        <ele>28.200000762939</ele>
        <time>2022-01-27T09:06:38.000Z</time>
      </trkpt>
      <trkpt lat="47.29447" lon="-2.35169">
        <ele>28.200000762939</ele>
        <time>2022-01-27T09:06:41.000Z</time>
      </trkpt>
      <trkpt lat="47.29449" lon="-2.35163">
        <ele>27.799999237061</ele>
        <time>2022-01-27T09:06:42.000Z</time>
      </trkpt>
      <trkpt lat="47.29451" lon="-2.35157">
        <ele>27.39999961853</ele>
        <time>2022-01-27T09:06:43.000Z</time>
      </trkpt>
      <trkpt lat="47.29453" lon="-2.35151">
        <ele>27</ele>
        <time>2022-01-27T09:06:44.000Z</time>
      </trkpt>
      <trkpt lat="47.29455" lon="-2.35145">
        <ele>26.60000038147</ele>
        <time>2022-01-27T09:06:45.000Z</time>
      </trkpt>
      <trkpt lat="47.29457" lon="-2.35138">
        <ele>26.200000762939</ele>
        <time>2022-01-27T09:06:46.000Z</time>
      </trkpt>
      <trkpt lat="47.29468" lon="-2.351">
        <ele>26.200000762939</ele>
        <time>2022-01-27T09:06:52.000Z</time>
      </trkpt>
      <trkpt lat="47.29483" lon="-2.35054">
        <ele>26.200000762939</ele>
        <time>2022-01-27T09:06:59.000Z</time>
      </trkpt>
      <trkpt lat="47.29502" lon="-2.35005">
        <ele>26.200000762939</ele>
        <time>2022-01-27T09:07:05.000Z</time>
      </trkpt>
      <trkpt lat="47.29506" lon="-2.34996">
        <ele>25.60000038147</ele>
        <time>2022-01-27T09:07:06.000Z</time>
      </trkpt>
      <trkpt lat="47.2951" lon="-2.34987">
        <ele>24.799999237061</ele>
        <time>2022-01-27T09:07:07.000Z</time>
      </trkpt>
      <trkpt lat="47.29515" lon="-2.34979">
        <ele>24.39999961853</ele>
        <time>2022-01-27T09:07:08.000Z</time>
      </trkpt>
      <trkpt lat="47.2952" lon="-2.3497">
        <ele>24</ele>
        <time>2022-01-27T09:07:09.000Z</time>
      </trkpt>
      <trkpt lat="47.29525" lon="-2.34962">
        <ele>24</ele>
        <time>2022-01-27T09:07:10.000Z</time>
      </trkpt>
      <trkpt lat="47.29553" lon="-2.34918">
        <ele>24</ele>
        <time>2022-01-27T09:07:16.000Z</time>
      </trkpt>
      <trkpt lat="47.29581" lon="-2.3488">
        <ele>24</ele>
        <time>2022-01-27T09:07:23.000Z</time>
      </trkpt>
      <trkpt lat="47.29603" lon="-2.34844">
        <ele>24</ele>
        <time>2022-01-27T09:07:29.000Z</time>
      </trkpt>
      <trkpt lat="47.29607" lon="-2.34839">
        <ele>24</ele>
        <time>2022-01-27T09:07:30.000Z</time>
      </trkpt>
      <trkpt lat="47.29624" lon="-2.34833">
        <ele>24</ele>
        <time>2022-01-27T09:07:33.000Z</time>
      </trkpt>
      <trkpt lat="47.29641" lon="-2.34843">
        <ele>24</ele>
        <time>2022-01-27T09:07:36.000Z</time>
      </trkpt>
      <trkpt lat="47.29646" lon="-2.34849">
        <ele>24</ele>
        <time>2022-01-27T09:07:37.000Z</time>
      </trkpt>
      <trkpt lat="47.29671" lon="-2.3488">
        <ele>24</ele>
        <time>2022-01-27T09:07:42.000Z</time>
      </trkpt>
      <trkpt lat="47.29682" lon="-2.34891">
        <ele>24</ele>
        <time>2022-01-27T09:07:44.000Z</time>
      </trkpt>
      <trkpt lat="47.29693" lon="-2.34896">
        <ele>24</ele>
        <time>2022-01-27T09:07:46.000Z</time>
      </trkpt>
      <trkpt lat="47.29705" lon="-2.34896">
        <ele>24</ele>
        <time>2022-01-27T09:07:48.000Z</time>
      </trkpt>
      <trkpt lat="47.29716" lon="-2.34888">
        <ele>24</ele>
        <time>2022-01-27T09:07:50.000Z</time>
      </trkpt>
      <trkpt lat="47.29739" lon="-2.34873">
        <ele>24</ele>
        <time>2022-01-27T09:07:54.000Z</time>
      </trkpt>
      <trkpt lat="47.29746" lon="-2.34872">
        <ele>24</ele>
        <time>2022-01-27T09:07:55.000Z</time>
      </trkpt>
      <trkpt lat="47.29775" lon="-2.34864">
        <ele>24</ele>
        <time>2022-01-27T09:08:00.000Z</time>
      </trkpt>
      <trkpt lat="47.29781" lon="-2.34862">
        <ele>24</ele>
        <time>2022-01-27T09:08:01.000Z</time>
      </trkpt>
      <trkpt lat="47.29822" lon="-2.34849">
        <ele>24</ele>
        <time>2022-01-27T09:08:08.000Z</time>
      </trkpt>
      <trkpt lat="47.29859" lon="-2.34842">
        <ele>24</ele>
        <time>2022-01-27T09:08:15.000Z</time>
      </trkpt>
      <trkpt lat="47.29892" lon="-2.34835">
        <ele>24.799999237061</ele>
        <time>2022-01-27T09:08:21.000Z</time>
      </trkpt>
      <trkpt lat="47.29898" lon="-2.34834">
        <ele>25.200000762939</ele>
        <time>2022-01-27T09:08:22.000Z</time>
      </trkpt>
      <trkpt lat="47.29903" lon="-2.34833">
        <ele>25.60000038147</ele>
        <time>2022-01-27T09:08:23.000Z</time>
      </trkpt>
      <trkpt lat="47.29908" lon="-2.34832">
        <ele>26</ele>
        <time>2022-01-27T09:08:24.000Z</time>
      </trkpt>
      <trkpt lat="47.29928" lon="-2.34829">
        <ele>26</ele>
        <time>2022-01-27T09:08:28.000Z</time>
      </trkpt>
      <trkpt lat="47.29966" lon="-2.34821">
        <ele>26</ele>
        <time>2022-01-27T09:08:36.000Z</time>
      </trkpt>
      <trkpt lat="47.2997" lon="-2.3482">
        <ele>26</ele>
        <time>2022-01-27T09:08:37.000Z</time>
      </trkpt>
      <trkpt lat="47.29979" lon="-2.34809">
        <ele>26</ele>
        <time>2022-01-27T09:08:40.000Z</time>
      </trkpt>
      <trkpt lat="47.29978" lon="-2.34788">
        <ele>26</ele>
        <time>2022-01-27T09:08:43.000Z</time>
      </trkpt>
      <trkpt lat="47.29977" lon="-2.34781">
        <ele>26</ele>
        <time>2022-01-27T09:08:44.000Z</time>
      </trkpt>
      <trkpt lat="47.29971" lon="-2.34734">
        <ele>26</ele>
        <time>2022-01-27T09:08:50.000Z</time>
      </trkpt>
      <trkpt lat="47.29962" lon="-2.34662">
        <ele>26</ele>
        <time>2022-01-27T09:08:58.000Z</time>
      </trkpt>
      <trkpt lat="47.29952" lon="-2.34583">
        <ele>26</ele>
        <time>2022-01-27T09:09:07.000Z</time>
      </trkpt>
      <trkpt lat="47.2995" lon="-2.34567">
        <ele>26.39999961853</ele>
        <time>2022-01-27T09:09:09.000Z</time>
      </trkpt>
      <trkpt lat="47.29949" lon="-2.34558">
        <ele>26.799999237061</ele>
        <time>2022-01-27T09:09:10.000Z</time>
      </trkpt>
      <trkpt lat="47.29948" lon="-2.3455">
        <ele>27.60000038147</ele>
        <time>2022-01-27T09:09:11.000Z</time>
      </trkpt>
      <trkpt lat="47.29947" lon="-2.34541">
        <ele>28</ele>
        <time>2022-01-27T09:09:12.000Z</time>
      </trkpt>
      <trkpt lat="47.29944" lon="-2.34515">
        <ele>28</ele>
        <time>2022-01-27T09:09:15.000Z</time>
      </trkpt>
      <trkpt lat="47.29934" lon="-2.34433">
        <ele>28</ele>
        <time>2022-01-27T09:09:24.000Z</time>
      </trkpt>
      <trkpt lat="47.29925" lon="-2.34349">
        <ele>28</ele>
        <time>2022-01-27T09:09:33.000Z</time>
      </trkpt>
      <trkpt lat="47.29915" lon="-2.34286">
        <ele>28</ele>
        <time>2022-01-27T09:09:40.000Z</time>
      </trkpt>
      <trkpt lat="47.2991" lon="-2.34265">
        <ele>27.60000038147</ele>
        <time>2022-01-27T09:09:43.000Z</time>
      </trkpt>
      <trkpt lat="47.29911" lon="-2.34258">
        <ele>27.200000762939</ele>
        <time>2022-01-27T09:09:44.000Z</time>
      </trkpt>
      <trkpt lat="47.29914" lon="-2.34252">
        <ele>26.799999237061</ele>
        <time>2022-01-27T09:09:45.000Z</time>
      </trkpt>
      <trkpt lat="47.29918" lon="-2.34247">
        <ele>26.200000762939</ele>
        <time>2022-01-27T09:09:46.000Z</time>
      </trkpt>
      <trkpt lat="47.29922" lon="-2.34242">
        <ele>25.799999237061</ele>
        <time>2022-01-27T09:09:47.000Z</time>
      </trkpt>
      <trkpt lat="47.29931" lon="-2.34233">
        <ele>25.799999237061</ele>
        <time>2022-01-27T09:09:49.000Z</time>
      </trkpt>
      <trkpt lat="47.29952" lon="-2.34205">
        <ele>25.799999237061</ele>
        <time>2022-01-27T09:09:54.000Z</time>
      </trkpt>
      <trkpt lat="47.29983" lon="-2.34165">
        <ele>25.799999237061</ele>
        <time>2022-01-27T09:10:01.000Z</time>
      </trkpt>
      <trkpt lat="47.30018" lon="-2.34119">
        <ele>25.799999237061</ele>
        <time>2022-01-27T09:10:09.000Z</time>
      </trkpt>
      <trkpt lat="47.30055" lon="-2.34072">
        <ele>25.799999237061</ele>
        <time>2022-01-27T09:10:17.000Z</time>
      </trkpt>
      <trkpt lat="47.30089" lon="-2.34027">
        <ele>25.799999237061</ele>
        <time>2022-01-27T09:10:24.000Z</time>
      </trkpt>
      <trkpt lat="47.30122" lon="-2.33987">
        <ele>25.799999237061</ele>
        <time>2022-01-27T09:10:31.000Z</time>
      </trkpt>
      <trkpt lat="47.30139" lon="-2.33968">
        <ele>25.799999237061</ele>
        <time>2022-01-27T09:10:35.000Z</time>
      </trkpt>
      <trkpt lat="47.30148" lon="-2.33961">
        <ele>25.799999237061</ele>
        <time>2022-01-27T09:10:37.000Z</time>
      </trkpt>
      <trkpt lat="47.30152" lon="-2.33959">
        <ele>25.799999237061</ele>
        <time>2022-01-27T09:10:38.000Z</time>
      </trkpt>
      <trkpt lat="47.30162" lon="-2.33953">
        <ele>25.799999237061</ele>
        <time>2022-01-27T09:10:41.000Z</time>
      </trkpt>
      <trkpt lat="47.30172" lon="-2.33943">
        <ele>25.799999237061</ele>
        <time>2022-01-27T09:10:46.000Z</time>
      </trkpt>
      <trkpt lat="47.30181" lon="-2.33934">
        <ele>25.799999237061</ele>
        <time>2022-01-27T09:10:51.000Z</time>
      </trkpt>
      <trkpt lat="47.30194" lon="-2.33919">
        <ele>26.200000762939</ele>
        <time>2022-01-27T09:10:57.000Z</time>
      </trkpt>
      <trkpt lat="47.30196" lon="-2.33916">
        <ele>26.60000038147</ele>
        <time>2022-01-27T09:10:58.000Z</time>
      </trkpt>
      <trkpt lat="47.30198" lon="-2.33913">
        <ele>27</ele>
        <time>2022-01-27T09:10:59.000Z</time>
      </trkpt>
      <trkpt lat="47.30201" lon="-2.3391">
        <ele>27.39999961853</ele>
        <time>2022-01-27T09:11:00.000Z</time>
      </trkpt>
      <trkpt lat="47.30204" lon="-2.33907">
        <ele>27.799999237061</ele>
        <time>2022-01-27T09:11:01.000Z</time>
      </trkpt>
      <trkpt lat="47.30209" lon="-2.33903">
        <ele>27.799999237061</ele>
        <time>2022-01-27T09:11:03.000Z</time>
      </trkpt>
      <trkpt lat="47.30227" lon="-2.33886">
        <ele>27.799999237061</ele>
        <time>2022-01-27T09:11:11.000Z</time>
      </trkpt>
      <trkpt lat="47.30238" lon="-2.33881">
        <ele>27.799999237061</ele>
        <time>2022-01-27T09:11:14.000Z</time>
      </trkpt>
      <trkpt lat="47.30241" lon="-2.3388">
        <ele>27.799999237061</ele>
        <time>2022-01-27T09:11:15.000Z</time>
      </trkpt>
      <trkpt lat="47.30259" lon="-2.33868">
        <ele>27.799999237061</ele>
        <time>2022-01-27T09:11:20.000Z</time>
      </trkpt>
      <trkpt lat="47.30262" lon="-2.33864">
        <ele>28.200000762939</ele>
        <time>2022-01-27T09:11:21.000Z</time>
      </trkpt>
      <trkpt lat="47.30266" lon="-2.33861">
        <ele>28.60000038147</ele>
        <time>2022-01-27T09:11:22.000Z</time>
      </trkpt>
      <trkpt lat="47.3027" lon="-2.33858">
        <ele>29.200000762939</ele>
        <time>2022-01-27T09:11:23.000Z</time>
      </trkpt>
      <trkpt lat="47.30274" lon="-2.33854">
        <ele>29.60000038147</ele>
        <time>2022-01-27T09:11:24.000Z</time>
      </trkpt>
      <trkpt lat="47.30278" lon="-2.3385">
        <ele>30</ele>
        <time>2022-01-27T09:11:25.000Z</time>
      </trkpt>
      <trkpt lat="47.30282" lon="-2.33847">
        <ele>30</ele>
        <time>2022-01-27T09:11:26.000Z</time>
      </trkpt>
      <trkpt lat="47.30308" lon="-2.33828">
        <ele>30</ele>
        <time>2022-01-27T09:11:32.000Z</time>
      </trkpt>
      <trkpt lat="47.30326" lon="-2.33814">
        <ele>30</ele>
        <time>2022-01-27T09:11:36.000Z</time>
      </trkpt>
      <trkpt lat="47.3033" lon="-2.3381">
        <ele>30</ele>
        <time>2022-01-27T09:11:37.000Z</time>
      </trkpt>
      <trkpt lat="47.3036" lon="-2.33777">
        <ele>30</ele>
        <time>2022-01-27T09:11:44.000Z</time>
      </trkpt>
      <trkpt lat="47.30378" lon="-2.33754">
        <ele>30</ele>
        <time>2022-01-27T09:11:49.000Z</time>
      </trkpt>
      <trkpt lat="47.30398" lon="-2.33724">
        <ele>30</ele>
        <time>2022-01-27T09:11:55.000Z</time>
      </trkpt>
      <trkpt lat="47.30409" lon="-2.33703">
        <ele>30</ele>
        <time>2022-01-27T09:11:59.000Z</time>
      </trkpt>
      <trkpt lat="47.30414" lon="-2.33697">
        <ele>30</ele>
        <time>2022-01-27T09:12:00.000Z</time>
      </trkpt>
      <trkpt lat="47.30434" lon="-2.33686">
        <ele>30</ele>
        <time>2022-01-27T09:12:04.000Z</time>
      </trkpt>
      <trkpt lat="47.3044" lon="-2.33683">
        <ele>30</ele>
        <time>2022-01-27T09:12:05.000Z</time>
      </trkpt>
      <trkpt lat="47.3046" lon="-2.33671">
        <ele>30</ele>
        <time>2022-01-27T09:12:09.000Z</time>
      </trkpt>
      <trkpt lat="47.30492" lon="-2.33655">
        <ele>30</ele>
        <time>2022-01-27T09:12:15.000Z</time>
      </trkpt>
      <trkpt lat="47.30519" lon="-2.33646">
        <ele>30</ele>
        <time>2022-01-27T09:12:20.000Z</time>
      </trkpt>
      <trkpt lat="47.3053" lon="-2.33645">
        <ele>30</ele>
        <time>2022-01-27T09:12:22.000Z</time>
      </trkpt>
      <trkpt lat="47.30544" lon="-2.33646">
        <ele>30</ele>
        <time>2022-01-27T09:12:25.000Z</time>
      </trkpt>
      <trkpt lat="47.30548" lon="-2.3365">
        <ele>30</ele>
        <time>2022-01-27T09:12:26.000Z</time>
      </trkpt>
      <trkpt lat="47.30554" lon="-2.33668">
        <ele>30</ele>
        <time>2022-01-27T09:12:29.000Z</time>
      </trkpt>
      <trkpt lat="47.30555" lon="-2.33673">
        <ele>30</ele>
        <time>2022-01-27T09:12:30.000Z</time>
      </trkpt>
      <trkpt lat="47.30564" lon="-2.33709">
        <ele>30</ele>
        <time>2022-01-27T09:12:36.000Z</time>
      </trkpt>
      <trkpt lat="47.30568" lon="-2.33729">
        <ele>30</ele>
        <time>2022-01-27T09:12:39.000Z</time>
      </trkpt>
      <trkpt lat="47.3057" lon="-2.33749">
        <ele>30</ele>
        <time>2022-01-27T09:12:42.000Z</time>
      </trkpt>
      <trkpt lat="47.30575" lon="-2.33782">
        <ele>30</ele>
        <time>2022-01-27T09:12:47.000Z</time>
      </trkpt>
      <trkpt lat="47.30578" lon="-2.33793">
        <ele>30</ele>
        <time>2022-01-27T09:12:49.000Z</time>
      </trkpt>
      <trkpt lat="47.30586" lon="-2.33821">
        <ele>30</ele>
        <time>2022-01-27T09:12:54.000Z</time>
      </trkpt>
      <trkpt lat="47.30594" lon="-2.33847">
        <ele>30</ele>
        <time>2022-01-27T09:12:59.000Z</time>
      </trkpt>
      <trkpt lat="47.30596" lon="-2.33871">
        <ele>30</ele>
        <time>2022-01-27T09:13:04.000Z</time>
      </trkpt>
      <trkpt lat="47.30596" lon="-2.33882">
        <ele>30</ele>
        <time>2022-01-27T09:13:06.000Z</time>
      </trkpt>
      <trkpt lat="47.30596" lon="-2.33894">
        <ele>30</ele>
        <time>2022-01-27T09:13:08.000Z</time>
      </trkpt>
      <trkpt lat="47.306" lon="-2.33924">
        <ele>30</ele>
        <time>2022-01-27T09:13:13.000Z</time>
      </trkpt>
      <trkpt lat="47.30609" lon="-2.33945">
        <ele>30</ele>
        <time>2022-01-27T09:13:17.000Z</time>
      </trkpt>
      <trkpt lat="47.30613" lon="-2.33949">
        <ele>30</ele>
        <time>2022-01-27T09:13:18.000Z</time>
      </trkpt>
      <trkpt lat="47.30624" lon="-2.33958">
        <ele>30</ele>
        <time>2022-01-27T09:13:21.000Z</time>
      </trkpt>
      <trkpt lat="47.30648" lon="-2.33981">
        <ele>30</ele>
        <time>2022-01-27T09:13:27.000Z</time>
      </trkpt>
      <trkpt lat="47.30653" lon="-2.33984">
        <ele>30</ele>
        <time>2022-01-27T09:13:28.000Z</time>
      </trkpt>
      <trkpt lat="47.30672" lon="-2.33987">
        <ele>30</ele>
        <time>2022-01-27T09:13:32.000Z</time>
      </trkpt>
      <trkpt lat="47.30676" lon="-2.33987">
        <ele>30</ele>
        <time>2022-01-27T09:13:33.000Z</time>
      </trkpt>
      <trkpt lat="47.3069" lon="-2.33988">
        <ele>30</ele>
        <time>2022-01-27T09:13:36.000Z</time>
      </trkpt>
      <trkpt lat="47.307" lon="-2.33987">
        <ele>30</ele>
        <time>2022-01-27T09:13:38.000Z</time>
      </trkpt>
      <trkpt lat="47.30732" lon="-2.33979">
        <ele>30</ele>
        <time>2022-01-27T09:13:44.000Z</time>
      </trkpt>
      <trkpt lat="47.30742" lon="-2.33976">
        <ele>30.39999961853</ele>
        <time>2022-01-27T09:13:46.000Z</time>
      </trkpt>
      <trkpt lat="47.30747" lon="-2.33975">
        <ele>30.799999237061</ele>
        <time>2022-01-27T09:13:47.000Z</time>
      </trkpt>
      <trkpt lat="47.30752" lon="-2.33974">
        <ele>31.200000762939</ele>
        <time>2022-01-27T09:13:48.000Z</time>
      </trkpt>
      <trkpt lat="47.30757" lon="-2.33973">
        <ele>31.60000038147</ele>
        <time>2022-01-27T09:13:49.000Z</time>
      </trkpt>
      <trkpt lat="47.30762" lon="-2.33971">
        <ele>32</ele>
        <time>2022-01-27T09:13:50.000Z</time>
      </trkpt>
      <trkpt lat="47.30768" lon="-2.3397">
        <ele>32</ele>
        <time>2022-01-27T09:13:51.000Z</time>
      </trkpt>
      <trkpt lat="47.30794" lon="-2.33964">
        <ele>32</ele>
        <time>2022-01-27T09:13:56.000Z</time>
      </trkpt>
      <trkpt lat="47.30799" lon="-2.33962">
        <ele>32</ele>
        <time>2022-01-27T09:13:57.000Z</time>
      </trkpt>
      <trkpt lat="47.3084" lon="-2.33953">
        <ele>32</ele>
        <time>2022-01-27T09:14:04.000Z</time>
      </trkpt>
      <trkpt lat="47.30884" lon="-2.33946">
        <ele>32</ele>
        <time>2022-01-27T09:14:11.000Z</time>
      </trkpt>
      <trkpt lat="47.30928" lon="-2.33946">
        <ele>32</ele>
        <time>2022-01-27T09:14:18.000Z</time>
      </trkpt>
      <trkpt lat="47.30972" lon="-2.33954">
        <ele>32</ele>
        <time>2022-01-27T09:14:25.000Z</time>
      </trkpt>
      <trkpt lat="47.31016" lon="-2.33952">
        <ele>32</ele>
        <time>2022-01-27T09:14:32.000Z</time>
      </trkpt>
      <trkpt lat="47.31054" lon="-2.33946">
        <ele>32</ele>
        <time>2022-01-27T09:14:38.000Z</time>
      </trkpt>
      <trkpt lat="47.31058" lon="-2.33948">
        <ele>32</ele>
        <time>2022-01-27T09:14:39.000Z</time>
      </trkpt>
      <trkpt lat="47.31064" lon="-2.33957">
        <ele>31.60000038147</ele>
        <time>2022-01-27T09:14:41.000Z</time>
      </trkpt>
      <trkpt lat="47.31066" lon="-2.33962">
        <ele>31.200000762939</ele>
        <time>2022-01-27T09:14:42.000Z</time>
      </trkpt>
      <trkpt lat="47.31067" lon="-2.3397">
        <ele>30.799999237061</ele>
        <time>2022-01-27T09:14:43.000Z</time>
      </trkpt>
      <trkpt lat="47.31067" lon="-2.33978">
        <ele>30.39999961853</ele>
        <time>2022-01-27T09:14:44.000Z</time>
      </trkpt>
      <trkpt lat="47.31067" lon="-2.33987">
        <ele>30</ele>
        <time>2022-01-27T09:14:45.000Z</time>
      </trkpt>
      <trkpt lat="47.31071" lon="-2.34053">
        <ele>30</ele>
        <time>2022-01-27T09:14:52.000Z</time>
      </trkpt>
      <trkpt lat="47.31075" lon="-2.34072">
        <ele>30</ele>
        <time>2022-01-27T09:14:54.000Z</time>
      </trkpt>
      <trkpt lat="47.31084" lon="-2.341">
        <ele>30</ele>
        <time>2022-01-27T09:14:57.000Z</time>
      </trkpt>
      <trkpt lat="47.31098" lon="-2.34128">
        <ele>29.39999961853</ele>
        <time>2022-01-27T09:15:00.000Z</time>
      </trkpt>
      <trkpt lat="47.31103" lon="-2.34137">
        <ele>29</ele>
        <time>2022-01-27T09:15:01.000Z</time>
      </trkpt>
      <trkpt lat="47.31107" lon="-2.34147">
        <ele>28.60000038147</ele>
        <time>2022-01-27T09:15:02.000Z</time>
      </trkpt>
      <trkpt lat="47.31113" lon="-2.34157">
        <ele>28.200000762939</ele>
        <time>2022-01-27T09:15:03.000Z</time>
      </trkpt>
      <trkpt lat="47.31118" lon="-2.34168">
        <ele>27.799999237061</ele>
        <time>2022-01-27T09:15:04.000Z</time>
      </trkpt>
      <trkpt lat="47.31123" lon="-2.34178">
        <ele>27.39999961853</ele>
        <time>2022-01-27T09:15:05.000Z</time>
      </trkpt>
      <trkpt lat="47.31129" lon="-2.3419">
        <ele>27</ele>
        <time>2022-01-27T09:15:06.000Z</time>
      </trkpt>
      <trkpt lat="47.31135" lon="-2.342">
        <ele>26.60000038147</ele>
        <time>2022-01-27T09:15:07.000Z</time>
      </trkpt>
      <trkpt lat="47.31141" lon="-2.34211">
        <ele>26.200000762939</ele>
        <time>2022-01-27T09:15:08.000Z</time>
      </trkpt>
      <trkpt lat="47.31147" lon="-2.34222">
        <ele>25.60000038147</ele>
        <time>2022-01-27T09:15:09.000Z</time>
      </trkpt>
      <trkpt lat="47.31153" lon="-2.34234">
        <ele>25.200000762939</ele>
        <time>2022-01-27T09:15:10.000Z</time>
      </trkpt>
      <trkpt lat="47.31159" lon="-2.34246">
        <ele>24.60000038147</ele>
        <time>2022-01-27T09:15:11.000Z</time>
      </trkpt>
      <trkpt lat="47.31165" lon="-2.34258">
        <ele>24.200000762939</ele>
        <time>2022-01-27T09:15:12.000Z</time>
      </trkpt>
      <trkpt lat="47.3117" lon="-2.3427">
        <ele>23.60000038147</ele>
        <time>2022-01-27T09:15:13.000Z</time>
      </trkpt>
      <trkpt lat="47.3118" lon="-2.34294">
        <ele>23.200000762939</ele>
        <time>2022-01-27T09:15:15.000Z</time>
      </trkpt>
      <trkpt lat="47.31185" lon="-2.34305">
        <ele>22.799999237061</ele>
        <time>2022-01-27T09:15:16.000Z</time>
      </trkpt>
      <trkpt lat="47.31191" lon="-2.34316">
        <ele>22.39999961853</ele>
        <time>2022-01-27T09:15:17.000Z</time>
      </trkpt>
      <trkpt lat="47.31197" lon="-2.34326">
        <ele>22</ele>
        <time>2022-01-27T09:15:18.000Z</time>
      </trkpt>
      <trkpt lat="47.31204" lon="-2.34335">
        <ele>21.60000038147</ele>
        <time>2022-01-27T09:15:19.000Z</time>
      </trkpt>
      <trkpt lat="47.31211" lon="-2.34343">
        <ele>21.60000038147</ele>
        <time>2022-01-27T09:15:20.000Z</time>
      </trkpt>
      <trkpt lat="47.31231" lon="-2.3436">
        <ele>21.60000038147</ele>
        <time>2022-01-27T09:15:23.000Z</time>
      </trkpt>
      <trkpt lat="47.31238" lon="-2.34364">
        <ele>21.60000038147</ele>
        <time>2022-01-27T09:15:24.000Z</time>
      </trkpt>
      <trkpt lat="47.31251" lon="-2.34372">
        <ele>21.60000038147</ele>
        <time>2022-01-27T09:15:26.000Z</time>
      </trkpt>
      <trkpt lat="47.31261" lon="-2.34384">
        <ele>21.60000038147</ele>
        <time>2022-01-27T09:15:28.000Z</time>
      </trkpt>
      <trkpt lat="47.31268" lon="-2.34408">
        <ele>21.60000038147</ele>
        <time>2022-01-27T09:15:31.000Z</time>
      </trkpt>
      <trkpt lat="47.31269" lon="-2.34416">
        <ele>21.60000038147</ele>
        <time>2022-01-27T09:15:32.000Z</time>
      </trkpt>
      <trkpt lat="47.31273" lon="-2.3445">
        <ele>22</ele>
        <time>2022-01-27T09:15:36.000Z</time>
      </trkpt>
      <trkpt lat="47.31273" lon="-2.34458">
        <ele>22.60000038147</ele>
        <time>2022-01-27T09:15:37.000Z</time>
      </trkpt>
      <trkpt lat="47.31274" lon="-2.34466">
        <ele>23</ele>
        <time>2022-01-27T09:15:38.000Z</time>
      </trkpt>
      <trkpt lat="47.31275" lon="-2.34474">
        <ele>23.39999961853</ele>
        <time>2022-01-27T09:15:39.000Z</time>
      </trkpt>
      <trkpt lat="47.31276" lon="-2.34481">
        <ele>23.799999237061</ele>
        <time>2022-01-27T09:15:40.000Z</time>
      </trkpt>
      <trkpt lat="47.31281" lon="-2.34521">
        <ele>24.200000762939</ele>
        <time>2022-01-27T09:15:45.000Z</time>
      </trkpt>
      <trkpt lat="47.31282" lon="-2.34529">
        <ele>24.60000038147</ele>
        <time>2022-01-27T09:15:46.000Z</time>
      </trkpt>
      <trkpt lat="47.31283" lon="-2.34537">
        <ele>25</ele>
        <time>2022-01-27T09:15:47.000Z</time>
      </trkpt>
      <trkpt lat="47.31283" lon="-2.34545">
        <ele>25.39999961853</ele>
        <time>2022-01-27T09:15:48.000Z</time>
      </trkpt>
      <trkpt lat="47.31284" lon="-2.34553">
        <ele>25.799999237061</ele>
        <time>2022-01-27T09:15:49.000Z</time>
      </trkpt>
      <trkpt lat="47.31288" lon="-2.34584">
        <ele>25.799999237061</ele>
        <time>2022-01-27T09:15:53.000Z</time>
      </trkpt>
      <trkpt lat="47.31293" lon="-2.34629">
        <ele>26.200000762939</ele>
        <time>2022-01-27T09:15:59.000Z</time>
      </trkpt>
      <trkpt lat="47.31293" lon="-2.34635">
        <ele>26.60000038147</ele>
        <time>2022-01-27T09:16:00.000Z</time>
      </trkpt>
      <trkpt lat="47.31294" lon="-2.34642">
        <ele>27</ele>
        <time>2022-01-27T09:16:01.000Z</time>
      </trkpt>
      <trkpt lat="47.31295" lon="-2.34648">
        <ele>27.60000038147</ele>
        <time>2022-01-27T09:16:02.000Z</time>
      </trkpt>
      <trkpt lat="47.31297" lon="-2.34653">
        <ele>28</ele>
        <time>2022-01-27T09:16:03.000Z</time>
      </trkpt>
      <trkpt lat="47.31299" lon="-2.34658">
        <ele>28</ele>
        <time>2022-01-27T09:16:04.000Z</time>
      </trkpt>
      <trkpt lat="47.31303" lon="-2.34668">
        <ele>28</ele>
        <time>2022-01-27T09:16:06.000Z</time>
      </trkpt>
      <trkpt lat="47.31301" lon="-2.34673">
        <ele>28.39999961853</ele>
        <time>2022-01-27T09:16:07.000Z</time>
      </trkpt>
      <trkpt lat="47.31298" lon="-2.34677">
        <ele>28.799999237061</ele>
        <time>2022-01-27T09:16:08.000Z</time>
      </trkpt>
      <trkpt lat="47.31294" lon="-2.3468">
        <ele>29.60000038147</ele>
        <time>2022-01-27T09:16:09.000Z</time>
      </trkpt>
      <trkpt lat="47.3129" lon="-2.34684">
        <ele>30</ele>
        <time>2022-01-27T09:16:10.000Z</time>
      </trkpt>
      <trkpt lat="47.31283" lon="-2.34694">
        <ele>30</ele>
        <time>2022-01-27T09:16:12.000Z</time>
      </trkpt>
      <trkpt lat="47.31281" lon="-2.34699">
        <ele>30</ele>
        <time>2022-01-27T09:16:13.000Z</time>
      </trkpt>
      <trkpt lat="47.31279" lon="-2.34706">
        <ele>30</ele>
        <time>2022-01-27T09:16:14.000Z</time>
      </trkpt>
      <trkpt lat="47.31281" lon="-2.34729">
        <ele>30</ele>
        <time>2022-01-27T09:16:18.000Z</time>
      </trkpt>
      <trkpt lat="47.31282" lon="-2.34734">
        <ele>30</ele>
        <time>2022-01-27T09:16:19.000Z</time>
      </trkpt>
      <trkpt lat="47.31286" lon="-2.34758">
        <ele>30</ele>
        <time>2022-01-27T09:16:25.000Z</time>
      </trkpt>
      <trkpt lat="47.31289" lon="-2.3478">
        <ele>30</ele>
        <time>2022-01-27T09:16:32.000Z</time>
      </trkpt>
      <trkpt lat="47.31294" lon="-2.34801">
        <ele>30</ele>
        <time>2022-01-27T09:16:39.000Z</time>
      </trkpt>
      <trkpt lat="47.313" lon="-2.34833">
        <ele>30</ele>
        <time>2022-01-27T09:16:47.000Z</time>
      </trkpt>
      <trkpt lat="47.31303" lon="-2.34855">
        <ele>30</ele>
        <time>2022-01-27T09:16:54.000Z</time>
      </trkpt>
      <trkpt lat="47.31308" lon="-2.34876">
        <ele>30</ele>
        <time>2022-01-27T09:17:01.000Z</time>
      </trkpt>
      <trkpt lat="47.31315" lon="-2.349">
        <ele>30</ele>
        <time>2022-01-27T09:17:07.000Z</time>
      </trkpt>
      <trkpt lat="47.31328" lon="-2.34934">
        <ele>30</ele>
        <time>2022-01-27T09:17:15.000Z</time>
      </trkpt>
      <trkpt lat="47.31335" lon="-2.34963">
        <ele>30</ele>
        <time>2022-01-27T09:17:21.000Z</time>
      </trkpt>
      <trkpt lat="47.31339" lon="-2.34988">
        <ele>30</ele>
        <time>2022-01-27T09:17:27.000Z</time>
      </trkpt>
      <trkpt lat="47.31343" lon="-2.34997">
        <ele>30</ele>
        <time>2022-01-27T09:17:32.000Z</time>
      </trkpt>
      <trkpt lat="47.31343" lon="-2.34997">
        <ele>30</ele>
        <time>2022-01-27T09:17:33.000Z</time>
      </trkpt>
      <trkpt lat="47.31345" lon="-2.35001">
        <ele>30</ele>
        <time>2022-01-27T09:17:45.000Z</time>
      </trkpt>
      <trkpt lat="47.31347" lon="-2.35004">
        <ele>30</ele>
        <time>2022-01-27T09:17:47.000Z</time>
      </trkpt>
      <trkpt lat="47.3135" lon="-2.35004">
        <ele>30</ele>
        <time>2022-01-27T09:17:51.000Z</time>
      </trkpt>
      <trkpt lat="47.31351" lon="-2.35003">
        <ele>30</ele>
        <time>2022-01-27T09:17:52.000Z</time>
      </trkpt>
      <trkpt lat="47.3136" lon="-2.34998">
        <ele>30</ele>
        <time>2022-01-27T09:17:59.000Z</time>
      </trkpt>
      <trkpt lat="47.31378" lon="-2.34996">
        <ele>30</ele>
        <time>2022-01-27T09:18:06.000Z</time>
      </trkpt>
      <trkpt lat="47.31397" lon="-2.34999">
        <ele>30</ele>
        <time>2022-01-27T09:18:12.000Z</time>
      </trkpt>
      <trkpt lat="47.31421" lon="-2.35007">
        <ele>30</ele>
        <time>2022-01-27T09:18:19.000Z</time>
      </trkpt>
      <trkpt lat="47.31453" lon="-2.35011">
        <ele>30</ele>
        <time>2022-01-27T09:18:27.000Z</time>
      </trkpt>
      <trkpt lat="47.3149" lon="-2.35012">
        <ele>30</ele>
        <time>2022-01-27T09:18:36.000Z</time>
      </trkpt>
      <trkpt lat="47.31499" lon="-2.35012">
        <ele>29.60000038147</ele>
        <time>2022-01-27T09:18:38.000Z</time>
      </trkpt>
      <trkpt lat="47.31503" lon="-2.35012">
        <ele>29.200000762939</ele>
        <time>2022-01-27T09:18:39.000Z</time>
      </trkpt>
      <trkpt lat="47.31508" lon="-2.35011">
        <ele>28.799999237061</ele>
        <time>2022-01-27T09:18:40.000Z</time>
      </trkpt>
      <trkpt lat="47.31512" lon="-2.35011">
        <ele>28.39999961853</ele>
        <time>2022-01-27T09:18:41.000Z</time>
      </trkpt>
      <trkpt lat="47.31517" lon="-2.35012">
        <ele>28</ele>
        <time>2022-01-27T09:18:42.000Z</time>
      </trkpt>
      <trkpt lat="47.31526" lon="-2.35011">
        <ele>28</ele>
        <time>2022-01-27T09:18:44.000Z</time>
      </trkpt>
      <trkpt lat="47.31555" lon="-2.35008">
        <ele>28</ele>
        <time>2022-01-27T09:18:51.000Z</time>
      </trkpt>
      <trkpt lat="47.3159" lon="-2.35007">
        <ele>28</ele>
        <time>2022-01-27T09:18:58.000Z</time>
      </trkpt>
      <trkpt lat="47.31594" lon="-2.35005">
        <ele>27.60000038147</ele>
        <time>2022-01-27T09:18:59.000Z</time>
      </trkpt>
      <trkpt lat="47.31598" lon="-2.35005">
        <ele>27.200000762939</ele>
        <time>2022-01-27T09:19:00.000Z</time>
      </trkpt>
      <trkpt lat="47.31601" lon="-2.35004">
        <ele>26.799999237061</ele>
        <time>2022-01-27T09:19:01.000Z</time>
      </trkpt>
      <trkpt lat="47.31604" lon="-2.35003">
        <ele>26</ele>
        <time>2022-01-27T09:19:02.000Z</time>
      </trkpt>
      <trkpt lat="47.31607" lon="-2.35002">
        <ele>26</ele>
        <time>2022-01-27T09:19:03.000Z</time>
      </trkpt>
      <trkpt lat="47.31624" lon="-2.34992">
        <ele>26</ele>
        <time>2022-01-27T09:19:10.000Z</time>
      </trkpt>
      <trkpt lat="47.31646" lon="-2.34984">
        <ele>26</ele>
        <time>2022-01-27T09:19:18.000Z</time>
      </trkpt>
      <trkpt lat="47.31662" lon="-2.34974">
        <ele>26</ele>
        <time>2022-01-27T09:19:23.000Z</time>
      </trkpt>
      <trkpt lat="47.31677" lon="-2.34969">
        <ele>25.60000038147</ele>
        <time>2022-01-27T09:19:26.000Z</time>
      </trkpt>
      <trkpt lat="47.31682" lon="-2.34969">
        <ele>24.60000038147</ele>
        <time>2022-01-27T09:19:27.000Z</time>
      </trkpt>
      <trkpt lat="47.31688" lon="-2.3497">
        <ele>24.200000762939</ele>
        <time>2022-01-27T09:19:28.000Z</time>
      </trkpt>
      <trkpt lat="47.31693" lon="-2.34971">
        <ele>23.799999237061</ele>
        <time>2022-01-27T09:19:29.000Z</time>
      </trkpt>
      <trkpt lat="47.31703" lon="-2.34973">
        <ele>23.799999237061</ele>
        <time>2022-01-27T09:19:31.000Z</time>
      </trkpt>
      <trkpt lat="47.31707" lon="-2.34971">
        <ele>23.799999237061</ele>
        <time>2022-01-27T09:19:32.000Z</time>
      </trkpt>
      <trkpt lat="47.31734" lon="-2.34959">
        <ele>23.799999237061</ele>
        <time>2022-01-27T09:19:37.000Z</time>
      </trkpt>
      <trkpt lat="47.31762" lon="-2.34953">
        <ele>23.799999237061</ele>
        <time>2022-01-27T09:19:42.000Z</time>
      </trkpt>
      <trkpt lat="47.31768" lon="-2.34954">
        <ele>23.799999237061</ele>
        <time>2022-01-27T09:19:43.000Z</time>
      </trkpt>
      <trkpt lat="47.31805" lon="-2.34963">
        <ele>23.799999237061</ele>
        <time>2022-01-27T09:19:49.000Z</time>
      </trkpt>
      <trkpt lat="47.3184" lon="-2.34975">
        <ele>23.799999237061</ele>
        <time>2022-01-27T09:19:55.000Z</time>
      </trkpt>
      <trkpt lat="47.31883" lon="-2.35002">
        <ele>23.799999237061</ele>
        <time>2022-01-27T09:20:02.000Z</time>
      </trkpt>
      <trkpt lat="47.31911" lon="-2.35019">
        <ele>23.39999961853</ele>
        <time>2022-01-27T09:20:06.000Z</time>
      </trkpt>
      <trkpt lat="47.31918" lon="-2.35023">
        <ele>23</ele>
        <time>2022-01-27T09:20:07.000Z</time>
      </trkpt>
      <trkpt lat="47.31925" lon="-2.35027">
        <ele>22.60000038147</ele>
        <time>2022-01-27T09:20:08.000Z</time>
      </trkpt>
      <trkpt lat="47.31932" lon="-2.35031">
        <ele>22.200000762939</ele>
        <time>2022-01-27T09:20:09.000Z</time>
      </trkpt>
      <trkpt lat="47.31938" lon="-2.35033">
        <ele>21.799999237061</ele>
        <time>2022-01-27T09:20:10.000Z</time>
      </trkpt>
      <trkpt lat="47.31973" lon="-2.35048">
        <ele>21.799999237061</ele>
        <time>2022-01-27T09:20:15.000Z</time>
      </trkpt>
      <trkpt lat="47.31987" lon="-2.35051">
        <ele>21.799999237061</ele>
        <time>2022-01-27T09:20:17.000Z</time>
      </trkpt>
      <trkpt lat="47.32008" lon="-2.35054">
        <ele>21.799999237061</ele>
        <time>2022-01-27T09:20:20.000Z</time>
      </trkpt>
      <trkpt lat="47.3202" lon="-2.35056">
        <ele>21.39999961853</ele>
        <time>2022-01-27T09:20:22.000Z</time>
      </trkpt>
      <trkpt lat="47.32025" lon="-2.35056">
        <ele>21</ele>
        <time>2022-01-27T09:20:23.000Z</time>
      </trkpt>
      <trkpt lat="47.32029" lon="-2.35059">
        <ele>20.60000038147</ele>
        <time>2022-01-27T09:20:24.000Z</time>
      </trkpt>
      <trkpt lat="47.32032" lon="-2.35065">
        <ele>20.200000762939</ele>
        <time>2022-01-27T09:20:25.000Z</time>
      </trkpt>
      <trkpt lat="47.32034" lon="-2.3507">
        <ele>19.799999237061</ele>
        <time>2022-01-27T09:20:26.000Z</time>
      </trkpt>
      <trkpt lat="47.32039" lon="-2.35089">
        <ele>19.799999237061</ele>
        <time>2022-01-27T09:20:29.000Z</time>
      </trkpt>
      <trkpt lat="47.32041" lon="-2.35103">
        <ele>19.799999237061</ele>
        <time>2022-01-27T09:20:31.000Z</time>
      </trkpt>
      <trkpt lat="47.32038" lon="-2.35117">
        <ele>19.799999237061</ele>
        <time>2022-01-27T09:20:33.000Z</time>
      </trkpt>
      <trkpt lat="47.32023" lon="-2.35134">
        <ele>19.799999237061</ele>
        <time>2022-01-27T09:20:37.000Z</time>
      </trkpt>
      <trkpt lat="47.3202" lon="-2.35138">
        <ele>19.799999237061</ele>
        <time>2022-01-27T09:20:38.000Z</time>
      </trkpt>
      <trkpt lat="47.32005" lon="-2.35153">
        <ele>19.799999237061</ele>
        <time>2022-01-27T09:20:42.000Z</time>
      </trkpt>
      <trkpt lat="47.3198" lon="-2.35177">
        <ele>19.799999237061</ele>
        <time>2022-01-27T09:20:48.000Z</time>
      </trkpt>
      <trkpt lat="47.31956" lon="-2.352">
        <ele>19.799999237061</ele>
        <time>2022-01-27T09:20:54.000Z</time>
      </trkpt>
      <trkpt lat="47.31951" lon="-2.35204">
        <ele>19.799999237061</ele>
        <time>2022-01-27T09:20:55.000Z</time>
      </trkpt>
      <trkpt lat="47.31929" lon="-2.35223">
        <ele>19.799999237061</ele>
        <time>2022-01-27T09:21:00.000Z</time>
      </trkpt>
      <trkpt lat="47.31907" lon="-2.35242">
        <ele>19.799999237061</ele>
        <time>2022-01-27T09:21:06.000Z</time>
      </trkpt>
      <trkpt lat="47.31891" lon="-2.35258">
        <ele>19.799999237061</ele>
        <time>2022-01-27T09:21:11.000Z</time>
      </trkpt>
      <trkpt lat="47.3187" lon="-2.35276">
        <ele>19.799999237061</ele>
        <time>2022-01-27T09:21:17.000Z</time>
      </trkpt>
      <trkpt lat="47.31866" lon="-2.35279">
        <ele>20.200000762939</ele>
        <time>2022-01-27T09:21:18.000Z</time>
      </trkpt>
      <trkpt lat="47.31863" lon="-2.35281">
        <ele>20.60000038147</ele>
        <time>2022-01-27T09:21:19.000Z</time>
      </trkpt>
      <trkpt lat="47.3186" lon="-2.35285">
        <ele>21</ele>
        <time>2022-01-27T09:21:20.000Z</time>
      </trkpt>
      <trkpt lat="47.31856" lon="-2.35287">
        <ele>21.39999961853</ele>
        <time>2022-01-27T09:21:21.000Z</time>
      </trkpt>
      <trkpt lat="47.31852" lon="-2.3529">
        <ele>21.799999237061</ele>
        <time>2022-01-27T09:21:22.000Z</time>
      </trkpt>
      <trkpt lat="47.3182" lon="-2.35315">
        <ele>21.799999237061</ele>
        <time>2022-01-27T09:21:29.000Z</time>
      </trkpt>
      <trkpt lat="47.31809" lon="-2.35324">
        <ele>22.200000762939</ele>
        <time>2022-01-27T09:21:32.000Z</time>
      </trkpt>
      <trkpt lat="47.31805" lon="-2.35326">
        <ele>22.60000038147</ele>
        <time>2022-01-27T09:21:33.000Z</time>
      </trkpt>
      <trkpt lat="47.31802" lon="-2.35328">
        <ele>23</ele>
        <time>2022-01-27T09:21:34.000Z</time>
      </trkpt>
      <trkpt lat="47.31799" lon="-2.35331">
        <ele>23.39999961853</ele>
        <time>2022-01-27T09:21:35.000Z</time>
      </trkpt>
      <trkpt lat="47.31796" lon="-2.35334">
        <ele>23.799999237061</ele>
        <time>2022-01-27T09:21:36.000Z</time>
      </trkpt>
      <trkpt lat="47.31784" lon="-2.35344">
        <ele>23.799999237061</ele>
        <time>2022-01-27T09:21:39.000Z</time>
      </trkpt>
      <trkpt lat="47.31764" lon="-2.35355">
        <ele>23.799999237061</ele>
        <time>2022-01-27T09:21:45.000Z</time>
      </trkpt>
      <trkpt lat="47.31761" lon="-2.35357">
        <ele>24.39999961853</ele>
        <time>2022-01-27T09:21:46.000Z</time>
      </trkpt>
      <trkpt lat="47.31759" lon="-2.35359">
        <ele>24.799999237061</ele>
        <time>2022-01-27T09:21:47.000Z</time>
      </trkpt>
      <trkpt lat="47.31757" lon="-2.35359">
        <ele>25.200000762939</ele>
        <time>2022-01-27T09:21:48.000Z</time>
      </trkpt>
      <trkpt lat="47.31755" lon="-2.35361">
        <ele>25.60000038147</ele>
        <time>2022-01-27T09:21:49.000Z</time>
      </trkpt>
      <trkpt lat="47.31753" lon="-2.35361">
        <ele>26</ele>
        <time>2022-01-27T09:21:50.000Z</time>
      </trkpt>
      <trkpt lat="47.31748" lon="-2.35361">
        <ele>26</ele>
        <time>2022-01-27T09:21:51.000Z</time>
      </trkpt>
      <trkpt lat="47.31729" lon="-2.35365">
        <ele>26</ele>
        <time>2022-01-27T09:21:57.000Z</time>
      </trkpt>
      <trkpt lat="47.31704" lon="-2.35372">
        <ele>26</ele>
        <time>2022-01-27T09:22:03.000Z</time>
      </trkpt>
      <trkpt lat="47.317" lon="-2.35372">
        <ele>26.39999961853</ele>
        <time>2022-01-27T09:22:04.000Z</time>
      </trkpt>
      <trkpt lat="47.31696" lon="-2.35372">
        <ele>26.799999237061</ele>
        <time>2022-01-27T09:22:05.000Z</time>
      </trkpt>
      <trkpt lat="47.31691" lon="-2.35373">
        <ele>27.200000762939</ele>
        <time>2022-01-27T09:22:06.000Z</time>
      </trkpt>
      <trkpt lat="47.31687" lon="-2.35373">
        <ele>27.60000038147</ele>
        <time>2022-01-27T09:22:07.000Z</time>
      </trkpt>
      <trkpt lat="47.31683" lon="-2.35373">
        <ele>28</ele>
        <time>2022-01-27T09:22:08.000Z</time>
      </trkpt>
      <trkpt lat="47.31679" lon="-2.35373">
        <ele>28</ele>
        <time>2022-01-27T09:22:09.000Z</time>
      </trkpt>
      <trkpt lat="47.31668" lon="-2.35373">
        <ele>28</ele>
        <time>2022-01-27T09:22:11.000Z</time>
      </trkpt>
      <trkpt lat="47.31652" lon="-2.35371">
        <ele>28</ele>
        <time>2022-01-27T09:22:14.000Z</time>
      </trkpt>
      <trkpt lat="47.31647" lon="-2.35369">
        <ele>28</ele>
        <time>2022-01-27T09:22:15.000Z</time>
      </trkpt>
      <trkpt lat="47.31627" lon="-2.35362">
        <ele>28</ele>
        <time>2022-01-27T09:22:19.000Z</time>
      </trkpt>
      <trkpt lat="47.31605" lon="-2.35362">
        <ele>28</ele>
        <time>2022-01-27T09:22:24.000Z</time>
      </trkpt>
      <trkpt lat="47.31575" lon="-2.35376">
        <ele>28</ele>
        <time>2022-01-27T09:22:30.000Z</time>
      </trkpt>
      <trkpt lat="47.31561" lon="-2.35384">
        <ele>28</ele>
        <time>2022-01-27T09:22:33.000Z</time>
      </trkpt>
      <trkpt lat="47.31547" lon="-2.35392">
        <ele>28</ele>
        <time>2022-01-27T09:22:36.000Z</time>
      </trkpt>
      <trkpt lat="47.31533" lon="-2.354">
        <ele>28</ele>
        <time>2022-01-27T09:22:39.000Z</time>
      </trkpt>
      <trkpt lat="47.3152" lon="-2.3541">
        <ele>28</ele>
        <time>2022-01-27T09:22:42.000Z</time>
      </trkpt>
      <trkpt lat="47.31504" lon="-2.35423">
        <ele>28</ele>
        <time>2022-01-27T09:22:46.000Z</time>
      </trkpt>
      <trkpt lat="47.31501" lon="-2.35428">
        <ele>28</ele>
        <time>2022-01-27T09:22:47.000Z</time>
      </trkpt>
      <trkpt lat="47.3149" lon="-2.35457">
        <ele>28</ele>
        <time>2022-01-27T09:22:52.000Z</time>
      </trkpt>
      <trkpt lat="47.31488" lon="-2.3547">
        <ele>28</ele>
        <time>2022-01-27T09:22:54.000Z</time>
      </trkpt>
      <trkpt lat="47.31482" lon="-2.35496">
        <ele>28.39999961853</ele>
        <time>2022-01-27T09:22:58.000Z</time>
      </trkpt>
      <trkpt lat="47.3148" lon="-2.35503">
        <ele>28.799999237061</ele>
        <time>2022-01-27T09:22:59.000Z</time>
      </trkpt>
      <trkpt lat="47.31477" lon="-2.35509">
        <ele>29.200000762939</ele>
        <time>2022-01-27T09:23:00.000Z</time>
      </trkpt>
      <trkpt lat="47.31474" lon="-2.35514">
        <ele>29.60000038147</ele>
        <time>2022-01-27T09:23:01.000Z</time>
      </trkpt>
      <trkpt lat="47.31471" lon="-2.35519">
        <ele>30</ele>
        <time>2022-01-27T09:23:02.000Z</time>
      </trkpt>
      <trkpt lat="47.31468" lon="-2.3552">
        <ele>30</ele>
        <time>2022-01-27T09:23:03.000Z</time>
      </trkpt>
      <trkpt lat="47.31457" lon="-2.35518">
        <ele>30</ele>
        <time>2022-01-27T09:23:06.000Z</time>
      </trkpt>
      <trkpt lat="47.31453" lon="-2.35518">
        <ele>30</ele>
        <time>2022-01-27T09:23:07.000Z</time>
      </trkpt>
      <trkpt lat="47.31449" lon="-2.3552">
        <ele>30</ele>
        <time>2022-01-27T09:23:08.000Z</time>
      </trkpt>
      <trkpt lat="47.3144" lon="-2.35521">
        <ele>30</ele>
        <time>2022-01-27T09:23:10.000Z</time>
      </trkpt>
      <trkpt lat="47.31435" lon="-2.35521">
        <ele>30</ele>
        <time>2022-01-27T09:23:11.000Z</time>
      </trkpt>
      <trkpt lat="47.31415" lon="-2.35523">
        <ele>30</ele>
        <time>2022-01-27T09:23:15.000Z</time>
      </trkpt>
      <trkpt lat="47.3138" lon="-2.35526">
        <ele>30</ele>
        <time>2022-01-27T09:23:22.000Z</time>
      </trkpt>
      <trkpt lat="47.31361" lon="-2.35535">
        <ele>30</ele>
        <time>2022-01-27T09:23:26.000Z</time>
      </trkpt>
      <trkpt lat="47.31357" lon="-2.35538">
        <ele>30</ele>
        <time>2022-01-27T09:23:27.000Z</time>
      </trkpt>
      <trkpt lat="47.31335" lon="-2.35552">
        <ele>30</ele>
        <time>2022-01-27T09:23:32.000Z</time>
      </trkpt>
      <trkpt lat="47.31333" lon="-2.35556">
        <ele>30</ele>
        <time>2022-01-27T09:23:33.000Z</time>
      </trkpt>
      <trkpt lat="47.31329" lon="-2.35568">
        <ele>30.39999961853</ele>
        <time>2022-01-27T09:23:35.000Z</time>
      </trkpt>
      <trkpt lat="47.31329" lon="-2.35574">
        <ele>30.799999237061</ele>
        <time>2022-01-27T09:23:36.000Z</time>
      </trkpt>
      <trkpt lat="47.31329" lon="-2.35581">
        <ele>31.39999961853</ele>
        <time>2022-01-27T09:23:37.000Z</time>
      </trkpt>
      <trkpt lat="47.31329" lon="-2.35589">
        <ele>31.799999237061</ele>
        <time>2022-01-27T09:23:38.000Z</time>
      </trkpt>
      <trkpt lat="47.31329" lon="-2.35596">
        <ele>32.200000762939</ele>
        <time>2022-01-27T09:23:39.000Z</time>
      </trkpt>
      <trkpt lat="47.31332" lon="-2.35631">
        <ele>32.200000762939</ele>
        <time>2022-01-27T09:23:44.000Z</time>
      </trkpt>
      <trkpt lat="47.31332" lon="-2.35639">
        <ele>32.200000762939</ele>
        <time>2022-01-27T09:23:45.000Z</time>
      </trkpt>
      <trkpt lat="47.31332" lon="-2.35646">
        <ele>32.200000762939</ele>
        <time>2022-01-27T09:23:46.000Z</time>
      </trkpt>
      <trkpt lat="47.31334" lon="-2.35675">
        <ele>32.200000762939</ele>
        <time>2022-01-27T09:23:50.000Z</time>
      </trkpt>
      <trkpt lat="47.31333" lon="-2.35708">
        <ele>32.200000762939</ele>
        <time>2022-01-27T09:23:54.000Z</time>
      </trkpt>
      <trkpt lat="47.31333" lon="-2.35724">
        <ele>32.200000762939</ele>
        <time>2022-01-27T09:23:56.000Z</time>
      </trkpt>
      <trkpt lat="47.31333" lon="-2.35754">
        <ele>32.200000762939</ele>
        <time>2022-01-27T09:24:00.000Z</time>
      </trkpt>
      <trkpt lat="47.31333" lon="-2.3577">
        <ele>32.200000762939</ele>
        <time>2022-01-27T09:24:02.000Z</time>
      </trkpt>
      <trkpt lat="47.31336" lon="-2.35795">
        <ele>32.200000762939</ele>
        <time>2022-01-27T09:24:05.000Z</time>
      </trkpt>
      <trkpt lat="47.31337" lon="-2.35811">
        <ele>32.200000762939</ele>
        <time>2022-01-27T09:24:07.000Z</time>
      </trkpt>
      <trkpt lat="47.31343" lon="-2.35863">
        <ele>32.200000762939</ele>
        <time>2022-01-27T09:24:13.000Z</time>
      </trkpt>
      <trkpt lat="47.3136" lon="-2.35902">
        <ele>32.200000762939</ele>
        <time>2022-01-27T09:24:18.000Z</time>
      </trkpt>
      <trkpt lat="47.31365" lon="-2.3591">
        <ele>32.200000762939</ele>
        <time>2022-01-27T09:24:19.000Z</time>
      </trkpt>
      <trkpt lat="47.31386" lon="-2.35946">
        <ele>32.200000762939</ele>
        <time>2022-01-27T09:24:24.000Z</time>
      </trkpt>
      <trkpt lat="47.31396" lon="-2.35966">
        <ele>32.200000762939</ele>
        <time>2022-01-27T09:24:27.000Z</time>
      </trkpt>
      <trkpt lat="47.31402" lon="-2.35981">
        <ele>32.200000762939</ele>
        <time>2022-01-27T09:24:29.000Z</time>
      </trkpt>
      <trkpt lat="47.3141" lon="-2.36006">
        <ele>32.200000762939</ele>
        <time>2022-01-27T09:24:33.000Z</time>
      </trkpt>
      <trkpt lat="47.31412" lon="-2.36012">
        <ele>32.200000762939</ele>
        <time>2022-01-27T09:24:34.000Z</time>
      </trkpt>
      <trkpt lat="47.31418" lon="-2.36032">
        <ele>32.200000762939</ele>
        <time>2022-01-27T09:24:38.000Z</time>
      </trkpt>
      <trkpt lat="47.31425" lon="-2.36053">
        <ele>32.599998474121</ele>
        <time>2022-01-27T09:24:42.000Z</time>
      </trkpt>
      <trkpt lat="47.31427" lon="-2.36059">
        <ele>33</ele>
        <time>2022-01-27T09:24:43.000Z</time>
      </trkpt>
      <trkpt lat="47.31429" lon="-2.36065">
        <ele>33.400001525879</ele>
        <time>2022-01-27T09:24:44.000Z</time>
      </trkpt>
      <trkpt lat="47.31431" lon="-2.36071">
        <ele>33.799999237061</ele>
        <time>2022-01-27T09:24:45.000Z</time>
      </trkpt>
      <trkpt lat="47.31432" lon="-2.36077">
        <ele>34.200000762939</ele>
        <time>2022-01-27T09:24:46.000Z</time>
      </trkpt>
      <trkpt lat="47.31437" lon="-2.3609">
        <ele>34.200000762939</ele>
        <time>2022-01-27T09:24:48.000Z</time>
      </trkpt>
      <trkpt lat="47.31441" lon="-2.36101">
        <ele>34.200000762939</ele>
        <time>2022-01-27T09:24:50.000Z</time>
      </trkpt>
      <trkpt lat="47.31446" lon="-2.36114">
        <ele>34.200000762939</ele>
        <time>2022-01-27T09:24:52.000Z</time>
      </trkpt>
      <trkpt lat="47.31452" lon="-2.3614">
        <ele>34.200000762939</ele>
        <time>2022-01-27T09:24:56.000Z</time>
      </trkpt>
      <trkpt lat="47.31454" lon="-2.36146">
        <ele>34.200000762939</ele>
        <time>2022-01-27T09:24:57.000Z</time>
      </trkpt>
      <trkpt lat="47.31459" lon="-2.36166">
        <ele>34.200000762939</ele>
        <time>2022-01-27T09:25:00.000Z</time>
      </trkpt>
      <trkpt lat="47.3146" lon="-2.36173">
        <ele>34.200000762939</ele>
        <time>2022-01-27T09:25:01.000Z</time>
      </trkpt>
      <trkpt lat="47.31467" lon="-2.36204">
        <ele>34.200000762939</ele>
        <time>2022-01-27T09:25:05.000Z</time>
      </trkpt>
      <trkpt lat="47.3147" lon="-2.3622">
        <ele>34.200000762939</ele>
        <time>2022-01-27T09:25:07.000Z</time>
      </trkpt>
      <trkpt lat="47.31479" lon="-2.36268">
        <ele>34.200000762939</ele>
        <time>2022-01-27T09:25:13.000Z</time>
      </trkpt>
      <trkpt lat="47.31489" lon="-2.36318">
        <ele>34.200000762939</ele>
        <time>2022-01-27T09:25:19.000Z</time>
      </trkpt>
      <trkpt lat="47.31491" lon="-2.36336">
        <ele>34.200000762939</ele>
        <time>2022-01-27T09:25:21.000Z</time>
      </trkpt>
      <trkpt lat="47.31492" lon="-2.36344">
        <ele>33.799999237061</ele>
        <time>2022-01-27T09:25:22.000Z</time>
      </trkpt>
      <trkpt lat="47.31491" lon="-2.36352">
        <ele>33.400001525879</ele>
        <time>2022-01-27T09:25:23.000Z</time>
      </trkpt>
      <trkpt lat="47.31491" lon="-2.3636">
        <ele>33</ele>
        <time>2022-01-27T09:25:24.000Z</time>
      </trkpt>
      <trkpt lat="47.31491" lon="-2.36367">
        <ele>32.599998474121</ele>
        <time>2022-01-27T09:25:25.000Z</time>
      </trkpt>
      <trkpt lat="47.31491" lon="-2.36375">
        <ele>32.200000762939</ele>
        <time>2022-01-27T09:25:26.000Z</time>
      </trkpt>
      <trkpt lat="47.31493" lon="-2.36408">
        <ele>32.200000762939</ele>
        <time>2022-01-27T09:25:30.000Z</time>
      </trkpt>
      <trkpt lat="47.31494" lon="-2.36418">
        <ele>31.799999237061</ele>
        <time>2022-01-27T09:25:31.000Z</time>
      </trkpt>
      <trkpt lat="47.31494" lon="-2.36427">
        <ele>31.200000762939</ele>
        <time>2022-01-27T09:25:32.000Z</time>
      </trkpt>
      <trkpt lat="47.31495" lon="-2.36436">
        <ele>30.799999237061</ele>
        <time>2022-01-27T09:25:33.000Z</time>
      </trkpt>
      <trkpt lat="47.31495" lon="-2.36444">
        <ele>30.39999961853</ele>
        <time>2022-01-27T09:25:34.000Z</time>
      </trkpt>
      <trkpt lat="47.31496" lon="-2.36453">
        <ele>29.799999237061</ele>
        <time>2022-01-27T09:25:35.000Z</time>
      </trkpt>
      <trkpt lat="47.31498" lon="-2.36469">
        <ele>29.39999961853</ele>
        <time>2022-01-27T09:25:37.000Z</time>
      </trkpt>
      <trkpt lat="47.31497" lon="-2.36477">
        <ele>29</ele>
        <time>2022-01-27T09:25:38.000Z</time>
      </trkpt>
      <trkpt lat="47.31499" lon="-2.36484">
        <ele>28.60000038147</ele>
        <time>2022-01-27T09:25:39.000Z</time>
      </trkpt>
      <trkpt lat="47.31499" lon="-2.36491">
        <ele>28.200000762939</ele>
        <time>2022-01-27T09:25:40.000Z</time>
      </trkpt>
      <trkpt lat="47.31498" lon="-2.36499">
        <ele>27.799999237061</ele>
        <time>2022-01-27T09:25:41.000Z</time>
      </trkpt>
      <trkpt lat="47.31498" lon="-2.36527">
        <ele>27.799999237061</ele>
        <time>2022-01-27T09:25:45.000Z</time>
      </trkpt>
      <trkpt lat="47.31499" lon="-2.36549">
        <ele>27.799999237061</ele>
        <time>2022-01-27T09:25:48.000Z</time>
      </trkpt>
      <trkpt lat="47.31499" lon="-2.36556">
        <ele>27.799999237061</ele>
        <time>2022-01-27T09:25:49.000Z</time>
      </trkpt>
      <trkpt lat="47.315" lon="-2.36562">
        <ele>27.799999237061</ele>
        <time>2022-01-27T09:25:50.000Z</time>
      </trkpt>
      <trkpt lat="47.31499" lon="-2.3658">
        <ele>27.799999237061</ele>
        <time>2022-01-27T09:25:53.000Z</time>
      </trkpt>
      <trkpt lat="47.31497" lon="-2.36584">
        <ele>27.39999961853</ele>
        <time>2022-01-27T09:25:54.000Z</time>
      </trkpt>
      <trkpt lat="47.31496" lon="-2.36588">
        <ele>27</ele>
        <time>2022-01-27T09:25:55.000Z</time>
      </trkpt>
      <trkpt lat="47.31496" lon="-2.36592">
        <ele>26.60000038147</ele>
        <time>2022-01-27T09:25:56.000Z</time>
      </trkpt>
      <trkpt lat="47.31497" lon="-2.36597">
        <ele>26.200000762939</ele>
        <time>2022-01-27T09:25:57.000Z</time>
      </trkpt>
      <trkpt lat="47.31499" lon="-2.36604">
        <ele>25.799999237061</ele>
        <time>2022-01-27T09:25:58.000Z</time>
      </trkpt>
      <trkpt lat="47.31503" lon="-2.36625">
        <ele>25.799999237061</ele>
        <time>2022-01-27T09:26:01.000Z</time>
      </trkpt>
      <trkpt lat="47.31507" lon="-2.36639">
        <ele>25.799999237061</ele>
        <time>2022-01-27T09:26:03.000Z</time>
      </trkpt>
      <trkpt lat="47.31512" lon="-2.36659">
        <ele>25.799999237061</ele>
        <time>2022-01-27T09:26:06.000Z</time>
      </trkpt>
      <trkpt lat="47.31521" lon="-2.36694">
        <ele>25.799999237061</ele>
        <time>2022-01-27T09:26:12.000Z</time>
      </trkpt>
      <trkpt lat="47.31532" lon="-2.36737">
        <ele>26.200000762939</ele>
        <time>2022-01-27T09:26:19.000Z</time>
      </trkpt>
      <trkpt lat="47.31533" lon="-2.36744">
        <ele>26.60000038147</ele>
        <time>2022-01-27T09:26:20.000Z</time>
      </trkpt>
      <trkpt lat="47.31534" lon="-2.3675">
        <ele>27.200000762939</ele>
        <time>2022-01-27T09:26:21.000Z</time>
      </trkpt>
      <trkpt lat="47.31535" lon="-2.36756">
        <ele>27.60000038147</ele>
        <time>2022-01-27T09:26:22.000Z</time>
      </trkpt>
      <trkpt lat="47.31536" lon="-2.36762">
        <ele>28</ele>
        <time>2022-01-27T09:26:23.000Z</time>
      </trkpt>
      <trkpt lat="47.31541" lon="-2.36781">
        <ele>28</ele>
        <time>2022-01-27T09:26:26.000Z</time>
      </trkpt>
      <trkpt lat="47.31547" lon="-2.36805">
        <ele>28.39999961853</ele>
        <time>2022-01-27T09:26:30.000Z</time>
      </trkpt>
      <trkpt lat="47.31549" lon="-2.3681">
        <ele>28.799999237061</ele>
        <time>2022-01-27T09:26:31.000Z</time>
      </trkpt>
      <trkpt lat="47.31551" lon="-2.36816">
        <ele>29.39999961853</ele>
        <time>2022-01-27T09:26:32.000Z</time>
      </trkpt>
      <trkpt lat="47.31552" lon="-2.36823">
        <ele>29.799999237061</ele>
        <time>2022-01-27T09:26:33.000Z</time>
      </trkpt>
      <trkpt lat="47.31552" lon="-2.36829">
        <ele>30.200000762939</ele>
        <time>2022-01-27T09:26:34.000Z</time>
      </trkpt>
      <trkpt lat="47.31556" lon="-2.36841">
        <ele>30.200000762939</ele>
        <time>2022-01-27T09:26:36.000Z</time>
      </trkpt>
      <trkpt lat="47.31558" lon="-2.36848">
        <ele>30.200000762939</ele>
        <time>2022-01-27T09:26:37.000Z</time>
      </trkpt>
      <trkpt lat="47.31564" lon="-2.36866">
        <ele>30.60000038147</ele>
        <time>2022-01-27T09:26:40.000Z</time>
      </trkpt>
      <trkpt lat="47.31566" lon="-2.36872">
        <ele>31</ele>
        <time>2022-01-27T09:26:41.000Z</time>
      </trkpt>
      <trkpt lat="47.31567" lon="-2.36878">
        <ele>31.39999961853</ele>
        <time>2022-01-27T09:26:42.000Z</time>
      </trkpt>
      <trkpt lat="47.31569" lon="-2.36884">
        <ele>31.799999237061</ele>
        <time>2022-01-27T09:26:43.000Z</time>
      </trkpt>
      <trkpt lat="47.3157" lon="-2.3689">
        <ele>32.200000762939</ele>
        <time>2022-01-27T09:26:44.000Z</time>
      </trkpt>
      <trkpt lat="47.31577" lon="-2.36906">
        <ele>32.200000762939</ele>
        <time>2022-01-27T09:26:47.000Z</time>
      </trkpt>
      <trkpt lat="47.31582" lon="-2.36923">
        <ele>32.599998474121</ele>
        <time>2022-01-27T09:26:50.000Z</time>
      </trkpt>
      <trkpt lat="47.31584" lon="-2.36929">
        <ele>33.599998474121</ele>
        <time>2022-01-27T09:26:51.000Z</time>
      </trkpt>
      <trkpt lat="47.31586" lon="-2.36934">
        <ele>34</ele>
        <time>2022-01-27T09:26:52.000Z</time>
      </trkpt>
      <trkpt lat="47.31588" lon="-2.3694">
        <ele>34.400001525879</ele>
        <time>2022-01-27T09:26:53.000Z</time>
      </trkpt>
      <trkpt lat="47.31597" lon="-2.36968">
        <ele>34.400001525879</ele>
        <time>2022-01-27T09:26:58.000Z</time>
      </trkpt>
      <trkpt lat="47.31601" lon="-2.3698">
        <ele>34.400001525879</ele>
        <time>2022-01-27T09:27:00.000Z</time>
      </trkpt>
      <trkpt lat="47.31604" lon="-2.36992">
        <ele>34.799999237061</ele>
        <time>2022-01-27T09:27:02.000Z</time>
      </trkpt>
      <trkpt lat="47.31606" lon="-2.36998">
        <ele>35.200000762939</ele>
        <time>2022-01-27T09:27:03.000Z</time>
      </trkpt>
      <trkpt lat="47.31607" lon="-2.37003">
        <ele>35.599998474121</ele>
        <time>2022-01-27T09:27:04.000Z</time>
      </trkpt>
      <trkpt lat="47.31609" lon="-2.37009">
        <ele>36</ele>
        <time>2022-01-27T09:27:05.000Z</time>
      </trkpt>
      <trkpt lat="47.31611" lon="-2.37015">
        <ele>36.400001525879</ele>
        <time>2022-01-27T09:27:06.000Z</time>
      </trkpt>
      <trkpt lat="47.31621" lon="-2.37042">
        <ele>36.400001525879</ele>
        <time>2022-01-27T09:27:11.000Z</time>
      </trkpt>
      <trkpt lat="47.31624" lon="-2.37047">
        <ele>36.400001525879</ele>
        <time>2022-01-27T09:27:12.000Z</time>
      </trkpt>
      <trkpt lat="47.31632" lon="-2.37062">
        <ele>36.400001525879</ele>
        <time>2022-01-27T09:27:15.000Z</time>
      </trkpt>
      <trkpt lat="47.31635" lon="-2.37067">
        <ele>36.799999237061</ele>
        <time>2022-01-27T09:27:16.000Z</time>
      </trkpt>
      <trkpt lat="47.31637" lon="-2.37073">
        <ele>37.200000762939</ele>
        <time>2022-01-27T09:27:17.000Z</time>
      </trkpt>
      <trkpt lat="47.3164" lon="-2.37079">
        <ele>37.599998474121</ele>
        <time>2022-01-27T09:27:18.000Z</time>
      </trkpt>
      <trkpt lat="47.31642" lon="-2.37085">
        <ele>38</ele>
        <time>2022-01-27T09:27:19.000Z</time>
      </trkpt>
      <trkpt lat="47.31645" lon="-2.3709">
        <ele>38.400001525879</ele>
        <time>2022-01-27T09:27:20.000Z</time>
      </trkpt>
      <trkpt lat="47.31651" lon="-2.37102">
        <ele>38.400001525879</ele>
        <time>2022-01-27T09:27:22.000Z</time>
      </trkpt>
      <trkpt lat="47.31671" lon="-2.37142">
        <ele>38.400001525879</ele>
        <time>2022-01-27T09:27:29.000Z</time>
      </trkpt>
      <trkpt lat="47.31687" lon="-2.37181">
        <ele>38.400001525879</ele>
        <time>2022-01-27T09:27:35.000Z</time>
      </trkpt>
      <trkpt lat="47.31687" lon="-2.37214">
        <ele>38.400001525879</ele>
        <time>2022-01-27T09:27:39.000Z</time>
      </trkpt>
      <trkpt lat="47.31675" lon="-2.37238">
        <ele>38.400001525879</ele>
        <time>2022-01-27T09:27:43.000Z</time>
      </trkpt>
      <trkpt lat="47.31653" lon="-2.37259">
        <ele>38.400001525879</ele>
        <time>2022-01-27T09:27:48.000Z</time>
      </trkpt>
      <trkpt lat="47.31626" lon="-2.37288">
        <ele>38.400001525879</ele>
        <time>2022-01-27T09:27:54.000Z</time>
      </trkpt>
      <trkpt lat="47.31623" lon="-2.37296">
        <ele>38.400001525879</ele>
        <time>2022-01-27T09:27:55.000Z</time>
      </trkpt>
      <trkpt lat="47.3162" lon="-2.37322">
        <ele>38.400001525879</ele>
        <time>2022-01-27T09:27:58.000Z</time>
      </trkpt>
      <trkpt lat="47.31627" lon="-2.3736">
        <ele>38.400001525879</ele>
        <time>2022-01-27T09:28:02.000Z</time>
      </trkpt>
      <trkpt lat="47.31629" lon="-2.37369">
        <ele>38.400001525879</ele>
        <time>2022-01-27T09:28:03.000Z</time>
      </trkpt>
      <trkpt lat="47.31636" lon="-2.37417">
        <ele>38.400001525879</ele>
        <time>2022-01-27T09:28:08.000Z</time>
      </trkpt>
      <trkpt lat="47.31637" lon="-2.37499">
        <ele>38.400001525879</ele>
        <time>2022-01-27T09:28:16.000Z</time>
      </trkpt>
      <trkpt lat="47.31626" lon="-2.37534">
        <ele>38.400001525879</ele>
        <time>2022-01-27T09:28:20.000Z</time>
      </trkpt>
      <trkpt lat="47.31616" lon="-2.3758">
        <ele>38.400001525879</ele>
        <time>2022-01-27T09:28:25.000Z</time>
      </trkpt>
      <trkpt lat="47.31615" lon="-2.3759">
        <ele>38.400001525879</ele>
        <time>2022-01-27T09:28:26.000Z</time>
      </trkpt>
      <trkpt lat="47.31616" lon="-2.37618">
        <ele>38.400001525879</ele>
        <time>2022-01-27T09:28:29.000Z</time>
      </trkpt>
      <trkpt lat="47.31619" lon="-2.37636">
        <ele>38</ele>
        <time>2022-01-27T09:28:31.000Z</time>
      </trkpt>
      <trkpt lat="47.31622" lon="-2.37644">
        <ele>37.599998474121</ele>
        <time>2022-01-27T09:28:32.000Z</time>
      </trkpt>
      <trkpt lat="47.31626" lon="-2.37651">
        <ele>37.200000762939</ele>
        <time>2022-01-27T09:28:33.000Z</time>
      </trkpt>
      <trkpt lat="47.31632" lon="-2.37656">
        <ele>36.799999237061</ele>
        <time>2022-01-27T09:28:34.000Z</time>
      </trkpt>
      <trkpt lat="47.31638" lon="-2.3766">
        <ele>36.400001525879</ele>
        <time>2022-01-27T09:28:35.000Z</time>
      </trkpt>
      <trkpt lat="47.3165" lon="-2.37665">
        <ele>36.400001525879</ele>
        <time>2022-01-27T09:28:37.000Z</time>
      </trkpt>
      <trkpt lat="47.31656" lon="-2.37669">
        <ele>36.400001525879</ele>
        <time>2022-01-27T09:28:38.000Z</time>
      </trkpt>
      <trkpt lat="47.31661" lon="-2.37674">
        <ele>36.400001525879</ele>
        <time>2022-01-27T09:28:39.000Z</time>
      </trkpt>
      <trkpt lat="47.31675" lon="-2.37691">
        <ele>36.400001525879</ele>
        <time>2022-01-27T09:28:42.000Z</time>
      </trkpt>
      <trkpt lat="47.31691" lon="-2.37706">
        <ele>36.400001525879</ele>
        <time>2022-01-27T09:28:45.000Z</time>
      </trkpt>
      <trkpt lat="47.31704" lon="-2.37713">
        <ele>36.400001525879</ele>
        <time>2022-01-27T09:28:47.000Z</time>
      </trkpt>
      <trkpt lat="47.31731" lon="-2.37712">
        <ele>36.400001525879</ele>
        <time>2022-01-27T09:28:51.000Z</time>
      </trkpt>
      <trkpt lat="47.31756" lon="-2.37696">
        <ele>36.400001525879</ele>
        <time>2022-01-27T09:28:55.000Z</time>
      </trkpt>
      <trkpt lat="47.31791" lon="-2.37663">
        <ele>36.400001525879</ele>
        <time>2022-01-27T09:29:01.000Z</time>
      </trkpt>
      <trkpt lat="47.31809" lon="-2.37651">
        <ele>36.400001525879</ele>
        <time>2022-01-27T09:29:04.000Z</time>
      </trkpt>
      <trkpt lat="47.3183" lon="-2.37643">
        <ele>36.400001525879</ele>
        <time>2022-01-27T09:29:07.000Z</time>
      </trkpt>
      <trkpt lat="47.31878" lon="-2.37625">
        <ele>36.400001525879</ele>
        <time>2022-01-27T09:29:14.000Z</time>
      </trkpt>
      <trkpt lat="47.31932" lon="-2.37608">
        <ele>36.400001525879</ele>
        <time>2022-01-27T09:29:22.000Z</time>
      </trkpt>
      <trkpt lat="47.31939" lon="-2.37608">
        <ele>36.400001525879</ele>
        <time>2022-01-27T09:29:23.000Z</time>
      </trkpt>
      <trkpt lat="47.31952" lon="-2.37611">
        <ele>36.400001525879</ele>
        <time>2022-01-27T09:29:25.000Z</time>
      </trkpt>
      <trkpt lat="47.31965" lon="-2.37618">
        <ele>36.400001525879</ele>
        <time>2022-01-27T09:29:27.000Z</time>
      </trkpt>
      <trkpt lat="47.31971" lon="-2.37624">
        <ele>36.400001525879</ele>
        <time>2022-01-27T09:29:28.000Z</time>
      </trkpt>
      <trkpt lat="47.31976" lon="-2.37631">
        <ele>36.400001525879</ele>
        <time>2022-01-27T09:29:29.000Z</time>
      </trkpt>
      <trkpt lat="47.31989" lon="-2.37658">
        <ele>36.400001525879</ele>
        <time>2022-01-27T09:29:32.000Z</time>
      </trkpt>
      <trkpt lat="47.31994" lon="-2.37667">
        <ele>36.400001525879</ele>
        <time>2022-01-27T09:29:33.000Z</time>
      </trkpt>
      <trkpt lat="47.32029" lon="-2.37737">
        <ele>36.400001525879</ele>
        <time>2022-01-27T09:29:41.000Z</time>
      </trkpt>
      <trkpt lat="47.32035" lon="-2.37744">
        <ele>36.400001525879</ele>
        <time>2022-01-27T09:29:42.000Z</time>
      </trkpt>
      <trkpt lat="47.32048" lon="-2.37753">
        <ele>35.599998474121</ele>
        <time>2022-01-27T09:29:44.000Z</time>
      </trkpt>
      <trkpt lat="47.32055" lon="-2.37755">
        <ele>35.200000762939</ele>
        <time>2022-01-27T09:29:45.000Z</time>
      </trkpt>
      <trkpt lat="47.32062" lon="-2.37755">
        <ele>34.799999237061</ele>
        <time>2022-01-27T09:29:46.000Z</time>
      </trkpt>
      <trkpt lat="47.32069" lon="-2.37754">
        <ele>34.400001525879</ele>
        <time>2022-01-27T09:29:47.000Z</time>
      </trkpt>
      <trkpt lat="47.32082" lon="-2.37747">
        <ele>34.400001525879</ele>
        <time>2022-01-27T09:29:49.000Z</time>
      </trkpt>
      <trkpt lat="47.32089" lon="-2.37743">
        <ele>34.400001525879</ele>
        <time>2022-01-27T09:29:50.000Z</time>
      </trkpt>
      <trkpt lat="47.3213" lon="-2.37711">
        <ele>34.400001525879</ele>
        <time>2022-01-27T09:29:57.000Z</time>
      </trkpt>
      <trkpt lat="47.32162" lon="-2.37699">
        <ele>34.400001525879</ele>
        <time>2022-01-27T09:30:02.000Z</time>
      </trkpt>
      <trkpt lat="47.32169" lon="-2.37699">
        <ele>34.400001525879</ele>
        <time>2022-01-27T09:30:03.000Z</time>
      </trkpt>
      <trkpt lat="47.32196" lon="-2.37706">
        <ele>34.400001525879</ele>
        <time>2022-01-27T09:30:07.000Z</time>
      </trkpt>
      <trkpt lat="47.32232" lon="-2.37711">
        <ele>34.400001525879</ele>
        <time>2022-01-27T09:30:12.000Z</time>
      </trkpt>
      <trkpt lat="47.32268" lon="-2.37703">
        <ele>34.400001525879</ele>
        <time>2022-01-27T09:30:17.000Z</time>
      </trkpt>
      <trkpt lat="47.32324" lon="-2.37684">
        <ele>34.400001525879</ele>
        <time>2022-01-27T09:30:25.000Z</time>
      </trkpt>
      <trkpt lat="47.32338" lon="-2.3768">
        <ele>34.400001525879</ele>
        <time>2022-01-27T09:30:27.000Z</time>
      </trkpt>
      <trkpt lat="47.32352" lon="-2.37678">
        <ele>34.400001525879</ele>
        <time>2022-01-27T09:30:29.000Z</time>
      </trkpt>
      <trkpt lat="47.32392" lon="-2.37682">
        <ele>34.400001525879</ele>
        <time>2022-01-27T09:30:35.000Z</time>
      </trkpt>
      <trkpt lat="47.32426" lon="-2.37677">
        <ele>34.400001525879</ele>
        <time>2022-01-27T09:30:40.000Z</time>
      </trkpt>
      <trkpt lat="47.32439" lon="-2.37673">
        <ele>34.400001525879</ele>
        <time>2022-01-27T09:30:42.000Z</time>
      </trkpt>
      <trkpt lat="47.32458" lon="-2.37663">
        <ele>34.400001525879</ele>
        <time>2022-01-27T09:30:45.000Z</time>
      </trkpt>
      <trkpt lat="47.32464" lon="-2.37659">
        <ele>34.400001525879</ele>
        <time>2022-01-27T09:30:46.000Z</time>
      </trkpt>
      <trkpt lat="47.32475" lon="-2.3765">
        <ele>34.400001525879</ele>
        <time>2022-01-27T09:30:48.000Z</time>
      </trkpt>
      <trkpt lat="47.32485" lon="-2.3764">
        <ele>34.400001525879</ele>
        <time>2022-01-27T09:30:50.000Z</time>
      </trkpt>
      <trkpt lat="47.32498" lon="-2.37625">
        <ele>34.400001525879</ele>
        <time>2022-01-27T09:30:53.000Z</time>
      </trkpt>
      <trkpt lat="47.32507" lon="-2.37619">
        <ele>34.400001525879</ele>
        <time>2022-01-27T09:30:55.000Z</time>
      </trkpt>
      <trkpt lat="47.32516" lon="-2.37623">
        <ele>34.400001525879</ele>
        <time>2022-01-27T09:30:58.000Z</time>
      </trkpt>
      <trkpt lat="47.32519" lon="-2.37639">
        <ele>34.400001525879</ele>
        <time>2022-01-27T09:31:01.000Z</time>
      </trkpt>
      <trkpt lat="47.32519" lon="-2.37645">
        <ele>34.400001525879</ele>
        <time>2022-01-27T09:31:02.000Z</time>
      </trkpt>
      <trkpt lat="47.3252" lon="-2.37679">
        <ele>34.400001525879</ele>
        <time>2022-01-27T09:31:07.000Z</time>
      </trkpt>
      <trkpt lat="47.32521" lon="-2.3772">
        <ele>34</ele>
        <time>2022-01-27T09:31:12.000Z</time>
      </trkpt>
      <trkpt lat="47.32521" lon="-2.37729">
        <ele>33.599998474121</ele>
        <time>2022-01-27T09:31:13.000Z</time>
      </trkpt>
      <trkpt lat="47.32521" lon="-2.37737">
        <ele>33</ele>
        <time>2022-01-27T09:31:14.000Z</time>
      </trkpt>
      <trkpt lat="47.32521" lon="-2.37746">
        <ele>32.599998474121</ele>
        <time>2022-01-27T09:31:15.000Z</time>
      </trkpt>
      <trkpt lat="47.32522" lon="-2.37754">
        <ele>32.200000762939</ele>
        <time>2022-01-27T09:31:16.000Z</time>
      </trkpt>
      <trkpt lat="47.32523" lon="-2.37815">
        <ele>32.200000762939</ele>
        <time>2022-01-27T09:31:23.000Z</time>
      </trkpt>
      <trkpt lat="47.32526" lon="-2.3789">
        <ele>32.200000762939</ele>
        <time>2022-01-27T09:31:32.000Z</time>
      </trkpt>
      <trkpt lat="47.32526" lon="-2.37931">
        <ele>32.200000762939</ele>
        <time>2022-01-27T09:31:38.000Z</time>
      </trkpt>
      <trkpt lat="47.32527" lon="-2.37982">
        <ele>32.200000762939</ele>
        <time>2022-01-27T09:31:46.000Z</time>
      </trkpt>
      <trkpt lat="47.32528" lon="-2.3803">
        <ele>32.200000762939</ele>
        <time>2022-01-27T09:31:54.000Z</time>
      </trkpt>
      <trkpt lat="47.32529" lon="-2.38076">
        <ele>32.200000762939</ele>
        <time>2022-01-27T09:32:00.000Z</time>
      </trkpt>
      <trkpt lat="47.3253" lon="-2.38114">
        <ele>31.799999237061</ele>
        <time>2022-01-27T09:32:04.000Z</time>
      </trkpt>
      <trkpt lat="47.32531" lon="-2.38123">
        <ele>31.39999961853</ele>
        <time>2022-01-27T09:32:05.000Z</time>
      </trkpt>
      <trkpt lat="47.32531" lon="-2.38134">
        <ele>30.799999237061</ele>
        <time>2022-01-27T09:32:06.000Z</time>
      </trkpt>
      <trkpt lat="47.32532" lon="-2.38144">
        <ele>30.39999961853</ele>
        <time>2022-01-27T09:32:07.000Z</time>
      </trkpt>
      <trkpt lat="47.32532" lon="-2.38155">
        <ele>29.799999237061</ele>
        <time>2022-01-27T09:32:08.000Z</time>
      </trkpt>
      <trkpt lat="47.32533" lon="-2.38177">
        <ele>29.39999961853</ele>
        <time>2022-01-27T09:32:10.000Z</time>
      </trkpt>
      <trkpt lat="47.32533" lon="-2.38188">
        <ele>29</ele>
        <time>2022-01-27T09:32:11.000Z</time>
      </trkpt>
      <trkpt lat="47.32534" lon="-2.38199">
        <ele>28.200000762939</ele>
        <time>2022-01-27T09:32:12.000Z</time>
      </trkpt>
      <trkpt lat="47.32533" lon="-2.3821">
        <ele>27.799999237061</ele>
        <time>2022-01-27T09:32:13.000Z</time>
      </trkpt>
      <trkpt lat="47.32531" lon="-2.38269">
        <ele>27.799999237061</ele>
        <time>2022-01-27T09:32:19.000Z</time>
      </trkpt>
      <trkpt lat="47.32528" lon="-2.38319">
        <ele>27.799999237061</ele>
        <time>2022-01-27T09:32:25.000Z</time>
      </trkpt>
      <trkpt lat="47.32528" lon="-2.38326">
        <ele>27.799999237061</ele>
        <time>2022-01-27T09:32:26.000Z</time>
      </trkpt>
      <trkpt lat="47.32526" lon="-2.3835">
        <ele>27.799999237061</ele>
        <time>2022-01-27T09:32:30.000Z</time>
      </trkpt>
      <trkpt lat="47.32524" lon="-2.38374">
        <ele>27.799999237061</ele>
        <time>2022-01-27T09:32:35.000Z</time>
      </trkpt>
      <trkpt lat="47.32518" lon="-2.38384">
        <ele>27.799999237061</ele>
        <time>2022-01-27T09:32:38.000Z</time>
      </trkpt>
      <trkpt lat="47.32515" lon="-2.38384">
        <ele>27.799999237061</ele>
        <time>2022-01-27T09:32:39.000Z</time>
      </trkpt>
      <trkpt lat="47.32495" lon="-2.38379">
        <ele>27.799999237061</ele>
        <time>2022-01-27T09:32:45.000Z</time>
      </trkpt>
      <trkpt lat="47.32472" lon="-2.38368">
        <ele>27.799999237061</ele>
        <time>2022-01-27T09:32:52.000Z</time>
      </trkpt>
      <trkpt lat="47.32455" lon="-2.38359">
        <ele>27.799999237061</ele>
        <time>2022-01-27T09:32:58.000Z</time>
      </trkpt>
      <trkpt lat="47.32442" lon="-2.38354">
        <ele>27.799999237061</ele>
        <time>2022-01-27T09:33:01.000Z</time>
      </trkpt>
      <trkpt lat="47.32433" lon="-2.38352">
        <ele>27.799999237061</ele>
        <time>2022-01-27T09:33:03.000Z</time>
      </trkpt>
      <trkpt lat="47.32419" lon="-2.38346">
        <ele>27.799999237061</ele>
        <time>2022-01-27T09:33:06.000Z</time>
      </trkpt>
      <trkpt lat="47.32406" lon="-2.38343">
        <ele>27.799999237061</ele>
        <time>2022-01-27T09:33:09.000Z</time>
      </trkpt>
      <trkpt lat="47.32402" lon="-2.38341">
        <ele>27.799999237061</ele>
        <time>2022-01-27T09:33:10.000Z</time>
      </trkpt>
      <trkpt lat="47.32385" lon="-2.3833">
        <ele>27.799999237061</ele>
        <time>2022-01-27T09:33:14.000Z</time>
      </trkpt>
      <trkpt lat="47.3238" lon="-2.38328">
        <ele>27.799999237061</ele>
        <time>2022-01-27T09:33:15.000Z</time>
      </trkpt>
      <trkpt lat="47.32359" lon="-2.38319">
        <ele>27.799999237061</ele>
        <time>2022-01-27T09:33:19.000Z</time>
      </trkpt>
      <trkpt lat="47.32321" lon="-2.38303">
        <ele>27.799999237061</ele>
        <time>2022-01-27T09:33:25.000Z</time>
      </trkpt>
      <trkpt lat="47.32303" lon="-2.38296">
        <ele>27.39999961853</ele>
        <time>2022-01-27T09:33:28.000Z</time>
      </trkpt>
      <trkpt lat="47.32297" lon="-2.38294">
        <ele>26.799999237061</ele>
        <time>2022-01-27T09:33:29.000Z</time>
      </trkpt>
      <trkpt lat="47.32292" lon="-2.38292">
        <ele>26.39999961853</ele>
        <time>2022-01-27T09:33:30.000Z</time>
      </trkpt>
      <trkpt lat="47.32286" lon="-2.3829">
        <ele>26</ele>
        <time>2022-01-27T09:33:31.000Z</time>
      </trkpt>
      <trkpt lat="47.3228" lon="-2.38289">
        <ele>25.60000038147</ele>
        <time>2022-01-27T09:33:32.000Z</time>
      </trkpt>
      <trkpt lat="47.32267" lon="-2.38288">
        <ele>25.60000038147</ele>
        <time>2022-01-27T09:33:34.000Z</time>
      </trkpt>
      <trkpt lat="47.32249" lon="-2.38292">
        <ele>25.60000038147</ele>
        <time>2022-01-27T09:33:37.000Z</time>
      </trkpt>
      <trkpt lat="47.32238" lon="-2.38293">
        <ele>25.60000038147</ele>
        <time>2022-01-27T09:33:39.000Z</time>
      </trkpt>
      <trkpt lat="47.32221" lon="-2.38295">
        <ele>25.60000038147</ele>
        <time>2022-01-27T09:33:42.000Z</time>
      </trkpt>
      <trkpt lat="47.32217" lon="-2.38299">
        <ele>25.60000038147</ele>
        <time>2022-01-27T09:33:43.000Z</time>
      </trkpt>
      <trkpt lat="47.32205" lon="-2.38313">
        <ele>25.60000038147</ele>
        <time>2022-01-27T09:33:46.000Z</time>
      </trkpt>
      <trkpt lat="47.32198" lon="-2.38321">
        <ele>25.60000038147</ele>
        <time>2022-01-27T09:33:48.000Z</time>
      </trkpt>
      <trkpt lat="47.32177" lon="-2.38351">
        <ele>25.60000038147</ele>
        <time>2022-01-27T09:33:54.000Z</time>
      </trkpt>
      <trkpt lat="47.32155" lon="-2.3838">
        <ele>25.60000038147</ele>
        <time>2022-01-27T09:34:00.000Z</time>
      </trkpt>
      <trkpt lat="47.32136" lon="-2.38407">
        <ele>25.60000038147</ele>
        <time>2022-01-27T09:34:06.000Z</time>
      </trkpt>
      <trkpt lat="47.32132" lon="-2.38411">
        <ele>25.60000038147</ele>
        <time>2022-01-27T09:34:07.000Z</time>
      </trkpt>
      <trkpt lat="47.32118" lon="-2.3842">
        <ele>25.60000038147</ele>
        <time>2022-01-27T09:34:10.000Z</time>
      </trkpt>
      <trkpt lat="47.32113" lon="-2.38423">
        <ele>25.60000038147</ele>
        <time>2022-01-27T09:34:11.000Z</time>
      </trkpt>
      <trkpt lat="47.32094" lon="-2.38432">
        <ele>25.60000038147</ele>
        <time>2022-01-27T09:34:15.000Z</time>
      </trkpt>
      <trkpt lat="47.32081" lon="-2.38439">
        <ele>25.60000038147</ele>
        <time>2022-01-27T09:34:18.000Z</time>
      </trkpt>
      <trkpt lat="47.32072" lon="-2.38443">
        <ele>25.60000038147</ele>
        <time>2022-01-27T09:34:20.000Z</time>
      </trkpt>
      <trkpt lat="47.32047" lon="-2.38453">
        <ele>25.60000038147</ele>
        <time>2022-01-27T09:34:26.000Z</time>
      </trkpt>
      <trkpt lat="47.3203" lon="-2.3846">
        <ele>26</ele>
        <time>2022-01-27T09:34:30.000Z</time>
      </trkpt>
      <trkpt lat="47.32025" lon="-2.38462">
        <ele>26.39999961853</ele>
        <time>2022-01-27T09:34:31.000Z</time>
      </trkpt>
      <trkpt lat="47.3202" lon="-2.38464">
        <ele>26.799999237061</ele>
        <time>2022-01-27T09:34:32.000Z</time>
      </trkpt>
      <trkpt lat="47.32015" lon="-2.38466">
        <ele>27.200000762939</ele>
        <time>2022-01-27T09:34:33.000Z</time>
      </trkpt>
      <trkpt lat="47.3201" lon="-2.38467">
        <ele>27.60000038147</ele>
        <time>2022-01-27T09:34:34.000Z</time>
      </trkpt>
      <trkpt lat="47.31988" lon="-2.38476">
        <ele>27.60000038147</ele>
        <time>2022-01-27T09:34:39.000Z</time>
      </trkpt>
      <trkpt lat="47.31958" lon="-2.38487">
        <ele>27.60000038147</ele>
        <time>2022-01-27T09:34:46.000Z</time>
      </trkpt>
      <trkpt lat="47.31954" lon="-2.38487">
        <ele>27.60000038147</ele>
        <time>2022-01-27T09:34:47.000Z</time>
      </trkpt>
      <trkpt lat="47.31944" lon="-2.38489">
        <ele>28</ele>
        <time>2022-01-27T09:34:49.000Z</time>
      </trkpt>
      <trkpt lat="47.3194" lon="-2.3849">
        <ele>28.39999961853</ele>
        <time>2022-01-27T09:34:50.000Z</time>
      </trkpt>
      <trkpt lat="47.31935" lon="-2.38492">
        <ele>28.799999237061</ele>
        <time>2022-01-27T09:34:51.000Z</time>
      </trkpt>
      <trkpt lat="47.31931" lon="-2.38493">
        <ele>29.200000762939</ele>
        <time>2022-01-27T09:34:52.000Z</time>
      </trkpt>
      <trkpt lat="47.31926" lon="-2.38494">
        <ele>29.60000038147</ele>
        <time>2022-01-27T09:34:53.000Z</time>
      </trkpt>
      <trkpt lat="47.319" lon="-2.38507">
        <ele>29.60000038147</ele>
        <time>2022-01-27T09:34:59.000Z</time>
      </trkpt>
      <trkpt lat="47.31892" lon="-2.38511">
        <ele>30</ele>
        <time>2022-01-27T09:35:01.000Z</time>
      </trkpt>
      <trkpt lat="47.31888" lon="-2.38513">
        <ele>30.39999961853</ele>
        <time>2022-01-27T09:35:02.000Z</time>
      </trkpt>
      <trkpt lat="47.31884" lon="-2.38515">
        <ele>30.799999237061</ele>
        <time>2022-01-27T09:35:03.000Z</time>
      </trkpt>
      <trkpt lat="47.3188" lon="-2.38516">
        <ele>31.200000762939</ele>
        <time>2022-01-27T09:35:04.000Z</time>
      </trkpt>
      <trkpt lat="47.31876" lon="-2.38518">
        <ele>31.60000038147</ele>
        <time>2022-01-27T09:35:05.000Z</time>
      </trkpt>
      <trkpt lat="47.31868" lon="-2.38521">
        <ele>31.60000038147</ele>
        <time>2022-01-27T09:35:07.000Z</time>
      </trkpt>
      <trkpt lat="47.31852" lon="-2.38527">
        <ele>32.200000762939</ele>
        <time>2022-01-27T09:35:11.000Z</time>
      </trkpt>
      <trkpt lat="47.31848" lon="-2.38529">
        <ele>32.599998474121</ele>
        <time>2022-01-27T09:35:12.000Z</time>
      </trkpt>
      <trkpt lat="47.31845" lon="-2.3853">
        <ele>33</ele>
        <time>2022-01-27T09:35:13.000Z</time>
      </trkpt>
      <trkpt lat="47.31841" lon="-2.38531">
        <ele>33.599998474121</ele>
        <time>2022-01-27T09:35:14.000Z</time>
      </trkpt>
      <trkpt lat="47.31838" lon="-2.38533">
        <ele>34</ele>
        <time>2022-01-27T09:35:15.000Z</time>
      </trkpt>
      <trkpt lat="47.31819" lon="-2.38536">
        <ele>34</ele>
        <time>2022-01-27T09:35:20.000Z</time>
      </trkpt>
      <trkpt lat="47.31816" lon="-2.38536">
        <ele>34.400001525879</ele>
        <time>2022-01-27T09:35:21.000Z</time>
      </trkpt>
      <trkpt lat="47.31813" lon="-2.38537">
        <ele>34.799999237061</ele>
        <time>2022-01-27T09:35:22.000Z</time>
      </trkpt>
      <trkpt lat="47.3181" lon="-2.38538">
        <ele>35.200000762939</ele>
        <time>2022-01-27T09:35:23.000Z</time>
      </trkpt>
      <trkpt lat="47.31806" lon="-2.38539">
        <ele>35.599998474121</ele>
        <time>2022-01-27T09:35:24.000Z</time>
      </trkpt>
      <trkpt lat="47.31803" lon="-2.3854">
        <ele>36</ele>
        <time>2022-01-27T09:35:25.000Z</time>
      </trkpt>
      <trkpt lat="47.31799" lon="-2.38541">
        <ele>36</ele>
        <time>2022-01-27T09:35:26.000Z</time>
      </trkpt>
      <trkpt lat="47.31792" lon="-2.38544">
        <ele>36</ele>
        <time>2022-01-27T09:35:28.000Z</time>
      </trkpt>
      <trkpt lat="47.31776" lon="-2.38552">
        <ele>36</ele>
        <time>2022-01-27T09:35:32.000Z</time>
      </trkpt>
      <trkpt lat="47.31744" lon="-2.38571">
        <ele>36</ele>
        <time>2022-01-27T09:35:40.000Z</time>
      </trkpt>
      <trkpt lat="47.31703" lon="-2.38594">
        <ele>36</ele>
        <time>2022-01-27T09:35:49.000Z</time>
      </trkpt>
      <trkpt lat="47.31663" lon="-2.38619">
        <ele>36</ele>
        <time>2022-01-27T09:35:57.000Z</time>
      </trkpt>
      <trkpt lat="47.31636" lon="-2.38649">
        <ele>36</ele>
        <time>2022-01-27T09:36:03.000Z</time>
      </trkpt>
      <trkpt lat="47.31605" lon="-2.38696">
        <ele>36</ele>
        <time>2022-01-27T09:36:11.000Z</time>
      </trkpt>
      <trkpt lat="47.31572" lon="-2.38744">
        <ele>36</ele>
        <time>2022-01-27T09:36:19.000Z</time>
      </trkpt>
      <trkpt lat="47.31557" lon="-2.38768">
        <ele>36</ele>
        <time>2022-01-27T09:36:23.000Z</time>
      </trkpt>
      <trkpt lat="47.3155" lon="-2.3878">
        <ele>36</ele>
        <time>2022-01-27T09:36:25.000Z</time>
      </trkpt>
      <trkpt lat="47.31534" lon="-2.38809">
        <ele>36</ele>
        <time>2022-01-27T09:36:30.000Z</time>
      </trkpt>
      <trkpt lat="47.31531" lon="-2.38815">
        <ele>36</ele>
        <time>2022-01-27T09:36:31.000Z</time>
      </trkpt>
      <trkpt lat="47.31508" lon="-2.38858">
        <ele>36</ele>
        <time>2022-01-27T09:36:38.000Z</time>
      </trkpt>
      <trkpt lat="47.31481" lon="-2.3891">
        <ele>36.400001525879</ele>
        <time>2022-01-27T09:36:46.000Z</time>
      </trkpt>
      <trkpt lat="47.31478" lon="-2.38916">
        <ele>36.799999237061</ele>
        <time>2022-01-27T09:36:47.000Z</time>
      </trkpt>
      <trkpt lat="47.31475" lon="-2.38922">
        <ele>37.200000762939</ele>
        <time>2022-01-27T09:36:48.000Z</time>
      </trkpt>
      <trkpt lat="47.31472" lon="-2.38929">
        <ele>37.599998474121</ele>
        <time>2022-01-27T09:36:49.000Z</time>
      </trkpt>
      <trkpt lat="47.31468" lon="-2.38936">
        <ele>38</ele>
        <time>2022-01-27T09:36:50.000Z</time>
      </trkpt>
      <trkpt lat="47.31449" lon="-2.38973">
        <ele>38</ele>
        <time>2022-01-27T09:36:56.000Z</time>
      </trkpt>
      <trkpt lat="47.3143" lon="-2.3902">
        <ele>38</ele>
        <time>2022-01-27T09:37:03.000Z</time>
      </trkpt>
      <trkpt lat="47.31422" lon="-2.3904">
        <ele>38</ele>
        <time>2022-01-27T09:37:06.000Z</time>
      </trkpt>
      <trkpt lat="47.31411" lon="-2.39059">
        <ele>38</ele>
        <time>2022-01-27T09:37:09.000Z</time>
      </trkpt>
      <trkpt lat="47.31397" lon="-2.39082">
        <ele>38.400001525879</ele>
        <time>2022-01-27T09:37:13.000Z</time>
      </trkpt>
      <trkpt lat="47.31393" lon="-2.39088">
        <ele>39</ele>
        <time>2022-01-27T09:37:14.000Z</time>
      </trkpt>
      <trkpt lat="47.3139" lon="-2.39093">
        <ele>39.400001525879</ele>
        <time>2022-01-27T09:37:15.000Z</time>
      </trkpt>
      <trkpt lat="47.31386" lon="-2.39098">
        <ele>39.799999237061</ele>
        <time>2022-01-27T09:37:16.000Z</time>
      </trkpt>
      <trkpt lat="47.31382" lon="-2.39103">
        <ele>40.200000762939</ele>
        <time>2022-01-27T09:37:17.000Z</time>
      </trkpt>
      <trkpt lat="47.31365" lon="-2.39119">
        <ele>40.200000762939</ele>
        <time>2022-01-27T09:37:21.000Z</time>
      </trkpt>
      <trkpt lat="47.3133" lon="-2.39154">
        <ele>40.200000762939</ele>
        <time>2022-01-27T09:37:29.000Z</time>
      </trkpt>
      <trkpt lat="47.31296" lon="-2.3919">
        <ele>40.200000762939</ele>
        <time>2022-01-27T09:37:37.000Z</time>
      </trkpt>
      <trkpt lat="47.31276" lon="-2.39215">
        <ele>40.200000762939</ele>
        <time>2022-01-27T09:37:42.000Z</time>
      </trkpt>
      <trkpt lat="47.31273" lon="-2.39221">
        <ele>40.200000762939</ele>
        <time>2022-01-27T09:37:43.000Z</time>
      </trkpt>
      <trkpt lat="47.31247" lon="-2.39258">
        <ele>40.200000762939</ele>
        <time>2022-01-27T09:37:50.000Z</time>
      </trkpt>
      <trkpt lat="47.3122" lon="-2.39285">
        <ele>40.200000762939</ele>
        <time>2022-01-27T09:37:56.000Z</time>
      </trkpt>
      <trkpt lat="47.3121" lon="-2.39295">
        <ele>40.200000762939</ele>
        <time>2022-01-27T09:37:58.000Z</time>
      </trkpt>
      <trkpt lat="47.31189" lon="-2.39312">
        <ele>40.200000762939</ele>
        <time>2022-01-27T09:38:02.000Z</time>
      </trkpt>
      <trkpt lat="47.31155" lon="-2.39335">
        <ele>40.200000762939</ele>
        <time>2022-01-27T09:38:08.000Z</time>
      </trkpt>
      <trkpt lat="47.3115" lon="-2.3934">
        <ele>40.200000762939</ele>
        <time>2022-01-27T09:38:09.000Z</time>
      </trkpt>
      <trkpt lat="47.31139" lon="-2.3935">
        <ele>39.799999237061</ele>
        <time>2022-01-27T09:38:11.000Z</time>
      </trkpt>
      <trkpt lat="47.31134" lon="-2.39356">
        <ele>39.400001525879</ele>
        <time>2022-01-27T09:38:12.000Z</time>
      </trkpt>
      <trkpt lat="47.31129" lon="-2.39362">
        <ele>39</ele>
        <time>2022-01-27T09:38:13.000Z</time>
      </trkpt>
      <trkpt lat="47.31123" lon="-2.39368">
        <ele>38.599998474121</ele>
        <time>2022-01-27T09:38:14.000Z</time>
      </trkpt>
      <trkpt lat="47.31118" lon="-2.39374">
        <ele>38.200000762939</ele>
        <time>2022-01-27T09:38:15.000Z</time>
      </trkpt>
      <trkpt lat="47.31114" lon="-2.3938">
        <ele>38.200000762939</ele>
        <time>2022-01-27T09:38:16.000Z</time>
      </trkpt>
      <trkpt lat="47.31075" lon="-2.3943">
        <ele>38.200000762939</ele>
        <time>2022-01-27T09:38:24.000Z</time>
      </trkpt>
      <trkpt lat="47.31062" lon="-2.39448">
        <ele>37.799999237061</ele>
        <time>2022-01-27T09:38:27.000Z</time>
      </trkpt>
      <trkpt lat="47.31057" lon="-2.39453">
        <ele>37.400001525879</ele>
        <time>2022-01-27T09:38:28.000Z</time>
      </trkpt>
      <trkpt lat="47.31052" lon="-2.39458">
        <ele>37</ele>
        <time>2022-01-27T09:38:29.000Z</time>
      </trkpt>
      <trkpt lat="47.31049" lon="-2.39463">
        <ele>36.599998474121</ele>
        <time>2022-01-27T09:38:30.000Z</time>
      </trkpt>
      <trkpt lat="47.31047" lon="-2.39468">
        <ele>36</ele>
        <time>2022-01-27T09:38:31.000Z</time>
      </trkpt>
      <trkpt lat="47.31046" lon="-2.39481">
        <ele>36</ele>
        <time>2022-01-27T09:38:33.000Z</time>
      </trkpt>
      <trkpt lat="47.31047" lon="-2.39487">
        <ele>36</ele>
        <time>2022-01-27T09:38:34.000Z</time>
      </trkpt>
      <trkpt lat="47.3105" lon="-2.395">
        <ele>36</ele>
        <time>2022-01-27T09:38:36.000Z</time>
      </trkpt>
      <trkpt lat="47.31055" lon="-2.39512">
        <ele>36</ele>
        <time>2022-01-27T09:38:38.000Z</time>
      </trkpt>
      <trkpt lat="47.3107" lon="-2.39555">
        <ele>36</ele>
        <time>2022-01-27T09:38:45.000Z</time>
      </trkpt>
      <trkpt lat="47.31081" lon="-2.39586">
        <ele>36.599998474121</ele>
        <time>2022-01-27T09:38:51.000Z</time>
      </trkpt>
      <trkpt lat="47.31084" lon="-2.39591">
        <ele>37</ele>
        <time>2022-01-27T09:38:52.000Z</time>
      </trkpt>
      <trkpt lat="47.31086" lon="-2.39596">
        <ele>37.400001525879</ele>
        <time>2022-01-27T09:38:53.000Z</time>
      </trkpt>
      <trkpt lat="47.31088" lon="-2.39602">
        <ele>37.799999237061</ele>
        <time>2022-01-27T09:38:54.000Z</time>
      </trkpt>
      <trkpt lat="47.3109" lon="-2.39607">
        <ele>38.200000762939</ele>
        <time>2022-01-27T09:38:55.000Z</time>
      </trkpt>
      <trkpt lat="47.31094" lon="-2.39617">
        <ele>38.200000762939</ele>
        <time>2022-01-27T09:38:57.000Z</time>
      </trkpt>
      <trkpt lat="47.31108" lon="-2.39656">
        <ele>38.200000762939</ele>
        <time>2022-01-27T09:39:04.000Z</time>
      </trkpt>
      <trkpt lat="47.31124" lon="-2.39706">
        <ele>38.200000762939</ele>
        <time>2022-01-27T09:39:11.000Z</time>
      </trkpt>
      <trkpt lat="47.31144" lon="-2.39761">
        <ele>38.200000762939</ele>
        <time>2022-01-27T09:39:18.000Z</time>
      </trkpt>
      <trkpt lat="47.31153" lon="-2.39785">
        <ele>37.799999237061</ele>
        <time>2022-01-27T09:39:21.000Z</time>
      </trkpt>
      <trkpt lat="47.31156" lon="-2.39794">
        <ele>37.400001525879</ele>
        <time>2022-01-27T09:39:22.000Z</time>
      </trkpt>
      <trkpt lat="47.31159" lon="-2.39802">
        <ele>36.799999237061</ele>
        <time>2022-01-27T09:39:23.000Z</time>
      </trkpt>
      <trkpt lat="47.31161" lon="-2.39811">
        <ele>36.400001525879</ele>
        <time>2022-01-27T09:39:24.000Z</time>
      </trkpt>
      <trkpt lat="47.31163" lon="-2.3982">
        <ele>36</ele>
        <time>2022-01-27T09:39:25.000Z</time>
      </trkpt>
      <trkpt lat="47.31169" lon="-2.39835">
        <ele>36</ele>
        <time>2022-01-27T09:39:27.000Z</time>
      </trkpt>
      <trkpt lat="47.31177" lon="-2.39848">
        <ele>36</ele>
        <time>2022-01-27T09:39:29.000Z</time>
      </trkpt>
      <trkpt lat="47.31184" lon="-2.39878">
        <ele>36</ele>
        <time>2022-01-27T09:39:33.000Z</time>
      </trkpt>
      <trkpt lat="47.31186" lon="-2.39883">
        <ele>36</ele>
        <time>2022-01-27T09:39:34.000Z</time>
      </trkpt>
      <trkpt lat="47.31188" lon="-2.39889">
        <ele>36</ele>
        <time>2022-01-27T09:39:36.000Z</time>
      </trkpt>
      <trkpt lat="47.31193" lon="-2.39905">
        <ele>35.599998474121</ele>
        <time>2022-01-27T09:39:40.000Z</time>
      </trkpt>
      <trkpt lat="47.31194" lon="-2.39908">
        <ele>35.200000762939</ele>
        <time>2022-01-27T09:39:41.000Z</time>
      </trkpt>
      <trkpt lat="47.31196" lon="-2.39912">
        <ele>34.599998474121</ele>
        <time>2022-01-27T09:39:42.000Z</time>
      </trkpt>
      <trkpt lat="47.31197" lon="-2.39915">
        <ele>34.200000762939</ele>
        <time>2022-01-27T09:39:43.000Z</time>
      </trkpt>
      <trkpt lat="47.31199" lon="-2.39919">
        <ele>33.799999237061</ele>
        <time>2022-01-27T09:39:44.000Z</time>
      </trkpt>
      <trkpt lat="47.31202" lon="-2.39926">
        <ele>33.799999237061</ele>
        <time>2022-01-27T09:39:46.000Z</time>
      </trkpt>
      <trkpt lat="47.31212" lon="-2.39954">
        <ele>33.799999237061</ele>
        <time>2022-01-27T09:39:52.000Z</time>
      </trkpt>
      <trkpt lat="47.31216" lon="-2.39966">
        <ele>33.200000762939</ele>
        <time>2022-01-27T09:39:55.000Z</time>
      </trkpt>
      <trkpt lat="47.31217" lon="-2.3997">
        <ele>32.799999237061</ele>
        <time>2022-01-27T09:39:56.000Z</time>
      </trkpt>
      <trkpt lat="47.31219" lon="-2.39975">
        <ele>32.400001525879</ele>
        <time>2022-01-27T09:39:57.000Z</time>
      </trkpt>
      <trkpt lat="47.3122" lon="-2.39979">
        <ele>32</ele>
        <time>2022-01-27T09:39:58.000Z</time>
      </trkpt>
      <trkpt lat="47.31222" lon="-2.39983">
        <ele>31.60000038147</ele>
        <time>2022-01-27T09:39:59.000Z</time>
      </trkpt>
      <trkpt lat="47.31228" lon="-2.40001">
        <ele>31.60000038147</ele>
        <time>2022-01-27T09:40:03.000Z</time>
      </trkpt>
      <trkpt lat="47.31229" lon="-2.40006">
        <ele>31.200000762939</ele>
        <time>2022-01-27T09:40:04.000Z</time>
      </trkpt>
      <trkpt lat="47.3123" lon="-2.40011">
        <ele>30.60000038147</ele>
        <time>2022-01-27T09:40:05.000Z</time>
      </trkpt>
      <trkpt lat="47.3123" lon="-2.40016">
        <ele>30.200000762939</ele>
        <time>2022-01-27T09:40:06.000Z</time>
      </trkpt>
      <trkpt lat="47.31232" lon="-2.40021">
        <ele>29.799999237061</ele>
        <time>2022-01-27T09:40:07.000Z</time>
      </trkpt>
      <trkpt lat="47.31233" lon="-2.40025">
        <ele>29.39999961853</ele>
        <time>2022-01-27T09:40:08.000Z</time>
      </trkpt>
      <trkpt lat="47.31234" lon="-2.40029">
        <ele>29.39999961853</ele>
        <time>2022-01-27T09:40:09.000Z</time>
      </trkpt>
      <trkpt lat="47.31235" lon="-2.40037">
        <ele>29.39999961853</ele>
        <time>2022-01-27T09:40:11.000Z</time>
      </trkpt>
      <trkpt lat="47.31237" lon="-2.40041">
        <ele>29.39999961853</ele>
        <time>2022-01-27T09:40:12.000Z</time>
      </trkpt>
      <trkpt lat="47.31239" lon="-2.40043">
        <ele>29.39999961853</ele>
        <time>2022-01-27T09:40:13.000Z</time>
      </trkpt>
      <trkpt lat="47.31245" lon="-2.40045">
        <ele>29.39999961853</ele>
        <time>2022-01-27T09:40:16.000Z</time>
      </trkpt>
      <trkpt lat="47.31246" lon="-2.40046">
        <ele>29.39999961853</ele>
        <time>2022-01-27T09:40:17.000Z</time>
      </trkpt>
      <trkpt lat="47.31256" lon="-2.40056">
        <ele>29.39999961853</ele>
        <time>2022-01-27T09:40:21.000Z</time>
      </trkpt>
      <trkpt lat="47.31278" lon="-2.40061">
        <ele>29.39999961853</ele>
        <time>2022-01-27T09:40:25.000Z</time>
      </trkpt>
      <trkpt lat="47.31296" lon="-2.40064">
        <ele>29.39999961853</ele>
        <time>2022-01-27T09:40:29.000Z</time>
      </trkpt>
      <trkpt lat="47.31317" lon="-2.40072">
        <ele>29.39999961853</ele>
        <time>2022-01-27T09:40:34.000Z</time>
      </trkpt>
      <trkpt lat="47.31321" lon="-2.40074">
        <ele>29.39999961853</ele>
        <time>2022-01-27T09:40:35.000Z</time>
      </trkpt>
      <trkpt lat="47.31325" lon="-2.40076">
        <ele>29.39999961853</ele>
        <time>2022-01-27T09:40:36.000Z</time>
      </trkpt>
      <trkpt lat="47.31348" lon="-2.40087">
        <ele>29.39999961853</ele>
        <time>2022-01-27T09:40:41.000Z</time>
      </trkpt>
      <trkpt lat="47.31379" lon="-2.40103">
        <ele>29.39999961853</ele>
        <time>2022-01-27T09:40:48.000Z</time>
      </trkpt>
      <trkpt lat="47.31395" lon="-2.40111">
        <ele>29.39999961853</ele>
        <time>2022-01-27T09:40:52.000Z</time>
      </trkpt>
      <trkpt lat="47.31399" lon="-2.40113">
        <ele>29.39999961853</ele>
        <time>2022-01-27T09:40:53.000Z</time>
      </trkpt>
      <trkpt lat="47.31419" lon="-2.40126">
        <ele>29.39999961853</ele>
        <time>2022-01-27T09:40:58.000Z</time>
      </trkpt>
      <trkpt lat="47.31443" lon="-2.40143">
        <ele>29.799999237061</ele>
        <time>2022-01-27T09:41:04.000Z</time>
      </trkpt>
      <trkpt lat="47.31447" lon="-2.40146">
        <ele>30.200000762939</ele>
        <time>2022-01-27T09:41:05.000Z</time>
      </trkpt>
      <trkpt lat="47.31451" lon="-2.4015">
        <ele>30.799999237061</ele>
        <time>2022-01-27T09:41:06.000Z</time>
      </trkpt>
      <trkpt lat="47.31455" lon="-2.40153">
        <ele>31.200000762939</ele>
        <time>2022-01-27T09:41:07.000Z</time>
      </trkpt>
      <trkpt lat="47.31458" lon="-2.40156">
        <ele>31.60000038147</ele>
        <time>2022-01-27T09:41:08.000Z</time>
      </trkpt>
      <trkpt lat="47.31471" lon="-2.40166">
        <ele>31.60000038147</ele>
        <time>2022-01-27T09:41:12.000Z</time>
      </trkpt>
      <trkpt lat="47.31489" lon="-2.40183">
        <ele>31.60000038147</ele>
        <time>2022-01-27T09:41:17.000Z</time>
      </trkpt>
      <trkpt lat="47.31513" lon="-2.402">
        <ele>31.60000038147</ele>
        <time>2022-01-27T09:41:24.000Z</time>
      </trkpt>
      <trkpt lat="47.31529" lon="-2.40215">
        <ele>32</ele>
        <time>2022-01-27T09:41:29.000Z</time>
      </trkpt>
      <trkpt lat="47.31532" lon="-2.40218">
        <ele>32.400001525879</ele>
        <time>2022-01-27T09:41:30.000Z</time>
      </trkpt>
      <trkpt lat="47.31536" lon="-2.40221">
        <ele>32.799999237061</ele>
        <time>2022-01-27T09:41:31.000Z</time>
      </trkpt>
      <trkpt lat="47.3154" lon="-2.40224">
        <ele>33.200000762939</ele>
        <time>2022-01-27T09:41:32.000Z</time>
      </trkpt>
      <trkpt lat="47.31545" lon="-2.40227">
        <ele>33.599998474121</ele>
        <time>2022-01-27T09:41:33.000Z</time>
      </trkpt>
      <trkpt lat="47.31558" lon="-2.40236">
        <ele>33.599998474121</ele>
        <time>2022-01-27T09:41:36.000Z</time>
      </trkpt>
      <trkpt lat="47.3158" lon="-2.40254">
        <ele>33.599998474121</ele>
        <time>2022-01-27T09:41:42.000Z</time>
      </trkpt>
      <trkpt lat="47.31604" lon="-2.40271">
        <ele>33.599998474121</ele>
        <time>2022-01-27T09:41:48.000Z</time>
      </trkpt>
      <trkpt lat="47.31631" lon="-2.40291">
        <ele>33.599998474121</ele>
        <time>2022-01-27T09:41:55.000Z</time>
      </trkpt>
      <trkpt lat="47.31635" lon="-2.40294">
        <ele>34</ele>
        <time>2022-01-27T09:41:56.000Z</time>
      </trkpt>
      <trkpt lat="47.31639" lon="-2.40297">
        <ele>34.400001525879</ele>
        <time>2022-01-27T09:41:57.000Z</time>
      </trkpt>
      <trkpt lat="47.31642" lon="-2.40299">
        <ele>34.799999237061</ele>
        <time>2022-01-27T09:41:58.000Z</time>
      </trkpt>
      <trkpt lat="47.31646" lon="-2.40303">
        <ele>35.200000762939</ele>
        <time>2022-01-27T09:41:59.000Z</time>
      </trkpt>
      <trkpt lat="47.31649" lon="-2.40306">
        <ele>35.599998474121</ele>
        <time>2022-01-27T09:42:00.000Z</time>
      </trkpt>
      <trkpt lat="47.31657" lon="-2.40311">
        <ele>35.599998474121</ele>
        <time>2022-01-27T09:42:02.000Z</time>
      </trkpt>
      <trkpt lat="47.31673" lon="-2.40324">
        <ele>35.599998474121</ele>
        <time>2022-01-27T09:42:07.000Z</time>
      </trkpt>
      <trkpt lat="47.31681" lon="-2.4033">
        <ele>35.599998474121</ele>
        <time>2022-01-27T09:42:12.000Z</time>
      </trkpt>
      <trkpt lat="47.31693" lon="-2.40335">
        <ele>35.599998474121</ele>
        <time>2022-01-27T09:42:18.000Z</time>
      </trkpt>
      <trkpt lat="47.31702" lon="-2.40342">
        <ele>35.599998474121</ele>
        <time>2022-01-27T09:42:23.000Z</time>
      </trkpt>
      <trkpt lat="47.31711" lon="-2.40351">
        <ele>35.599998474121</ele>
        <time>2022-01-27T09:42:29.000Z</time>
      </trkpt>
      <trkpt lat="47.31717" lon="-2.40356">
        <ele>36</ele>
        <time>2022-01-27T09:42:32.000Z</time>
      </trkpt>
      <trkpt lat="47.3172" lon="-2.40358">
        <ele>36.400001525879</ele>
        <time>2022-01-27T09:42:33.000Z</time>
      </trkpt>
      <trkpt lat="47.31723" lon="-2.40359">
        <ele>36.799999237061</ele>
        <time>2022-01-27T09:42:34.000Z</time>
      </trkpt>
      <trkpt lat="47.31725" lon="-2.40361">
        <ele>37.200000762939</ele>
        <time>2022-01-27T09:42:35.000Z</time>
      </trkpt>
      <trkpt lat="47.31728" lon="-2.40363">
        <ele>37.599998474121</ele>
        <time>2022-01-27T09:42:36.000Z</time>
      </trkpt>
      <trkpt lat="47.31743" lon="-2.40374">
        <ele>37.599998474121</ele>
        <time>2022-01-27T09:42:42.000Z</time>
      </trkpt>
      <trkpt lat="47.31764" lon="-2.40391">
        <ele>37.599998474121</ele>
        <time>2022-01-27T09:42:50.000Z</time>
      </trkpt>
      <trkpt lat="47.31784" lon="-2.40408">
        <ele>37.599998474121</ele>
        <time>2022-01-27T09:42:57.000Z</time>
      </trkpt>
      <trkpt lat="47.3181" lon="-2.40427">
        <ele>37.599998474121</ele>
        <time>2022-01-27T09:43:05.000Z</time>
      </trkpt>
      <trkpt lat="47.31831" lon="-2.40442">
        <ele>38</ele>
        <time>2022-01-27T09:43:11.000Z</time>
      </trkpt>
      <trkpt lat="47.31834" lon="-2.40444">
        <ele>38.400001525879</ele>
        <time>2022-01-27T09:43:12.000Z</time>
      </trkpt>
      <trkpt lat="47.31838" lon="-2.40447">
        <ele>39</ele>
        <time>2022-01-27T09:43:13.000Z</time>
      </trkpt>
      <trkpt lat="47.31841" lon="-2.40449">
        <ele>39.400001525879</ele>
        <time>2022-01-27T09:43:14.000Z</time>
      </trkpt>
      <trkpt lat="47.31844" lon="-2.40452">
        <ele>39.799999237061</ele>
        <time>2022-01-27T09:43:15.000Z</time>
      </trkpt>
      <trkpt lat="47.31857" lon="-2.40461">
        <ele>39.799999237061</ele>
        <time>2022-01-27T09:43:19.000Z</time>
      </trkpt>
      <trkpt lat="47.31879" lon="-2.40475">
        <ele>39.799999237061</ele>
        <time>2022-01-27T09:43:26.000Z</time>
      </trkpt>
      <trkpt lat="47.31893" lon="-2.40487">
        <ele>39.799999237061</ele>
        <time>2022-01-27T09:43:31.000Z</time>
      </trkpt>
      <trkpt lat="47.31912" lon="-2.40503">
        <ele>39.799999237061</ele>
        <time>2022-01-27T09:43:37.000Z</time>
      </trkpt>
      <trkpt lat="47.31932" lon="-2.40517">
        <ele>40.200000762939</ele>
        <time>2022-01-27T09:43:43.000Z</time>
      </trkpt>
      <trkpt lat="47.31935" lon="-2.4052">
        <ele>41</ele>
        <time>2022-01-27T09:43:44.000Z</time>
      </trkpt>
      <trkpt lat="47.31938" lon="-2.40522">
        <ele>41.400001525879</ele>
        <time>2022-01-27T09:43:45.000Z</time>
      </trkpt>
      <trkpt lat="47.31942" lon="-2.40525">
        <ele>41.799999237061</ele>
        <time>2022-01-27T09:43:46.000Z</time>
      </trkpt>
      <trkpt lat="47.31956" lon="-2.40534">
        <ele>41.799999237061</ele>
        <time>2022-01-27T09:43:50.000Z</time>
      </trkpt>
      <trkpt lat="47.3198" lon="-2.40554">
        <ele>41.799999237061</ele>
        <time>2022-01-27T09:43:57.000Z</time>
      </trkpt>
      <trkpt lat="47.31995" lon="-2.40568">
        <ele>41.799999237061</ele>
        <time>2022-01-27T09:44:01.000Z</time>
      </trkpt>
      <trkpt lat="47.32004" lon="-2.40576">
        <ele>41.799999237061</ele>
        <time>2022-01-27T09:44:03.000Z</time>
      </trkpt>
      <trkpt lat="47.32035" lon="-2.40603">
        <ele>42.599998474121</ele>
        <time>2022-01-27T09:44:09.000Z</time>
      </trkpt>
      <trkpt lat="47.3204" lon="-2.40607">
        <ele>43</ele>
        <time>2022-01-27T09:44:10.000Z</time>
      </trkpt>
      <trkpt lat="47.32044" lon="-2.4061">
        <ele>43.400001525879</ele>
        <time>2022-01-27T09:44:11.000Z</time>
      </trkpt>
      <trkpt lat="47.32048" lon="-2.40614">
        <ele>44</ele>
        <time>2022-01-27T09:44:12.000Z</time>
      </trkpt>
      <trkpt lat="47.32052" lon="-2.40617">
        <ele>44</ele>
        <time>2022-01-27T09:44:13.000Z</time>
      </trkpt>
      <trkpt lat="47.3206" lon="-2.40625">
        <ele>44</ele>
        <time>2022-01-27T09:44:15.000Z</time>
      </trkpt>
      <trkpt lat="47.32087" lon="-2.4065">
        <ele>44</ele>
        <time>2022-01-27T09:44:21.000Z</time>
      </trkpt>
      <trkpt lat="47.32112" lon="-2.40677">
        <ele>44</ele>
        <time>2022-01-27T09:44:27.000Z</time>
      </trkpt>
      <trkpt lat="47.32133" lon="-2.407">
        <ele>44</ele>
        <time>2022-01-27T09:44:32.000Z</time>
      </trkpt>
      <trkpt lat="47.32145" lon="-2.40713">
        <ele>44.400001525879</ele>
        <time>2022-01-27T09:44:35.000Z</time>
      </trkpt>
      <trkpt lat="47.32149" lon="-2.40717">
        <ele>44.799999237061</ele>
        <time>2022-01-27T09:44:36.000Z</time>
      </trkpt>
      <trkpt lat="47.32153" lon="-2.40722">
        <ele>45.200000762939</ele>
        <time>2022-01-27T09:44:37.000Z</time>
      </trkpt>
      <trkpt lat="47.32157" lon="-2.40727">
        <ele>45.599998474121</ele>
        <time>2022-01-27T09:44:38.000Z</time>
      </trkpt>
      <trkpt lat="47.32161" lon="-2.40731">
        <ele>46</ele>
        <time>2022-01-27T09:44:39.000Z</time>
      </trkpt>
      <trkpt lat="47.32165" lon="-2.40736">
        <ele>46</ele>
        <time>2022-01-27T09:44:40.000Z</time>
      </trkpt>
      <trkpt lat="47.32188" lon="-2.40771">
        <ele>46</ele>
        <time>2022-01-27T09:44:47.000Z</time>
      </trkpt>
      <trkpt lat="47.32199" lon="-2.40788">
        <ele>46</ele>
        <time>2022-01-27T09:44:52.000Z</time>
      </trkpt>
      <trkpt lat="47.32207" lon="-2.40801">
        <ele>46</ele>
        <time>2022-01-27T09:44:57.000Z</time>
      </trkpt>
      <trkpt lat="47.32211" lon="-2.40819">
        <ele>46</ele>
        <time>2022-01-27T09:45:02.000Z</time>
      </trkpt>
      <trkpt lat="47.32212" lon="-2.40862">
        <ele>46</ele>
        <time>2022-01-27T09:45:09.000Z</time>
      </trkpt>
      <trkpt lat="47.32222" lon="-2.40913">
        <ele>46</ele>
        <time>2022-01-27T09:45:16.000Z</time>
      </trkpt>
      <trkpt lat="47.32228" lon="-2.40936">
        <ele>45.599998474121</ele>
        <time>2022-01-27T09:45:19.000Z</time>
      </trkpt>
      <trkpt lat="47.3223" lon="-2.40944">
        <ele>45.200000762939</ele>
        <time>2022-01-27T09:45:20.000Z</time>
      </trkpt>
      <trkpt lat="47.32232" lon="-2.40951">
        <ele>44.799999237061</ele>
        <time>2022-01-27T09:45:21.000Z</time>
      </trkpt>
      <trkpt lat="47.32234" lon="-2.40959">
        <ele>44.400001525879</ele>
        <time>2022-01-27T09:45:22.000Z</time>
      </trkpt>
      <trkpt lat="47.32235" lon="-2.40967">
        <ele>44</ele>
        <time>2022-01-27T09:45:23.000Z</time>
      </trkpt>
      <trkpt lat="47.32251" lon="-2.41032">
        <ele>44</ele>
        <time>2022-01-27T09:45:33.000Z</time>
      </trkpt>
      <trkpt lat="47.32267" lon="-2.41092">
        <ele>44</ele>
        <time>2022-01-27T09:45:42.000Z</time>
      </trkpt>
      <trkpt lat="47.32279" lon="-2.41138">
        <ele>44</ele>
        <time>2022-01-27T09:45:49.000Z</time>
      </trkpt>
      <trkpt lat="47.32292" lon="-2.41179">
        <ele>44</ele>
        <time>2022-01-27T09:45:56.000Z</time>
      </trkpt>
      <trkpt lat="47.32296" lon="-2.41197">
        <ele>44</ele>
        <time>2022-01-27T09:46:01.000Z</time>
      </trkpt>
      <trkpt lat="47.32294" lon="-2.41203">
        <ele>44</ele>
        <time>2022-01-27T09:46:03.000Z</time>
      </trkpt>
      <trkpt lat="47.32288" lon="-2.41208">
        <ele>44</ele>
        <time>2022-01-27T09:46:05.000Z</time>
      </trkpt>
      <trkpt lat="47.32273" lon="-2.41225">
        <ele>44</ele>
        <time>2022-01-27T09:46:10.000Z</time>
      </trkpt>
      <trkpt lat="47.32255" lon="-2.41242">
        <ele>44</ele>
        <time>2022-01-27T09:46:15.000Z</time>
      </trkpt>
      <trkpt lat="47.32251" lon="-2.41245">
        <ele>44</ele>
        <time>2022-01-27T09:46:16.000Z</time>
      </trkpt>
      <trkpt lat="47.32238" lon="-2.41258">
        <ele>44</ele>
        <time>2022-01-27T09:46:20.000Z</time>
      </trkpt>
      <trkpt lat="47.32218" lon="-2.41276">
        <ele>44</ele>
        <time>2022-01-27T09:46:26.000Z</time>
      </trkpt>
      <trkpt lat="47.3219" lon="-2.41295">
        <ele>44</ele>
        <time>2022-01-27T09:46:33.000Z</time>
      </trkpt>
      <trkpt lat="47.32167" lon="-2.41304">
        <ele>44</ele>
        <time>2022-01-27T09:46:38.000Z</time>
      </trkpt>
      <trkpt lat="47.32162" lon="-2.41305">
        <ele>44</ele>
        <time>2022-01-27T09:46:39.000Z</time>
      </trkpt>
      <trkpt lat="47.32142" lon="-2.41306">
        <ele>43.400001525879</ele>
        <time>2022-01-27T09:46:43.000Z</time>
      </trkpt>
      <trkpt lat="47.32137" lon="-2.41305">
        <ele>43</ele>
        <time>2022-01-27T09:46:44.000Z</time>
      </trkpt>
      <trkpt lat="47.32132" lon="-2.41305">
        <ele>42.599998474121</ele>
        <time>2022-01-27T09:46:45.000Z</time>
      </trkpt>
      <trkpt lat="47.32127" lon="-2.41307">
        <ele>42.200000762939</ele>
        <time>2022-01-27T09:46:46.000Z</time>
      </trkpt>
      <trkpt lat="47.32122" lon="-2.41309">
        <ele>41.799999237061</ele>
        <time>2022-01-27T09:46:47.000Z</time>
      </trkpt>
      <trkpt lat="47.32107" lon="-2.41318">
        <ele>41.799999237061</ele>
        <time>2022-01-27T09:46:50.000Z</time>
      </trkpt>
      <trkpt lat="47.32097" lon="-2.41335">
        <ele>41.799999237061</ele>
        <time>2022-01-27T09:46:53.000Z</time>
      </trkpt>
      <trkpt lat="47.32086" lon="-2.41349">
        <ele>41.799999237061</ele>
        <time>2022-01-27T09:46:57.000Z</time>
      </trkpt>
      <trkpt lat="47.32083" lon="-2.41352">
        <ele>41.400001525879</ele>
        <time>2022-01-27T09:46:58.000Z</time>
      </trkpt>
      <trkpt lat="47.3208" lon="-2.41354">
        <ele>40.799999237061</ele>
        <time>2022-01-27T09:46:59.000Z</time>
      </trkpt>
      <trkpt lat="47.32077" lon="-2.41357">
        <ele>40.400001525879</ele>
        <time>2022-01-27T09:47:00.000Z</time>
      </trkpt>
      <trkpt lat="47.32074" lon="-2.4136">
        <ele>40</ele>
        <time>2022-01-27T09:47:01.000Z</time>
      </trkpt>
      <trkpt lat="47.32071" lon="-2.41362">
        <ele>39.599998474121</ele>
        <time>2022-01-27T09:47:02.000Z</time>
      </trkpt>
      <trkpt lat="47.32064" lon="-2.41367">
        <ele>39.599998474121</ele>
        <time>2022-01-27T09:47:04.000Z</time>
      </trkpt>
      <trkpt lat="47.32051" lon="-2.41379">
        <ele>39.599998474121</ele>
        <time>2022-01-27T09:47:09.000Z</time>
      </trkpt>
      <trkpt lat="47.3204" lon="-2.41388">
        <ele>39.599998474121</ele>
        <time>2022-01-27T09:47:13.000Z</time>
      </trkpt>
      <trkpt lat="47.32024" lon="-2.41392">
        <ele>39.599998474121</ele>
        <time>2022-01-27T09:47:17.000Z</time>
      </trkpt>
      <trkpt lat="47.3202" lon="-2.41394">
        <ele>39.599998474121</ele>
        <time>2022-01-27T09:47:18.000Z</time>
      </trkpt>
      <trkpt lat="47.32016" lon="-2.41402">
        <ele>39.599998474121</ele>
        <time>2022-01-27T09:47:21.000Z</time>
      </trkpt>
      <trkpt lat="47.32015" lon="-2.41405">
        <ele>39.599998474121</ele>
        <time>2022-01-27T09:47:23.000Z</time>
      </trkpt>
      <trkpt lat="47.32014" lon="-2.41412">
        <ele>39.599998474121</ele>
        <time>2022-01-27T09:47:26.000Z</time>
      </trkpt>
      <trkpt lat="47.32016" lon="-2.41415">
        <ele>39.599998474121</ele>
        <time>2022-01-27T09:47:29.000Z</time>
      </trkpt>
      <trkpt lat="47.32017" lon="-2.41418">
        <ele>39.599998474121</ele>
        <time>2022-01-27T09:47:33.000Z</time>
      </trkpt>
      <trkpt lat="47.32018" lon="-2.41439">
        <ele>39.599998474121</ele>
        <time>2022-01-27T09:47:37.000Z</time>
      </trkpt>
      <trkpt lat="47.32017" lon="-2.41452">
        <ele>39.599998474121</ele>
        <time>2022-01-27T09:47:39.000Z</time>
      </trkpt>
      <trkpt lat="47.32011" lon="-2.4147">
        <ele>39.599998474121</ele>
        <time>2022-01-27T09:47:42.000Z</time>
      </trkpt>
      <trkpt lat="47.32009" lon="-2.41475">
        <ele>39.599998474121</ele>
        <time>2022-01-27T09:47:43.000Z</time>
      </trkpt>
      <trkpt lat="47.32001" lon="-2.41493">
        <ele>39.599998474121</ele>
        <time>2022-01-27T09:47:46.000Z</time>
      </trkpt>
      <trkpt lat="47.31998" lon="-2.41507">
        <ele>39.599998474121</ele>
        <time>2022-01-27T09:47:48.000Z</time>
      </trkpt>
      <trkpt lat="47.32" lon="-2.41546">
        <ele>39.599998474121</ele>
        <time>2022-01-27T09:47:53.000Z</time>
      </trkpt>
      <trkpt lat="47.32004" lon="-2.4156">
        <ele>39.599998474121</ele>
        <time>2022-01-27T09:47:55.000Z</time>
      </trkpt>
      <trkpt lat="47.3201" lon="-2.41588">
        <ele>39.599998474121</ele>
        <time>2022-01-27T09:47:59.000Z</time>
      </trkpt>
      <trkpt lat="47.32027" lon="-2.41639">
        <ele>39.599998474121</ele>
        <time>2022-01-27T09:48:07.000Z</time>
      </trkpt>
      <trkpt lat="47.32044" lon="-2.41686">
        <ele>39.599998474121</ele>
        <time>2022-01-27T09:48:15.000Z</time>
      </trkpt>
      <trkpt lat="47.32062" lon="-2.41732">
        <ele>39.599998474121</ele>
        <time>2022-01-27T09:48:23.000Z</time>
      </trkpt>
      <trkpt lat="47.32065" lon="-2.41737">
        <ele>40</ele>
        <time>2022-01-27T09:48:24.000Z</time>
      </trkpt>
      <trkpt lat="47.32067" lon="-2.41743">
        <ele>40.400001525879</ele>
        <time>2022-01-27T09:48:25.000Z</time>
      </trkpt>
      <trkpt lat="47.32069" lon="-2.41749">
        <ele>40.799999237061</ele>
        <time>2022-01-27T09:48:26.000Z</time>
      </trkpt>
      <trkpt lat="47.32072" lon="-2.41755">
        <ele>41.200000762939</ele>
        <time>2022-01-27T09:48:27.000Z</time>
      </trkpt>
      <trkpt lat="47.32074" lon="-2.41761">
        <ele>41.599998474121</ele>
        <time>2022-01-27T09:48:28.000Z</time>
      </trkpt>
      <trkpt lat="47.32084" lon="-2.41792">
        <ele>41.599998474121</ele>
        <time>2022-01-27T09:48:33.000Z</time>
      </trkpt>
      <trkpt lat="47.32102" lon="-2.41841">
        <ele>41.599998474121</ele>
        <time>2022-01-27T09:48:41.000Z</time>
      </trkpt>
      <trkpt lat="47.32105" lon="-2.41845">
        <ele>41.599998474121</ele>
        <time>2022-01-27T09:48:42.000Z</time>
      </trkpt>
      <trkpt lat="47.32111" lon="-2.41855">
        <ele>41.599998474121</ele>
        <time>2022-01-27T09:48:44.000Z</time>
      </trkpt>
      <trkpt lat="47.32114" lon="-2.41867">
        <ele>41.599998474121</ele>
        <time>2022-01-27T09:48:46.000Z</time>
      </trkpt>
      <trkpt lat="47.32114" lon="-2.41881">
        <ele>41.599998474121</ele>
        <time>2022-01-27T09:48:48.000Z</time>
      </trkpt>
      <trkpt lat="47.32116" lon="-2.41896">
        <ele>41.599998474121</ele>
        <time>2022-01-27T09:48:50.000Z</time>
      </trkpt>
      <trkpt lat="47.32117" lon="-2.41904">
        <ele>41.599998474121</ele>
        <time>2022-01-27T09:48:51.000Z</time>
      </trkpt>
      <trkpt lat="47.32125" lon="-2.41971">
        <ele>41.599998474121</ele>
        <time>2022-01-27T09:48:59.000Z</time>
      </trkpt>
      <trkpt lat="47.32128" lon="-2.42045">
        <ele>41.599998474121</ele>
        <time>2022-01-27T09:49:07.000Z</time>
      </trkpt>
      <trkpt lat="47.32127" lon="-2.42054">
        <ele>41.599998474121</ele>
        <time>2022-01-27T09:49:08.000Z</time>
      </trkpt>
      <trkpt lat="47.32122" lon="-2.42097">
        <ele>41.599998474121</ele>
        <time>2022-01-27T09:49:12.000Z</time>
      </trkpt>
      <trkpt lat="47.3212" lon="-2.42107">
        <ele>41.200000762939</ele>
        <time>2022-01-27T09:49:13.000Z</time>
      </trkpt>
      <trkpt lat="47.32119" lon="-2.42117">
        <ele>40.799999237061</ele>
        <time>2022-01-27T09:49:14.000Z</time>
      </trkpt>
      <trkpt lat="47.32117" lon="-2.42127">
        <ele>40.400001525879</ele>
        <time>2022-01-27T09:49:15.000Z</time>
      </trkpt>
      <trkpt lat="47.32115" lon="-2.42138">
        <ele>40</ele>
        <time>2022-01-27T09:49:16.000Z</time>
      </trkpt>
      <trkpt lat="47.32113" lon="-2.42148">
        <ele>39.599998474121</ele>
        <time>2022-01-27T09:49:17.000Z</time>
      </trkpt>
      <trkpt lat="47.32108" lon="-2.42168">
        <ele>39.599998474121</ele>
        <time>2022-01-27T09:49:19.000Z</time>
      </trkpt>
      <trkpt lat="47.32096" lon="-2.42209">
        <ele>39.200000762939</ele>
        <time>2022-01-27T09:49:23.000Z</time>
      </trkpt>
      <trkpt lat="47.32093" lon="-2.42219">
        <ele>38.799999237061</ele>
        <time>2022-01-27T09:49:24.000Z</time>
      </trkpt>
      <trkpt lat="47.3209" lon="-2.42229">
        <ele>38.400001525879</ele>
        <time>2022-01-27T09:49:25.000Z</time>
      </trkpt>
      <trkpt lat="47.32087" lon="-2.42239">
        <ele>38</ele>
        <time>2022-01-27T09:49:26.000Z</time>
      </trkpt>
      <trkpt lat="47.32083" lon="-2.4225">
        <ele>37.599998474121</ele>
        <time>2022-01-27T09:49:27.000Z</time>
      </trkpt>
      <trkpt lat="47.32063" lon="-2.423">
        <ele>37</ele>
        <time>2022-01-27T09:49:32.000Z</time>
      </trkpt>
      <trkpt lat="47.32058" lon="-2.42309">
        <ele>36.599998474121</ele>
        <time>2022-01-27T09:49:33.000Z</time>
      </trkpt>
      <trkpt lat="47.32053" lon="-2.42319">
        <ele>36.200000762939</ele>
        <time>2022-01-27T09:49:34.000Z</time>
      </trkpt>
      <trkpt lat="47.32048" lon="-2.42329">
        <ele>35.799999237061</ele>
        <time>2022-01-27T09:49:35.000Z</time>
      </trkpt>
      <trkpt lat="47.32043" lon="-2.42338">
        <ele>35.400001525879</ele>
        <time>2022-01-27T09:49:36.000Z</time>
      </trkpt>
      <trkpt lat="47.32014" lon="-2.42381">
        <ele>35.400001525879</ele>
        <time>2022-01-27T09:49:41.000Z</time>
      </trkpt>
      <trkpt lat="47.32008" lon="-2.42389">
        <ele>35</ele>
        <time>2022-01-27T09:49:42.000Z</time>
      </trkpt>
      <trkpt lat="47.32002" lon="-2.42397">
        <ele>34.400001525879</ele>
        <time>2022-01-27T09:49:43.000Z</time>
      </trkpt>
      <trkpt lat="47.31995" lon="-2.42405">
        <ele>34</ele>
        <time>2022-01-27T09:49:44.000Z</time>
      </trkpt>
      <trkpt lat="47.31988" lon="-2.42412">
        <ele>33.599998474121</ele>
        <time>2022-01-27T09:49:45.000Z</time>
      </trkpt>
      <trkpt lat="47.31982" lon="-2.42419">
        <ele>33.200000762939</ele>
        <time>2022-01-27T09:49:46.000Z</time>
      </trkpt>
      <trkpt lat="47.31969" lon="-2.42432">
        <ele>33.200000762939</ele>
        <time>2022-01-27T09:49:48.000Z</time>
      </trkpt>
      <trkpt lat="47.31933" lon="-2.42463">
        <ele>32.599998474121</ele>
        <time>2022-01-27T09:49:53.000Z</time>
      </trkpt>
      <trkpt lat="47.31926" lon="-2.42468">
        <ele>32.200000762939</ele>
        <time>2022-01-27T09:49:54.000Z</time>
      </trkpt>
      <trkpt lat="47.31918" lon="-2.42474">
        <ele>31.799999237061</ele>
        <time>2022-01-27T09:49:55.000Z</time>
      </trkpt>
      <trkpt lat="47.31911" lon="-2.42479">
        <ele>30.799999237061</ele>
        <time>2022-01-27T09:49:56.000Z</time>
      </trkpt>
      <trkpt lat="47.31889" lon="-2.42496">
        <ele>30.39999961853</ele>
        <time>2022-01-27T09:49:59.000Z</time>
      </trkpt>
      <trkpt lat="47.31881" lon="-2.42502">
        <ele>30</ele>
        <time>2022-01-27T09:50:00.000Z</time>
      </trkpt>
      <trkpt lat="47.31874" lon="-2.42507">
        <ele>29.60000038147</ele>
        <time>2022-01-27T09:50:01.000Z</time>
      </trkpt>
      <trkpt lat="47.31867" lon="-2.42513">
        <ele>29.200000762939</ele>
        <time>2022-01-27T09:50:02.000Z</time>
      </trkpt>
      <trkpt lat="47.31859" lon="-2.42519">
        <ele>28.60000038147</ele>
        <time>2022-01-27T09:50:03.000Z</time>
      </trkpt>
      <trkpt lat="47.31844" lon="-2.42532">
        <ele>28.200000762939</ele>
        <time>2022-01-27T09:50:05.000Z</time>
      </trkpt>
      <trkpt lat="47.31837" lon="-2.42538">
        <ele>27.799999237061</ele>
        <time>2022-01-27T09:50:06.000Z</time>
      </trkpt>
      <trkpt lat="47.31829" lon="-2.42544">
        <ele>27.39999961853</ele>
        <time>2022-01-27T09:50:07.000Z</time>
      </trkpt>
      <trkpt lat="47.31822" lon="-2.42551">
        <ele>27</ele>
        <time>2022-01-27T09:50:08.000Z</time>
      </trkpt>
      <trkpt lat="47.31815" lon="-2.42558">
        <ele>26.60000038147</ele>
        <time>2022-01-27T09:50:09.000Z</time>
      </trkpt>
      <trkpt lat="47.318" lon="-2.42572">
        <ele>26.200000762939</ele>
        <time>2022-01-27T09:50:11.000Z</time>
      </trkpt>
      <trkpt lat="47.31793" lon="-2.42579">
        <ele>25.799999237061</ele>
        <time>2022-01-27T09:50:12.000Z</time>
      </trkpt>
      <trkpt lat="47.31785" lon="-2.42586">
        <ele>25.39999961853</ele>
        <time>2022-01-27T09:50:13.000Z</time>
      </trkpt>
      <trkpt lat="47.31777" lon="-2.42594">
        <ele>25</ele>
        <time>2022-01-27T09:50:14.000Z</time>
      </trkpt>
      <trkpt lat="47.3177" lon="-2.42602">
        <ele>24.60000038147</ele>
        <time>2022-01-27T09:50:15.000Z</time>
      </trkpt>
      <trkpt lat="47.31763" lon="-2.4261">
        <ele>24.200000762939</ele>
        <time>2022-01-27T09:50:16.000Z</time>
      </trkpt>
      <trkpt lat="47.31755" lon="-2.42618">
        <ele>23.799999237061</ele>
        <time>2022-01-27T09:50:17.000Z</time>
      </trkpt>
      <trkpt lat="47.31748" lon="-2.42626">
        <ele>23.39999961853</ele>
        <time>2022-01-27T09:50:18.000Z</time>
      </trkpt>
      <trkpt lat="47.31741" lon="-2.42634">
        <ele>23</ele>
        <time>2022-01-27T09:50:19.000Z</time>
      </trkpt>
      <trkpt lat="47.31734" lon="-2.42643">
        <ele>22.39999961853</ele>
        <time>2022-01-27T09:50:20.000Z</time>
      </trkpt>
      <trkpt lat="47.31727" lon="-2.42651">
        <ele>21.39999961853</ele>
        <time>2022-01-27T09:50:21.000Z</time>
      </trkpt>
      <trkpt lat="47.31719" lon="-2.4266">
        <ele>20.799999237061</ele>
        <time>2022-01-27T09:50:22.000Z</time>
      </trkpt>
      <trkpt lat="47.31712" lon="-2.42668">
        <ele>20.39999961853</ele>
        <time>2022-01-27T09:50:23.000Z</time>
      </trkpt>
      <trkpt lat="47.31705" lon="-2.42677">
        <ele>19.799999237061</ele>
        <time>2022-01-27T09:50:24.000Z</time>
      </trkpt>
      <trkpt lat="47.31697" lon="-2.42685">
        <ele>19.200000762939</ele>
        <time>2022-01-27T09:50:25.000Z</time>
      </trkpt>
      <trkpt lat="47.3169" lon="-2.42694">
        <ele>18.799999237061</ele>
        <time>2022-01-27T09:50:26.000Z</time>
      </trkpt>
      <trkpt lat="47.31682" lon="-2.42703">
        <ele>18.200000762939</ele>
        <time>2022-01-27T09:50:27.000Z</time>
      </trkpt>
      <trkpt lat="47.31674" lon="-2.42711">
        <ele>17.799999237061</ele>
        <time>2022-01-27T09:50:28.000Z</time>
      </trkpt>
      <trkpt lat="47.31667" lon="-2.4272">
        <ele>17.200000762939</ele>
        <time>2022-01-27T09:50:29.000Z</time>
      </trkpt>
      <trkpt lat="47.31659" lon="-2.42728">
        <ele>16.799999237061</ele>
        <time>2022-01-27T09:50:30.000Z</time>
      </trkpt>
      <trkpt lat="47.31651" lon="-2.42736">
        <ele>16.200000762939</ele>
        <time>2022-01-27T09:50:31.000Z</time>
      </trkpt>
      <trkpt lat="47.31643" lon="-2.42744">
        <ele>15.60000038147</ele>
        <time>2022-01-27T09:50:32.000Z</time>
      </trkpt>
      <trkpt lat="47.31635" lon="-2.42751">
        <ele>15.199999809265</ele>
        <time>2022-01-27T09:50:33.000Z</time>
      </trkpt>
      <trkpt lat="47.31627" lon="-2.42759">
        <ele>14.60000038147</ele>
        <time>2022-01-27T09:50:34.000Z</time>
      </trkpt>
      <trkpt lat="47.31618" lon="-2.42767">
        <ele>13.800000190735</ele>
        <time>2022-01-27T09:50:35.000Z</time>
      </trkpt>
      <trkpt lat="47.3161" lon="-2.42775">
        <ele>12.800000190735</ele>
        <time>2022-01-27T09:50:36.000Z</time>
      </trkpt>
      <trkpt lat="47.31601" lon="-2.42783">
        <ele>12</ele>
        <time>2022-01-27T09:50:37.000Z</time>
      </trkpt>
      <trkpt lat="47.31593" lon="-2.4279">
        <ele>11.199999809265</ele>
        <time>2022-01-27T09:50:38.000Z</time>
      </trkpt>
      <trkpt lat="47.31583" lon="-2.42797">
        <ele>10.199999809265</ele>
        <time>2022-01-27T09:50:39.000Z</time>
      </trkpt>
      <trkpt lat="47.31574" lon="-2.42804">
        <ele>9.8000001907349</ele>
        <time>2022-01-27T09:50:40.000Z</time>
      </trkpt>
      <trkpt lat="47.31565" lon="-2.4281">
        <ele>9.3999996185303</ele>
        <time>2022-01-27T09:50:41.000Z</time>
      </trkpt>
      <trkpt lat="47.31556" lon="-2.42816">
        <ele>9</ele>
        <time>2022-01-27T09:50:42.000Z</time>
      </trkpt>
      <trkpt lat="47.31547" lon="-2.42822">
        <ele>8.6000003814697</ele>
        <time>2022-01-27T09:50:43.000Z</time>
      </trkpt>
      <trkpt lat="47.31537" lon="-2.42828">
        <ele>8</ele>
        <time>2022-01-27T09:50:44.000Z</time>
      </trkpt>
      <trkpt lat="47.31528" lon="-2.42832">
        <ele>7.5999999046326</ele>
        <time>2022-01-27T09:50:45.000Z</time>
      </trkpt>
      <trkpt lat="47.31519" lon="-2.42837">
        <ele>6.8000001907349</ele>
        <time>2022-01-27T09:50:46.000Z</time>
      </trkpt>
      <trkpt lat="47.3151" lon="-2.42843">
        <ele>6.4000000953674</ele>
        <time>2022-01-27T09:50:47.000Z</time>
      </trkpt>
      <trkpt lat="47.31502" lon="-2.42849">
        <ele>6</ele>
        <time>2022-01-27T09:50:48.000Z</time>
      </trkpt>
      <trkpt lat="47.31494" lon="-2.42856">
        <ele>6</ele>
        <time>2022-01-27T09:50:49.000Z</time>
      </trkpt>
      <trkpt lat="47.31488" lon="-2.42865">
        <ele>6</ele>
        <time>2022-01-27T09:50:50.000Z</time>
      </trkpt>
      <trkpt lat="47.31466" lon="-2.42879">
        <ele>5.5999999046326</ele>
        <time>2022-01-27T09:50:53.000Z</time>
      </trkpt>
      <trkpt lat="47.31458" lon="-2.42879">
        <ele>5</ele>
        <time>2022-01-27T09:50:54.000Z</time>
      </trkpt>
      <trkpt lat="47.31449" lon="-2.42881">
        <ele>4.5999999046326</ele>
        <time>2022-01-27T09:50:55.000Z</time>
      </trkpt>
      <trkpt lat="47.3144" lon="-2.42883">
        <ele>4.1999998092651</ele>
        <time>2022-01-27T09:50:56.000Z</time>
      </trkpt>
      <trkpt lat="47.31431" lon="-2.42888">
        <ele>3.5999999046326</ele>
        <time>2022-01-27T09:50:57.000Z</time>
      </trkpt>
      <trkpt lat="47.31422" lon="-2.42892">
        <ele>3.5999999046326</ele>
        <time>2022-01-27T09:50:58.000Z</time>
      </trkpt>
      <trkpt lat="47.31404" lon="-2.42898">
        <ele>3.5999999046326</ele>
        <time>2022-01-27T09:51:00.000Z</time>
      </trkpt>
      <trkpt lat="47.31349" lon="-2.42916">
        <ele>3.5999999046326</ele>
        <time>2022-01-27T09:51:06.000Z</time>
      </trkpt>
      <trkpt lat="47.3134" lon="-2.42918">
        <ele>3.5999999046326</ele>
        <time>2022-01-27T09:51:07.000Z</time>
      </trkpt>
      <trkpt lat="47.31305" lon="-2.42924">
        <ele>2.7999999523163</ele>
        <time>2022-01-27T09:51:11.000Z</time>
      </trkpt>
      <trkpt lat="47.31296" lon="-2.42926">
        <ele>2.4000000953674</ele>
        <time>2022-01-27T09:51:12.000Z</time>
      </trkpt>
      <trkpt lat="47.31287" lon="-2.42927">
        <ele>2</ele>
        <time>2022-01-27T09:51:13.000Z</time>
      </trkpt>
      <trkpt lat="47.31279" lon="-2.42929">
        <ele>1.3999999761581</ele>
        <time>2022-01-27T09:51:14.000Z</time>
      </trkpt>
      <trkpt lat="47.31229" lon="-2.42938">
        <ele>1.3999999761581</ele>
        <time>2022-01-27T09:51:20.000Z</time>
      </trkpt>
      <trkpt lat="47.31169" lon="-2.42949">
        <ele>1.3999999761581</ele>
        <time>2022-01-27T09:51:28.000Z</time>
      </trkpt>
      <trkpt lat="47.31148" lon="-2.42953">
        <ele>1</ele>
        <time>2022-01-27T09:51:31.000Z</time>
      </trkpt>
      <trkpt lat="47.31141" lon="-2.42955">
        <ele>0.60000002384186</ele>
        <time>2022-01-27T09:51:32.000Z</time>
      </trkpt>
      <trkpt lat="47.31135" lon="-2.42956">
        <ele>0.20000000298023</ele>
        <time>2022-01-27T09:51:33.000Z</time>
      </trkpt>
      <trkpt lat="47.31128" lon="-2.42957">
        <ele>-0.20000000298023</ele>
        <time>2022-01-27T09:51:34.000Z</time>
      </trkpt>
      <trkpt lat="47.31121" lon="-2.42959">
        <ele>-0.60000002384186</ele>
        <time>2022-01-27T09:51:35.000Z</time>
      </trkpt>
      <trkpt lat="47.31115" lon="-2.4296">
        <ele>-0.60000002384186</ele>
        <time>2022-01-27T09:51:36.000Z</time>
      </trkpt>
      <trkpt lat="47.31067" lon="-2.42969">
        <ele>-0.60000002384186</ele>
        <time>2022-01-27T09:51:44.000Z</time>
      </trkpt>
      <trkpt lat="47.31056" lon="-2.42975">
        <ele>-0.60000002384186</ele>
        <time>2022-01-27T09:51:46.000Z</time>
      </trkpt>
      <trkpt lat="47.31052" lon="-2.42989">
        <ele>-0.60000002384186</ele>
        <time>2022-01-27T09:51:48.000Z</time>
      </trkpt>
      <trkpt lat="47.31057" lon="-2.43013">
        <ele>-0.60000002384186</ele>
        <time>2022-01-27T09:51:51.000Z</time>
      </trkpt>
      <trkpt lat="47.31058" lon="-2.43021">
        <ele>-0.60000002384186</ele>
        <time>2022-01-27T09:51:52.000Z</time>
      </trkpt>
      <trkpt lat="47.3107" lon="-2.43068">
        <ele>-0.60000002384186</ele>
        <time>2022-01-27T09:51:58.000Z</time>
      </trkpt>
      <trkpt lat="47.31075" lon="-2.43084">
        <ele>-1.3999999761581</ele>
        <time>2022-01-27T09:52:00.000Z</time>
      </trkpt>
      <trkpt lat="47.31077" lon="-2.43091">
        <ele>-1.7999999523163</ele>
        <time>2022-01-27T09:52:01.000Z</time>
      </trkpt>
      <trkpt lat="47.31079" lon="-2.43099">
        <ele>-2.2000000476837</ele>
        <time>2022-01-27T09:52:02.000Z</time>
      </trkpt>
      <trkpt lat="47.31081" lon="-2.43107">
        <ele>-2.5999999046326</ele>
        <time>2022-01-27T09:52:03.000Z</time>
      </trkpt>
      <trkpt lat="47.31088" lon="-2.43129">
        <ele>-2.5999999046326</ele>
        <time>2022-01-27T09:52:06.000Z</time>
      </trkpt>
      <trkpt lat="47.31092" lon="-2.43144">
        <ele>-2.5999999046326</ele>
        <time>2022-01-27T09:52:08.000Z</time>
      </trkpt>
      <trkpt lat="47.31101" lon="-2.43172">
        <ele>-2.5999999046326</ele>
        <time>2022-01-27T09:52:12.000Z</time>
      </trkpt>
      <trkpt lat="47.31103" lon="-2.43179">
        <ele>-2.5999999046326</ele>
        <time>2022-01-27T09:52:13.000Z</time>
      </trkpt>
      <trkpt lat="47.31098" lon="-2.43199">
        <ele>-2.5999999046326</ele>
        <time>2022-01-27T09:52:16.000Z</time>
      </trkpt>
      <trkpt lat="47.31084" lon="-2.4321">
        <ele>-2.5999999046326</ele>
        <time>2022-01-27T09:52:19.000Z</time>
      </trkpt>
      <trkpt lat="47.3108" lon="-2.43215">
        <ele>-2.5999999046326</ele>
        <time>2022-01-27T09:52:20.000Z</time>
      </trkpt>
      <trkpt lat="47.31059" lon="-2.43231">
        <ele>-2.5999999046326</ele>
        <time>2022-01-27T09:52:24.000Z</time>
      </trkpt>
      <trkpt lat="47.31054" lon="-2.43236">
        <ele>-2.5999999046326</ele>
        <time>2022-01-27T09:52:25.000Z</time>
      </trkpt>
      <trkpt lat="47.31028" lon="-2.43273">
        <ele>-2.5999999046326</ele>
        <time>2022-01-27T09:52:31.000Z</time>
      </trkpt>
      <trkpt lat="47.31015" lon="-2.43291">
        <ele>-2.5999999046326</ele>
        <time>2022-01-27T09:52:34.000Z</time>
      </trkpt>
      <trkpt lat="47.30999" lon="-2.43306">
        <ele>-2.5999999046326</ele>
        <time>2022-01-27T09:52:37.000Z</time>
      </trkpt>
      <trkpt lat="47.30993" lon="-2.4331">
        <ele>-2.5999999046326</ele>
        <time>2022-01-27T09:52:38.000Z</time>
      </trkpt>
      <trkpt lat="47.3097" lon="-2.43322">
        <ele>-2.5999999046326</ele>
        <time>2022-01-27T09:52:42.000Z</time>
      </trkpt>
      <trkpt lat="47.30958" lon="-2.43327">
        <ele>-3</ele>
        <time>2022-01-27T09:52:44.000Z</time>
      </trkpt>
      <trkpt lat="47.30951" lon="-2.43329">
        <ele>-3.4000000953674</ele>
        <time>2022-01-27T09:52:45.000Z</time>
      </trkpt>
      <trkpt lat="47.30946" lon="-2.43331">
        <ele>-3.7999999523163</ele>
        <time>2022-01-27T09:52:46.000Z</time>
      </trkpt>
      <trkpt lat="47.3094" lon="-2.43333">
        <ele>-4.1999998092651</ele>
        <time>2022-01-27T09:52:47.000Z</time>
      </trkpt>
      <trkpt lat="47.30934" lon="-2.43336">
        <ele>-4.5999999046326</ele>
        <time>2022-01-27T09:52:48.000Z</time>
      </trkpt>
      <trkpt lat="47.30922" lon="-2.43341">
        <ele>-4.5999999046326</ele>
        <time>2022-01-27T09:52:50.000Z</time>
      </trkpt>
      <trkpt lat="47.30904" lon="-2.4335">
        <ele>-4.5999999046326</ele>
        <time>2022-01-27T09:52:53.000Z</time>
      </trkpt>
      <trkpt lat="47.30887" lon="-2.43357">
        <ele>-4.5999999046326</ele>
        <time>2022-01-27T09:52:56.000Z</time>
      </trkpt>
      <trkpt lat="47.30851" lon="-2.43371">
        <ele>-4.5999999046326</ele>
        <time>2022-01-27T09:53:03.000Z</time>
      </trkpt>
      <trkpt lat="47.30829" lon="-2.43383">
        <ele>-4.5999999046326</ele>
        <time>2022-01-27T09:53:08.000Z</time>
      </trkpt>
      <trkpt lat="47.30799" lon="-2.43391">
        <ele>-4.5999999046326</ele>
        <time>2022-01-27T09:53:15.000Z</time>
      </trkpt>
      <trkpt lat="47.30766" lon="-2.43391">
        <ele>-4.5999999046326</ele>
        <time>2022-01-27T09:53:22.000Z</time>
      </trkpt>
      <trkpt lat="47.30728" lon="-2.43392">
        <ele>-4.5999999046326</ele>
        <time>2022-01-27T09:53:29.000Z</time>
      </trkpt>
      <trkpt lat="47.30684" lon="-2.43396">
        <ele>-4.5999999046326</ele>
        <time>2022-01-27T09:53:37.000Z</time>
      </trkpt>
      <trkpt lat="47.30646" lon="-2.43405">
        <ele>-4.5999999046326</ele>
        <time>2022-01-27T09:53:44.000Z</time>
      </trkpt>
      <trkpt lat="47.30615" lon="-2.43413">
        <ele>-4.5999999046326</ele>
        <time>2022-01-27T09:53:50.000Z</time>
      </trkpt>
      <trkpt lat="47.3057" lon="-2.43422">
        <ele>-4.5999999046326</ele>
        <time>2022-01-27T09:53:59.000Z</time>
      </trkpt>
      <trkpt lat="47.30535" lon="-2.43422">
        <ele>-4.5999999046326</ele>
        <time>2022-01-27T09:54:06.000Z</time>
      </trkpt>
      <trkpt lat="47.30501" lon="-2.43417">
        <ele>-4.5999999046326</ele>
        <time>2022-01-27T09:54:13.000Z</time>
      </trkpt>
      <trkpt lat="47.30475" lon="-2.43416">
        <ele>-4.5999999046326</ele>
        <time>2022-01-27T09:54:19.000Z</time>
      </trkpt>
      <trkpt lat="47.30467" lon="-2.43417">
        <ele>-4.5999999046326</ele>
        <time>2022-01-27T09:54:21.000Z</time>
      </trkpt>
      <trkpt lat="47.30455" lon="-2.43422">
        <ele>-4.5999999046326</ele>
        <time>2022-01-27T09:54:24.000Z</time>
      </trkpt>
      <trkpt lat="47.30451" lon="-2.43424">
        <ele>-4.5999999046326</ele>
        <time>2022-01-27T09:54:25.000Z</time>
      </trkpt>
      <trkpt lat="47.30438" lon="-2.43423">
        <ele>-4.5999999046326</ele>
        <time>2022-01-27T09:54:29.000Z</time>
      </trkpt>
      <trkpt lat="47.3043" lon="-2.43417">
        <ele>-4.5999999046326</ele>
        <time>2022-01-27T09:54:31.000Z</time>
      </trkpt>
      <trkpt lat="47.30425" lon="-2.43407">
        <ele>-4.5999999046326</ele>
        <time>2022-01-27T09:54:33.000Z</time>
      </trkpt>
      <trkpt lat="47.30422" lon="-2.43389">
        <ele>-4.5999999046326</ele>
        <time>2022-01-27T09:54:36.000Z</time>
      </trkpt>
      <trkpt lat="47.30421" lon="-2.43383">
        <ele>-4.5999999046326</ele>
        <time>2022-01-27T09:54:37.000Z</time>
      </trkpt>
      <trkpt lat="47.30415" lon="-2.43345">
        <ele>-4.5999999046326</ele>
        <time>2022-01-27T09:54:43.000Z</time>
      </trkpt>
      <trkpt lat="47.30413" lon="-2.43333">
        <ele>-4.5999999046326</ele>
        <time>2022-01-27T09:54:45.000Z</time>
      </trkpt>
      <trkpt lat="47.30407" lon="-2.43307">
        <ele>-4.5999999046326</ele>
        <time>2022-01-27T09:54:51.000Z</time>
      </trkpt>
      <trkpt lat="47.30399" lon="-2.43272">
        <ele>-4.5999999046326</ele>
        <time>2022-01-27T09:55:00.000Z</time>
      </trkpt>
      <trkpt lat="47.30391" lon="-2.4325">
        <ele>-4.5999999046326</ele>
        <time>2022-01-27T09:55:06.000Z</time>
      </trkpt>
      <trkpt lat="47.30377" lon="-2.43239">
        <ele>-4.5999999046326</ele>
        <time>2022-01-27T09:55:11.000Z</time>
      </trkpt>
      <trkpt lat="47.30356" lon="-2.43241">
        <ele>-4.5999999046326</ele>
        <time>2022-01-27T09:55:17.000Z</time>
      </trkpt>
      <trkpt lat="47.30329" lon="-2.43248">
        <ele>-4.5999999046326</ele>
        <time>2022-01-27T09:55:23.000Z</time>
      </trkpt>
      <trkpt lat="47.30293" lon="-2.43256">
        <ele>-4.5999999046326</ele>
        <time>2022-01-27T09:55:30.000Z</time>
      </trkpt>
      <trkpt lat="47.30282" lon="-2.43258">
        <ele>-4.5999999046326</ele>
        <time>2022-01-27T09:55:32.000Z</time>
      </trkpt>
      <trkpt lat="47.30266" lon="-2.43263">
        <ele>-4.5999999046326</ele>
        <time>2022-01-27T09:55:35.000Z</time>
      </trkpt>
      <trkpt lat="47.3023" lon="-2.43278">
        <ele>-4.5999999046326</ele>
        <time>2022-01-27T09:55:42.000Z</time>
      </trkpt>
      <trkpt lat="47.30187" lon="-2.43298">
        <ele>-4.5999999046326</ele>
        <time>2022-01-27T09:55:50.000Z</time>
      </trkpt>
      <trkpt lat="47.30176" lon="-2.43303">
        <ele>-4.5999999046326</ele>
        <time>2022-01-27T09:55:52.000Z</time>
      </trkpt>
      <trkpt lat="47.30153" lon="-2.43311">
        <ele>-4.5999999046326</ele>
        <time>2022-01-27T09:55:56.000Z</time>
      </trkpt>
      <trkpt lat="47.30117" lon="-2.43321">
        <ele>-4.5999999046326</ele>
        <time>2022-01-27T09:56:02.000Z</time>
      </trkpt>
      <trkpt lat="47.3006" lon="-2.43335">
        <ele>-4.5999999046326</ele>
        <time>2022-01-27T09:56:12.000Z</time>
      </trkpt>
      <trkpt lat="47.30027" lon="-2.43335">
        <ele>-4.5999999046326</ele>
        <time>2022-01-27T09:56:18.000Z</time>
      </trkpt>
      <trkpt lat="47.30021" lon="-2.43333">
        <ele>-4.5999999046326</ele>
        <time>2022-01-27T09:56:19.000Z</time>
      </trkpt>
      <trkpt lat="47.30002" lon="-2.43322">
        <ele>-4.5999999046326</ele>
        <time>2022-01-27T09:56:23.000Z</time>
      </trkpt>
      <trkpt lat="47.29993" lon="-2.43314">
        <ele>-4.5999999046326</ele>
        <time>2022-01-27T09:56:25.000Z</time>
      </trkpt>
      <trkpt lat="47.2998" lon="-2.43302">
        <ele>-4.5999999046326</ele>
        <time>2022-01-27T09:56:28.000Z</time>
      </trkpt>
      <trkpt lat="47.29971" lon="-2.43296">
        <ele>-4.5999999046326</ele>
        <time>2022-01-27T09:56:30.000Z</time>
      </trkpt>
      <trkpt lat="47.2996" lon="-2.43295">
        <ele>-4.5999999046326</ele>
        <time>2022-01-27T09:56:32.000Z</time>
      </trkpt>
      <trkpt lat="47.2995" lon="-2.43298">
        <ele>-4.5999999046326</ele>
        <time>2022-01-27T09:56:34.000Z</time>
      </trkpt>
      <trkpt lat="47.29935" lon="-2.43303">
        <ele>-4.5999999046326</ele>
        <time>2022-01-27T09:56:37.000Z</time>
      </trkpt>
      <trkpt lat="47.2993" lon="-2.43305">
        <ele>-4.5999999046326</ele>
        <time>2022-01-27T09:56:38.000Z</time>
      </trkpt>
      <trkpt lat="47.29912" lon="-2.43312">
        <ele>-4.5999999046326</ele>
        <time>2022-01-27T09:56:42.000Z</time>
      </trkpt>
      <trkpt lat="47.29883" lon="-2.43325">
        <ele>-4.5999999046326</ele>
        <time>2022-01-27T09:56:49.000Z</time>
      </trkpt>
      <trkpt lat="47.29871" lon="-2.43335">
        <ele>-4.5999999046326</ele>
        <time>2022-01-27T09:56:52.000Z</time>
      </trkpt>
      <trkpt lat="47.29862" lon="-2.43344">
        <ele>-4.5999999046326</ele>
        <time>2022-01-27T09:56:54.000Z</time>
      </trkpt>
      <trkpt lat="47.29857" lon="-2.43349">
        <ele>-4.5999999046326</ele>
        <time>2022-01-27T09:56:55.000Z</time>
      </trkpt>
      <trkpt lat="47.29817" lon="-2.43394">
        <ele>-4.5999999046326</ele>
        <time>2022-01-27T09:57:04.000Z</time>
      </trkpt>
      <trkpt lat="47.2977" lon="-2.43446">
        <ele>-4.5999999046326</ele>
        <time>2022-01-27T09:57:14.000Z</time>
      </trkpt>
      <trkpt lat="47.29765" lon="-2.43451">
        <ele>-4.5999999046326</ele>
        <time>2022-01-27T09:57:15.000Z</time>
      </trkpt>
      <trkpt lat="47.29718" lon="-2.43493">
        <ele>-4.5999999046326</ele>
        <time>2022-01-27T09:57:24.000Z</time>
      </trkpt>
      <trkpt lat="47.29712" lon="-2.43497">
        <ele>-4.5999999046326</ele>
        <time>2022-01-27T09:57:25.000Z</time>
      </trkpt>
      <trkpt lat="47.2966" lon="-2.43535">
        <ele>-4.5999999046326</ele>
        <time>2022-01-27T09:57:35.000Z</time>
      </trkpt>
      <trkpt lat="47.29645" lon="-2.43547">
        <ele>-4.5999999046326</ele>
        <time>2022-01-27T09:57:38.000Z</time>
      </trkpt>
      <trkpt lat="47.29636" lon="-2.43558">
        <ele>-4.5999999046326</ele>
        <time>2022-01-27T09:57:40.000Z</time>
      </trkpt>
      <trkpt lat="47.29619" lon="-2.43558">
        <ele>-4.5999999046326</ele>
        <time>2022-01-27T09:57:43.000Z</time>
      </trkpt>
      <trkpt lat="47.29614" lon="-2.43557">
        <ele>-4.5999999046326</ele>
        <time>2022-01-27T09:57:44.000Z</time>
      </trkpt>
      <trkpt lat="47.29608" lon="-2.43557">
        <ele>-4.5999999046326</ele>
        <time>2022-01-27T09:57:45.000Z</time>
      </trkpt>
      <trkpt lat="47.2959" lon="-2.43561">
        <ele>-4.5999999046326</ele>
        <time>2022-01-27T09:57:48.000Z</time>
      </trkpt>
      <trkpt lat="47.29541" lon="-2.43566">
        <ele>-4.5999999046326</ele>
        <time>2022-01-27T09:57:56.000Z</time>
      </trkpt>
      <trkpt lat="47.29486" lon="-2.43576">
        <ele>-4.5999999046326</ele>
        <time>2022-01-27T09:58:05.000Z</time>
      </trkpt>
      <trkpt lat="47.29438" lon="-2.43591">
        <ele>-4.5999999046326</ele>
        <time>2022-01-27T09:58:13.000Z</time>
      </trkpt>
      <trkpt lat="47.29395" lon="-2.43616">
        <ele>-4.5999999046326</ele>
        <time>2022-01-27T09:58:20.000Z</time>
      </trkpt>
      <trkpt lat="47.29348" lon="-2.43653">
        <ele>-4.5999999046326</ele>
        <time>2022-01-27T09:58:28.000Z</time>
      </trkpt>
      <trkpt lat="47.29307" lon="-2.43688">
        <ele>-4.5999999046326</ele>
        <time>2022-01-27T09:58:36.000Z</time>
      </trkpt>
      <trkpt lat="47.29265" lon="-2.43725">
        <ele>-4.5999999046326</ele>
        <time>2022-01-27T09:58:44.000Z</time>
      </trkpt>
      <trkpt lat="47.29217" lon="-2.43765">
        <ele>-4.5999999046326</ele>
        <time>2022-01-27T09:58:53.000Z</time>
      </trkpt>
      <trkpt lat="47.2917" lon="-2.43808">
        <ele>-4.5999999046326</ele>
        <time>2022-01-27T09:59:02.000Z</time>
      </trkpt>
      <trkpt lat="47.29165" lon="-2.43813">
        <ele>-4.5999999046326</ele>
        <time>2022-01-27T09:59:03.000Z</time>
      </trkpt>
      <trkpt lat="47.29116" lon="-2.43854">
        <ele>-4.5999999046326</ele>
        <time>2022-01-27T09:59:12.000Z</time>
      </trkpt>
      <trkpt lat="47.29111" lon="-2.43857">
        <ele>-4.5999999046326</ele>
        <time>2022-01-27T09:59:13.000Z</time>
      </trkpt>
      <trkpt lat="47.2909" lon="-2.43867">
        <ele>-4.5999999046326</ele>
        <time>2022-01-27T09:59:17.000Z</time>
      </trkpt>
      <trkpt lat="47.29081" lon="-2.43875">
        <ele>-4.5999999046326</ele>
        <time>2022-01-27T09:59:19.000Z</time>
      </trkpt>
      <trkpt lat="47.29077" lon="-2.43881">
        <ele>-4.5999999046326</ele>
        <time>2022-01-27T09:59:20.000Z</time>
      </trkpt>
      <trkpt lat="47.2907" lon="-2.43894">
        <ele>-4.5999999046326</ele>
        <time>2022-01-27T09:59:22.000Z</time>
      </trkpt>
      <trkpt lat="47.2906" lon="-2.43904">
        <ele>-4.5999999046326</ele>
        <time>2022-01-27T09:59:24.000Z</time>
      </trkpt>
      <trkpt lat="47.29056" lon="-2.43912">
        <ele>-4.5999999046326</ele>
        <time>2022-01-27T09:59:25.000Z</time>
      </trkpt>
      <trkpt lat="47.29053" lon="-2.4392">
        <ele>-4.5999999046326</ele>
        <time>2022-01-27T09:59:26.000Z</time>
      </trkpt>
      <trkpt lat="47.29026" lon="-2.43985">
        <ele>-4.5999999046326</ele>
        <time>2022-01-27T09:59:34.000Z</time>
      </trkpt>
      <trkpt lat="47.29005" lon="-2.44031">
        <ele>-4.5999999046326</ele>
        <time>2022-01-27T09:59:40.000Z</time>
      </trkpt>
      <trkpt lat="47.29002" lon="-2.44038">
        <ele>-4.5999999046326</ele>
        <time>2022-01-27T09:59:41.000Z</time>
      </trkpt>
      <trkpt lat="47.28979" lon="-2.4409">
        <ele>-4.5999999046326</ele>
        <time>2022-01-27T09:59:48.000Z</time>
      </trkpt>
      <trkpt lat="47.28952" lon="-2.4415">
        <ele>-4.5999999046326</ele>
        <time>2022-01-27T09:59:56.000Z</time>
      </trkpt>
      <trkpt lat="47.28922" lon="-2.44221">
        <ele>-4.5999999046326</ele>
        <time>2022-01-27T10:00:05.000Z</time>
      </trkpt>
      <trkpt lat="47.28918" lon="-2.44228">
        <ele>-4.5999999046326</ele>
        <time>2022-01-27T10:00:06.000Z</time>
      </trkpt>
      <trkpt lat="47.28893" lon="-2.4429">
        <ele>-4.5999999046326</ele>
        <time>2022-01-27T10:00:14.000Z</time>
      </trkpt>
      <trkpt lat="47.28864" lon="-2.44356">
        <ele>-4.5999999046326</ele>
        <time>2022-01-27T10:00:23.000Z</time>
      </trkpt>
      <trkpt lat="47.28835" lon="-2.44421">
        <ele>-4.5999999046326</ele>
        <time>2022-01-27T10:00:32.000Z</time>
      </trkpt>
      <trkpt lat="47.28807" lon="-2.44486">
        <ele>-4.5999999046326</ele>
        <time>2022-01-27T10:00:41.000Z</time>
      </trkpt>
      <trkpt lat="47.28779" lon="-2.44551">
        <ele>-4.5999999046326</ele>
        <time>2022-01-27T10:00:50.000Z</time>
      </trkpt>
      <trkpt lat="47.28749" lon="-2.44619">
        <ele>-4.5999999046326</ele>
        <time>2022-01-27T10:01:00.000Z</time>
      </trkpt>
      <trkpt lat="47.2872" lon="-2.44685">
        <ele>-4.5999999046326</ele>
        <time>2022-01-27T10:01:09.000Z</time>
      </trkpt>
      <trkpt lat="47.28694" lon="-2.44746">
        <ele>-4.5999999046326</ele>
        <time>2022-01-27T10:01:17.000Z</time>
      </trkpt>
      <trkpt lat="47.28665" lon="-2.44812">
        <ele>-4.5999999046326</ele>
        <time>2022-01-27T10:01:26.000Z</time>
      </trkpt>
      <trkpt lat="47.28636" lon="-2.44877">
        <ele>-4.5999999046326</ele>
        <time>2022-01-27T10:01:35.000Z</time>
      </trkpt>
      <trkpt lat="47.28605" lon="-2.44929">
        <ele>-4.5999999046326</ele>
        <time>2022-01-27T10:01:43.000Z</time>
      </trkpt>
      <trkpt lat="47.28564" lon="-2.44979">
        <ele>-4.5999999046326</ele>
        <time>2022-01-27T10:01:52.000Z</time>
      </trkpt>
      <trkpt lat="47.28522" lon="-2.4503">
        <ele>-4.5999999046326</ele>
        <time>2022-01-27T10:02:01.000Z</time>
      </trkpt>
      <trkpt lat="47.28513" lon="-2.45041">
        <ele>-4.5999999046326</ele>
        <time>2022-01-27T10:02:03.000Z</time>
      </trkpt>
      <trkpt lat="47.28471" lon="-2.45093">
        <ele>-4.5999999046326</ele>
        <time>2022-01-27T10:02:12.000Z</time>
      </trkpt>
      <trkpt lat="47.28427" lon="-2.45142">
        <ele>-4.5999999046326</ele>
        <time>2022-01-27T10:02:21.000Z</time>
      </trkpt>
      <trkpt lat="47.28377" lon="-2.4518">
        <ele>-4.5999999046326</ele>
        <time>2022-01-27T10:02:30.000Z</time>
      </trkpt>
      <trkpt lat="47.28328" lon="-2.45216">
        <ele>-4.5999999046326</ele>
        <time>2022-01-27T10:02:39.000Z</time>
      </trkpt>
      <trkpt lat="47.28279" lon="-2.45252">
        <ele>-4.5999999046326</ele>
        <time>2022-01-27T10:02:48.000Z</time>
      </trkpt>
      <trkpt lat="47.28273" lon="-2.45257">
        <ele>-4.5999999046326</ele>
        <time>2022-01-27T10:02:49.000Z</time>
      </trkpt>
      <trkpt lat="47.28233" lon="-2.45276">
        <ele>-4.5999999046326</ele>
        <time>2022-01-27T10:02:56.000Z</time>
      </trkpt>
      <trkpt lat="47.28201" lon="-2.45275">
        <ele>-4.5999999046326</ele>
        <time>2022-01-27T10:03:01.000Z</time>
      </trkpt>
      <trkpt lat="47.28145" lon="-2.45262">
        <ele>-4.5999999046326</ele>
        <time>2022-01-27T10:03:10.000Z</time>
      </trkpt>
      <trkpt lat="47.28132" lon="-2.45261">
        <ele>-4.5999999046326</ele>
        <time>2022-01-27T10:03:12.000Z</time>
      </trkpt>
      <trkpt lat="47.28114" lon="-2.45266">
        <ele>-4.5999999046326</ele>
        <time>2022-01-27T10:03:15.000Z</time>
      </trkpt>
      <trkpt lat="47.28108" lon="-2.45268">
        <ele>-4.5999999046326</ele>
        <time>2022-01-27T10:03:16.000Z</time>
      </trkpt>
      <trkpt lat="47.28091" lon="-2.45278">
        <ele>-4.5999999046326</ele>
        <time>2022-01-27T10:03:19.000Z</time>
      </trkpt>
      <trkpt lat="47.28081" lon="-2.45287">
        <ele>-4.5999999046326</ele>
        <time>2022-01-27T10:03:21.000Z</time>
      </trkpt>
      <trkpt lat="47.28059" lon="-2.45316">
        <ele>-4.5999999046326</ele>
        <time>2022-01-27T10:03:26.000Z</time>
      </trkpt>
      <trkpt lat="47.28055" lon="-2.45323">
        <ele>-4.5999999046326</ele>
        <time>2022-01-27T10:03:27.000Z</time>
      </trkpt>
      <trkpt lat="47.28042" lon="-2.45353">
        <ele>-4.5999999046326</ele>
        <time>2022-01-27T10:03:31.000Z</time>
      </trkpt>
      <trkpt lat="47.28039" lon="-2.45369">
        <ele>-4.5999999046326</ele>
        <time>2022-01-27T10:03:33.000Z</time>
      </trkpt>
      <trkpt lat="47.28032" lon="-2.45431">
        <ele>-4.5999999046326</ele>
        <time>2022-01-27T10:03:40.000Z</time>
      </trkpt>
      <trkpt lat="47.28032" lon="-2.45504">
        <ele>-4.5999999046326</ele>
        <time>2022-01-27T10:03:48.000Z</time>
      </trkpt>
      <trkpt lat="47.28032" lon="-2.45588">
        <ele>-4.5999999046326</ele>
        <time>2022-01-27T10:03:57.000Z</time>
      </trkpt>
      <trkpt lat="47.28032" lon="-2.45598">
        <ele>-4.5999999046326</ele>
        <time>2022-01-27T10:03:58.000Z</time>
      </trkpt>
      <trkpt lat="47.28033" lon="-2.45607">
        <ele>-4.5999999046326</ele>
        <time>2022-01-27T10:03:59.000Z</time>
      </trkpt>
      <trkpt lat="47.28037" lon="-2.45623">
        <ele>-4.5999999046326</ele>
        <time>2022-01-27T10:04:01.000Z</time>
      </trkpt>
      <trkpt lat="47.28034" lon="-2.45638">
        <ele>-4.5999999046326</ele>
        <time>2022-01-27T10:04:03.000Z</time>
      </trkpt>
      <trkpt lat="47.2802" lon="-2.45667">
        <ele>-4.5999999046326</ele>
        <time>2022-01-27T10:04:07.000Z</time>
      </trkpt>
      <trkpt lat="47.27996" lon="-2.45744">
        <ele>-4.5999999046326</ele>
        <time>2022-01-27T10:04:16.000Z</time>
      </trkpt>
      <trkpt lat="47.27994" lon="-2.45752">
        <ele>-4.5999999046326</ele>
        <time>2022-01-27T10:04:17.000Z</time>
      </trkpt>
      <trkpt lat="47.27977" lon="-2.45808">
        <ele>-4.5999999046326</ele>
        <time>2022-01-27T10:04:24.000Z</time>
      </trkpt>
      <trkpt lat="47.27976" lon="-2.45816">
        <ele>-4.5999999046326</ele>
        <time>2022-01-27T10:04:25.000Z</time>
      </trkpt>
      <trkpt lat="47.27974" lon="-2.45832">
        <ele>-4.5999999046326</ele>
        <time>2022-01-27T10:04:27.000Z</time>
      </trkpt>
      <trkpt lat="47.27968" lon="-2.45848">
        <ele>-4.5999999046326</ele>
        <time>2022-01-27T10:04:29.000Z</time>
      </trkpt>
      <trkpt lat="47.27955" lon="-2.45889">
        <ele>-4.5999999046326</ele>
        <time>2022-01-27T10:04:34.000Z</time>
      </trkpt>
      <trkpt lat="47.27933" lon="-2.45964">
        <ele>-4.5999999046326</ele>
        <time>2022-01-27T10:04:43.000Z</time>
      </trkpt>
      <trkpt lat="47.27921" lon="-2.46006">
        <ele>-4.5999999046326</ele>
        <time>2022-01-27T10:04:48.000Z</time>
      </trkpt>
      <trkpt lat="47.27917" lon="-2.46024">
        <ele>-4.5999999046326</ele>
        <time>2022-01-27T10:04:50.000Z</time>
      </trkpt>
      <trkpt lat="47.27909" lon="-2.46075">
        <ele>-4.5999999046326</ele>
        <time>2022-01-27T10:04:56.000Z</time>
      </trkpt>
      <trkpt lat="47.27898" lon="-2.46131">
        <ele>-4.5999999046326</ele>
        <time>2022-01-27T10:05:03.000Z</time>
      </trkpt>
      <trkpt lat="47.27893" lon="-2.46161">
        <ele>-4.5999999046326</ele>
        <time>2022-01-27T10:05:08.000Z</time>
      </trkpt>
      <trkpt lat="47.27892" lon="-2.46182">
        <ele>-4.5999999046326</ele>
        <time>2022-01-27T10:05:13.000Z</time>
      </trkpt>
      <trkpt lat="47.27892" lon="-2.46188">
        <ele>-4.5999999046326</ele>
        <time>2022-01-27T10:05:16.000Z</time>
      </trkpt>
      <trkpt lat="47.27878" lon="-2.46205">
        <ele>-4.5999999046326</ele>
        <time>2022-01-27T10:06:08.000Z</time>
      </trkpt>
      <trkpt lat="47.27879" lon="-2.46207">
        <ele>-4.5999999046326</ele>
        <time>2022-01-27T10:06:09.000Z</time>
      </trkpt>
      <trkpt lat="47.27878" lon="-2.46231">
        <ele>-4.5999999046326</ele>
        <time>2022-01-27T10:06:15.000Z</time>
      </trkpt>
      <trkpt lat="47.27875" lon="-2.46271">
        <ele>-4.5999999046326</ele>
        <time>2022-01-27T10:06:22.000Z</time>
      </trkpt>
      <trkpt lat="47.27868" lon="-2.46321">
        <ele>-4.5999999046326</ele>
        <time>2022-01-27T10:06:29.000Z</time>
      </trkpt>
      <trkpt lat="47.27859" lon="-2.46379">
        <ele>-4.5999999046326</ele>
        <time>2022-01-27T10:06:37.000Z</time>
      </trkpt>
      <trkpt lat="47.2785" lon="-2.46429">
        <ele>-4.5999999046326</ele>
        <time>2022-01-27T10:06:44.000Z</time>
      </trkpt>
      <trkpt lat="47.27843" lon="-2.46471">
        <ele>-4.5999999046326</ele>
        <time>2022-01-27T10:06:50.000Z</time>
      </trkpt>
      <trkpt lat="47.2783" lon="-2.46532">
        <ele>-4.5999999046326</ele>
        <time>2022-01-27T10:06:58.000Z</time>
      </trkpt>
      <trkpt lat="47.27818" lon="-2.46599">
        <ele>-4.5999999046326</ele>
        <time>2022-01-27T10:07:06.000Z</time>
      </trkpt>
      <trkpt lat="47.27804" lon="-2.46675">
        <ele>-4.5999999046326</ele>
        <time>2022-01-27T10:07:15.000Z</time>
      </trkpt>
      <trkpt lat="47.27789" lon="-2.46742">
        <ele>-4.5999999046326</ele>
        <time>2022-01-27T10:07:23.000Z</time>
      </trkpt>
      <trkpt lat="47.27785" lon="-2.46784">
        <ele>-4.5999999046326</ele>
        <time>2022-01-27T10:07:28.000Z</time>
      </trkpt>
      <trkpt lat="47.27785" lon="-2.46809">
        <ele>-4.5999999046326</ele>
        <time>2022-01-27T10:07:31.000Z</time>
      </trkpt>
      <trkpt lat="47.27785" lon="-2.46825">
        <ele>-4.5999999046326</ele>
        <time>2022-01-27T10:07:33.000Z</time>
      </trkpt>
      <trkpt lat="47.27785" lon="-2.46841">
        <ele>-4.5999999046326</ele>
        <time>2022-01-27T10:07:35.000Z</time>
      </trkpt>
      <trkpt lat="47.27784" lon="-2.46872">
        <ele>-4.5999999046326</ele>
        <time>2022-01-27T10:07:39.000Z</time>
      </trkpt>
      <trkpt lat="47.27783" lon="-2.46879">
        <ele>-4.5999999046326</ele>
        <time>2022-01-27T10:07:40.000Z</time>
      </trkpt>
      <trkpt lat="47.27777" lon="-2.46899">
        <ele>-4.5999999046326</ele>
        <time>2022-01-27T10:07:43.000Z</time>
      </trkpt>
      <trkpt lat="47.27774" lon="-2.46905">
        <ele>-4.5999999046326</ele>
        <time>2022-01-27T10:07:44.000Z</time>
      </trkpt>
      <trkpt lat="47.27771" lon="-2.46911">
        <ele>-4.5999999046326</ele>
        <time>2022-01-27T10:07:45.000Z</time>
      </trkpt>
      <trkpt lat="47.27769" lon="-2.46929">
        <ele>-4.5999999046326</ele>
        <time>2022-01-27T10:07:48.000Z</time>
      </trkpt>
      <trkpt lat="47.27767" lon="-2.46933">
        <ele>-4.5999999046326</ele>
        <time>2022-01-27T10:07:49.000Z</time>
      </trkpt>
      <trkpt lat="47.27761" lon="-2.46934">
        <ele>-4.5999999046326</ele>
        <time>2022-01-27T10:07:51.000Z</time>
      </trkpt>
      <trkpt lat="47.27753" lon="-2.46934">
        <ele>-4.5999999046326</ele>
        <time>2022-01-27T10:07:53.000Z</time>
      </trkpt>
      <trkpt lat="47.27742" lon="-2.46935">
        <ele>-4.1999998092651</ele>
        <time>2022-01-27T10:07:56.000Z</time>
      </trkpt>
      <trkpt lat="47.27738" lon="-2.46935">
        <ele>-3.7999999523163</ele>
        <time>2022-01-27T10:07:57.000Z</time>
      </trkpt>
      <trkpt lat="47.27734" lon="-2.46936">
        <ele>-3.4000000953674</ele>
        <time>2022-01-27T10:07:58.000Z</time>
      </trkpt>
      <trkpt lat="47.27729" lon="-2.46936">
        <ele>-3</ele>
        <time>2022-01-27T10:07:59.000Z</time>
      </trkpt>
      <trkpt lat="47.27725" lon="-2.46936">
        <ele>-2.5999999046326</ele>
        <time>2022-01-27T10:08:00.000Z</time>
      </trkpt>
      <trkpt lat="47.27718" lon="-2.46936">
        <ele>-2.5999999046326</ele>
        <time>2022-01-27T10:08:02.000Z</time>
      </trkpt>
      <trkpt lat="47.27688" lon="-2.46932">
        <ele>-2.5999999046326</ele>
        <time>2022-01-27T10:08:09.000Z</time>
      </trkpt>
      <trkpt lat="47.27674" lon="-2.46935">
        <ele>-2.5999999046326</ele>
        <time>2022-01-27T10:08:12.000Z</time>
      </trkpt>
      <trkpt lat="47.27669" lon="-2.4695">
        <ele>-2.5999999046326</ele>
        <time>2022-01-27T10:08:15.000Z</time>
      </trkpt>
      <trkpt lat="47.27668" lon="-2.46956">
        <ele>-2.5999999046326</ele>
        <time>2022-01-27T10:08:16.000Z</time>
      </trkpt>
      <trkpt lat="47.27666" lon="-2.46982">
        <ele>-2.5999999046326</ele>
        <time>2022-01-27T10:08:20.000Z</time>
      </trkpt>
      <trkpt lat="47.27662" lon="-2.46993">
        <ele>-2.5999999046326</ele>
        <time>2022-01-27T10:08:23.000Z</time>
      </trkpt>
      <trkpt lat="47.27646" lon="-2.46991">
        <ele>-2.5999999046326</ele>
        <time>2022-01-27T10:08:27.000Z</time>
      </trkpt>
      <trkpt lat="47.27641" lon="-2.46991">
        <ele>-2.5999999046326</ele>
        <time>2022-01-27T10:08:28.000Z</time>
      </trkpt>
      <trkpt lat="47.27632" lon="-2.4699">
        <ele>-2</ele>
        <time>2022-01-27T10:08:30.000Z</time>
      </trkpt>
      <trkpt lat="47.27629" lon="-2.4699">
        <ele>-1.6000000238419</ele>
        <time>2022-01-27T10:08:31.000Z</time>
      </trkpt>
      <trkpt lat="47.27626" lon="-2.46991">
        <ele>-1.2000000476837</ele>
        <time>2022-01-27T10:08:32.000Z</time>
      </trkpt>
      <trkpt lat="47.27623" lon="-2.46991">
        <ele>-0.80000001192093</ele>
        <time>2022-01-27T10:08:33.000Z</time>
      </trkpt>
      <trkpt lat="47.2762" lon="-2.46991">
        <ele>-0.40000000596046</ele>
        <time>2022-01-27T10:08:34.000Z</time>
      </trkpt>
      <trkpt lat="47.27615" lon="-2.46992">
        <ele>10.6</ele>
        <time>2022-01-27T10:08:36.000Z</time>
      </trkpt>
      <trkpt lat="47.27612" lon="-2.46993">
        <ele>0.60000002384186</ele>
        <time>2022-01-27T10:08:37.000Z</time>
      </trkpt>
      <trkpt lat="47.2761" lon="-2.46993">
        <ele>1</ele>
        <time>2022-01-27T10:08:38.000Z</time>
      </trkpt>
      <trkpt lat="47.27607" lon="-2.46992">
        <ele>1.3999999761581</ele>
        <time>2022-01-27T10:08:39.000Z</time>
      </trkpt>
      <trkpt lat="47.27604" lon="-2.46992">
        <ele>1.7999999523163</ele>
        <time>2022-01-27T10:08:40.000Z</time>
      </trkpt>
      <trkpt lat="47.27588" lon="-2.46991">
        <ele>1.7999999523163</ele>
        <time>2022-01-27T10:08:44.000Z</time>
      </trkpt>
      <trkpt lat="47.27563" lon="-2.46979">
        <ele>1.7999999523163</ele>
        <time>2022-01-27T10:08:49.000Z</time>
      </trkpt>
      <trkpt lat="47.27548" lon="-2.46985">
        <ele>1.7999999523163</ele>
        <time>2022-01-27T10:08:52.000Z</time>
      </trkpt>
      <trkpt lat="47.27535" lon="-2.47008">
        <ele>1.7999999523163</ele>
        <time>2022-01-27T10:08:56.000Z</time>
      </trkpt>
      <trkpt lat="47.27505" lon="-2.47051">
        <ele>1.7999999523163</ele>
        <time>2022-01-27T10:09:04.000Z</time>
      </trkpt>
      <trkpt lat="47.27479" lon="-2.47083">
        <ele>1.7999999523163</ele>
        <time>2022-01-27T10:09:11.000Z</time>
      </trkpt>
      <trkpt lat="47.27475" lon="-2.4709">
        <ele>1.7999999523163</ele>
        <time>2022-01-27T10:09:14.000Z</time>
      </trkpt>
      <trkpt lat="47.27471" lon="-2.47082">
        <ele>1.7999999523163</ele>
        <time>2022-01-27T10:09:17.000Z</time>
      </trkpt>
      <trkpt lat="47.27466" lon="-2.47071">
        <ele>1.7999999523163</ele>
        <time>2022-01-27T10:09:20.000Z</time>
      </trkpt>
      <trkpt lat="47.27462" lon="-2.47061">
        <ele>1.7999999523163</ele>
        <time>2022-01-27T10:09:22.000Z</time>
      </trkpt>
      <trkpt lat="47.2745" lon="-2.47025">
        <ele>1.7999999523163</ele>
        <time>2022-01-27T10:09:29.000Z</time>
      </trkpt>
      <trkpt lat="47.27438" lon="-2.46988">
        <ele>1.7999999523163</ele>
        <time>2022-01-27T10:09:36.000Z</time>
      </trkpt>
      <trkpt lat="47.27431" lon="-2.46964">
        <ele>1.7999999523163</ele>
        <time>2022-01-27T10:09:41.000Z</time>
      </trkpt>
      <trkpt lat="47.27429" lon="-2.46963">
        <ele>2.5999999046326</ele>
        <time>2022-01-27T10:09:42.000Z</time>
      </trkpt>
      <trkpt lat="47.27426" lon="-2.46963">
        <ele>3</ele>
        <time>2022-01-27T10:09:43.000Z</time>
      </trkpt>
      <trkpt lat="47.27423" lon="-2.46966">
        <ele>3.4000000953674</ele>
        <time>2022-01-27T10:09:44.000Z</time>
      </trkpt>
      <trkpt lat="47.2742" lon="-2.46968">
        <ele>3.7999999523163</ele>
        <time>2022-01-27T10:09:45.000Z</time>
      </trkpt>
      <trkpt lat="47.27405" lon="-2.46974">
        <ele>3.7999999523163</ele>
        <time>2022-01-27T10:09:49.000Z</time>
      </trkpt>
      <trkpt lat="47.2738" lon="-2.46985">
        <ele>3.7999999523163</ele>
        <time>2022-01-27T10:09:56.000Z</time>
      </trkpt>
      <trkpt lat="47.27373" lon="-2.46988">
        <ele>4.1999998092651</ele>
        <time>2022-01-27T10:09:58.000Z</time>
      </trkpt>
      <trkpt lat="47.27369" lon="-2.4699">
        <ele>4.5999999046326</ele>
        <time>2022-01-27T10:09:59.000Z</time>
      </trkpt>
      <trkpt lat="47.27365" lon="-2.46993">
        <ele>5</ele>
        <time>2022-01-27T10:10:00.000Z</time>
      </trkpt>
      <trkpt lat="47.27361" lon="-2.46995">
        <ele>5.4000000953674</ele>
        <time>2022-01-27T10:10:01.000Z</time>
      </trkpt>
      <trkpt lat="47.27357" lon="-2.46996">
        <ele>6</ele>
        <time>2022-01-27T10:10:02.000Z</time>
      </trkpt>
      <trkpt lat="47.27343" lon="-2.47002">
        <ele>6</ele>
        <time>2022-01-27T10:10:05.000Z</time>
      </trkpt>
      <trkpt lat="47.2733" lon="-2.47011">
        <ele>6</ele>
        <time>2022-01-27T10:10:08.000Z</time>
      </trkpt>
      <trkpt lat="47.27313" lon="-2.47027">
        <ele>6</ele>
        <time>2022-01-27T10:10:12.000Z</time>
      </trkpt>
      <trkpt lat="47.27309" lon="-2.4703">
        <ele>6</ele>
        <time>2022-01-27T10:10:13.000Z</time>
      </trkpt>
      <trkpt lat="47.27301" lon="-2.47033">
        <ele>6.4000000953674</ele>
        <time>2022-01-27T10:10:15.000Z</time>
      </trkpt>
      <trkpt lat="47.27296" lon="-2.47034">
        <ele>6.8000001907349</ele>
        <time>2022-01-27T10:10:16.000Z</time>
      </trkpt>
      <trkpt lat="47.27292" lon="-2.47034">
        <ele>7.1999998092651</ele>
        <time>2022-01-27T10:10:17.000Z</time>
      </trkpt>
      <trkpt lat="47.27288" lon="-2.47035">
        <ele>7.5999999046326</ele>
        <time>2022-01-27T10:10:18.000Z</time>
      </trkpt>
      <trkpt lat="47.27284" lon="-2.47035">
        <ele>8</ele>
        <time>2022-01-27T10:10:19.000Z</time>
      </trkpt>
      <trkpt lat="47.27252" lon="-2.47038">
        <ele>8</ele>
        <time>2022-01-27T10:10:26.000Z</time>
      </trkpt>
      <trkpt lat="47.2722" lon="-2.47038">
        <ele>8</ele>
        <time>2022-01-27T10:10:32.000Z</time>
      </trkpt>
      <trkpt lat="47.27185" lon="-2.47046">
        <ele>8</ele>
        <time>2022-01-27T10:10:38.000Z</time>
      </trkpt>
      <trkpt lat="47.2714" lon="-2.47056">
        <ele>8</ele>
        <time>2022-01-27T10:10:46.000Z</time>
      </trkpt>
      <trkpt lat="47.27121" lon="-2.47062">
        <ele>8</ele>
        <time>2022-01-27T10:10:50.000Z</time>
      </trkpt>
      <trkpt lat="47.27118" lon="-2.47067">
        <ele>8</ele>
        <time>2022-01-27T10:10:51.000Z</time>
      </trkpt>
      <trkpt lat="47.2711" lon="-2.47081">
        <ele>8</ele>
        <time>2022-01-27T10:10:55.000Z</time>
      </trkpt>
      <trkpt lat="47.27099" lon="-2.47087">
        <ele>8</ele>
        <time>2022-01-27T10:10:58.000Z</time>
      </trkpt>
      <trkpt lat="47.27094" lon="-2.47089">
        <ele>8</ele>
        <time>2022-01-27T10:10:59.000Z</time>
      </trkpt>
      <trkpt lat="47.27085" lon="-2.47091">
        <ele>7.5999999046326</ele>
        <time>2022-01-27T10:11:01.000Z</time>
      </trkpt>
      <trkpt lat="47.27081" lon="-2.47092">
        <ele>7.1999998092651</ele>
        <time>2022-01-27T10:11:02.000Z</time>
      </trkpt>
      <trkpt lat="47.27077" lon="-2.47093">
        <ele>6.8000001907349</ele>
        <time>2022-01-27T10:11:03.000Z</time>
      </trkpt>
      <trkpt lat="47.27073" lon="-2.47094">
        <ele>6.4000000953674</ele>
        <time>2022-01-27T10:11:04.000Z</time>
      </trkpt>
      <trkpt lat="47.2707" lon="-2.47096">
        <ele>6</ele>
        <time>2022-01-27T10:11:05.000Z</time>
      </trkpt>
      <trkpt lat="47.27062" lon="-2.47098">
        <ele>6</ele>
        <time>2022-01-27T10:11:07.000Z</time>
      </trkpt>
      <trkpt lat="47.27042" lon="-2.47105">
        <ele>6</ele>
        <time>2022-01-27T10:11:13.000Z</time>
      </trkpt>
      <trkpt lat="47.27024" lon="-2.47108">
        <ele>6</ele>
        <time>2022-01-27T10:11:19.000Z</time>
      </trkpt>
      <trkpt lat="47.27007" lon="-2.47112">
        <ele>6</ele>
        <time>2022-01-27T10:11:25.000Z</time>
      </trkpt>
      <trkpt lat="47.27004" lon="-2.47113">
        <ele>6</ele>
        <time>2022-01-27T10:11:28.000Z</time>
      </trkpt>
      <trkpt lat="47.27005" lon="-2.47113">
        <ele>3.7999999523163</ele>
        <time>2022-01-27T10:24:28.000Z</time>
      </trkpt>
      <trkpt lat="47.27011" lon="-2.4711">
        <ele>3.7999999523163</ele>
        <time>2022-01-27T10:24:32.000Z</time>
      </trkpt>
      <trkpt lat="47.27014" lon="-2.4711">
        <ele>3.7999999523163</ele>
        <time>2022-01-27T10:24:34.000Z</time>
      </trkpt>
      <trkpt lat="47.27024" lon="-2.47108">
        <ele>3.7999999523163</ele>
        <time>2022-01-27T10:24:38.000Z</time>
      </trkpt>
      <trkpt lat="47.27044" lon="-2.47101">
        <ele>3.7999999523163</ele>
        <time>2022-01-27T10:24:45.000Z</time>
      </trkpt>
      <trkpt lat="47.27069" lon="-2.47095">
        <ele>3.7999999523163</ele>
        <time>2022-01-27T10:24:53.000Z</time>
      </trkpt>
      <trkpt lat="47.27091" lon="-2.47089">
        <ele>3.7999999523163</ele>
        <time>2022-01-27T10:25:00.000Z</time>
      </trkpt>
      <trkpt lat="47.27109" lon="-2.47079">
        <ele>3.7999999523163</ele>
        <time>2022-01-27T10:25:06.000Z</time>
      </trkpt>
      <trkpt lat="47.27108" lon="-2.47064">
        <ele>3.7999999523163</ele>
        <time>2022-01-27T10:25:09.000Z</time>
      </trkpt>
      <trkpt lat="47.27108" lon="-2.47033">
        <ele>3.7999999523163</ele>
        <time>2022-01-27T10:25:14.000Z</time>
      </trkpt>
      <trkpt lat="47.27107" lon="-2.46983">
        <ele>3.7999999523163</ele>
        <time>2022-01-27T10:25:21.000Z</time>
      </trkpt>
      <trkpt lat="47.27109" lon="-2.46946">
        <ele>3.7999999523163</ele>
        <time>2022-01-27T10:25:26.000Z</time>
      </trkpt>
      <trkpt lat="47.27111" lon="-2.46925">
        <ele>3.7999999523163</ele>
        <time>2022-01-27T10:25:29.000Z</time>
      </trkpt>
      <trkpt lat="47.27117" lon="-2.46874">
        <ele>3.7999999523163</ele>
        <time>2022-01-27T10:25:36.000Z</time>
      </trkpt>
      <trkpt lat="47.27126" lon="-2.46816">
        <ele>3.7999999523163</ele>
        <time>2022-01-27T10:25:44.000Z</time>
      </trkpt>
      <trkpt lat="47.27136" lon="-2.468">
        <ele>3.7999999523163</ele>
        <time>2022-01-27T10:25:47.000Z</time>
      </trkpt>
      <trkpt lat="47.27158" lon="-2.46777">
        <ele>3.7999999523163</ele>
        <time>2022-01-27T10:25:52.000Z</time>
      </trkpt>
      <trkpt lat="47.27174" lon="-2.46748">
        <ele>3.7999999523163</ele>
        <time>2022-01-27T10:25:56.000Z</time>
      </trkpt>
      <trkpt lat="47.27178" lon="-2.46741">
        <ele>3.7999999523163</ele>
        <time>2022-01-27T10:25:57.000Z</time>
      </trkpt>
      <trkpt lat="47.27206" lon="-2.46692">
        <ele>3.7999999523163</ele>
        <time>2022-01-27T10:26:04.000Z</time>
      </trkpt>
      <trkpt lat="47.27213" lon="-2.46682">
        <ele>3.4000000953674</ele>
        <time>2022-01-27T10:26:06.000Z</time>
      </trkpt>
      <trkpt lat="47.27216" lon="-2.46679">
        <ele>3</ele>
        <time>2022-01-27T10:26:07.000Z</time>
      </trkpt>
      <trkpt lat="47.27218" lon="-2.46676">
        <ele>2.5999999046326</ele>
        <time>2022-01-27T10:26:08.000Z</time>
      </trkpt>
      <trkpt lat="47.2722" lon="-2.46674">
        <ele>2.2000000476837</ele>
        <time>2022-01-27T10:26:09.000Z</time>
      </trkpt>
      <trkpt lat="47.27222" lon="-2.46673">
        <ele>1.7999999523163</ele>
        <time>2022-01-27T10:26:10.000Z</time>
      </trkpt>
      <trkpt lat="47.27225" lon="-2.4667">
        <ele>1.7999999523163</ele>
        <time>2022-01-27T10:26:13.000Z</time>
      </trkpt>
      <trkpt lat="47.27232" lon="-2.4666">
        <ele>1.7999999523163</ele>
        <time>2022-01-27T10:26:19.000Z</time>
      </trkpt>
      <trkpt lat="47.2724" lon="-2.46643">
        <ele>1.7999999523163</ele>
        <time>2022-01-27T10:26:27.000Z</time>
      </trkpt>
      <trkpt lat="47.27247" lon="-2.4663">
        <ele>1.3999999761581</ele>
        <time>2022-01-27T10:26:32.000Z</time>
      </trkpt>
      <trkpt lat="47.27249" lon="-2.46627">
        <ele>1</ele>
        <time>2022-01-27T10:26:33.000Z</time>
      </trkpt>
      <trkpt lat="47.2725" lon="-2.46623">
        <ele>0.60000002384186</ele>
        <time>2022-01-27T10:26:34.000Z</time>
      </trkpt>
      <trkpt lat="47.27252" lon="-2.46618">
        <ele>-0.20000000298023</ele>
        <time>2022-01-27T10:26:35.000Z</time>
      </trkpt>
      <trkpt lat="47.27259" lon="-2.46602">
        <ele>-0.20000000298023</ele>
        <time>2022-01-27T10:26:39.000Z</time>
      </trkpt>
      <trkpt lat="47.27269" lon="-2.4659">
        <ele>-0.20000000298023</ele>
        <time>2022-01-27T10:26:42.000Z</time>
      </trkpt>
      <trkpt lat="47.27277" lon="-2.46584">
        <ele>-0.20000000298023</ele>
        <time>2022-01-27T10:26:44.000Z</time>
      </trkpt>
      <trkpt lat="47.27303" lon="-2.46563">
        <ele>-0.20000000298023</ele>
        <time>2022-01-27T10:26:50.000Z</time>
      </trkpt>
      <trkpt lat="47.27307" lon="-2.4656">
        <ele>-0.20000000298023</ele>
        <time>2022-01-27T10:26:51.000Z</time>
      </trkpt>
      <trkpt lat="47.27321" lon="-2.46551">
        <ele>-0.20000000298023</ele>
        <time>2022-01-27T10:26:54.000Z</time>
      </trkpt>
      <trkpt lat="47.27341" lon="-2.46537">
        <ele>-0.20000000298023</ele>
        <time>2022-01-27T10:26:59.000Z</time>
      </trkpt>
      <trkpt lat="47.2736" lon="-2.46522">
        <ele>-0.20000000298023</ele>
        <time>2022-01-27T10:27:05.000Z</time>
      </trkpt>
      <trkpt lat="47.27367" lon="-2.46515">
        <ele>-0.20000000298023</ele>
        <time>2022-01-27T10:27:10.000Z</time>
      </trkpt>
      <trkpt lat="47.27368" lon="-2.46513">
        <ele>-0.20000000298023</ele>
        <time>2022-01-27T10:27:17.000Z</time>
      </trkpt>
      <trkpt lat="47.27367" lon="-2.46507">
        <ele>-0.20000000298023</ele>
        <time>2022-01-27T10:27:19.000Z</time>
      </trkpt>
      <trkpt lat="47.2736" lon="-2.46487">
        <ele>-0.20000000298023</ele>
        <time>2022-01-27T10:27:23.000Z</time>
      </trkpt>
      <trkpt lat="47.27352" lon="-2.46466">
        <ele>-0.20000000298023</ele>
        <time>2022-01-27T10:27:26.000Z</time>
      </trkpt>
      <trkpt lat="47.27348" lon="-2.46449">
        <ele>-0.20000000298023</ele>
        <time>2022-01-27T10:27:28.000Z</time>
      </trkpt>
      <trkpt lat="47.27343" lon="-2.46433">
        <ele>-0.20000000298023</ele>
        <time>2022-01-27T10:27:30.000Z</time>
      </trkpt>
      <trkpt lat="47.27328" lon="-2.4639">
        <ele>-0.20000000298023</ele>
        <time>2022-01-27T10:27:35.000Z</time>
      </trkpt>
      <trkpt lat="47.27303" lon="-2.46321">
        <ele>-0.20000000298023</ele>
        <time>2022-01-27T10:27:43.000Z</time>
      </trkpt>
      <trkpt lat="47.27276" lon="-2.46254">
        <ele>-0.20000000298023</ele>
        <time>2022-01-27T10:27:51.000Z</time>
      </trkpt>
      <trkpt lat="47.27263" lon="-2.46224">
        <ele>-0.20000000298023</ele>
        <time>2022-01-27T10:27:55.000Z</time>
      </trkpt>
      <trkpt lat="47.27259" lon="-2.46211">
        <ele>-0.20000000298023</ele>
        <time>2022-01-27T10:27:57.000Z</time>
      </trkpt>
      <trkpt lat="47.27266" lon="-2.46196">
        <ele>-0.20000000298023</ele>
        <time>2022-01-27T10:28:00.000Z</time>
      </trkpt>
      <trkpt lat="47.27275" lon="-2.46189">
        <ele>-0.20000000298023</ele>
        <time>2022-01-27T10:28:02.000Z</time>
      </trkpt>
      <trkpt lat="47.27287" lon="-2.46177">
        <ele>-0.60000002384186</ele>
        <time>2022-01-27T10:28:05.000Z</time>
      </trkpt>
      <trkpt lat="47.27292" lon="-2.46174">
        <ele>-1</ele>
        <time>2022-01-27T10:28:06.000Z</time>
      </trkpt>
      <trkpt lat="47.27297" lon="-2.4617">
        <ele>-1.6000000238419</ele>
        <time>2022-01-27T10:28:07.000Z</time>
      </trkpt>
      <trkpt lat="47.27302" lon="-2.46166">
        <ele>-2</ele>
        <time>2022-01-27T10:28:08.000Z</time>
      </trkpt>
      <trkpt lat="47.27307" lon="-2.46162">
        <ele>-2.4000000953674</ele>
        <time>2022-01-27T10:28:09.000Z</time>
      </trkpt>
      <trkpt lat="47.27316" lon="-2.46155">
        <ele>-2.4000000953674</ele>
        <time>2022-01-27T10:28:11.000Z</time>
      </trkpt>
      <trkpt lat="47.2734" lon="-2.46141">
        <ele>-2.4000000953674</ele>
        <time>2022-01-27T10:28:16.000Z</time>
      </trkpt>
      <trkpt lat="47.27346" lon="-2.46141">
        <ele>-2.4000000953674</ele>
        <time>2022-01-27T10:28:17.000Z</time>
      </trkpt>
      <trkpt lat="47.27374" lon="-2.4614">
        <ele>-2.4000000953674</ele>
        <time>2022-01-27T10:28:22.000Z</time>
      </trkpt>
      <trkpt lat="47.27405" lon="-2.46134">
        <ele>-2.4000000953674</ele>
        <time>2022-01-27T10:28:28.000Z</time>
      </trkpt>
      <trkpt lat="47.27431" lon="-2.46126">
        <ele>-2.4000000953674</ele>
        <time>2022-01-27T10:28:33.000Z</time>
      </trkpt>
      <trkpt lat="47.27441" lon="-2.4612">
        <ele>-2.4000000953674</ele>
        <time>2022-01-27T10:28:35.000Z</time>
      </trkpt>
      <trkpt lat="47.27477" lon="-2.46092">
        <ele>-2.4000000953674</ele>
        <time>2022-01-27T10:28:42.000Z</time>
      </trkpt>
      <trkpt lat="47.27514" lon="-2.46061">
        <ele>-2.4000000953674</ele>
        <time>2022-01-27T10:28:49.000Z</time>
      </trkpt>
      <trkpt lat="47.27543" lon="-2.46038">
        <ele>-2.4000000953674</ele>
        <time>2022-01-27T10:28:55.000Z</time>
      </trkpt>
      <trkpt lat="47.27567" lon="-2.46018">
        <ele>-2.4000000953674</ele>
        <time>2022-01-27T10:29:00.000Z</time>
      </trkpt>
      <trkpt lat="47.27571" lon="-2.46014">
        <ele>-2.4000000953674</ele>
        <time>2022-01-27T10:29:01.000Z</time>
      </trkpt>
      <trkpt lat="47.27602" lon="-2.45982">
        <ele>-2.4000000953674</ele>
        <time>2022-01-27T10:29:08.000Z</time>
      </trkpt>
      <trkpt lat="47.27636" lon="-2.45955">
        <ele>-2.4000000953674</ele>
        <time>2022-01-27T10:29:15.000Z</time>
      </trkpt>
      <trkpt lat="47.2764" lon="-2.45949">
        <ele>-2.4000000953674</ele>
        <time>2022-01-27T10:29:16.000Z</time>
      </trkpt>
      <trkpt lat="47.27642" lon="-2.45935">
        <ele>-2.7999999523163</ele>
        <time>2022-01-27T10:29:18.000Z</time>
      </trkpt>
      <trkpt lat="47.27642" lon="-2.45927">
        <ele>-3.2000000476837</ele>
        <time>2022-01-27T10:29:19.000Z</time>
      </trkpt>
      <trkpt lat="47.27642" lon="-2.45919">
        <ele>-3.5999999046326</ele>
        <time>2022-01-27T10:29:20.000Z</time>
      </trkpt>
      <trkpt lat="47.27642" lon="-2.45911">
        <ele>-4</ele>
        <time>2022-01-27T10:29:21.000Z</time>
      </trkpt>
      <trkpt lat="47.27642" lon="-2.45904">
        <ele>-4.4000000953674</ele>
        <time>2022-01-27T10:29:22.000Z</time>
      </trkpt>
      <trkpt lat="47.27643" lon="-2.45888">
        <ele>-4.4000000953674</ele>
        <time>2022-01-27T10:29:24.000Z</time>
      </trkpt>
      <trkpt lat="47.27643" lon="-2.45872">
        <ele>-4.4000000953674</ele>
        <time>2022-01-27T10:29:26.000Z</time>
      </trkpt>
      <trkpt lat="47.27644" lon="-2.45849">
        <ele>-4.4000000953674</ele>
        <time>2022-01-27T10:29:29.000Z</time>
      </trkpt>
      <trkpt lat="47.27645" lon="-2.45806">
        <ele>-4.4000000953674</ele>
        <time>2022-01-27T10:29:35.000Z</time>
      </trkpt>
      <trkpt lat="47.27641" lon="-2.45758">
        <ele>-4.4000000953674</ele>
        <time>2022-01-27T10:29:42.000Z</time>
      </trkpt>
      <trkpt lat="47.2764" lon="-2.45745">
        <ele>-4</ele>
        <time>2022-01-27T10:29:44.000Z</time>
      </trkpt>
      <trkpt lat="47.27639" lon="-2.45739">
        <ele>-3.5999999046326</ele>
        <time>2022-01-27T10:29:45.000Z</time>
      </trkpt>
      <trkpt lat="47.27639" lon="-2.45733">
        <ele>-3.2000000476837</ele>
        <time>2022-01-27T10:29:46.000Z</time>
      </trkpt>
      <trkpt lat="47.27637" lon="-2.45726">
        <ele>-2.7999999523163</ele>
        <time>2022-01-27T10:29:47.000Z</time>
      </trkpt>
      <trkpt lat="47.27636" lon="-2.45721">
        <ele>-2.4000000953674</ele>
        <time>2022-01-27T10:29:48.000Z</time>
      </trkpt>
      <trkpt lat="47.27634" lon="-2.45715">
        <ele>-2.4000000953674</ele>
        <time>2022-01-27T10:29:49.000Z</time>
      </trkpt>
      <trkpt lat="47.27632" lon="-2.4571">
        <ele>-2</ele>
        <time>2022-01-27T10:29:50.000Z</time>
      </trkpt>
      <trkpt lat="47.27629" lon="-2.45707">
        <ele>-1.6000000238419</ele>
        <time>2022-01-27T10:29:51.000Z</time>
      </trkpt>
      <trkpt lat="47.27626" lon="-2.45706">
        <ele>-0.80000001192093</ele>
        <time>2022-01-27T10:29:52.000Z</time>
      </trkpt>
      <trkpt lat="47.27621" lon="-2.45707">
        <ele>-0.40000000596046</ele>
        <time>2022-01-27T10:29:53.000Z</time>
      </trkpt>
      <trkpt lat="47.27613" lon="-2.45711">
        <ele>-0.40000000596046</ele>
        <time>2022-01-27T10:29:55.000Z</time>
      </trkpt>
      <trkpt lat="47.27603" lon="-2.45715">
        <ele>-0.40000000596046</ele>
        <time>2022-01-27T10:29:57.000Z</time>
      </trkpt>
      <trkpt lat="47.27569" lon="-2.45727">
        <ele>-0.40000000596046</ele>
        <time>2022-01-27T10:30:03.000Z</time>
      </trkpt>
      <trkpt lat="47.27522" lon="-2.45743">
        <ele>-0.40000000596046</ele>
        <time>2022-01-27T10:30:11.000Z</time>
      </trkpt>
      <trkpt lat="47.27474" lon="-2.45759">
        <ele>-0.40000000596046</ele>
        <time>2022-01-27T10:30:19.000Z</time>
      </trkpt>
      <trkpt lat="47.27419" lon="-2.45772">
        <ele>-0.40000000596046</ele>
        <time>2022-01-27T10:30:28.000Z</time>
      </trkpt>
      <trkpt lat="47.27412" lon="-2.45773">
        <ele>-0.40000000596046</ele>
        <time>2022-01-27T10:30:29.000Z</time>
      </trkpt>
      <trkpt lat="47.27387" lon="-2.45775">
        <ele>-0.40000000596046</ele>
        <time>2022-01-27T10:30:33.000Z</time>
      </trkpt>
      <trkpt lat="47.27376" lon="-2.45777">
        <ele>-0.40000000596046</ele>
        <time>2022-01-27T10:30:35.000Z</time>
      </trkpt>
      <trkpt lat="47.27371" lon="-2.45774">
        <ele>-0.40000000596046</ele>
        <time>2022-01-27T10:30:36.000Z</time>
      </trkpt>
      <trkpt lat="47.27365" lon="-2.4576">
        <ele>-0.40000000596046</ele>
        <time>2022-01-27T10:30:38.000Z</time>
      </trkpt>
      <trkpt lat="47.27361" lon="-2.45745">
        <ele>-0.40000000596046</ele>
        <time>2022-01-27T10:30:40.000Z</time>
      </trkpt>
      <trkpt lat="47.27355" lon="-2.45722">
        <ele>-0.40000000596046</ele>
        <time>2022-01-27T10:30:43.000Z</time>
      </trkpt>
      <trkpt lat="47.27336" lon="-2.45672">
        <ele>-0.40000000596046</ele>
        <time>2022-01-27T10:30:50.000Z</time>
      </trkpt>
      <trkpt lat="47.27323" lon="-2.45628">
        <ele>-0.40000000596046</ele>
        <time>2022-01-27T10:30:56.000Z</time>
      </trkpt>
      <trkpt lat="47.27322" lon="-2.45619">
        <ele>-0.40000000596046</ele>
        <time>2022-01-27T10:30:57.000Z</time>
      </trkpt>
      <trkpt lat="47.27327" lon="-2.45604">
        <ele>-0.40000000596046</ele>
        <time>2022-01-27T10:30:59.000Z</time>
      </trkpt>
      <trkpt lat="47.27343" lon="-2.45592">
        <ele>-0.40000000596046</ele>
        <time>2022-01-27T10:31:02.000Z</time>
      </trkpt>
      <trkpt lat="47.27349" lon="-2.4559">
        <ele>-0.40000000596046</ele>
        <time>2022-01-27T10:31:03.000Z</time>
      </trkpt>
      <trkpt lat="47.27374" lon="-2.45575">
        <ele>-0.40000000596046</ele>
        <time>2022-01-27T10:31:08.000Z</time>
      </trkpt>
      <trkpt lat="47.27379" lon="-2.45573">
        <ele>-0.40000000596046</ele>
        <time>2022-01-27T10:31:09.000Z</time>
      </trkpt>
      <trkpt lat="47.27394" lon="-2.45569">
        <ele>-0.40000000596046</ele>
        <time>2022-01-27T10:31:12.000Z</time>
      </trkpt>
      <trkpt lat="47.274" lon="-2.45568">
        <ele>-0.40000000596046</ele>
        <time>2022-01-27T10:31:13.000Z</time>
      </trkpt>
      <trkpt lat="47.27427" lon="-2.45555">
        <ele>-0.40000000596046</ele>
        <time>2022-01-27T10:31:18.000Z</time>
      </trkpt>
      <trkpt lat="47.27431" lon="-2.45549">
        <ele>-0.40000000596046</ele>
        <time>2022-01-27T10:31:19.000Z</time>
      </trkpt>
      <trkpt lat="47.27436" lon="-2.45524">
        <ele>-0.40000000596046</ele>
        <time>2022-01-27T10:31:22.000Z</time>
      </trkpt>
      <trkpt lat="47.27445" lon="-2.45507">
        <ele>-0.80000001192093</ele>
        <time>2022-01-27T10:31:25.000Z</time>
      </trkpt>
      <trkpt lat="47.2745" lon="-2.45504">
        <ele>-1.2000000476837</ele>
        <time>2022-01-27T10:31:26.000Z</time>
      </trkpt>
      <trkpt lat="47.27455" lon="-2.45501">
        <ele>-1.6000000238419</ele>
        <time>2022-01-27T10:31:27.000Z</time>
      </trkpt>
      <trkpt lat="47.2746" lon="-2.45499">
        <ele>-2</ele>
        <time>2022-01-27T10:31:28.000Z</time>
      </trkpt>
      <trkpt lat="47.27465" lon="-2.45496">
        <ele>-2.4000000953674</ele>
        <time>2022-01-27T10:31:29.000Z</time>
      </trkpt>
      <trkpt lat="47.2747" lon="-2.45493">
        <ele>-2.4000000953674</ele>
        <time>2022-01-27T10:31:30.000Z</time>
      </trkpt>
      <trkpt lat="47.27493" lon="-2.45472">
        <ele>-2.4000000953674</ele>
        <time>2022-01-27T10:31:35.000Z</time>
      </trkpt>
      <trkpt lat="47.27496" lon="-2.45465">
        <ele>-2.4000000953674</ele>
        <time>2022-01-27T10:31:36.000Z</time>
      </trkpt>
      <trkpt lat="47.27492" lon="-2.45441">
        <ele>-2.4000000953674</ele>
        <time>2022-01-27T10:31:39.000Z</time>
      </trkpt>
      <trkpt lat="47.27489" lon="-2.45402">
        <ele>-2.4000000953674</ele>
        <time>2022-01-27T10:31:44.000Z</time>
      </trkpt>
      <trkpt lat="47.27498" lon="-2.45397">
        <ele>-2.4000000953674</ele>
        <time>2022-01-27T10:31:46.000Z</time>
      </trkpt>
      <trkpt lat="47.27514" lon="-2.45393">
        <ele>-2.4000000953674</ele>
        <time>2022-01-27T10:31:49.000Z</time>
      </trkpt>
      <trkpt lat="47.2752" lon="-2.45392">
        <ele>-2.4000000953674</ele>
        <time>2022-01-27T10:31:50.000Z</time>
      </trkpt>
      <trkpt lat="47.27547" lon="-2.45377">
        <ele>-2.4000000953674</ele>
        <time>2022-01-27T10:31:55.000Z</time>
      </trkpt>
      <trkpt lat="47.2757" lon="-2.45367">
        <ele>-2.4000000953674</ele>
        <time>2022-01-27T10:31:59.000Z</time>
      </trkpt>
      <trkpt lat="47.27587" lon="-2.45364">
        <ele>-2.4000000953674</ele>
        <time>2022-01-27T10:32:02.000Z</time>
      </trkpt>
      <trkpt lat="47.27616" lon="-2.45358">
        <ele>-2.4000000953674</ele>
        <time>2022-01-27T10:32:07.000Z</time>
      </trkpt>
      <trkpt lat="47.27619" lon="-2.45353">
        <ele>-2.4000000953674</ele>
        <time>2022-01-27T10:32:08.000Z</time>
      </trkpt>
      <trkpt lat="47.27619" lon="-2.4533">
        <ele>-2.4000000953674</ele>
        <time>2022-01-27T10:32:11.000Z</time>
      </trkpt>
      <trkpt lat="47.27618" lon="-2.45322">
        <ele>-2.4000000953674</ele>
        <time>2022-01-27T10:32:12.000Z</time>
      </trkpt>
      <trkpt lat="47.27613" lon="-2.45274">
        <ele>-2.4000000953674</ele>
        <time>2022-01-27T10:32:17.000Z</time>
      </trkpt>
      <trkpt lat="47.2761" lon="-2.45232">
        <ele>-3.2000000476837</ele>
        <time>2022-01-27T10:32:21.000Z</time>
      </trkpt>
      <trkpt lat="47.27609" lon="-2.45222">
        <ele>-3.5999999046326</ele>
        <time>2022-01-27T10:32:22.000Z</time>
      </trkpt>
      <trkpt lat="47.27607" lon="-2.45212">
        <ele>-4</ele>
        <time>2022-01-27T10:32:23.000Z</time>
      </trkpt>
      <trkpt lat="47.27605" lon="-2.45201">
        <ele>-4.4000000953674</ele>
        <time>2022-01-27T10:32:24.000Z</time>
      </trkpt>
      <trkpt lat="47.27592" lon="-2.45118">
        <ele>-4.4000000953674</ele>
        <time>2022-01-27T10:32:32.000Z</time>
      </trkpt>
      <trkpt lat="47.27584" lon="-2.45089">
        <ele>-4.4000000953674</ele>
        <time>2022-01-27T10:32:35.000Z</time>
      </trkpt>
      <trkpt lat="47.27576" lon="-2.45073">
        <ele>-4.4000000953674</ele>
        <time>2022-01-27T10:32:37.000Z</time>
      </trkpt>
      <trkpt lat="47.27553" lon="-2.45028">
        <ele>-4.4000000953674</ele>
        <time>2022-01-27T10:32:43.000Z</time>
      </trkpt>
      <trkpt lat="47.27531" lon="-2.44966">
        <ele>-4.4000000953674</ele>
        <time>2022-01-27T10:32:51.000Z</time>
      </trkpt>
      <trkpt lat="47.27512" lon="-2.44902">
        <ele>-4.4000000953674</ele>
        <time>2022-01-27T10:32:59.000Z</time>
      </trkpt>
      <trkpt lat="47.2751" lon="-2.44894">
        <ele>-4.4000000953674</ele>
        <time>2022-01-27T10:33:00.000Z</time>
      </trkpt>
      <trkpt lat="47.27503" lon="-2.44858">
        <ele>-4.4000000953674</ele>
        <time>2022-01-27T10:33:05.000Z</time>
      </trkpt>
      <trkpt lat="47.27502" lon="-2.44848">
        <ele>-4.4000000953674</ele>
        <time>2022-01-27T10:33:07.000Z</time>
      </trkpt>
      <trkpt lat="47.27504" lon="-2.44843">
        <ele>-4.4000000953674</ele>
        <time>2022-01-27T10:33:08.000Z</time>
      </trkpt>
      <trkpt lat="47.27511" lon="-2.44835">
        <ele>-4.4000000953674</ele>
        <time>2022-01-27T10:33:11.000Z</time>
      </trkpt>
      <trkpt lat="47.27513" lon="-2.44834">
        <ele>-4.4000000953674</ele>
        <time>2022-01-27T10:33:12.000Z</time>
      </trkpt>
      <trkpt lat="47.27526" lon="-2.44826">
        <ele>-4.4000000953674</ele>
        <time>2022-01-27T10:33:17.000Z</time>
      </trkpt>
      <trkpt lat="47.27538" lon="-2.44809">
        <ele>-4.4000000953674</ele>
        <time>2022-01-27T10:33:22.000Z</time>
      </trkpt>
      <trkpt lat="47.27538" lon="-2.44804">
        <ele>-4.4000000953674</ele>
        <time>2022-01-27T10:33:23.000Z</time>
      </trkpt>
      <trkpt lat="47.27533" lon="-2.44789">
        <ele>-4.4000000953674</ele>
        <time>2022-01-27T10:33:26.000Z</time>
      </trkpt>
      <trkpt lat="47.27526" lon="-2.44755">
        <ele>-4.4000000953674</ele>
        <time>2022-01-27T10:33:31.000Z</time>
      </trkpt>
      <trkpt lat="47.27522" lon="-2.44739">
        <ele>-4.8000001907349</ele>
        <time>2022-01-27T10:33:33.000Z</time>
      </trkpt>
      <trkpt lat="47.27521" lon="-2.44731">
        <ele>-5.4000000953674</ele>
        <time>2022-01-27T10:33:34.000Z</time>
      </trkpt>
      <trkpt lat="47.27519" lon="-2.44723">
        <ele>-6.1999998092651</ele>
        <time>2022-01-27T10:33:35.000Z</time>
      </trkpt>
      <trkpt lat="47.27516" lon="-2.44715">
        <ele>-6.5999999046326</ele>
        <time>2022-01-27T10:33:36.000Z</time>
      </trkpt>
      <trkpt lat="47.27514" lon="-2.44706">
        <ele>-6.5999999046326</ele>
        <time>2022-01-27T10:33:37.000Z</time>
      </trkpt>
      <trkpt lat="47.27508" lon="-2.44691">
        <ele>-6.5999999046326</ele>
        <time>2022-01-27T10:33:39.000Z</time>
      </trkpt>
      <trkpt lat="47.27498" lon="-2.44678">
        <ele>-6.5999999046326</ele>
        <time>2022-01-27T10:33:41.000Z</time>
      </trkpt>
      <trkpt lat="47.27476" lon="-2.44645">
        <ele>-6.5999999046326</ele>
        <time>2022-01-27T10:33:46.000Z</time>
      </trkpt>
      <trkpt lat="47.27473" lon="-2.44637">
        <ele>-6.5999999046326</ele>
        <time>2022-01-27T10:33:47.000Z</time>
      </trkpt>
      <trkpt lat="47.27463" lon="-2.44615">
        <ele>-6.5999999046326</ele>
        <time>2022-01-27T10:33:50.000Z</time>
      </trkpt>
      <trkpt lat="47.27456" lon="-2.44603">
        <ele>-6.5999999046326</ele>
        <time>2022-01-27T10:33:52.000Z</time>
      </trkpt>
      <trkpt lat="47.27453" lon="-2.44595">
        <ele>-6.5999999046326</ele>
        <time>2022-01-27T10:33:53.000Z</time>
      </trkpt>
      <trkpt lat="47.2745" lon="-2.44571">
        <ele>-6.5999999046326</ele>
        <time>2022-01-27T10:33:56.000Z</time>
      </trkpt>
      <trkpt lat="47.27449" lon="-2.44563">
        <ele>-6.5999999046326</ele>
        <time>2022-01-27T10:33:57.000Z</time>
      </trkpt>
      <trkpt lat="47.27447" lon="-2.44521">
        <ele>-6.5999999046326</ele>
        <time>2022-01-27T10:34:02.000Z</time>
      </trkpt>
      <trkpt lat="47.27437" lon="-2.44492">
        <ele>-6.5999999046326</ele>
        <time>2022-01-27T10:34:06.000Z</time>
      </trkpt>
      <trkpt lat="47.27436" lon="-2.44467">
        <ele>-6.5999999046326</ele>
        <time>2022-01-27T10:34:09.000Z</time>
      </trkpt>
      <trkpt lat="47.27436" lon="-2.4446">
        <ele>-6.5999999046326</ele>
        <time>2022-01-27T10:34:10.000Z</time>
      </trkpt>
      <trkpt lat="47.27436" lon="-2.44431">
        <ele>-6.5999999046326</ele>
        <time>2022-01-27T10:34:14.000Z</time>
      </trkpt>
      <trkpt lat="47.27437" lon="-2.4442">
        <ele>-6.5999999046326</ele>
        <time>2022-01-27T10:34:16.000Z</time>
      </trkpt>
      <trkpt lat="47.27443" lon="-2.44409">
        <ele>-6.5999999046326</ele>
        <time>2022-01-27T10:34:19.000Z</time>
      </trkpt>
      <trkpt lat="47.27446" lon="-2.44405">
        <ele>-6.5999999046326</ele>
        <time>2022-01-27T10:34:20.000Z</time>
      </trkpt>
      <trkpt lat="47.2746" lon="-2.44402">
        <ele>-6.5999999046326</ele>
        <time>2022-01-27T10:34:24.000Z</time>
      </trkpt>
      <trkpt lat="47.27489" lon="-2.444">
        <ele>-6.5999999046326</ele>
        <time>2022-01-27T10:34:30.000Z</time>
      </trkpt>
      <trkpt lat="47.27494" lon="-2.44397">
        <ele>-6.5999999046326</ele>
        <time>2022-01-27T10:34:31.000Z</time>
      </trkpt>
      <trkpt lat="47.2751" lon="-2.44391">
        <ele>-6.5999999046326</ele>
        <time>2022-01-27T10:34:34.000Z</time>
      </trkpt>
      <trkpt lat="47.27515" lon="-2.44386">
        <ele>-6.5999999046326</ele>
        <time>2022-01-27T10:34:35.000Z</time>
      </trkpt>
      <trkpt lat="47.27526" lon="-2.44366">
        <ele>-6.5999999046326</ele>
        <time>2022-01-27T10:34:38.000Z</time>
      </trkpt>
      <trkpt lat="47.27529" lon="-2.44359">
        <ele>-6.5999999046326</ele>
        <time>2022-01-27T10:34:39.000Z</time>
      </trkpt>
      <trkpt lat="47.27533" lon="-2.44333">
        <ele>-6.5999999046326</ele>
        <time>2022-01-27T10:34:42.000Z</time>
      </trkpt>
      <trkpt lat="47.27534" lon="-2.44325">
        <ele>-6.5999999046326</ele>
        <time>2022-01-27T10:34:43.000Z</time>
      </trkpt>
      <trkpt lat="47.2754" lon="-2.44281">
        <ele>-6.5999999046326</ele>
        <time>2022-01-27T10:34:48.000Z</time>
      </trkpt>
      <trkpt lat="47.27542" lon="-2.44272">
        <ele>-6.5999999046326</ele>
        <time>2022-01-27T10:34:49.000Z</time>
      </trkpt>
      <trkpt lat="47.27548" lon="-2.44255">
        <ele>-6.5999999046326</ele>
        <time>2022-01-27T10:34:51.000Z</time>
      </trkpt>
      <trkpt lat="47.27558" lon="-2.4423">
        <ele>-6.5999999046326</ele>
        <time>2022-01-27T10:34:54.000Z</time>
      </trkpt>
      <trkpt lat="47.2758" lon="-2.44188">
        <ele>-6.5999999046326</ele>
        <time>2022-01-27T10:35:00.000Z</time>
      </trkpt>
      <trkpt lat="47.27606" lon="-2.44142">
        <ele>-6.5999999046326</ele>
        <time>2022-01-27T10:35:07.000Z</time>
      </trkpt>
      <trkpt lat="47.27633" lon="-2.44097">
        <ele>-6.5999999046326</ele>
        <time>2022-01-27T10:35:14.000Z</time>
      </trkpt>
      <trkpt lat="47.27643" lon="-2.44077">
        <ele>-6.5999999046326</ele>
        <time>2022-01-27T10:35:17.000Z</time>
      </trkpt>
      <trkpt lat="47.27648" lon="-2.44063">
        <ele>-6.5999999046326</ele>
        <time>2022-01-27T10:35:19.000Z</time>
      </trkpt>
      <trkpt lat="47.27661" lon="-2.44053">
        <ele>-6.5999999046326</ele>
        <time>2022-01-27T10:35:22.000Z</time>
      </trkpt>
      <trkpt lat="47.27666" lon="-2.44052">
        <ele>-6.5999999046326</ele>
        <time>2022-01-27T10:35:23.000Z</time>
      </trkpt>
      <trkpt lat="47.27671" lon="-2.4405">
        <ele>-6.5999999046326</ele>
        <time>2022-01-27T10:35:24.000Z</time>
      </trkpt>
      <trkpt lat="47.27687" lon="-2.44043">
        <ele>-6.5999999046326</ele>
        <time>2022-01-27T10:35:27.000Z</time>
      </trkpt>
      <trkpt lat="47.27702" lon="-2.44037">
        <ele>-6.5999999046326</ele>
        <time>2022-01-27T10:35:30.000Z</time>
      </trkpt>
      <trkpt lat="47.27711" lon="-2.44037">
        <ele>-6.5999999046326</ele>
        <time>2022-01-27T10:35:32.000Z</time>
      </trkpt>
      <trkpt lat="47.27719" lon="-2.44021">
        <ele>-6.5999999046326</ele>
        <time>2022-01-27T10:35:35.000Z</time>
      </trkpt>
      <trkpt lat="47.27721" lon="-2.44015">
        <ele>-6.5999999046326</ele>
        <time>2022-01-27T10:35:36.000Z</time>
      </trkpt>
      <trkpt lat="47.27735" lon="-2.43973">
        <ele>-6.5999999046326</ele>
        <time>2022-01-27T10:35:42.000Z</time>
      </trkpt>
      <trkpt lat="47.27753" lon="-2.43908">
        <ele>-6.5999999046326</ele>
        <time>2022-01-27T10:35:50.000Z</time>
      </trkpt>
      <trkpt lat="47.27761" lon="-2.43869">
        <ele>-6.5999999046326</ele>
        <time>2022-01-27T10:35:56.000Z</time>
      </trkpt>
      <trkpt lat="47.27764" lon="-2.43855">
        <ele>-6.5999999046326</ele>
        <time>2022-01-27T10:36:00.000Z</time>
      </trkpt>
      <trkpt lat="47.27761" lon="-2.4384">
        <ele>-6.5999999046326</ele>
        <time>2022-01-27T10:36:05.000Z</time>
      </trkpt>
      <trkpt lat="47.2776" lon="-2.43831">
        <ele>-6.5999999046326</ele>
        <time>2022-01-27T10:36:06.000Z</time>
      </trkpt>
      <trkpt lat="47.27762" lon="-2.43818">
        <ele>-6.5999999046326</ele>
        <time>2022-01-27T10:36:08.000Z</time>
      </trkpt>
      <trkpt lat="47.27775" lon="-2.43802">
        <ele>-6.5999999046326</ele>
        <time>2022-01-27T10:36:11.000Z</time>
      </trkpt>
      <trkpt lat="47.27789" lon="-2.43777">
        <ele>-6.5999999046326</ele>
        <time>2022-01-27T10:36:15.000Z</time>
      </trkpt>
      <trkpt lat="47.27791" lon="-2.43769">
        <ele>-6.5999999046326</ele>
        <time>2022-01-27T10:36:16.000Z</time>
      </trkpt>
      <trkpt lat="47.27802" lon="-2.43727">
        <ele>-6.5999999046326</ele>
        <time>2022-01-27T10:36:21.000Z</time>
      </trkpt>
      <trkpt lat="47.27817" lon="-2.43659">
        <ele>-6.5999999046326</ele>
        <time>2022-01-27T10:36:29.000Z</time>
      </trkpt>
      <trkpt lat="47.27835" lon="-2.4359">
        <ele>-6.5999999046326</ele>
        <time>2022-01-27T10:36:37.000Z</time>
      </trkpt>
      <trkpt lat="47.27848" lon="-2.43527">
        <ele>-6.5999999046326</ele>
        <time>2022-01-27T10:36:44.000Z</time>
      </trkpt>
      <trkpt lat="47.27858" lon="-2.43443">
        <ele>-6.5999999046326</ele>
        <time>2022-01-27T10:36:53.000Z</time>
      </trkpt>
      <trkpt lat="47.27861" lon="-2.43407">
        <ele>-6.5999999046326</ele>
        <time>2022-01-27T10:36:57.000Z</time>
      </trkpt>
      <trkpt lat="47.2786" lon="-2.43389">
        <ele>-6.5999999046326</ele>
        <time>2022-01-27T10:36:59.000Z</time>
      </trkpt>
      <trkpt lat="47.27857" lon="-2.43372">
        <ele>-6.5999999046326</ele>
        <time>2022-01-27T10:37:01.000Z</time>
      </trkpt>
      <trkpt lat="47.27858" lon="-2.43356">
        <ele>-6.5999999046326</ele>
        <time>2022-01-27T10:37:03.000Z</time>
      </trkpt>
      <trkpt lat="47.2786" lon="-2.43349">
        <ele>-6.5999999046326</ele>
        <time>2022-01-27T10:37:04.000Z</time>
      </trkpt>
      <trkpt lat="47.27866" lon="-2.43334">
        <ele>-6.5999999046326</ele>
        <time>2022-01-27T10:37:06.000Z</time>
      </trkpt>
      <trkpt lat="47.27869" lon="-2.43318">
        <ele>-6.5999999046326</ele>
        <time>2022-01-27T10:37:08.000Z</time>
      </trkpt>
      <trkpt lat="47.27868" lon="-2.43309">
        <ele>-6.5999999046326</ele>
        <time>2022-01-27T10:37:09.000Z</time>
      </trkpt>
      <trkpt lat="47.27868" lon="-2.43301">
        <ele>-6.5999999046326</ele>
        <time>2022-01-27T10:37:10.000Z</time>
      </trkpt>
      <trkpt lat="47.27868" lon="-2.43275">
        <ele>-6.5999999046326</ele>
        <time>2022-01-27T10:37:13.000Z</time>
      </trkpt>
      <trkpt lat="47.27868" lon="-2.43258">
        <ele>-6.5999999046326</ele>
        <time>2022-01-27T10:37:15.000Z</time>
      </trkpt>
      <trkpt lat="47.27863" lon="-2.43206">
        <ele>-6.5999999046326</ele>
        <time>2022-01-27T10:37:21.000Z</time>
      </trkpt>
      <trkpt lat="47.2786" lon="-2.43172">
        <ele>-6.5999999046326</ele>
        <time>2022-01-27T10:37:26.000Z</time>
      </trkpt>
      <trkpt lat="47.27856" lon="-2.43136">
        <ele>-6.5999999046326</ele>
        <time>2022-01-27T10:37:31.000Z</time>
      </trkpt>
      <trkpt lat="47.27853" lon="-2.43077">
        <ele>-6.5999999046326</ele>
        <time>2022-01-27T10:37:38.000Z</time>
      </trkpt>
      <trkpt lat="47.27849" lon="-2.43043">
        <ele>-6.5999999046326</ele>
        <time>2022-01-27T10:37:43.000Z</time>
      </trkpt>
      <trkpt lat="47.27839" lon="-2.43032">
        <ele>-6.5999999046326</ele>
        <time>2022-01-27T10:37:46.000Z</time>
      </trkpt>
      <trkpt lat="47.27818" lon="-2.43016">
        <ele>-6.5999999046326</ele>
        <time>2022-01-27T10:37:52.000Z</time>
      </trkpt>
      <trkpt lat="47.27813" lon="-2.43003">
        <ele>-6.5999999046326</ele>
        <time>2022-01-27T10:37:56.000Z</time>
      </trkpt>
      <trkpt lat="47.27813" lon="-2.42999">
        <ele>-6.5999999046326</ele>
        <time>2022-01-27T10:37:57.000Z</time>
      </trkpt>
      <trkpt lat="47.27812" lon="-2.42981">
        <ele>-6.5999999046326</ele>
        <time>2022-01-27T10:38:00.000Z</time>
      </trkpt>
      <trkpt lat="47.27806" lon="-2.42921">
        <ele>-6.5999999046326</ele>
        <time>2022-01-27T10:38:09.000Z</time>
      </trkpt>
      <trkpt lat="47.278" lon="-2.42875">
        <ele>-6.5999999046326</ele>
        <time>2022-01-27T10:38:17.000Z</time>
      </trkpt>
      <trkpt lat="47.27801" lon="-2.42846">
        <ele>-6.5999999046326</ele>
        <time>2022-01-27T10:38:23.000Z</time>
      </trkpt>
      <trkpt lat="47.27805" lon="-2.42822">
        <ele>-6.5999999046326</ele>
        <time>2022-01-27T10:38:28.000Z</time>
      </trkpt>
      <trkpt lat="47.27818" lon="-2.4282">
        <ele>-6.5999999046326</ele>
        <time>2022-01-27T10:38:32.000Z</time>
      </trkpt>
      <trkpt lat="47.27822" lon="-2.42819">
        <ele>-6.5999999046326</ele>
        <time>2022-01-27T10:38:33.000Z</time>
      </trkpt>
      <trkpt lat="47.27828" lon="-2.42813">
        <ele>-6.5999999046326</ele>
        <time>2022-01-27T10:38:35.000Z</time>
      </trkpt>
      <trkpt lat="47.2783" lon="-2.42807">
        <ele>-6.1999998092651</ele>
        <time>2022-01-27T10:38:36.000Z</time>
      </trkpt>
      <trkpt lat="47.2783" lon="-2.428">
        <ele>-5.5999999046326</ele>
        <time>2022-01-27T10:38:37.000Z</time>
      </trkpt>
      <trkpt lat="47.2783" lon="-2.42794">
        <ele>-5.1999998092651</ele>
        <time>2022-01-27T10:38:38.000Z</time>
      </trkpt>
      <trkpt lat="47.2783" lon="-2.42786">
        <ele>-4.8000001907349</ele>
        <time>2022-01-27T10:38:39.000Z</time>
      </trkpt>
      <trkpt lat="47.2783" lon="-2.42779">
        <ele>-4.4000000953674</ele>
        <time>2022-01-27T10:38:40.000Z</time>
      </trkpt>
      <trkpt lat="47.2783" lon="-2.42752">
        <ele>-4.4000000953674</ele>
        <time>2022-01-27T10:38:44.000Z</time>
      </trkpt>
      <trkpt lat="47.27829" lon="-2.42726">
        <ele>-4.4000000953674</ele>
        <time>2022-01-27T10:38:49.000Z</time>
      </trkpt>
      <trkpt lat="47.27831" lon="-2.42723">
        <ele>-4.4000000953674</ele>
        <time>2022-01-27T10:38:50.000Z</time>
      </trkpt>
      <trkpt lat="47.27837" lon="-2.42719">
        <ele>-4.4000000953674</ele>
        <time>2022-01-27T10:38:52.000Z</time>
      </trkpt>
      <trkpt lat="47.27846" lon="-2.42717">
        <ele>-4.4000000953674</ele>
        <time>2022-01-27T10:38:54.000Z</time>
      </trkpt>
      <trkpt lat="47.27855" lon="-2.42715">
        <ele>-4.4000000953674</ele>
        <time>2022-01-27T10:38:56.000Z</time>
      </trkpt>
      <trkpt lat="47.27865" lon="-2.4271">
        <ele>-4.4000000953674</ele>
        <time>2022-01-27T10:38:58.000Z</time>
      </trkpt>
      <trkpt lat="47.27885" lon="-2.42699">
        <ele>-4.4000000953674</ele>
        <time>2022-01-27T10:39:02.000Z</time>
      </trkpt>
      <trkpt lat="47.27889" lon="-2.42697">
        <ele>-4.4000000953674</ele>
        <time>2022-01-27T10:39:03.000Z</time>
      </trkpt>
      <trkpt lat="47.27904" lon="-2.42685">
        <ele>-4.4000000953674</ele>
        <time>2022-01-27T10:39:07.000Z</time>
      </trkpt>
      <trkpt lat="47.27918" lon="-2.4268">
        <ele>-4.4000000953674</ele>
        <time>2022-01-27T10:39:11.000Z</time>
      </trkpt>
      <trkpt lat="47.2793" lon="-2.4267">
        <ele>-4.4000000953674</ele>
        <time>2022-01-27T10:39:15.000Z</time>
      </trkpt>
      <trkpt lat="47.27946" lon="-2.42659">
        <ele>-4.4000000953674</ele>
        <time>2022-01-27T10:39:19.000Z</time>
      </trkpt>
      <trkpt lat="47.27955" lon="-2.42653">
        <ele>-4.4000000953674</ele>
        <time>2022-01-27T10:39:21.000Z</time>
      </trkpt>
      <trkpt lat="47.27974" lon="-2.42644">
        <ele>-4.4000000953674</ele>
        <time>2022-01-27T10:39:25.000Z</time>
      </trkpt>
      <trkpt lat="47.27984" lon="-2.42643">
        <ele>-4.4000000953674</ele>
        <time>2022-01-27T10:39:27.000Z</time>
      </trkpt>
      <trkpt lat="47.27995" lon="-2.4264">
        <ele>-4.4000000953674</ele>
        <time>2022-01-27T10:39:29.000Z</time>
      </trkpt>
      <trkpt lat="47.2801" lon="-2.42632">
        <ele>-4.4000000953674</ele>
        <time>2022-01-27T10:39:32.000Z</time>
      </trkpt>
      <trkpt lat="47.28023" lon="-2.4262">
        <ele>-4.4000000953674</ele>
        <time>2022-01-27T10:39:35.000Z</time>
      </trkpt>
      <trkpt lat="47.28031" lon="-2.42612">
        <ele>-4.4000000953674</ele>
        <time>2022-01-27T10:39:37.000Z</time>
      </trkpt>
      <trkpt lat="47.2805" lon="-2.42598">
        <ele>-4.4000000953674</ele>
        <time>2022-01-27T10:39:42.000Z</time>
      </trkpt>
      <trkpt lat="47.28054" lon="-2.42596">
        <ele>-4.4000000953674</ele>
        <time>2022-01-27T10:39:43.000Z</time>
      </trkpt>
      <trkpt lat="47.28063" lon="-2.4259">
        <ele>-4.4000000953674</ele>
        <time>2022-01-27T10:39:45.000Z</time>
      </trkpt>
      <trkpt lat="47.28075" lon="-2.42578">
        <ele>-4.4000000953674</ele>
        <time>2022-01-27T10:39:48.000Z</time>
      </trkpt>
      <trkpt lat="47.2808" lon="-2.4257">
        <ele>-4.4000000953674</ele>
        <time>2022-01-27T10:39:50.000Z</time>
      </trkpt>
      <trkpt lat="47.28083" lon="-2.42563">
        <ele>-4.4000000953674</ele>
        <time>2022-01-27T10:39:52.000Z</time>
      </trkpt>
      <trkpt lat="47.28088" lon="-2.42557">
        <ele>-4.4000000953674</ele>
        <time>2022-01-27T10:39:56.000Z</time>
      </trkpt>
      <trkpt lat="47.28088" lon="-2.42555">
        <ele>-4.4000000953674</ele>
        <time>2022-01-27T10:39:59.000Z</time>
      </trkpt>
      <trkpt lat="47.28099" lon="-2.42546">
        <ele>-4.4000000953674</ele>
        <time>2022-01-27T10:40:03.000Z</time>
      </trkpt>
      <trkpt lat="47.28103" lon="-2.42543">
        <ele>-4.4000000953674</ele>
        <time>2022-01-27T10:40:04.000Z</time>
      </trkpt>
      <trkpt lat="47.28119" lon="-2.42537">
        <ele>-4.4000000953674</ele>
        <time>2022-01-27T10:40:07.000Z</time>
      </trkpt>
      <trkpt lat="47.28161" lon="-2.42527">
        <ele>-4.4000000953674</ele>
        <time>2022-01-27T10:40:14.000Z</time>
      </trkpt>
      <trkpt lat="47.28178" lon="-2.42524">
        <ele>-4.4000000953674</ele>
        <time>2022-01-27T10:40:17.000Z</time>
      </trkpt>
      <trkpt lat="47.28193" lon="-2.42518">
        <ele>-4.4000000953674</ele>
        <time>2022-01-27T10:40:20.000Z</time>
      </trkpt>
      <trkpt lat="47.28214" lon="-2.42494">
        <ele>-4.4000000953674</ele>
        <time>2022-01-27T10:40:25.000Z</time>
      </trkpt>
      <trkpt lat="47.2822" lon="-2.42483">
        <ele>-4.4000000953674</ele>
        <time>2022-01-27T10:40:27.000Z</time>
      </trkpt>
      <trkpt lat="47.28229" lon="-2.42464">
        <ele>-4.4000000953674</ele>
        <time>2022-01-27T10:40:30.000Z</time>
      </trkpt>
      <trkpt lat="47.28237" lon="-2.42444">
        <ele>-4.4000000953674</ele>
        <time>2022-01-27T10:40:33.000Z</time>
      </trkpt>
      <trkpt lat="47.28242" lon="-2.42432">
        <ele>-4.4000000953674</ele>
        <time>2022-01-27T10:40:35.000Z</time>
      </trkpt>
      <trkpt lat="47.28244" lon="-2.42425">
        <ele>-4.4000000953674</ele>
        <time>2022-01-27T10:40:36.000Z</time>
      </trkpt>
      <trkpt lat="47.28253" lon="-2.42389">
        <ele>-4.4000000953674</ele>
        <time>2022-01-27T10:40:41.000Z</time>
      </trkpt>
      <trkpt lat="47.28254" lon="-2.42382">
        <ele>-4.4000000953674</ele>
        <time>2022-01-27T10:40:42.000Z</time>
      </trkpt>
      <trkpt lat="47.28256" lon="-2.42374">
        <ele>-4.4000000953674</ele>
        <time>2022-01-27T10:40:43.000Z</time>
      </trkpt>
      <trkpt lat="47.28264" lon="-2.42336">
        <ele>-4.4000000953674</ele>
        <time>2022-01-27T10:40:48.000Z</time>
      </trkpt>
      <trkpt lat="47.28272" lon="-2.42274">
        <ele>-4.4000000953674</ele>
        <time>2022-01-27T10:40:56.000Z</time>
      </trkpt>
      <trkpt lat="47.28278" lon="-2.42242">
        <ele>-4.4000000953674</ele>
        <time>2022-01-27T10:41:00.000Z</time>
      </trkpt>
      <trkpt lat="47.28279" lon="-2.42234">
        <ele>-4.4000000953674</ele>
        <time>2022-01-27T10:41:01.000Z</time>
      </trkpt>
      <trkpt lat="47.28287" lon="-2.42184">
        <ele>-4.4000000953674</ele>
        <time>2022-01-27T10:41:07.000Z</time>
      </trkpt>
      <trkpt lat="47.28299" lon="-2.421">
        <ele>-4.4000000953674</ele>
        <time>2022-01-27T10:41:17.000Z</time>
      </trkpt>
      <trkpt lat="47.283" lon="-2.42092">
        <ele>-4.4000000953674</ele>
        <time>2022-01-27T10:41:18.000Z</time>
      </trkpt>
      <trkpt lat="47.28313" lon="-2.4201">
        <ele>-4.4000000953674</ele>
        <time>2022-01-27T10:41:28.000Z</time>
      </trkpt>
      <trkpt lat="47.28315" lon="-2.42002">
        <ele>-4.4000000953674</ele>
        <time>2022-01-27T10:41:29.000Z</time>
      </trkpt>
      <trkpt lat="47.28321" lon="-2.4197">
        <ele>-4.4000000953674</ele>
        <time>2022-01-27T10:41:33.000Z</time>
      </trkpt>
      <trkpt lat="47.28325" lon="-2.41954">
        <ele>-4.4000000953674</ele>
        <time>2022-01-27T10:41:35.000Z</time>
      </trkpt>
      <trkpt lat="47.28326" lon="-2.41946">
        <ele>-4.4000000953674</ele>
        <time>2022-01-27T10:41:36.000Z</time>
      </trkpt>
      <trkpt lat="47.28335" lon="-2.41915">
        <ele>-4.4000000953674</ele>
        <time>2022-01-27T10:41:40.000Z</time>
      </trkpt>
      <trkpt lat="47.28349" lon="-2.41857">
        <ele>-4.4000000953674</ele>
        <time>2022-01-27T10:41:47.000Z</time>
      </trkpt>
      <trkpt lat="47.28369" lon="-2.41782">
        <ele>-4.4000000953674</ele>
        <time>2022-01-27T10:41:56.000Z</time>
      </trkpt>
      <trkpt lat="47.28383" lon="-2.41725">
        <ele>-4.4000000953674</ele>
        <time>2022-01-27T10:42:03.000Z</time>
      </trkpt>
      <trkpt lat="47.28398" lon="-2.4166">
        <ele>-4.4000000953674</ele>
        <time>2022-01-27T10:42:11.000Z</time>
      </trkpt>
      <trkpt lat="47.28405" lon="-2.41602">
        <ele>-4.4000000953674</ele>
        <time>2022-01-27T10:42:18.000Z</time>
      </trkpt>
      <trkpt lat="47.28407" lon="-2.41586">
        <ele>-4.4000000953674</ele>
        <time>2022-01-27T10:42:20.000Z</time>
      </trkpt>
      <trkpt lat="47.28409" lon="-2.41563">
        <ele>-4.4000000953674</ele>
        <time>2022-01-27T10:42:23.000Z</time>
      </trkpt>
      <trkpt lat="47.28416" lon="-2.41494">
        <ele>-4.4000000953674</ele>
        <time>2022-01-27T10:42:32.000Z</time>
      </trkpt>
      <trkpt lat="47.28416" lon="-2.41486">
        <ele>-4.4000000953674</ele>
        <time>2022-01-27T10:42:33.000Z</time>
      </trkpt>
      <trkpt lat="47.28418" lon="-2.41454">
        <ele>-4.4000000953674</ele>
        <time>2022-01-27T10:42:37.000Z</time>
      </trkpt>
      <trkpt lat="47.28419" lon="-2.41447">
        <ele>-4.4000000953674</ele>
        <time>2022-01-27T10:42:38.000Z</time>
      </trkpt>
      <trkpt lat="47.28426" lon="-2.4141">
        <ele>-4.4000000953674</ele>
        <time>2022-01-27T10:42:43.000Z</time>
      </trkpt>
      <trkpt lat="47.28429" lon="-2.41397">
        <ele>-4.4000000953674</ele>
        <time>2022-01-27T10:42:45.000Z</time>
      </trkpt>
      <trkpt lat="47.28438" lon="-2.41363">
        <ele>-4.4000000953674</ele>
        <time>2022-01-27T10:42:50.000Z</time>
      </trkpt>
      <trkpt lat="47.28449" lon="-2.41323">
        <ele>-4.4000000953674</ele>
        <time>2022-01-27T10:42:56.000Z</time>
      </trkpt>
      <trkpt lat="47.28455" lon="-2.4129">
        <ele>-4.4000000953674</ele>
        <time>2022-01-27T10:43:02.000Z</time>
      </trkpt>
      <trkpt lat="47.28455" lon="-2.41271">
        <ele>-4.4000000953674</ele>
        <time>2022-01-27T10:43:07.000Z</time>
      </trkpt>
      <trkpt lat="47.28453" lon="-2.41268">
        <ele>-4.4000000953674</ele>
        <time>2022-01-27T10:43:08.000Z</time>
      </trkpt>
      <trkpt lat="47.28438" lon="-2.41259">
        <ele>-4.4000000953674</ele>
        <time>2022-01-27T10:43:12.000Z</time>
      </trkpt>
      <trkpt lat="47.28428" lon="-2.41255">
        <ele>-4.8000001907349</ele>
        <time>2022-01-27T10:43:14.000Z</time>
      </trkpt>
      <trkpt lat="47.28423" lon="-2.41254">
        <ele>-5.1999998092651</ele>
        <time>2022-01-27T10:43:15.000Z</time>
      </trkpt>
      <trkpt lat="47.28418" lon="-2.41252">
        <ele>-5.5999999046326</ele>
        <time>2022-01-27T10:43:16.000Z</time>
      </trkpt>
      <trkpt lat="47.28414" lon="-2.41249">
        <ele>-6</ele>
        <time>2022-01-27T10:43:17.000Z</time>
      </trkpt>
      <trkpt lat="47.28409" lon="-2.41246">
        <ele>-6.4000000953674</ele>
        <time>2022-01-27T10:43:18.000Z</time>
      </trkpt>
      <trkpt lat="47.28404" lon="-2.41243">
        <ele>-6.4000000953674</ele>
        <time>2022-01-27T10:43:19.000Z</time>
      </trkpt>
      <trkpt lat="47.28391" lon="-2.41238">
        <ele>-6.4000000953674</ele>
        <time>2022-01-27T10:43:22.000Z</time>
      </trkpt>
      <trkpt lat="47.28381" lon="-2.41235">
        <ele>-6.4000000953674</ele>
        <time>2022-01-27T10:43:24.000Z</time>
      </trkpt>
      <trkpt lat="47.28372" lon="-2.41231">
        <ele>-6.4000000953674</ele>
        <time>2022-01-27T10:43:26.000Z</time>
      </trkpt>
      <trkpt lat="47.28361" lon="-2.41223">
        <ele>-6.4000000953674</ele>
        <time>2022-01-27T10:43:29.000Z</time>
      </trkpt>
      <trkpt lat="47.2836" lon="-2.4122">
        <ele>-6.4000000953674</ele>
        <time>2022-01-27T10:43:30.000Z</time>
      </trkpt>
      <trkpt lat="47.28361" lon="-2.41213">
        <ele>-6.4000000953674</ele>
        <time>2022-01-27T10:43:32.000Z</time>
      </trkpt>
      <trkpt lat="47.28361" lon="-2.41196">
        <ele>-6.4000000953674</ele>
        <time>2022-01-27T10:43:35.000Z</time>
      </trkpt>
      <trkpt lat="47.28363" lon="-2.41184">
        <ele>-6.4000000953674</ele>
        <time>2022-01-27T10:43:37.000Z</time>
      </trkpt>
      <trkpt lat="47.28369" lon="-2.41157">
        <ele>-6.4000000953674</ele>
        <time>2022-01-27T10:43:41.000Z</time>
      </trkpt>
      <trkpt lat="47.2837" lon="-2.4115">
        <ele>-6.4000000953674</ele>
        <time>2022-01-27T10:43:42.000Z</time>
      </trkpt>
      <trkpt lat="47.28383" lon="-2.41096">
        <ele>-6.4000000953674</ele>
        <time>2022-01-27T10:43:50.000Z</time>
      </trkpt>
      <trkpt lat="47.2839" lon="-2.41068">
        <ele>-6.4000000953674</ele>
        <time>2022-01-27T10:43:54.000Z</time>
      </trkpt>
      <trkpt lat="47.28393" lon="-2.41054">
        <ele>-6.4000000953674</ele>
        <time>2022-01-27T10:43:56.000Z</time>
      </trkpt>
      <trkpt lat="47.28406" lon="-2.41003">
        <ele>-6.4000000953674</ele>
        <time>2022-01-27T10:44:03.000Z</time>
      </trkpt>
      <trkpt lat="47.2842" lon="-2.40946">
        <ele>-6.4000000953674</ele>
        <time>2022-01-27T10:44:12.000Z</time>
      </trkpt>
      <trkpt lat="47.28421" lon="-2.4094">
        <ele>-6.4000000953674</ele>
        <time>2022-01-27T10:44:13.000Z</time>
      </trkpt>
      <trkpt lat="47.28426" lon="-2.40915">
        <ele>-6.4000000953674</ele>
        <time>2022-01-27T10:44:17.000Z</time>
      </trkpt>
      <trkpt lat="47.28437" lon="-2.40892">
        <ele>-6.4000000953674</ele>
        <time>2022-01-27T10:44:21.000Z</time>
      </trkpt>
      <trkpt lat="47.28448" lon="-2.40877">
        <ele>-6.4000000953674</ele>
        <time>2022-01-27T10:44:24.000Z</time>
      </trkpt>
      <trkpt lat="47.28459" lon="-2.40859">
        <ele>-6.4000000953674</ele>
        <time>2022-01-27T10:44:27.000Z</time>
      </trkpt>
      <trkpt lat="47.28489" lon="-2.40813">
        <ele>-6.4000000953674</ele>
        <time>2022-01-27T10:44:35.000Z</time>
      </trkpt>
      <trkpt lat="47.28517" lon="-2.40772">
        <ele>-6.4000000953674</ele>
        <time>2022-01-27T10:44:42.000Z</time>
      </trkpt>
      <trkpt lat="47.2855" lon="-2.40721">
        <ele>-6.4000000953674</ele>
        <time>2022-01-27T10:44:51.000Z</time>
      </trkpt>
      <trkpt lat="47.28566" lon="-2.40697">
        <ele>-6.4000000953674</ele>
        <time>2022-01-27T10:44:56.000Z</time>
      </trkpt>
      <trkpt lat="47.28568" lon="-2.40692">
        <ele>-6.4000000953674</ele>
        <time>2022-01-27T10:44:57.000Z</time>
      </trkpt>
      <trkpt lat="47.2858" lon="-2.40672">
        <ele>-6.4000000953674</ele>
        <time>2022-01-27T10:45:03.000Z</time>
      </trkpt>
      <trkpt lat="47.28596" lon="-2.4065">
        <ele>-6.4000000953674</ele>
        <time>2022-01-27T10:45:10.000Z</time>
      </trkpt>
      <trkpt lat="47.28609" lon="-2.40628">
        <ele>-6.4000000953674</ele>
        <time>2022-01-27T10:45:15.000Z</time>
      </trkpt>
      <trkpt lat="47.28615" lon="-2.40619">
        <ele>-6.4000000953674</ele>
        <time>2022-01-27T10:45:17.000Z</time>
      </trkpt>
      <trkpt lat="47.28634" lon="-2.40591">
        <ele>-6.4000000953674</ele>
        <time>2022-01-27T10:45:23.000Z</time>
      </trkpt>
      <trkpt lat="47.28648" lon="-2.40566">
        <ele>-6.4000000953674</ele>
        <time>2022-01-27T10:45:29.000Z</time>
      </trkpt>
      <trkpt lat="47.28645" lon="-2.40553">
        <ele>-6.4000000953674</ele>
        <time>2022-01-27T10:45:32.000Z</time>
      </trkpt>
      <trkpt lat="47.28629" lon="-2.4053">
        <ele>-6.4000000953674</ele>
        <time>2022-01-27T10:45:38.000Z</time>
      </trkpt>
      <trkpt lat="47.28626" lon="-2.40526">
        <ele>-6.4000000953674</ele>
        <time>2022-01-27T10:45:39.000Z</time>
      </trkpt>
      <trkpt lat="47.28613" lon="-2.40507">
        <ele>-6.4000000953674</ele>
        <time>2022-01-27T10:45:43.000Z</time>
      </trkpt>
      <trkpt lat="47.28587" lon="-2.40468">
        <ele>-6.4000000953674</ele>
        <time>2022-01-27T10:45:51.000Z</time>
      </trkpt>
      <trkpt lat="47.28585" lon="-2.40457">
        <ele>-6.4000000953674</ele>
        <time>2022-01-27T10:45:53.000Z</time>
      </trkpt>
      <trkpt lat="47.28586" lon="-2.40452">
        <ele>-6.4000000953674</ele>
        <time>2022-01-27T10:45:54.000Z</time>
      </trkpt>
      <trkpt lat="47.28594" lon="-2.40437">
        <ele>-6.4000000953674</ele>
        <time>2022-01-27T10:45:57.000Z</time>
      </trkpt>
      <trkpt lat="47.28597" lon="-2.40431">
        <ele>-6.4000000953674</ele>
        <time>2022-01-27T10:45:58.000Z</time>
      </trkpt>
      <trkpt lat="47.28622" lon="-2.40377">
        <ele>-6.4000000953674</ele>
        <time>2022-01-27T10:46:07.000Z</time>
      </trkpt>
      <trkpt lat="47.28643" lon="-2.40334">
        <ele>-6.4000000953674</ele>
        <time>2022-01-27T10:46:14.000Z</time>
      </trkpt>
      <trkpt lat="47.28665" lon="-2.40289">
        <ele>-6.4000000953674</ele>
        <time>2022-01-27T10:46:21.000Z</time>
      </trkpt>
      <trkpt lat="47.28684" lon="-2.40248">
        <ele>-6.4000000953674</ele>
        <time>2022-01-27T10:46:27.000Z</time>
      </trkpt>
      <trkpt lat="47.28703" lon="-2.40208">
        <ele>-6.4000000953674</ele>
        <time>2022-01-27T10:46:33.000Z</time>
      </trkpt>
      <trkpt lat="47.28705" lon="-2.40201">
        <ele>-6.4000000953674</ele>
        <time>2022-01-27T10:46:34.000Z</time>
      </trkpt>
      <trkpt lat="47.2871" lon="-2.40176">
        <ele>-6.4000000953674</ele>
        <time>2022-01-27T10:46:37.000Z</time>
      </trkpt>
      <trkpt lat="47.28712" lon="-2.40168">
        <ele>-6.4000000953674</ele>
        <time>2022-01-27T10:46:38.000Z</time>
      </trkpt>
      <trkpt lat="47.28722" lon="-2.40113">
        <ele>-6.4000000953674</ele>
        <time>2022-01-27T10:46:45.000Z</time>
      </trkpt>
      <trkpt lat="47.2873" lon="-2.40067">
        <ele>-6.4000000953674</ele>
        <time>2022-01-27T10:46:51.000Z</time>
      </trkpt>
      <trkpt lat="47.2874" lon="-2.40019">
        <ele>-6.4000000953674</ele>
        <time>2022-01-27T10:46:57.000Z</time>
      </trkpt>
      <trkpt lat="47.28754" lon="-2.39977">
        <ele>-6.4000000953674</ele>
        <time>2022-01-27T10:47:03.000Z</time>
      </trkpt>
      <trkpt lat="47.28771" lon="-2.39928">
        <ele>-6.4000000953674</ele>
        <time>2022-01-27T10:47:11.000Z</time>
      </trkpt>
      <trkpt lat="47.28773" lon="-2.39917">
        <ele>-6.4000000953674</ele>
        <time>2022-01-27T10:47:15.000Z</time>
      </trkpt>
      <trkpt lat="47.28776" lon="-2.39906">
        <ele>-6.4000000953674</ele>
        <time>2022-01-27T10:47:21.000Z</time>
      </trkpt>
      <trkpt lat="47.28781" lon="-2.39894">
        <ele>-6.4000000953674</ele>
        <time>2022-01-27T10:47:26.000Z</time>
      </trkpt>
      <trkpt lat="47.28782" lon="-2.39893">
        <ele>-6.4000000953674</ele>
        <time>2022-01-27T10:47:27.000Z</time>
      </trkpt>
      <trkpt lat="47.28788" lon="-2.39899">
        <ele>-6.4000000953674</ele>
        <time>2022-01-27T10:47:30.000Z</time>
      </trkpt>
      <trkpt lat="47.28793" lon="-2.39904">
        <ele>-6.4000000953674</ele>
        <time>2022-01-27T10:47:32.000Z</time>
      </trkpt>
      <trkpt lat="47.28797" lon="-2.39907">
        <ele>-6.4000000953674</ele>
        <time>2022-01-27T10:47:34.000Z</time>
      </trkpt>
      <trkpt lat="47.28798" lon="-2.39906">
        <ele>-6.4000000953674</ele>
        <time>2022-01-27T10:47:35.000Z</time>
      </trkpt>
      <trkpt lat="47.28802" lon="-2.39894">
        <ele>-6.4000000953674</ele>
        <time>2022-01-27T10:47:38.000Z</time>
      </trkpt>
      <trkpt lat="47.28804" lon="-2.39884">
        <ele>-6.4000000953674</ele>
        <time>2022-01-27T10:47:40.000Z</time>
      </trkpt>
      <trkpt lat="47.28806" lon="-2.39866">
        <ele>-6.4000000953674</ele>
        <time>2022-01-27T10:47:43.000Z</time>
      </trkpt>
      <trkpt lat="47.28808" lon="-2.39853">
        <ele>-6.4000000953674</ele>
        <time>2022-01-27T10:47:47.000Z</time>
      </trkpt>
      <trkpt lat="47.28805" lon="-2.3985">
        <ele>-6.4000000953674</ele>
        <time>2022-01-27T10:47:50.000Z</time>
      </trkpt>
      <trkpt lat="47.28804" lon="-2.39849">
        <ele>-6.4000000953674</ele>
        <time>2022-01-27T10:47:51.000Z</time>
      </trkpt>
      <trkpt lat="47.28802" lon="-2.39844">
        <ele>-6.4000000953674</ele>
        <time>2022-01-27T10:47:55.000Z</time>
      </trkpt>
      <trkpt lat="47.28807" lon="-2.39844">
        <ele>-5.5999999046326</ele>
        <time>2022-01-27T10:48:09.000Z</time>
      </trkpt>
      <trkpt lat="47.28808" lon="-2.39845">
        <ele>-5.1999998092651</ele>
        <time>2022-01-27T10:48:10.000Z</time>
      </trkpt>
      <trkpt lat="47.2881" lon="-2.39845">
        <ele>-4.8000001907349</ele>
        <time>2022-01-27T10:48:11.000Z</time>
      </trkpt>
      <trkpt lat="47.28811" lon="-2.39846">
        <ele>-4.4000000953674</ele>
        <time>2022-01-27T10:48:12.000Z</time>
      </trkpt>
      <trkpt lat="47.28812" lon="-2.39847">
        <ele>-4.4000000953674</ele>
        <time>2022-01-27T10:48:13.000Z</time>
      </trkpt>
      <trkpt lat="47.28812" lon="-2.39847">
        <ele>-4.4000000953674</ele>
        <time>2022-01-27T10:48:16.000Z</time>
      </trkpt>
      <trkpt lat="47.28811" lon="-2.39847">
        <ele>-4.4000000953674</ele>
        <time>2022-01-27T10:48:17.000Z</time>
      </trkpt>
      <trkpt lat="47.28809" lon="-2.39846">
        <ele>-4</ele>
        <time>2022-01-27T10:48:18.000Z</time>
      </trkpt>
      <trkpt lat="47.28807" lon="-2.39844">
        <ele>-3.5999999046326</ele>
        <time>2022-01-27T10:48:19.000Z</time>
      </trkpt>
      <trkpt lat="47.28806" lon="-2.39844">
        <ele>-3</ele>
        <time>2022-01-27T10:48:20.000Z</time>
      </trkpt>
      <trkpt lat="47.28804" lon="-2.39844">
        <ele>-2.5999999046326</ele>
        <time>2022-01-27T10:48:21.000Z</time>
      </trkpt>
      <trkpt lat="47.28802" lon="-2.39844">
        <ele>-2.2000000476837</ele>
        <time>2022-01-27T10:48:22.000Z</time>
      </trkpt>
      <trkpt lat="47.28802" lon="-2.39841">
        <ele>-2.2000000476837</ele>
        <time>2022-01-27T10:48:25.000Z</time>
      </trkpt>
      <trkpt lat="47.28803" lon="-2.39842">
        <ele>-2.2000000476837</ele>
        <time>2022-01-27T10:48:26.000Z</time>
      </trkpt>
      <trkpt lat="47.28804" lon="-2.39843">
        <ele>-2.2000000476837</ele>
        <time>2022-01-27T10:48:27.000Z</time>
      </trkpt>
      <trkpt lat="47.28808" lon="-2.39845">
        <ele>-1.7999999523163</ele>
        <time>2022-01-27T10:48:30.000Z</time>
      </trkpt>
      <trkpt lat="47.2881" lon="-2.39845">
        <ele>-1.3999999761581</ele>
        <time>2022-01-27T10:48:31.000Z</time>
      </trkpt>
      <trkpt lat="47.28811" lon="-2.39845">
        <ele>-1</ele>
        <time>2022-01-27T10:48:32.000Z</time>
      </trkpt>
      <trkpt lat="47.28813" lon="-2.39846">
        <ele>-0.60000002384186</ele>
        <time>2022-01-27T10:48:33.000Z</time>
      </trkpt>
      <trkpt lat="47.28815" lon="-2.39846">
        <ele>-0.20000000298023</ele>
        <time>2022-01-27T10:48:34.000Z</time>
      </trkpt>
      <trkpt lat="47.28822" lon="-2.39848">
        <ele>-0.20000000298023</ele>
        <time>2022-01-27T10:48:37.000Z</time>
      </trkpt>
      <trkpt lat="47.28822" lon="-2.3985">
        <ele>-0.20000000298023</ele>
        <time>2022-01-27T10:48:38.000Z</time>
      </trkpt>
      <trkpt lat="47.28822" lon="-2.39858">
        <ele>-0.20000000298023</ele>
        <time>2022-01-27T10:48:40.000Z</time>
      </trkpt>
      <trkpt lat="47.2882" lon="-2.39865">
        <ele>-0.20000000298023</ele>
        <time>2022-01-27T10:48:42.000Z</time>
      </trkpt>
      <trkpt lat="47.28819" lon="-2.39866">
        <ele>-0.20000000298023</ele>
        <time>2022-01-27T10:48:43.000Z</time>
      </trkpt>
      <trkpt lat="47.28818" lon="-2.39865">
        <ele>-0.20000000298023</ele>
        <time>2022-01-27T10:48:44.000Z</time>
      </trkpt>
      <trkpt lat="47.28818" lon="-2.39858">
        <ele>-0.20000000298023</ele>
        <time>2022-01-27T10:48:47.000Z</time>
      </trkpt>
      <trkpt lat="47.28819" lon="-2.39846">
        <ele>-0.60000002384186</ele>
        <time>2022-01-27T10:48:50.000Z</time>
      </trkpt>
      <trkpt lat="47.2882" lon="-2.39846">
        <ele>-1.2000000476837</ele>
        <time>2022-01-27T10:48:51.000Z</time>
      </trkpt>
      <trkpt lat="47.28821" lon="-2.39847">
        <ele>-1.6000000238419</ele>
        <time>2022-01-27T10:48:52.000Z</time>
      </trkpt>
      <trkpt lat="47.28822" lon="-2.39848">
        <ele>-2</ele>
        <time>2022-01-27T10:48:53.000Z</time>
      </trkpt>
      <trkpt lat="47.28822" lon="-2.3985">
        <ele>-2.5999999046326</ele>
        <time>2022-01-27T10:48:54.000Z</time>
      </trkpt>
      <trkpt lat="47.28822" lon="-2.39852">
        <ele>-2.5999999046326</ele>
        <time>2022-01-27T10:48:55.000Z</time>
      </trkpt>
      <trkpt lat="47.28822" lon="-2.39853">
        <ele>-2.5999999046326</ele>
        <time>2022-01-27T10:48:57.000Z</time>
      </trkpt>
      <trkpt lat="47.28822" lon="-2.39855">
        <ele>-2.5999999046326</ele>
        <time>2022-01-27T10:49:04.000Z</time>
      </trkpt>
      <trkpt lat="47.28822" lon="-2.39858">
        <ele>-2.5999999046326</ele>
        <time>2022-01-27T10:49:05.000Z</time>
      </trkpt>
      <trkpt lat="47.28822" lon="-2.39865">
        <ele>-3</ele>
        <time>2022-01-27T10:49:07.000Z</time>
      </trkpt>
      <trkpt lat="47.28823" lon="-2.39867">
        <ele>-3.4000000953674</ele>
        <time>2022-01-27T10:49:08.000Z</time>
      </trkpt>
      <trkpt lat="47.28824" lon="-2.39868">
        <ele>-3.7999999523163</ele>
        <time>2022-01-27T10:49:09.000Z</time>
      </trkpt>
      <trkpt lat="47.28826" lon="-2.39868">
        <ele>-4.4000000953674</ele>
        <time>2022-01-27T10:49:10.000Z</time>
      </trkpt>
      <trkpt lat="47.28827" lon="-2.39867">
        <ele>-4.8000001907349</ele>
        <time>2022-01-27T10:49:11.000Z</time>
      </trkpt>
      <trkpt lat="47.2883" lon="-2.39862">
        <ele>-4.8000001907349</ele>
        <time>2022-01-27T10:49:14.000Z</time>
      </trkpt>
      <trkpt lat="47.2883" lon="-2.39862">
        <ele>-4.8000001907349</ele>
        <time>2022-01-27T10:49:15.000Z</time>
      </trkpt>
      <trkpt lat="47.28831" lon="-2.39856">
        <ele>-4.8000001907349</ele>
        <time>2022-01-27T10:49:29.000Z</time>
      </trkpt>
      <trkpt lat="47.28832" lon="-2.39852">
        <ele>-4.8000001907349</ele>
        <time>2022-01-27T10:49:31.000Z</time>
      </trkpt>
      <trkpt lat="47.28834" lon="-2.39847">
        <ele>-4.8000001907349</ele>
        <time>2022-01-27T10:49:35.000Z</time>
      </trkpt>
      <trkpt lat="47.28836" lon="-2.39837">
        <ele>-4.8000001907349</ele>
        <time>2022-01-27T10:58:31.000Z</time>
      </trkpt>
      <trkpt lat="47.28841" lon="-2.39818">
        <ele>-4.8000001907349</ele>
        <time>2022-01-27T10:58:36.000Z</time>
      </trkpt>
      <trkpt lat="47.28849" lon="-2.39781">
        <ele>-4.8000001907349</ele>
        <time>2022-01-27T10:58:43.000Z</time>
      </trkpt>
      <trkpt lat="47.28861" lon="-2.39752">
        <ele>-4.8000001907349</ele>
        <time>2022-01-27T10:58:49.000Z</time>
      </trkpt>
      <trkpt lat="47.28872" lon="-2.3972">
        <ele>-4.8000001907349</ele>
        <time>2022-01-27T10:58:55.000Z</time>
      </trkpt>
      <trkpt lat="47.28884" lon="-2.39687">
        <ele>-4.8000001907349</ele>
        <time>2022-01-27T10:59:01.000Z</time>
      </trkpt>
      <trkpt lat="47.28896" lon="-2.39651">
        <ele>-4.8000001907349</ele>
        <time>2022-01-27T10:59:08.000Z</time>
      </trkpt>
      <trkpt lat="47.28904" lon="-2.39606">
        <ele>-4.8000001907349</ele>
        <time>2022-01-27T10:59:16.000Z</time>
      </trkpt>
      <trkpt lat="47.2891" lon="-2.39576">
        <ele>-4.8000001907349</ele>
        <time>2022-01-27T10:59:23.000Z</time>
      </trkpt>
      <trkpt lat="47.28912" lon="-2.39557">
        <ele>-4.8000001907349</ele>
        <time>2022-01-27T10:59:29.000Z</time>
      </trkpt>
      <trkpt lat="47.28915" lon="-2.3953">
        <ele>-4.8000001907349</ele>
        <time>2022-01-27T10:59:35.000Z</time>
      </trkpt>
      <trkpt lat="47.28921" lon="-2.39497">
        <ele>-4.8000001907349</ele>
        <time>2022-01-27T10:59:42.000Z</time>
      </trkpt>
      <trkpt lat="47.28928" lon="-2.39453">
        <ele>-4.8000001907349</ele>
        <time>2022-01-27T10:59:50.000Z</time>
      </trkpt>
      <trkpt lat="47.2893" lon="-2.3944">
        <ele>-4.4000000953674</ele>
        <time>2022-01-27T10:59:52.000Z</time>
      </trkpt>
      <trkpt lat="47.28931" lon="-2.39434">
        <ele>-4</ele>
        <time>2022-01-27T10:59:53.000Z</time>
      </trkpt>
      <trkpt lat="47.28931" lon="-2.39428">
        <ele>-3.5999999046326</ele>
        <time>2022-01-27T10:59:54.000Z</time>
      </trkpt>
      <trkpt lat="47.28932" lon="-2.39421">
        <ele>-3.2000000476837</ele>
        <time>2022-01-27T10:59:55.000Z</time>
      </trkpt>
      <trkpt lat="47.28934" lon="-2.39414">
        <ele>-2.7999999523163</ele>
        <time>2022-01-27T10:59:56.000Z</time>
      </trkpt>
      <trkpt lat="47.2894" lon="-2.39374">
        <ele>-2.7999999523163</ele>
        <time>2022-01-27T11:00:01.000Z</time>
      </trkpt>
      <trkpt lat="47.28947" lon="-2.39334">
        <ele>-2.7999999523163</ele>
        <time>2022-01-27T11:00:07.000Z</time>
      </trkpt>
      <trkpt lat="47.28948" lon="-2.3932">
        <ele>-2.7999999523163</ele>
        <time>2022-01-27T11:00:09.000Z</time>
      </trkpt>
      <trkpt lat="47.28945" lon="-2.39298">
        <ele>-2.7999999523163</ele>
        <time>2022-01-27T11:00:12.000Z</time>
      </trkpt>
      <trkpt lat="47.28943" lon="-2.3929">
        <ele>-2.7999999523163</ele>
        <time>2022-01-27T11:00:13.000Z</time>
      </trkpt>
      <trkpt lat="47.28938" lon="-2.39269">
        <ele>-2.7999999523163</ele>
        <time>2022-01-27T11:00:16.000Z</time>
      </trkpt>
      <trkpt lat="47.28936" lon="-2.39247">
        <ele>-2.7999999523163</ele>
        <time>2022-01-27T11:00:19.000Z</time>
      </trkpt>
      <trkpt lat="47.28935" lon="-2.39196">
        <ele>-2.7999999523163</ele>
        <time>2022-01-27T11:00:26.000Z</time>
      </trkpt>
      <trkpt lat="47.28936" lon="-2.39154">
        <ele>-2.7999999523163</ele>
        <time>2022-01-27T11:00:31.000Z</time>
      </trkpt>
      <trkpt lat="47.28937" lon="-2.39146">
        <ele>-2.7999999523163</ele>
        <time>2022-01-27T11:00:32.000Z</time>
      </trkpt>
      <trkpt lat="47.28946" lon="-2.39079">
        <ele>-2.7999999523163</ele>
        <time>2022-01-27T11:00:40.000Z</time>
      </trkpt>
      <trkpt lat="47.28952" lon="-2.3902">
        <ele>-2.7999999523163</ele>
        <time>2022-01-27T11:00:47.000Z</time>
      </trkpt>
      <trkpt lat="47.28954" lon="-2.38986">
        <ele>-2.7999999523163</ele>
        <time>2022-01-27T11:00:51.000Z</time>
      </trkpt>
      <trkpt lat="47.28955" lon="-2.38969">
        <ele>-2.7999999523163</ele>
        <time>2022-01-27T11:00:53.000Z</time>
      </trkpt>
      <trkpt lat="47.28959" lon="-2.38894">
        <ele>-2.7999999523163</ele>
        <time>2022-01-27T11:01:02.000Z</time>
      </trkpt>
      <trkpt lat="47.28963" lon="-2.38841">
        <ele>-2.7999999523163</ele>
        <time>2022-01-27T11:01:08.000Z</time>
      </trkpt>
      <trkpt lat="47.28963" lon="-2.38824">
        <ele>-2.7999999523163</ele>
        <time>2022-01-27T11:01:10.000Z</time>
      </trkpt>
      <trkpt lat="47.28963" lon="-2.38782">
        <ele>-2.7999999523163</ele>
        <time>2022-01-27T11:01:15.000Z</time>
      </trkpt>
      <trkpt lat="47.28962" lon="-2.38716">
        <ele>-2.7999999523163</ele>
        <time>2022-01-27T11:01:23.000Z</time>
      </trkpt>
      <trkpt lat="47.28961" lon="-2.38655">
        <ele>-2.7999999523163</ele>
        <time>2022-01-27T11:01:30.000Z</time>
      </trkpt>
      <trkpt lat="47.2896" lon="-2.3858">
        <ele>-2.7999999523163</ele>
        <time>2022-01-27T11:01:38.000Z</time>
      </trkpt>
      <trkpt lat="47.28954" lon="-2.38521">
        <ele>-2.7999999523163</ele>
        <time>2022-01-27T11:01:45.000Z</time>
      </trkpt>
      <trkpt lat="47.28946" lon="-2.38448">
        <ele>-2.7999999523163</ele>
        <time>2022-01-27T11:01:54.000Z</time>
      </trkpt>
      <trkpt lat="47.2894" lon="-2.38376">
        <ele>-2.7999999523163</ele>
        <time>2022-01-27T11:02:02.000Z</time>
      </trkpt>
      <trkpt lat="47.28938" lon="-2.3832">
        <ele>-2.7999999523163</ele>
        <time>2022-01-27T11:02:08.000Z</time>
      </trkpt>
      <trkpt lat="47.28938" lon="-2.38302">
        <ele>-2.7999999523163</ele>
        <time>2022-01-27T11:02:10.000Z</time>
      </trkpt>
      <trkpt lat="47.28941" lon="-2.38247">
        <ele>-2.7999999523163</ele>
        <time>2022-01-27T11:02:16.000Z</time>
      </trkpt>
      <trkpt lat="47.2894" lon="-2.38239">
        <ele>-2.7999999523163</ele>
        <time>2022-01-27T11:02:17.000Z</time>
      </trkpt>
      <trkpt lat="47.2893" lon="-2.3822">
        <ele>-2.7999999523163</ele>
        <time>2022-01-27T11:02:20.000Z</time>
      </trkpt>
      <trkpt lat="47.28921" lon="-2.38212">
        <ele>-2.7999999523163</ele>
        <time>2022-01-27T11:02:22.000Z</time>
      </trkpt>
      <trkpt lat="47.28911" lon="-2.38203">
        <ele>-2.7999999523163</ele>
        <time>2022-01-27T11:02:24.000Z</time>
      </trkpt>
      <trkpt lat="47.28907" lon="-2.38197">
        <ele>-2.7999999523163</ele>
        <time>2022-01-27T11:02:25.000Z</time>
      </trkpt>
      <trkpt lat="47.28904" lon="-2.38189">
        <ele>-2.4000000953674</ele>
        <time>2022-01-27T11:02:26.000Z</time>
      </trkpt>
      <trkpt lat="47.28904" lon="-2.38181">
        <ele>-2</ele>
        <time>2022-01-27T11:02:27.000Z</time>
      </trkpt>
      <trkpt lat="47.28905" lon="-2.38172">
        <ele>-1.6000000238419</ele>
        <time>2022-01-27T11:02:28.000Z</time>
      </trkpt>
      <trkpt lat="47.28905" lon="-2.38163">
        <ele>-1.2000000476837</ele>
        <time>2022-01-27T11:02:29.000Z</time>
      </trkpt>
      <trkpt lat="47.28906" lon="-2.38154">
        <ele>-0.80000001192093</ele>
        <time>2022-01-27T11:02:30.000Z</time>
      </trkpt>
      <trkpt lat="47.28908" lon="-2.38116">
        <ele>-0.80000001192093</ele>
        <time>2022-01-27T11:02:34.000Z</time>
      </trkpt>
      <trkpt lat="47.28912" lon="-2.38049">
        <ele>-0.80000001192093</ele>
        <time>2022-01-27T11:02:41.000Z</time>
      </trkpt>
      <trkpt lat="47.28914" lon="-2.38012">
        <ele>-0.80000001192093</ele>
        <time>2022-01-27T11:02:45.000Z</time>
      </trkpt>
      <trkpt lat="47.28915" lon="-2.37994">
        <ele>-0.80000001192093</ele>
        <time>2022-01-27T11:02:47.000Z</time>
      </trkpt>
      <trkpt lat="47.28919" lon="-2.37925">
        <ele>-0.80000001192093</ele>
        <time>2022-01-27T11:02:55.000Z</time>
      </trkpt>
      <trkpt lat="47.28925" lon="-2.37848">
        <ele>-0.80000001192093</ele>
        <time>2022-01-27T11:03:04.000Z</time>
      </trkpt>
      <trkpt lat="47.2893" lon="-2.37795">
        <ele>-0.80000001192093</ele>
        <time>2022-01-27T11:03:10.000Z</time>
      </trkpt>
      <trkpt lat="47.28935" lon="-2.37732">
        <ele>-0.80000001192093</ele>
        <time>2022-01-27T11:03:17.000Z</time>
      </trkpt>
      <trkpt lat="47.28938" lon="-2.37676">
        <ele>-0.80000001192093</ele>
        <time>2022-01-27T11:03:24.000Z</time>
      </trkpt>
      <trkpt lat="47.28938" lon="-2.37662">
        <ele>-0.80000001192093</ele>
        <time>2022-01-27T11:03:26.000Z</time>
      </trkpt>
      <trkpt lat="47.28934" lon="-2.37649">
        <ele>-0.80000001192093</ele>
        <time>2022-01-27T11:03:28.000Z</time>
      </trkpt>
      <trkpt lat="47.28921" lon="-2.37645">
        <ele>-0.80000001192093</ele>
        <time>2022-01-27T11:03:31.000Z</time>
      </trkpt>
      <trkpt lat="47.28916" lon="-2.37646">
        <ele>-0.80000001192093</ele>
        <time>2022-01-27T11:03:32.000Z</time>
      </trkpt>
      <trkpt lat="47.28886" lon="-2.37653">
        <ele>-0.80000001192093</ele>
        <time>2022-01-27T11:03:38.000Z</time>
      </trkpt>
      <trkpt lat="47.28871" lon="-2.37654">
        <ele>-0.80000001192093</ele>
        <time>2022-01-27T11:03:41.000Z</time>
      </trkpt>
      <trkpt lat="47.28867" lon="-2.3765">
        <ele>-0.80000001192093</ele>
        <time>2022-01-27T11:03:42.000Z</time>
      </trkpt>
      <trkpt lat="47.2886" lon="-2.37631">
        <ele>-0.80000001192093</ele>
        <time>2022-01-27T11:03:45.000Z</time>
      </trkpt>
      <trkpt lat="47.28859" lon="-2.37612">
        <ele>-0.80000001192093</ele>
        <time>2022-01-27T11:03:49.000Z</time>
      </trkpt>
      <trkpt lat="47.28864" lon="-2.37598">
        <ele>-0.80000001192093</ele>
        <time>2022-01-27T11:03:54.000Z</time>
      </trkpt>
      <trkpt lat="47.28867" lon="-2.37588">
        <ele>-0.80000001192093</ele>
        <time>2022-01-27T11:03:59.000Z</time>
      </trkpt>
      <trkpt lat="47.2887" lon="-2.37571">
        <ele>-0.80000001192093</ele>
        <time>2022-01-27T11:04:04.000Z</time>
      </trkpt>
      <trkpt lat="47.28873" lon="-2.37559">
        <ele>-0.80000001192093</ele>
        <time>2022-01-27T11:04:06.000Z</time>
      </trkpt>
      <trkpt lat="47.28875" lon="-2.37553">
        <ele>-0.80000001192093</ele>
        <time>2022-01-27T11:04:07.000Z</time>
      </trkpt>
      <trkpt lat="47.28883" lon="-2.37536">
        <ele>-0.80000001192093</ele>
        <time>2022-01-27T11:04:10.000Z</time>
      </trkpt>
      <trkpt lat="47.28884" lon="-2.37529">
        <ele>-0.40000000596046</ele>
        <time>2022-01-27T11:04:11.000Z</time>
      </trkpt>
      <trkpt lat="47.28884" lon="-2.37522">
        <ele>7.4</ele>
        <time>2022-01-27T11:04:12.000Z</time>
      </trkpt>
      <trkpt lat="47.28882" lon="-2.37515">
        <ele>0.40000000596046</ele>
        <time>2022-01-27T11:04:13.000Z</time>
      </trkpt>
      <trkpt lat="47.28881" lon="-2.37508">
        <ele>1</ele>
        <time>2022-01-27T11:04:14.000Z</time>
      </trkpt>
      <trkpt lat="47.2888" lon="-2.37501">
        <ele>1.3999999761581</ele>
        <time>2022-01-27T11:04:15.000Z</time>
      </trkpt>
      <trkpt lat="47.28877" lon="-2.37476">
        <ele>1.3999999761581</ele>
        <time>2022-01-27T11:04:18.000Z</time>
      </trkpt>
      <trkpt lat="47.28876" lon="-2.37468">
        <ele>1.3999999761581</ele>
        <time>2022-01-27T11:04:19.000Z</time>
      </trkpt>
      <trkpt lat="47.2887" lon="-2.37427">
        <ele>1.3999999761581</ele>
        <time>2022-01-27T11:04:24.000Z</time>
      </trkpt>
      <trkpt lat="47.28864" lon="-2.37369">
        <ele>1.3999999761581</ele>
        <time>2022-01-27T11:04:31.000Z</time>
      </trkpt>
      <trkpt lat="47.28861" lon="-2.37312">
        <ele>1.3999999761581</ele>
        <time>2022-01-27T11:04:38.000Z</time>
      </trkpt>
      <trkpt lat="47.2886" lon="-2.37304">
        <ele>1.3999999761581</ele>
        <time>2022-01-27T11:04:39.000Z</time>
      </trkpt>
      <trkpt lat="47.28859" lon="-2.37273">
        <ele>1.3999999761581</ele>
        <time>2022-01-27T11:04:43.000Z</time>
      </trkpt>
      <trkpt lat="47.28856" lon="-2.37251">
        <ele>1.3999999761581</ele>
        <time>2022-01-27T11:04:46.000Z</time>
      </trkpt>
      <trkpt lat="47.28851" lon="-2.37237">
        <ele>1.3999999761581</ele>
        <time>2022-01-27T11:04:48.000Z</time>
      </trkpt>
      <trkpt lat="47.28847" lon="-2.37224">
        <ele>1.3999999761581</ele>
        <time>2022-01-27T11:04:50.000Z</time>
      </trkpt>
      <trkpt lat="47.28846" lon="-2.37217">
        <ele>1.7999999523163</ele>
        <time>2022-01-27T11:04:51.000Z</time>
      </trkpt>
      <trkpt lat="47.28845" lon="-2.3721">
        <ele>2.2000000476837</ele>
        <time>2022-01-27T11:04:52.000Z</time>
      </trkpt>
      <trkpt lat="47.28844" lon="-2.37204">
        <ele>2.5999999046326</ele>
        <time>2022-01-27T11:04:53.000Z</time>
      </trkpt>
      <trkpt lat="47.28843" lon="-2.37197">
        <ele>3</ele>
        <time>2022-01-27T11:04:54.000Z</time>
      </trkpt>
      <trkpt lat="47.28842" lon="-2.3719">
        <ele>3.4000000953674</ele>
        <time>2022-01-27T11:04:55.000Z</time>
      </trkpt>
      <trkpt lat="47.28837" lon="-2.3716">
        <ele>3.4000000953674</ele>
        <time>2022-01-27T11:04:59.000Z</time>
      </trkpt>
      <trkpt lat="47.28834" lon="-2.37131">
        <ele>3.4000000953674</ele>
        <time>2022-01-27T11:05:03.000Z</time>
      </trkpt>
      <trkpt lat="47.28835" lon="-2.37116">
        <ele>3.4000000953674</ele>
        <time>2022-01-27T11:05:05.000Z</time>
      </trkpt>
      <trkpt lat="47.28837" lon="-2.37094">
        <ele>3.4000000953674</ele>
        <time>2022-01-27T11:05:08.000Z</time>
      </trkpt>
      <trkpt lat="47.28836" lon="-2.37079">
        <ele>3.4000000953674</ele>
        <time>2022-01-27T11:05:10.000Z</time>
      </trkpt>
      <trkpt lat="47.28835" lon="-2.37061">
        <ele>3.4000000953674</ele>
        <time>2022-01-27T11:05:12.000Z</time>
      </trkpt>
      <trkpt lat="47.28829" lon="-2.37046">
        <ele>3.4000000953674</ele>
        <time>2022-01-27T11:05:14.000Z</time>
      </trkpt>
      <trkpt lat="47.28815" lon="-2.37">
        <ele>3.4000000953674</ele>
        <time>2022-01-27T11:05:20.000Z</time>
      </trkpt>
      <trkpt lat="47.28806" lon="-2.36972">
        <ele>3.7999999523163</ele>
        <time>2022-01-27T11:05:24.000Z</time>
      </trkpt>
      <trkpt lat="47.28804" lon="-2.36965">
        <ele>4.1999998092651</ele>
        <time>2022-01-27T11:05:25.000Z</time>
      </trkpt>
      <trkpt lat="47.28802" lon="-2.36958">
        <ele>4.5999999046326</ele>
        <time>2022-01-27T11:05:26.000Z</time>
      </trkpt>
      <trkpt lat="47.288" lon="-2.3695">
        <ele>5</ele>
        <time>2022-01-27T11:05:27.000Z</time>
      </trkpt>
      <trkpt lat="47.28799" lon="-2.36943">
        <ele>5.4000000953674</ele>
        <time>2022-01-27T11:05:28.000Z</time>
      </trkpt>
      <trkpt lat="47.28795" lon="-2.3692">
        <ele>5.4000000953674</ele>
        <time>2022-01-27T11:05:31.000Z</time>
      </trkpt>
      <trkpt lat="47.28793" lon="-2.36915">
        <ele>5.4000000953674</ele>
        <time>2022-01-27T11:05:32.000Z</time>
      </trkpt>
      <trkpt lat="47.2878" lon="-2.36901">
        <ele>5.4000000953674</ele>
        <time>2022-01-27T11:05:36.000Z</time>
      </trkpt>
      <trkpt lat="47.28773" lon="-2.3689">
        <ele>5.8000001907349</ele>
        <time>2022-01-27T11:05:40.000Z</time>
      </trkpt>
      <trkpt lat="47.28773" lon="-2.36887">
        <ele>6.1999998092651</ele>
        <time>2022-01-27T11:05:41.000Z</time>
      </trkpt>
      <trkpt lat="47.28773" lon="-2.36884">
        <ele>6.5999999046326</ele>
        <time>2022-01-27T11:05:42.000Z</time>
      </trkpt>
      <trkpt lat="47.28774" lon="-2.36881">
        <ele>7.1999998092651</ele>
        <time>2022-01-27T11:05:43.000Z</time>
      </trkpt>
      <trkpt lat="47.28774" lon="-2.36876">
        <ele>7.5999999046326</ele>
        <time>2022-01-27T11:05:44.000Z</time>
      </trkpt>
      <trkpt lat="47.28774" lon="-2.36871">
        <ele>7.5999999046326</ele>
        <time>2022-01-27T11:05:45.000Z</time>
      </trkpt>
      <trkpt lat="47.28774" lon="-2.36853">
        <ele>8</ele>
        <time>2022-01-27T11:05:49.000Z</time>
      </trkpt>
      <trkpt lat="47.28775" lon="-2.36848">
        <ele>8.6000003814697</ele>
        <time>2022-01-27T11:05:50.000Z</time>
      </trkpt>
      <trkpt lat="47.28776" lon="-2.36843">
        <ele>9</ele>
        <time>2022-01-27T11:05:51.000Z</time>
      </trkpt>
      <trkpt lat="47.28777" lon="-2.36838">
        <ele>9.6000003814697</ele>
        <time>2022-01-27T11:05:52.000Z</time>
      </trkpt>
      <trkpt lat="47.28779" lon="-2.36833">
        <ele>10</ele>
        <time>2022-01-27T11:05:53.000Z</time>
      </trkpt>
      <trkpt lat="47.28781" lon="-2.36822">
        <ele>10.39999961853</ele>
        <time>2022-01-27T11:05:55.000Z</time>
      </trkpt>
      <trkpt lat="47.28783" lon="-2.36815">
        <ele>10.800000190735</ele>
        <time>2022-01-27T11:05:56.000Z</time>
      </trkpt>
      <trkpt lat="47.28785" lon="-2.36809">
        <ele>11.39999961853</ele>
        <time>2022-01-27T11:05:57.000Z</time>
      </trkpt>
      <trkpt lat="47.28787" lon="-2.36802">
        <ele>12.199999809265</ele>
        <time>2022-01-27T11:05:58.000Z</time>
      </trkpt>
      <trkpt lat="47.28794" lon="-2.36769">
        <ele>12.199999809265</ele>
        <time>2022-01-27T11:06:04.000Z</time>
      </trkpt>
      <trkpt lat="47.28795" lon="-2.36765">
        <ele>12.60000038147</ele>
        <time>2022-01-27T11:06:05.000Z</time>
      </trkpt>
      <trkpt lat="47.28796" lon="-2.3676">
        <ele>13</ele>
        <time>2022-01-27T11:06:06.000Z</time>
      </trkpt>
      <trkpt lat="47.28797" lon="-2.36754">
        <ele>13.39999961853</ele>
        <time>2022-01-27T11:06:07.000Z</time>
      </trkpt>
      <trkpt lat="47.28798" lon="-2.36749">
        <ele>13.800000190735</ele>
        <time>2022-01-27T11:06:08.000Z</time>
      </trkpt>
      <trkpt lat="47.28799" lon="-2.36745">
        <ele>14.199999809265</ele>
        <time>2022-01-27T11:06:09.000Z</time>
      </trkpt>
      <trkpt lat="47.28801" lon="-2.36736">
        <ele>14.199999809265</ele>
        <time>2022-01-27T11:06:11.000Z</time>
      </trkpt>
      <trkpt lat="47.28804" lon="-2.36717">
        <ele>14.800000190735</ele>
        <time>2022-01-27T11:06:16.000Z</time>
      </trkpt>
      <trkpt lat="47.28804" lon="-2.36713">
        <ele>15.199999809265</ele>
        <time>2022-01-27T11:06:17.000Z</time>
      </trkpt>
      <trkpt lat="47.28804" lon="-2.3671">
        <ele>15.60000038147</ele>
        <time>2022-01-27T11:06:18.000Z</time>
      </trkpt>
      <trkpt lat="47.28805" lon="-2.36707">
        <ele>16.200000762939</ele>
        <time>2022-01-27T11:06:19.000Z</time>
      </trkpt>
      <trkpt lat="47.28806" lon="-2.36704">
        <ele>16.60000038147</ele>
        <time>2022-01-27T11:06:20.000Z</time>
      </trkpt>
      <trkpt lat="47.28807" lon="-2.36699">
        <ele>17</ele>
        <time>2022-01-27T11:06:22.000Z</time>
      </trkpt>
      <trkpt lat="47.28807" lon="-2.36696">
        <ele>18</ele>
        <time>2022-01-27T11:06:23.000Z</time>
      </trkpt>
      <trkpt lat="47.28808" lon="-2.36693">
        <ele>18.39999961853</ele>
        <time>2022-01-27T11:06:24.000Z</time>
      </trkpt>
      <trkpt lat="47.28809" lon="-2.3669">
        <ele>18.799999237061</ele>
        <time>2022-01-27T11:06:25.000Z</time>
      </trkpt>
      <trkpt lat="47.28813" lon="-2.36677">
        <ele>19.200000762939</ele>
        <time>2022-01-27T11:06:29.000Z</time>
      </trkpt>
      <trkpt lat="47.28814" lon="-2.36673">
        <ele>19.799999237061</ele>
        <time>2022-01-27T11:06:30.000Z</time>
      </trkpt>
      <trkpt lat="47.28815" lon="-2.36669">
        <ele>20.200000762939</ele>
        <time>2022-01-27T11:06:31.000Z</time>
      </trkpt>
      <trkpt lat="47.28815" lon="-2.36666">
        <ele>20.60000038147</ele>
        <time>2022-01-27T11:06:32.000Z</time>
      </trkpt>
      <trkpt lat="47.28816" lon="-2.36663">
        <ele>21.200000762939</ele>
        <time>2022-01-27T11:06:33.000Z</time>
      </trkpt>
      <trkpt lat="47.28817" lon="-2.36656">
        <ele>21.60000038147</ele>
        <time>2022-01-27T11:06:36.000Z</time>
      </trkpt>
      <trkpt lat="47.28817" lon="-2.36653">
        <ele>22</ele>
        <time>2022-01-27T11:06:37.000Z</time>
      </trkpt>
      <trkpt lat="47.28816" lon="-2.36651">
        <ele>22.39999961853</ele>
        <time>2022-01-27T11:06:38.000Z</time>
      </trkpt>
      <trkpt lat="47.28815" lon="-2.36648">
        <ele>23</ele>
        <time>2022-01-27T11:06:39.000Z</time>
      </trkpt>
      <trkpt lat="47.28814" lon="-2.36646">
        <ele>23.39999961853</ele>
        <time>2022-01-27T11:06:40.000Z</time>
      </trkpt>
      <trkpt lat="47.28813" lon="-2.36641">
        <ele>23.39999961853</ele>
        <time>2022-01-27T11:06:42.000Z</time>
      </trkpt>
      <trkpt lat="47.28813" lon="-2.36631">
        <ele>23.799999237061</ele>
        <time>2022-01-27T11:06:45.000Z</time>
      </trkpt>
      <trkpt lat="47.28812" lon="-2.36628">
        <ele>24.200000762939</ele>
        <time>2022-01-27T11:06:46.000Z</time>
      </trkpt>
      <trkpt lat="47.28812" lon="-2.36625">
        <ele>24.60000038147</ele>
        <time>2022-01-27T11:06:47.000Z</time>
      </trkpt>
      <trkpt lat="47.28811" lon="-2.36623">
        <ele>25.39999961853</ele>
        <time>2022-01-27T11:06:48.000Z</time>
      </trkpt>
      <trkpt lat="47.28809" lon="-2.36617">
        <ele>25.39999961853</ele>
        <time>2022-01-27T11:06:50.000Z</time>
      </trkpt>
      <trkpt lat="47.28804" lon="-2.366">
        <ele>25.799999237061</ele>
        <time>2022-01-27T11:06:56.000Z</time>
      </trkpt>
      <trkpt lat="47.28804" lon="-2.36597">
        <ele>26.200000762939</ele>
        <time>2022-01-27T11:06:57.000Z</time>
      </trkpt>
      <trkpt lat="47.28803" lon="-2.36594">
        <ele>26.799999237061</ele>
        <time>2022-01-27T11:06:58.000Z</time>
      </trkpt>
      <trkpt lat="47.28803" lon="-2.36591">
        <ele>27.200000762939</ele>
        <time>2022-01-27T11:06:59.000Z</time>
      </trkpt>
      <trkpt lat="47.28802" lon="-2.36588">
        <ele>27.60000038147</ele>
        <time>2022-01-27T11:07:00.000Z</time>
      </trkpt>
      <trkpt lat="47.288" lon="-2.36574">
        <ele>27.60000038147</ele>
        <time>2022-01-27T11:07:04.000Z</time>
      </trkpt>
      <trkpt lat="47.28792" lon="-2.36556">
        <ele>27.60000038147</ele>
        <time>2022-01-27T11:07:09.000Z</time>
      </trkpt>
      <trkpt lat="47.28788" lon="-2.36544">
        <ele>28</ele>
        <time>2022-01-27T11:07:12.000Z</time>
      </trkpt>
      <trkpt lat="47.28787" lon="-2.3654">
        <ele>28.39999961853</ele>
        <time>2022-01-27T11:07:13.000Z</time>
      </trkpt>
      <trkpt lat="47.28786" lon="-2.36535">
        <ele>28.799999237061</ele>
        <time>2022-01-27T11:07:14.000Z</time>
      </trkpt>
      <trkpt lat="47.28784" lon="-2.36531">
        <ele>29.200000762939</ele>
        <time>2022-01-27T11:07:15.000Z</time>
      </trkpt>
      <trkpt lat="47.28783" lon="-2.36528">
        <ele>29.60000038147</ele>
        <time>2022-01-27T11:07:16.000Z</time>
      </trkpt>
      <trkpt lat="47.28779" lon="-2.36519">
        <ele>29.60000038147</ele>
        <time>2022-01-27T11:07:19.000Z</time>
      </trkpt>
      <trkpt lat="47.28775" lon="-2.36509">
        <ele>30</ele>
        <time>2022-01-27T11:07:22.000Z</time>
      </trkpt>
      <trkpt lat="47.28774" lon="-2.36506">
        <ele>30.39999961853</ele>
        <time>2022-01-27T11:07:23.000Z</time>
      </trkpt>
      <trkpt lat="47.28773" lon="-2.36502">
        <ele>30.799999237061</ele>
        <time>2022-01-27T11:07:24.000Z</time>
      </trkpt>
      <trkpt lat="47.28772" lon="-2.36499">
        <ele>31.39999961853</ele>
        <time>2022-01-27T11:07:25.000Z</time>
      </trkpt>
      <trkpt lat="47.28772" lon="-2.36495">
        <ele>31.799999237061</ele>
        <time>2022-01-27T11:07:26.000Z</time>
      </trkpt>
      <trkpt lat="47.28772" lon="-2.36475">
        <ele>31.799999237061</ele>
        <time>2022-01-27T11:07:31.000Z</time>
      </trkpt>
      <trkpt lat="47.28773" lon="-2.36459">
        <ele>31.799999237061</ele>
        <time>2022-01-27T11:07:36.000Z</time>
      </trkpt>
      <trkpt lat="47.28775" lon="-2.36451">
        <ele>31.799999237061</ele>
        <time>2022-01-27T11:07:38.000Z</time>
      </trkpt>
      <trkpt lat="47.2878" lon="-2.36437">
        <ele>32.200000762939</ele>
        <time>2022-01-27T11:07:41.000Z</time>
      </trkpt>
      <trkpt lat="47.28783" lon="-2.36431">
        <ele>32.599998474121</ele>
        <time>2022-01-27T11:07:42.000Z</time>
      </trkpt>
      <trkpt lat="47.28785" lon="-2.36425">
        <ele>33</ele>
        <time>2022-01-27T11:07:43.000Z</time>
      </trkpt>
      <trkpt lat="47.28786" lon="-2.36419">
        <ele>33.400001525879</ele>
        <time>2022-01-27T11:07:44.000Z</time>
      </trkpt>
      <trkpt lat="47.28787" lon="-2.36414">
        <ele>33.799999237061</ele>
        <time>2022-01-27T11:07:45.000Z</time>
      </trkpt>
      <trkpt lat="47.28791" lon="-2.36403">
        <ele>33.799999237061</ele>
        <time>2022-01-27T11:07:47.000Z</time>
      </trkpt>
      <trkpt lat="47.28801" lon="-2.36383">
        <ele>33.799999237061</ele>
        <time>2022-01-27T11:07:51.000Z</time>
      </trkpt>
      <trkpt lat="47.28804" lon="-2.36376">
        <ele>33.799999237061</ele>
        <time>2022-01-27T11:07:52.000Z</time>
      </trkpt>
      <trkpt lat="47.28822" lon="-2.36339">
        <ele>33.799999237061</ele>
        <time>2022-01-27T11:07:58.000Z</time>
      </trkpt>
      <trkpt lat="47.28825" lon="-2.36332">
        <ele>33.799999237061</ele>
        <time>2022-01-27T11:07:59.000Z</time>
      </trkpt>
      <trkpt lat="47.28827" lon="-2.36326">
        <ele>33.400001525879</ele>
        <time>2022-01-27T11:08:00.000Z</time>
      </trkpt>
      <trkpt lat="47.28826" lon="-2.3632">
        <ele>32.400001525879</ele>
        <time>2022-01-27T11:08:01.000Z</time>
      </trkpt>
      <trkpt lat="47.28824" lon="-2.36314">
        <ele>31.799999237061</ele>
        <time>2022-01-27T11:08:02.000Z</time>
      </trkpt>
      <trkpt lat="47.2882" lon="-2.36309">
        <ele>31.39999961853</ele>
        <time>2022-01-27T11:08:03.000Z</time>
      </trkpt>
      <trkpt lat="47.28816" lon="-2.36305">
        <ele>31.39999961853</ele>
        <time>2022-01-27T11:08:04.000Z</time>
      </trkpt>
      <trkpt lat="47.28801" lon="-2.36294">
        <ele>31.39999961853</ele>
        <time>2022-01-27T11:08:07.000Z</time>
      </trkpt>
      <trkpt lat="47.28793" lon="-2.36288">
        <ele>31.39999961853</ele>
        <time>2022-01-27T11:08:09.000Z</time>
      </trkpt>
      <trkpt lat="47.28768" lon="-2.36263">
        <ele>31.39999961853</ele>
        <time>2022-01-27T11:08:16.000Z</time>
      </trkpt>
      <trkpt lat="47.28748" lon="-2.36237">
        <ele>31.39999961853</ele>
        <time>2022-01-27T11:08:22.000Z</time>
      </trkpt>
      <trkpt lat="47.28743" lon="-2.36231">
        <ele>31.39999961853</ele>
        <time>2022-01-27T11:08:24.000Z</time>
      </trkpt>
      <trkpt lat="47.28739" lon="-2.36231">
        <ele>31.39999961853</ele>
        <time>2022-01-27T11:08:26.000Z</time>
      </trkpt>
      <trkpt lat="47.28733" lon="-2.36237">
        <ele>31.39999961853</ele>
        <time>2022-01-27T11:08:29.000Z</time>
      </trkpt>
      <trkpt lat="47.28731" lon="-2.36238">
        <ele>31.39999961853</ele>
        <time>2022-01-27T11:08:30.000Z</time>
      </trkpt>
      <trkpt lat="47.28728" lon="-2.36237">
        <ele>31.39999961853</ele>
        <time>2022-01-27T11:08:31.000Z</time>
      </trkpt>
      <trkpt lat="47.28718" lon="-2.36225">
        <ele>31.39999961853</ele>
        <time>2022-01-27T11:08:35.000Z</time>
      </trkpt>
      <trkpt lat="47.28711" lon="-2.36224">
        <ele>31.39999961853</ele>
        <time>2022-01-27T11:08:38.000Z</time>
      </trkpt>
      <trkpt lat="47.28701" lon="-2.36226">
        <ele>31.39999961853</ele>
        <time>2022-01-27T11:08:42.000Z</time>
      </trkpt>
      <trkpt lat="47.28696" lon="-2.36225">
        <ele>31.39999961853</ele>
        <time>2022-01-27T11:08:44.000Z</time>
      </trkpt>
      <trkpt lat="47.28692" lon="-2.36221">
        <ele>31.39999961853</ele>
        <time>2022-01-27T11:08:46.000Z</time>
      </trkpt>
      <trkpt lat="47.28689" lon="-2.36214">
        <ele>31.39999961853</ele>
        <time>2022-01-27T11:08:48.000Z</time>
      </trkpt>
      <trkpt lat="47.28683" lon="-2.362">
        <ele>31.39999961853</ele>
        <time>2022-01-27T11:08:53.000Z</time>
      </trkpt>
      <trkpt lat="47.2868" lon="-2.36197">
        <ele>31.39999961853</ele>
        <time>2022-01-27T11:08:57.000Z</time>
      </trkpt>
      <trkpt lat="47.28674" lon="-2.36181">
        <ele>31.39999961853</ele>
        <time>2022-01-27T11:09:14.000Z</time>
      </trkpt>
      <trkpt lat="47.28673" lon="-2.36177">
        <ele>31.39999961853</ele>
        <time>2022-01-27T11:09:15.000Z</time>
      </trkpt>
      <trkpt lat="47.28666" lon="-2.36149">
        <ele>31.39999961853</ele>
        <time>2022-01-27T11:09:20.000Z</time>
      </trkpt>
      <trkpt lat="47.28664" lon="-2.36141">
        <ele>31.39999961853</ele>
        <time>2022-01-27T11:09:21.000Z</time>
      </trkpt>
      <trkpt lat="47.28653" lon="-2.36113">
        <ele>31.39999961853</ele>
        <time>2022-01-27T11:09:25.000Z</time>
      </trkpt>
      <trkpt lat="47.28643" lon="-2.36093">
        <ele>31.39999961853</ele>
        <time>2022-01-27T11:09:28.000Z</time>
      </trkpt>
      <trkpt lat="47.28635" lon="-2.36082">
        <ele>31.39999961853</ele>
        <time>2022-01-27T11:09:30.000Z</time>
      </trkpt>
      <trkpt lat="47.2861" lon="-2.36057">
        <ele>31.39999961853</ele>
        <time>2022-01-27T11:09:35.000Z</time>
      </trkpt>
      <trkpt lat="47.28589" lon="-2.36025">
        <ele>31.39999961853</ele>
        <time>2022-01-27T11:09:40.000Z</time>
      </trkpt>
      <trkpt lat="47.28575" lon="-2.35988">
        <ele>31.39999961853</ele>
        <time>2022-01-27T11:09:45.000Z</time>
      </trkpt>
      <trkpt lat="47.28574" lon="-2.35981">
        <ele>31.39999961853</ele>
        <time>2022-01-27T11:09:46.000Z</time>
      </trkpt>
      <trkpt lat="47.28575" lon="-2.35972">
        <ele>31.39999961853</ele>
        <time>2022-01-27T11:09:48.000Z</time>
      </trkpt>
      <trkpt lat="47.28576" lon="-2.35954">
        <ele>31.39999961853</ele>
        <time>2022-01-27T11:09:52.000Z</time>
      </trkpt>
      <trkpt lat="47.28573" lon="-2.35941">
        <ele>31.39999961853</ele>
        <time>2022-01-27T11:09:54.000Z</time>
      </trkpt>
      <trkpt lat="47.28568" lon="-2.35923">
        <ele>31.39999961853</ele>
        <time>2022-01-27T11:09:57.000Z</time>
      </trkpt>
      <trkpt lat="47.28569" lon="-2.35913">
        <ele>31.39999961853</ele>
        <time>2022-01-27T11:09:59.000Z</time>
      </trkpt>
      <trkpt lat="47.28566" lon="-2.35908">
        <ele>31.39999961853</ele>
        <time>2022-01-27T11:10:00.000Z</time>
      </trkpt>
      <trkpt lat="47.28552" lon="-2.35902">
        <ele>31.39999961853</ele>
        <time>2022-01-27T11:10:04.000Z</time>
      </trkpt>
      <trkpt lat="47.28543" lon="-2.35909">
        <ele>31.39999961853</ele>
        <time>2022-01-27T11:10:08.000Z</time>
      </trkpt>
      <trkpt lat="47.28543" lon="-2.35911">
        <ele>31.39999961853</ele>
        <time>2022-01-27T11:10:09.000Z</time>
      </trkpt>
      <trkpt lat="47.28543" lon="-2.35912">
        <ele>31.39999961853</ele>
        <time>2022-01-27T11:10:10.000Z</time>
      </trkpt>
      <trkpt lat="47.28542" lon="-2.35914">
        <ele>31.799999237061</ele>
        <time>2022-01-27T11:10:11.000Z</time>
      </trkpt>
      <trkpt lat="47.28542" lon="-2.35917">
        <ele>32.200000762939</ele>
        <time>2022-01-27T11:10:12.000Z</time>
      </trkpt>
      <trkpt lat="47.28541" lon="-2.35919">
        <ele>32.599998474121</ele>
        <time>2022-01-27T11:10:13.000Z</time>
      </trkpt>
      <trkpt lat="47.28541" lon="-2.35921">
        <ele>33.200000762939</ele>
        <time>2022-01-27T11:10:14.000Z</time>
      </trkpt>
      <trkpt lat="47.2854" lon="-2.35924">
        <ele>33.599998474121</ele>
        <time>2022-01-27T11:10:15.000Z</time>
      </trkpt>
      <trkpt lat="47.28539" lon="-2.35928">
        <ele>34</ele>
        <time>2022-01-27T11:10:16.000Z</time>
      </trkpt>
      <trkpt lat="47.28538" lon="-2.35931">
        <ele>34.400001525879</ele>
        <time>2022-01-27T11:10:17.000Z</time>
      </trkpt>
      <trkpt lat="47.28537" lon="-2.35934">
        <ele>34.799999237061</ele>
        <time>2022-01-27T11:10:18.000Z</time>
      </trkpt>
      <trkpt lat="47.28534" lon="-2.35934">
        <ele>35.400001525879</ele>
        <time>2022-01-27T11:10:19.000Z</time>
      </trkpt>
      <trkpt lat="47.28531" lon="-2.35935">
        <ele>35.799999237061</ele>
        <time>2022-01-27T11:10:20.000Z</time>
      </trkpt>
      <trkpt lat="47.28515" lon="-2.35939">
        <ele>35.799999237061</ele>
        <time>2022-01-27T11:10:24.000Z</time>
      </trkpt>
      <trkpt lat="47.28506" lon="-2.3594">
        <ele>35.799999237061</ele>
        <time>2022-01-27T11:10:26.000Z</time>
      </trkpt>
      <trkpt lat="47.28497" lon="-2.35944">
        <ele>35.799999237061</ele>
        <time>2022-01-27T11:10:28.000Z</time>
      </trkpt>
      <trkpt lat="47.28482" lon="-2.35956">
        <ele>35.799999237061</ele>
        <time>2022-01-27T11:10:31.000Z</time>
      </trkpt>
      <trkpt lat="47.28476" lon="-2.35961">
        <ele>35.799999237061</ele>
        <time>2022-01-27T11:10:32.000Z</time>
      </trkpt>
      <trkpt lat="47.28464" lon="-2.35972">
        <ele>35.799999237061</ele>
        <time>2022-01-27T11:10:35.000Z</time>
      </trkpt>
      <trkpt lat="47.28456" lon="-2.35977">
        <ele>35.799999237061</ele>
        <time>2022-01-27T11:10:38.000Z</time>
      </trkpt>
      <trkpt lat="47.28454" lon="-2.35975">
        <ele>35.799999237061</ele>
        <time>2022-01-27T11:10:39.000Z</time>
      </trkpt>
      <trkpt lat="47.28454" lon="-2.35962">
        <ele>35.799999237061</ele>
        <time>2022-01-27T11:10:42.000Z</time>
      </trkpt>
      <trkpt lat="47.28464" lon="-2.35941">
        <ele>35.400001525879</ele>
        <time>2022-01-27T11:10:45.000Z</time>
      </trkpt>
      <trkpt lat="47.28467" lon="-2.35933">
        <ele>35</ele>
        <time>2022-01-27T11:10:46.000Z</time>
      </trkpt>
      <trkpt lat="47.28469" lon="-2.35925">
        <ele>34.599998474121</ele>
        <time>2022-01-27T11:10:47.000Z</time>
      </trkpt>
      <trkpt lat="47.28471" lon="-2.35918">
        <ele>34</ele>
        <time>2022-01-27T11:10:48.000Z</time>
      </trkpt>
      <trkpt lat="47.28473" lon="-2.35911">
        <ele>33.400001525879</ele>
        <time>2022-01-27T11:10:49.000Z</time>
      </trkpt>
      <trkpt lat="47.28472" lon="-2.35904">
        <ele>32.799999237061</ele>
        <time>2022-01-27T11:10:50.000Z</time>
      </trkpt>
      <trkpt lat="47.2847" lon="-2.35898">
        <ele>32.200000762939</ele>
        <time>2022-01-27T11:10:51.000Z</time>
      </trkpt>
      <trkpt lat="47.28467" lon="-2.35892">
        <ele>31.39999961853</ele>
        <time>2022-01-27T11:10:52.000Z</time>
      </trkpt>
      <trkpt lat="47.28464" lon="-2.35886">
        <ele>30.60000038147</ele>
        <time>2022-01-27T11:10:53.000Z</time>
      </trkpt>
      <trkpt lat="47.28461" lon="-2.35882">
        <ele>29.200000762939</ele>
        <time>2022-01-27T11:10:54.000Z</time>
      </trkpt>
      <trkpt lat="47.28457" lon="-2.35879">
        <ele>28.39999961853</ele>
        <time>2022-01-27T11:10:55.000Z</time>
      </trkpt>
      <trkpt lat="47.28454" lon="-2.35875">
        <ele>28.39999961853</ele>
        <time>2022-01-27T11:10:56.000Z</time>
      </trkpt>
      <trkpt lat="47.2845" lon="-2.35873">
        <ele>28</ele>
        <time>2022-01-27T11:10:57.000Z</time>
      </trkpt>
      <trkpt lat="47.28447" lon="-2.3587">
        <ele>27.60000038147</ele>
        <time>2022-01-27T11:10:58.000Z</time>
      </trkpt>
      <trkpt lat="47.28443" lon="-2.35866">
        <ele>27</ele>
        <time>2022-01-27T11:10:59.000Z</time>
      </trkpt>
      <trkpt lat="47.28439" lon="-2.35861">
        <ele>26.60000038147</ele>
        <time>2022-01-27T11:11:00.000Z</time>
      </trkpt>
      <trkpt lat="47.28436" lon="-2.35855">
        <ele>26.200000762939</ele>
        <time>2022-01-27T11:11:01.000Z</time>
      </trkpt>
      <trkpt lat="47.2843" lon="-2.35847">
        <ele>26.200000762939</ele>
        <time>2022-01-27T11:11:03.000Z</time>
      </trkpt>
      <trkpt lat="47.28424" lon="-2.35843">
        <ele>26.200000762939</ele>
        <time>2022-01-27T11:11:05.000Z</time>
      </trkpt>
      <trkpt lat="47.28421" lon="-2.35844">
        <ele>26.200000762939</ele>
        <time>2022-01-27T11:11:06.000Z</time>
      </trkpt>
      <trkpt lat="47.2841" lon="-2.35849">
        <ele>26.200000762939</ele>
        <time>2022-01-27T11:11:10.000Z</time>
      </trkpt>
      <trkpt lat="47.28406" lon="-2.35849">
        <ele>26.200000762939</ele>
        <time>2022-01-27T11:11:11.000Z</time>
      </trkpt>
      <trkpt lat="47.28387" lon="-2.35849">
        <ele>26.200000762939</ele>
        <time>2022-01-27T11:11:16.000Z</time>
      </trkpt>
      <trkpt lat="47.28381" lon="-2.35849">
        <ele>26.200000762939</ele>
        <time>2022-01-27T11:11:17.000Z</time>
      </trkpt>
      <trkpt lat="47.28376" lon="-2.35849">
        <ele>25.799999237061</ele>
        <time>2022-01-27T11:11:18.000Z</time>
      </trkpt>
      <trkpt lat="47.28371" lon="-2.35849">
        <ele>25</ele>
        <time>2022-01-27T11:11:19.000Z</time>
      </trkpt>
      <trkpt lat="47.28365" lon="-2.35852">
        <ele>24.60000038147</ele>
        <time>2022-01-27T11:11:20.000Z</time>
      </trkpt>
      <trkpt lat="47.2836" lon="-2.35854">
        <ele>24.200000762939</ele>
        <time>2022-01-27T11:11:21.000Z</time>
      </trkpt>
      <trkpt lat="47.28349" lon="-2.35866">
        <ele>24.200000762939</ele>
        <time>2022-01-27T11:11:24.000Z</time>
      </trkpt>
      <trkpt lat="47.28341" lon="-2.35877">
        <ele>24.200000762939</ele>
        <time>2022-01-27T11:11:27.000Z</time>
      </trkpt>
      <trkpt lat="47.28328" lon="-2.35874">
        <ele>24.200000762939</ele>
        <time>2022-01-27T11:11:32.000Z</time>
      </trkpt>
      <trkpt lat="47.28314" lon="-2.35869">
        <ele>24.200000762939</ele>
        <time>2022-01-27T11:11:38.000Z</time>
      </trkpt>
      <trkpt lat="47.28312" lon="-2.35867">
        <ele>24.200000762939</ele>
        <time>2022-01-27T11:11:39.000Z</time>
      </trkpt>
      <trkpt lat="47.28306" lon="-2.35863">
        <ele>23.799999237061</ele>
        <time>2022-01-27T11:11:42.000Z</time>
      </trkpt>
      <trkpt lat="47.28304" lon="-2.35863">
        <ele>23</ele>
        <time>2022-01-27T11:11:43.000Z</time>
      </trkpt>
      <trkpt lat="47.28302" lon="-2.35864">
        <ele>22.60000038147</ele>
        <time>2022-01-27T11:11:44.000Z</time>
      </trkpt>
      <trkpt lat="47.28298" lon="-2.35867">
        <ele>22.200000762939</ele>
        <time>2022-01-27T11:11:45.000Z</time>
      </trkpt>
      <trkpt lat="47.28284" lon="-2.35875">
        <ele>22.200000762939</ele>
        <time>2022-01-27T11:11:49.000Z</time>
      </trkpt>
      <trkpt lat="47.28277" lon="-2.35883">
        <ele>22.200000762939</ele>
        <time>2022-01-27T11:11:51.000Z</time>
      </trkpt>
      <trkpt lat="47.28274" lon="-2.35886">
        <ele>22.200000762939</ele>
        <time>2022-01-27T11:11:52.000Z</time>
      </trkpt>
      <trkpt lat="47.2827" lon="-2.35887">
        <ele>22.200000762939</ele>
        <time>2022-01-27T11:11:53.000Z</time>
      </trkpt>
      <trkpt lat="47.28249" lon="-2.35888">
        <ele>22.200000762939</ele>
        <time>2022-01-27T11:11:59.000Z</time>
      </trkpt>
      <trkpt lat="47.28231" lon="-2.35889">
        <ele>22.200000762939</ele>
        <time>2022-01-27T11:12:04.000Z</time>
      </trkpt>
      <trkpt lat="47.2823" lon="-2.35893">
        <ele>21.60000038147</ele>
        <time>2022-01-27T11:12:05.000Z</time>
      </trkpt>
      <trkpt lat="47.28228" lon="-2.35898">
        <ele>21.200000762939</ele>
        <time>2022-01-27T11:12:06.000Z</time>
      </trkpt>
      <trkpt lat="47.28227" lon="-2.35904">
        <ele>20.799999237061</ele>
        <time>2022-01-27T11:12:07.000Z</time>
      </trkpt>
      <trkpt lat="47.28225" lon="-2.35909">
        <ele>20</ele>
        <time>2022-01-27T11:12:08.000Z</time>
      </trkpt>
      <trkpt lat="47.28222" lon="-2.35914">
        <ele>20</ele>
        <time>2022-01-27T11:12:09.000Z</time>
      </trkpt>
      <trkpt lat="47.28213" lon="-2.35919">
        <ele>20</ele>
        <time>2022-01-27T11:12:12.000Z</time>
      </trkpt>
      <trkpt lat="47.2821" lon="-2.3592">
        <ele>19.60000038147</ele>
        <time>2022-01-27T11:12:13.000Z</time>
      </trkpt>
      <trkpt lat="47.28208" lon="-2.35918">
        <ele>19.200000762939</ele>
        <time>2022-01-27T11:12:14.000Z</time>
      </trkpt>
      <trkpt lat="47.28205" lon="-2.35916">
        <ele>18.60000038147</ele>
        <time>2022-01-27T11:12:15.000Z</time>
      </trkpt>
      <trkpt lat="47.28202" lon="-2.35914">
        <ele>18.200000762939</ele>
        <time>2022-01-27T11:12:16.000Z</time>
      </trkpt>
      <trkpt lat="47.28199" lon="-2.35913">
        <ele>17.799999237061</ele>
        <time>2022-01-27T11:12:17.000Z</time>
      </trkpt>
      <trkpt lat="47.28186" lon="-2.3591">
        <ele>17.799999237061</ele>
        <time>2022-01-27T11:12:21.000Z</time>
      </trkpt>
      <trkpt lat="47.28184" lon="-2.3591">
        <ele>17.799999237061</ele>
        <time>2022-01-27T11:12:22.000Z</time>
      </trkpt>
      <trkpt lat="47.28177" lon="-2.35907">
        <ele>17.799999237061</ele>
        <time>2022-01-27T11:12:25.000Z</time>
      </trkpt>
      <trkpt lat="47.28167" lon="-2.359">
        <ele>17.799999237061</ele>
        <time>2022-01-27T11:12:30.000Z</time>
      </trkpt>
      <trkpt lat="47.28157" lon="-2.35885">
        <ele>17.799999237061</ele>
        <time>2022-01-27T11:12:35.000Z</time>
      </trkpt>
      <trkpt lat="47.28145" lon="-2.35878">
        <ele>17.799999237061</ele>
        <time>2022-01-27T11:12:40.000Z</time>
      </trkpt>
      <trkpt lat="47.28138" lon="-2.35865">
        <ele>18.39999961853</ele>
        <time>2022-01-27T11:12:45.000Z</time>
      </trkpt>
      <trkpt lat="47.28136" lon="-2.35864">
        <ele>18.799999237061</ele>
        <time>2022-01-27T11:12:46.000Z</time>
      </trkpt>
      <trkpt lat="47.28134" lon="-2.35862">
        <ele>19.200000762939</ele>
        <time>2022-01-27T11:12:47.000Z</time>
      </trkpt>
      <trkpt lat="47.28132" lon="-2.35861">
        <ele>19.799999237061</ele>
        <time>2022-01-27T11:12:48.000Z</time>
      </trkpt>
      <trkpt lat="47.2813" lon="-2.35859">
        <ele>20.200000762939</ele>
        <time>2022-01-27T11:12:49.000Z</time>
      </trkpt>
      <trkpt lat="47.28119" lon="-2.35852">
        <ele>20.200000762939</ele>
        <time>2022-01-27T11:12:56.000Z</time>
      </trkpt>
      <trkpt lat="47.28115" lon="-2.35842">
        <ele>19.799999237061</ele>
        <time>2022-01-27T11:12:59.000Z</time>
      </trkpt>
      <trkpt lat="47.28114" lon="-2.35838">
        <ele>19.39999961853</ele>
        <time>2022-01-27T11:13:00.000Z</time>
      </trkpt>
      <trkpt lat="47.28112" lon="-2.35834">
        <ele>19</ele>
        <time>2022-01-27T11:13:01.000Z</time>
      </trkpt>
      <trkpt lat="47.28111" lon="-2.35831">
        <ele>18.60000038147</ele>
        <time>2022-01-27T11:13:02.000Z</time>
      </trkpt>
      <trkpt lat="47.2811" lon="-2.35829">
        <ele>18.200000762939</ele>
        <time>2022-01-27T11:13:03.000Z</time>
      </trkpt>
      <trkpt lat="47.28108" lon="-2.35828">
        <ele>18.200000762939</ele>
        <time>2022-01-27T11:13:04.000Z</time>
      </trkpt>
      <trkpt lat="47.28101" lon="-2.35823">
        <ele>18.200000762939</ele>
        <time>2022-01-27T11:13:07.000Z</time>
      </trkpt>
      <trkpt lat="47.28087" lon="-2.35815">
        <ele>18.200000762939</ele>
        <time>2022-01-27T11:13:12.000Z</time>
      </trkpt>
      <trkpt lat="47.28082" lon="-2.35807">
        <ele>18.200000762939</ele>
        <time>2022-01-27T11:13:14.000Z</time>
      </trkpt>
      <trkpt lat="47.28083" lon="-2.35802">
        <ele>18.60000038147</ele>
        <time>2022-01-27T11:13:15.000Z</time>
      </trkpt>
      <trkpt lat="47.28083" lon="-2.35797">
        <ele>19.200000762939</ele>
        <time>2022-01-27T11:13:16.000Z</time>
      </trkpt>
      <trkpt lat="47.28084" lon="-2.35791">
        <ele>19.60000038147</ele>
        <time>2022-01-27T11:13:17.000Z</time>
      </trkpt>
      <trkpt lat="47.28085" lon="-2.35786">
        <ele>20</ele>
        <time>2022-01-27T11:13:18.000Z</time>
      </trkpt>
      <trkpt lat="47.28087" lon="-2.35781">
        <ele>20.39999961853</ele>
        <time>2022-01-27T11:13:19.000Z</time>
      </trkpt>
      <trkpt lat="47.28088" lon="-2.35766">
        <ele>20.39999961853</ele>
        <time>2022-01-27T11:13:22.000Z</time>
      </trkpt>
      <trkpt lat="47.28089" lon="-2.35757">
        <ele>20.799999237061</ele>
        <time>2022-01-27T11:13:24.000Z</time>
      </trkpt>
      <trkpt lat="47.28089" lon="-2.35752">
        <ele>21.200000762939</ele>
        <time>2022-01-27T11:13:25.000Z</time>
      </trkpt>
      <trkpt lat="47.2809" lon="-2.35745">
        <ele>21.799999237061</ele>
        <time>2022-01-27T11:13:26.000Z</time>
      </trkpt>
      <trkpt lat="47.2809" lon="-2.35738">
        <ele>22.200000762939</ele>
        <time>2022-01-27T11:13:27.000Z</time>
      </trkpt>
      <trkpt lat="47.28089" lon="-2.35732">
        <ele>22.60000038147</ele>
        <time>2022-01-27T11:13:28.000Z</time>
      </trkpt>
      <trkpt lat="47.28088" lon="-2.35706">
        <ele>22.60000038147</ele>
        <time>2022-01-27T11:13:33.000Z</time>
      </trkpt>
      <trkpt lat="47.28087" lon="-2.35693">
        <ele>22.60000038147</ele>
        <time>2022-01-27T11:13:35.000Z</time>
      </trkpt>
      <trkpt lat="47.28083" lon="-2.35669">
        <ele>22.60000038147</ele>
        <time>2022-01-27T11:13:38.000Z</time>
      </trkpt>
      <trkpt lat="47.28081" lon="-2.35662">
        <ele>22.60000038147</ele>
        <time>2022-01-27T11:13:39.000Z</time>
      </trkpt>
      <trkpt lat="47.28077" lon="-2.35646">
        <ele>22</ele>
        <time>2022-01-27T11:13:42.000Z</time>
      </trkpt>
      <trkpt lat="47.28076" lon="-2.35642">
        <ele>21.60000038147</ele>
        <time>2022-01-27T11:13:43.000Z</time>
      </trkpt>
      <trkpt lat="47.28077" lon="-2.35638">
        <ele>21</ele>
        <time>2022-01-27T11:13:44.000Z</time>
      </trkpt>
      <trkpt lat="47.28077" lon="-2.35635">
        <ele>20.39999961853</ele>
        <time>2022-01-27T11:13:45.000Z</time>
      </trkpt>
      <trkpt lat="47.28078" lon="-2.35633">
        <ele>20</ele>
        <time>2022-01-27T11:13:46.000Z</time>
      </trkpt>
      <trkpt lat="47.28079" lon="-2.35631">
        <ele>19</ele>
        <time>2022-01-27T11:13:47.000Z</time>
      </trkpt>
      <trkpt lat="47.2808" lon="-2.3563">
        <ele>18.60000038147</ele>
        <time>2022-01-27T11:13:48.000Z</time>
      </trkpt>
      <trkpt lat="47.28082" lon="-2.35629">
        <ele>18.200000762939</ele>
        <time>2022-01-27T11:13:49.000Z</time>
      </trkpt>
      <trkpt lat="47.28083" lon="-2.35629">
        <ele>17.799999237061</ele>
        <time>2022-01-27T11:13:50.000Z</time>
      </trkpt>
      <trkpt lat="47.28084" lon="-2.35629">
        <ele>17.799999237061</ele>
        <time>2022-01-27T11:13:51.000Z</time>
      </trkpt>
      <trkpt lat="47.28079" lon="-2.35614">
        <ele>17.799999237061</ele>
        <time>2022-01-27T11:19:17.000Z</time>
      </trkpt>
      <trkpt lat="47.2807" lon="-2.35594">
        <ele>17.799999237061</ele>
        <time>2022-01-27T11:19:24.000Z</time>
      </trkpt>
      <trkpt lat="47.28055" lon="-2.35586">
        <ele>17.799999237061</ele>
        <time>2022-01-27T11:19:29.000Z</time>
      </trkpt>
      <trkpt lat="47.28037" lon="-2.35577">
        <ele>17.39999961853</ele>
        <time>2022-01-27T11:19:34.000Z</time>
      </trkpt>
      <trkpt lat="47.28033" lon="-2.35575">
        <ele>17</ele>
        <time>2022-01-27T11:19:35.000Z</time>
      </trkpt>
      <trkpt lat="47.28029" lon="-2.35573">
        <ele>16.39999961853</ele>
        <time>2022-01-27T11:19:36.000Z</time>
      </trkpt>
      <trkpt lat="47.28024" lon="-2.3557">
        <ele>16</ele>
        <time>2022-01-27T11:19:37.000Z</time>
      </trkpt>
      <trkpt lat="47.2802" lon="-2.35569">
        <ele>15.60000038147</ele>
        <time>2022-01-27T11:19:38.000Z</time>
      </trkpt>
      <trkpt lat="47.28012" lon="-2.3557">
        <ele>15.60000038147</ele>
        <time>2022-01-27T11:19:40.000Z</time>
      </trkpt>
      <trkpt lat="47.2799" lon="-2.35577">
        <ele>15.60000038147</ele>
        <time>2022-01-27T11:19:46.000Z</time>
      </trkpt>
      <trkpt lat="47.27971" lon="-2.35581">
        <ele>15.60000038147</ele>
        <time>2022-01-27T11:19:52.000Z</time>
      </trkpt>
      <trkpt lat="47.2795" lon="-2.35585">
        <ele>15.60000038147</ele>
        <time>2022-01-27T11:19:58.000Z</time>
      </trkpt>
      <trkpt lat="47.2793" lon="-2.35589">
        <ele>15.60000038147</ele>
        <time>2022-01-27T11:20:03.000Z</time>
      </trkpt>
      <trkpt lat="47.27917" lon="-2.35592">
        <ele>15.199999809265</ele>
        <time>2022-01-27T11:20:06.000Z</time>
      </trkpt>
      <trkpt lat="47.27913" lon="-2.35592">
        <ele>14.800000190735</ele>
        <time>2022-01-27T11:20:07.000Z</time>
      </trkpt>
      <trkpt lat="47.2791" lon="-2.35593">
        <ele>14.39999961853</ele>
        <time>2022-01-27T11:20:08.000Z</time>
      </trkpt>
      <trkpt lat="47.27906" lon="-2.35594">
        <ele>14</ele>
        <time>2022-01-27T11:20:09.000Z</time>
      </trkpt>
      <trkpt lat="47.27902" lon="-2.35595">
        <ele>13.60000038147</ele>
        <time>2022-01-27T11:20:10.000Z</time>
      </trkpt>
      <trkpt lat="47.27874" lon="-2.356">
        <ele>13.60000038147</ele>
        <time>2022-01-27T11:20:16.000Z</time>
      </trkpt>
      <trkpt lat="47.27841" lon="-2.35608">
        <ele>12.800000190735</ele>
        <time>2022-01-27T11:20:22.000Z</time>
      </trkpt>
      <trkpt lat="47.27835" lon="-2.3561">
        <ele>12.39999961853</ele>
        <time>2022-01-27T11:20:23.000Z</time>
      </trkpt>
      <trkpt lat="47.2783" lon="-2.35612">
        <ele>11.800000190735</ele>
        <time>2022-01-27T11:20:24.000Z</time>
      </trkpt>
      <trkpt lat="47.27824" lon="-2.35613">
        <ele>11.39999961853</ele>
        <time>2022-01-27T11:20:25.000Z</time>
      </trkpt>
      <trkpt lat="47.27802" lon="-2.35621">
        <ele>11.39999961853</ele>
        <time>2022-01-27T11:20:29.000Z</time>
      </trkpt>
      <trkpt lat="47.27775" lon="-2.35637">
        <ele>11</ele>
        <time>2022-01-27T11:20:34.000Z</time>
      </trkpt>
      <trkpt lat="47.2777" lon="-2.35641">
        <ele>10.60000038147</ele>
        <time>2022-01-27T11:20:35.000Z</time>
      </trkpt>
      <trkpt lat="47.27766" lon="-2.35645">
        <ele>10.199999809265</ele>
        <time>2022-01-27T11:20:36.000Z</time>
      </trkpt>
      <trkpt lat="47.27762" lon="-2.3565">
        <ele>9.8000001907349</ele>
        <time>2022-01-27T11:20:37.000Z</time>
      </trkpt>
      <trkpt lat="47.27758" lon="-2.35655">
        <ele>9.3999996185303</ele>
        <time>2022-01-27T11:20:38.000Z</time>
      </trkpt>
      <trkpt lat="47.2775" lon="-2.35666">
        <ele>9.3999996185303</ele>
        <time>2022-01-27T11:20:40.000Z</time>
      </trkpt>
      <trkpt lat="47.27718" lon="-2.35712">
        <ele>9.3999996185303</ele>
        <time>2022-01-27T11:20:48.000Z</time>
      </trkpt>
      <trkpt lat="47.27713" lon="-2.35717">
        <ele>8.8000001907349</ele>
        <time>2022-01-27T11:20:49.000Z</time>
      </trkpt>
      <trkpt lat="47.27708" lon="-2.35722">
        <ele>8.3999996185303</ele>
        <time>2022-01-27T11:20:50.000Z</time>
      </trkpt>
      <trkpt lat="47.27703" lon="-2.35726">
        <ele>8</ele>
        <time>2022-01-27T11:20:51.000Z</time>
      </trkpt>
      <trkpt lat="47.27697" lon="-2.3573">
        <ele>7.5999999046326</ele>
        <time>2022-01-27T11:20:52.000Z</time>
      </trkpt>
      <trkpt lat="47.27692" lon="-2.35734">
        <ele>7.1999998092651</ele>
        <time>2022-01-27T11:20:53.000Z</time>
      </trkpt>
      <trkpt lat="47.27682" lon="-2.35745">
        <ele>7.1999998092651</ele>
        <time>2022-01-27T11:20:55.000Z</time>
      </trkpt>
      <trkpt lat="47.27677" lon="-2.35748">
        <ele>7.1999998092651</ele>
        <time>2022-01-27T11:20:56.000Z</time>
      </trkpt>
      <trkpt lat="47.27671" lon="-2.35746">
        <ele>7.1999998092651</ele>
        <time>2022-01-27T11:20:57.000Z</time>
      </trkpt>
      <trkpt lat="47.27663" lon="-2.35737">
        <ele>6.8000001907349</ele>
        <time>2022-01-27T11:20:59.000Z</time>
      </trkpt>
      <trkpt lat="47.27659" lon="-2.35731">
        <ele>6.4000000953674</ele>
        <time>2022-01-27T11:21:00.000Z</time>
      </trkpt>
      <trkpt lat="47.27656" lon="-2.35727">
        <ele>6</ele>
        <time>2022-01-27T11:21:01.000Z</time>
      </trkpt>
      <trkpt lat="47.27651" lon="-2.35724">
        <ele>5.5999999046326</ele>
        <time>2022-01-27T11:21:02.000Z</time>
      </trkpt>
      <trkpt lat="47.27646" lon="-2.35722">
        <ele>5.1999998092651</ele>
        <time>2022-01-27T11:21:03.000Z</time>
      </trkpt>
      <trkpt lat="47.27635" lon="-2.35719">
        <ele>5.1999998092651</ele>
        <time>2022-01-27T11:21:05.000Z</time>
      </trkpt>
      <trkpt lat="47.27606" lon="-2.3571">
        <ele>5.1999998092651</ele>
        <time>2022-01-27T11:21:10.000Z</time>
      </trkpt>
      <trkpt lat="47.27571" lon="-2.35703">
        <ele>4.8000001907349</ele>
        <time>2022-01-27T11:21:16.000Z</time>
      </trkpt>
      <trkpt lat="47.27565" lon="-2.35701">
        <ele>4.4000000953674</ele>
        <time>2022-01-27T11:21:17.000Z</time>
      </trkpt>
      <trkpt lat="47.2756" lon="-2.357">
        <ele>4</ele>
        <time>2022-01-27T11:21:18.000Z</time>
      </trkpt>
      <trkpt lat="47.27554" lon="-2.35698">
        <ele>3.5999999046326</ele>
        <time>2022-01-27T11:21:19.000Z</time>
      </trkpt>
      <trkpt lat="47.27548" lon="-2.35697">
        <ele>3.2000000476837</ele>
        <time>2022-01-27T11:21:20.000Z</time>
      </trkpt>
      <trkpt lat="47.27532" lon="-2.35692">
        <ele>3.2000000476837</ele>
        <time>2022-01-27T11:21:23.000Z</time>
      </trkpt>
      <trkpt lat="47.27521" lon="-2.35689">
        <ele>3.2000000476837</ele>
        <time>2022-01-27T11:21:25.000Z</time>
      </trkpt>
      <trkpt lat="47.27504" lon="-2.35684">
        <ele>3.2000000476837</ele>
        <time>2022-01-27T11:21:28.000Z</time>
      </trkpt>
      <trkpt lat="47.27475" lon="-2.35677">
        <ele>2.7999999523163</ele>
        <time>2022-01-27T11:21:33.000Z</time>
      </trkpt>
      <trkpt lat="47.27469" lon="-2.35676">
        <ele>2.4000000953674</ele>
        <time>2022-01-27T11:21:34.000Z</time>
      </trkpt>
      <trkpt lat="47.27464" lon="-2.35675">
        <ele>2</ele>
        <time>2022-01-27T11:21:35.000Z</time>
      </trkpt>
      <trkpt lat="47.27458" lon="-2.35674">
        <ele>1.2000000476837</ele>
        <time>2022-01-27T11:21:36.000Z</time>
      </trkpt>
      <trkpt lat="47.27435" lon="-2.35667">
        <ele>1.2000000476837</ele>
        <time>2022-01-27T11:21:40.000Z</time>
      </trkpt>
      <trkpt lat="47.2743" lon="-2.35665">
        <ele>1.2000000476837</ele>
        <time>2022-01-27T11:21:41.000Z</time>
      </trkpt>
      <trkpt lat="47.2742" lon="-2.35663">
        <ele>1.2000000476837</ele>
        <time>2022-01-27T11:21:43.000Z</time>
      </trkpt>
      <trkpt lat="47.2741" lon="-2.35665">
        <ele>1.2000000476837</ele>
        <time>2022-01-27T11:21:45.000Z</time>
      </trkpt>
      <trkpt lat="47.27392" lon="-2.35675">
        <ele>1.2000000476837</ele>
        <time>2022-01-27T11:21:48.000Z</time>
      </trkpt>
      <trkpt lat="47.27381" lon="-2.35682">
        <ele>1.2000000476837</ele>
        <time>2022-01-27T11:21:50.000Z</time>
      </trkpt>
      <trkpt lat="47.27376" lon="-2.35686">
        <ele>1.2000000476837</ele>
        <time>2022-01-27T11:21:51.000Z</time>
      </trkpt>
      <trkpt lat="47.27354" lon="-2.35704">
        <ele>1.2000000476837</ele>
        <time>2022-01-27T11:21:55.000Z</time>
      </trkpt>
      <trkpt lat="47.27333" lon="-2.35721">
        <ele>1.2000000476837</ele>
        <time>2022-01-27T11:21:59.000Z</time>
      </trkpt>
      <trkpt lat="47.27329" lon="-2.35726">
        <ele>1.2000000476837</ele>
        <time>2022-01-27T11:22:00.000Z</time>
      </trkpt>
      <trkpt lat="47.27316" lon="-2.35743">
        <ele>1.2000000476837</ele>
        <time>2022-01-27T11:22:04.000Z</time>
      </trkpt>
      <trkpt lat="47.27305" lon="-2.35733">
        <ele>1.2000000476837</ele>
        <time>2022-01-27T11:22:07.000Z</time>
      </trkpt>
      <trkpt lat="47.27301" lon="-2.35721">
        <ele>1.2000000476837</ele>
        <time>2022-01-27T11:22:09.000Z</time>
      </trkpt>
      <trkpt lat="47.27292" lon="-2.35697">
        <ele>1.2000000476837</ele>
        <time>2022-01-27T11:22:13.000Z</time>
      </trkpt>
      <trkpt lat="47.27268" lon="-2.35643">
        <ele>1.2000000476837</ele>
        <time>2022-01-27T11:22:22.000Z</time>
      </trkpt>
      <trkpt lat="47.2725" lon="-2.35602">
        <ele>1.2000000476837</ele>
        <time>2022-01-27T11:22:29.000Z</time>
      </trkpt>
      <trkpt lat="47.27225" lon="-2.35548">
        <ele>1.2000000476837</ele>
        <time>2022-01-27T11:22:38.000Z</time>
      </trkpt>
      <trkpt lat="47.27203" lon="-2.355">
        <ele>1.2000000476837</ele>
        <time>2022-01-27T11:22:46.000Z</time>
      </trkpt>
      <trkpt lat="47.27185" lon="-2.35464">
        <ele>1.2000000476837</ele>
        <time>2022-01-27T11:22:52.000Z</time>
      </trkpt>
      <trkpt lat="47.27161" lon="-2.35415">
        <ele>1.2000000476837</ele>
        <time>2022-01-27T11:23:00.000Z</time>
      </trkpt>
      <trkpt lat="47.2713" lon="-2.35361">
        <ele>1.2000000476837</ele>
        <time>2022-01-27T11:23:09.000Z</time>
      </trkpt>
      <trkpt lat="47.27098" lon="-2.35309">
        <ele>1.2000000476837</ele>
        <time>2022-01-27T11:23:18.000Z</time>
      </trkpt>
      <trkpt lat="47.2706" lon="-2.35251">
        <ele>1.2000000476837</ele>
        <time>2022-01-27T11:23:28.000Z</time>
      </trkpt>
      <trkpt lat="47.27031" lon="-2.35205">
        <ele>1.2000000476837</ele>
        <time>2022-01-27T11:23:36.000Z</time>
      </trkpt>
      <trkpt lat="47.27002" lon="-2.3516">
        <ele>1.2000000476837</ele>
        <time>2022-01-27T11:23:44.000Z</time>
      </trkpt>
      <trkpt lat="47.26962" lon="-2.351">
        <ele>1.2000000476837</ele>
        <time>2022-01-27T11:23:55.000Z</time>
      </trkpt>
      <trkpt lat="47.26926" lon="-2.35046">
        <ele>1.2000000476837</ele>
        <time>2022-01-27T11:24:05.000Z</time>
      </trkpt>
      <trkpt lat="47.269" lon="-2.35007">
        <ele>1.2000000476837</ele>
        <time>2022-01-27T11:24:12.000Z</time>
      </trkpt>
      <trkpt lat="47.26871" lon="-2.34964">
        <ele>1.2000000476837</ele>
        <time>2022-01-27T11:24:20.000Z</time>
      </trkpt>
      <trkpt lat="47.26841" lon="-2.34918">
        <ele>1.2000000476837</ele>
        <time>2022-01-27T11:24:28.000Z</time>
      </trkpt>
      <trkpt lat="47.2681" lon="-2.34873">
        <ele>1.2000000476837</ele>
        <time>2022-01-27T11:24:36.000Z</time>
      </trkpt>
      <trkpt lat="47.26776" lon="-2.34822">
        <ele>1.2000000476837</ele>
        <time>2022-01-27T11:24:45.000Z</time>
      </trkpt>
      <trkpt lat="47.26767" lon="-2.34813">
        <ele>1.2000000476837</ele>
        <time>2022-01-27T11:24:47.000Z</time>
      </trkpt>
      <trkpt lat="47.2676" lon="-2.34802">
        <ele>1.2000000476837</ele>
        <time>2022-01-27T11:24:49.000Z</time>
      </trkpt>
      <trkpt lat="47.26731" lon="-2.34764">
        <ele>1.2000000476837</ele>
        <time>2022-01-27T11:24:56.000Z</time>
      </trkpt>
      <trkpt lat="47.26707" lon="-2.34734">
        <ele>1.2000000476837</ele>
        <time>2022-01-27T11:25:02.000Z</time>
      </trkpt>
      <trkpt lat="47.2667" lon="-2.34689">
        <ele>1.2000000476837</ele>
        <time>2022-01-27T11:25:11.000Z</time>
      </trkpt>
      <trkpt lat="47.26634" lon="-2.34644">
        <ele>1.2000000476837</ele>
        <time>2022-01-27T11:25:20.000Z</time>
      </trkpt>
      <trkpt lat="47.26605" lon="-2.34608">
        <ele>1.2000000476837</ele>
        <time>2022-01-27T11:25:27.000Z</time>
      </trkpt>
      <trkpt lat="47.26576" lon="-2.34575">
        <ele>1.2000000476837</ele>
        <time>2022-01-27T11:25:34.000Z</time>
      </trkpt>
      <trkpt lat="47.2654" lon="-2.34538">
        <ele>1.2000000476837</ele>
        <time>2022-01-27T11:25:42.000Z</time>
      </trkpt>
      <trkpt lat="47.26505" lon="-2.3451">
        <ele>1.2000000476837</ele>
        <time>2022-01-27T11:25:49.000Z</time>
      </trkpt>
      <trkpt lat="47.26461" lon="-2.34481">
        <ele>1.2000000476837</ele>
        <time>2022-01-27T11:25:58.000Z</time>
      </trkpt>
      <trkpt lat="47.26422" lon="-2.34453">
        <ele>1.2000000476837</ele>
        <time>2022-01-27T11:26:06.000Z</time>
      </trkpt>
      <trkpt lat="47.26394" lon="-2.34431">
        <ele>1.2000000476837</ele>
        <time>2022-01-27T11:26:12.000Z</time>
      </trkpt>
      <trkpt lat="47.26353" lon="-2.34394">
        <ele>1.2000000476837</ele>
        <time>2022-01-27T11:26:21.000Z</time>
      </trkpt>
      <trkpt lat="47.26339" lon="-2.34383">
        <ele>1.2000000476837</ele>
        <time>2022-01-27T11:26:24.000Z</time>
      </trkpt>
      <trkpt lat="47.26328" lon="-2.34381">
        <ele>1.2000000476837</ele>
        <time>2022-01-27T11:26:26.000Z</time>
      </trkpt>
      <trkpt lat="47.26316" lon="-2.34368">
        <ele>1.2000000476837</ele>
        <time>2022-01-27T11:26:29.000Z</time>
      </trkpt>
      <trkpt lat="47.26297" lon="-2.34342">
        <ele>1.2000000476837</ele>
        <time>2022-01-27T11:26:34.000Z</time>
      </trkpt>
      <trkpt lat="47.26267" lon="-2.34311">
        <ele>1.2000000476837</ele>
        <time>2022-01-27T11:26:41.000Z</time>
      </trkpt>
      <trkpt lat="47.26242" lon="-2.34283">
        <ele>1.2000000476837</ele>
        <time>2022-01-27T11:26:47.000Z</time>
      </trkpt>
      <trkpt lat="47.26216" lon="-2.34256">
        <ele>1.2000000476837</ele>
        <time>2022-01-27T11:26:53.000Z</time>
      </trkpt>
      <trkpt lat="47.26181" lon="-2.34219">
        <ele>1.2000000476837</ele>
        <time>2022-01-27T11:27:01.000Z</time>
      </trkpt>
      <trkpt lat="47.26157" lon="-2.34195">
        <ele>1.2000000476837</ele>
        <time>2022-01-27T11:27:07.000Z</time>
      </trkpt>
      <trkpt lat="47.26143" lon="-2.34185">
        <ele>1.2000000476837</ele>
        <time>2022-01-27T11:27:10.000Z</time>
      </trkpt>
      <trkpt lat="47.26133" lon="-2.34181">
        <ele>1.2000000476837</ele>
        <time>2022-01-27T11:27:12.000Z</time>
      </trkpt>
      <trkpt lat="47.26119" lon="-2.34166">
        <ele>1.2000000476837</ele>
        <time>2022-01-27T11:27:15.000Z</time>
      </trkpt>
      <trkpt lat="47.26104" lon="-2.34156">
        <ele>1.2000000476837</ele>
        <time>2022-01-27T11:27:18.000Z</time>
      </trkpt>
      <trkpt lat="47.26098" lon="-2.34153">
        <ele>1.2000000476837</ele>
        <time>2022-01-27T11:27:19.000Z</time>
      </trkpt>
      <trkpt lat="47.26066" lon="-2.34136">
        <ele>1.2000000476837</ele>
        <time>2022-01-27T11:27:25.000Z</time>
      </trkpt>
      <trkpt lat="47.2604" lon="-2.34122">
        <ele>1.2000000476837</ele>
        <time>2022-01-27T11:27:30.000Z</time>
      </trkpt>
      <trkpt lat="47.26002" lon="-2.34103">
        <ele>1.2000000476837</ele>
        <time>2022-01-27T11:27:37.000Z</time>
      </trkpt>
      <trkpt lat="47.25966" lon="-2.34086">
        <ele>1.2000000476837</ele>
        <time>2022-01-27T11:27:44.000Z</time>
      </trkpt>
      <trkpt lat="47.25928" lon="-2.34072">
        <ele>1.2000000476837</ele>
        <time>2022-01-27T11:27:51.000Z</time>
      </trkpt>
      <trkpt lat="47.25923" lon="-2.34072">
        <ele>1.2000000476837</ele>
        <time>2022-01-27T11:27:52.000Z</time>
      </trkpt>
      <trkpt lat="47.25912" lon="-2.34068">
        <ele>1.2000000476837</ele>
        <time>2022-01-27T11:27:54.000Z</time>
      </trkpt>
      <trkpt lat="47.25903" lon="-2.34058">
        <ele>1.2000000476837</ele>
        <time>2022-01-27T11:27:56.000Z</time>
      </trkpt>
      <trkpt lat="47.25901" lon="-2.34035">
        <ele>1.2000000476837</ele>
        <time>2022-01-27T11:27:59.000Z</time>
      </trkpt>
      <trkpt lat="47.25907" lon="-2.34013">
        <ele>1.2000000476837</ele>
        <time>2022-01-27T11:28:02.000Z</time>
      </trkpt>
      <trkpt lat="47.2591" lon="-2.34004">
        <ele>1.2000000476837</ele>
        <time>2022-01-27T11:28:03.000Z</time>
      </trkpt>
      <trkpt lat="47.25913" lon="-2.33996">
        <ele>1.2000000476837</ele>
        <time>2022-01-27T11:28:04.000Z</time>
      </trkpt>
      <trkpt lat="47.25926" lon="-2.33957">
        <ele>1.2000000476837</ele>
        <time>2022-01-27T11:28:09.000Z</time>
      </trkpt>
      <trkpt lat="47.25938" lon="-2.33932">
        <ele>0.60000002384186</ele>
        <time>2022-01-27T11:28:13.000Z</time>
      </trkpt>
      <trkpt lat="47.25941" lon="-2.33927">
        <ele>0.20000000298023</ele>
        <time>2022-01-27T11:28:14.000Z</time>
      </trkpt>
      <trkpt lat="47.25944" lon="-2.33923">
        <ele>-0.20000000298023</ele>
        <time>2022-01-27T11:28:15.000Z</time>
      </trkpt>
      <trkpt lat="47.25946" lon="-2.33919">
        <ele>-0.60000002384186</ele>
        <time>2022-01-27T11:28:16.000Z</time>
      </trkpt>
      <trkpt lat="47.25948" lon="-2.33913">
        <ele>-1</ele>
        <time>2022-01-27T11:28:17.000Z</time>
      </trkpt>
      <trkpt lat="47.25952" lon="-2.33903">
        <ele>-1</ele>
        <time>2022-01-27T11:28:19.000Z</time>
      </trkpt>
      <trkpt lat="47.25961" lon="-2.33893">
        <ele>-1</ele>
        <time>2022-01-27T11:28:22.000Z</time>
      </trkpt>
      <trkpt lat="47.25965" lon="-2.3389">
        <ele>-1</ele>
        <time>2022-01-27T11:28:23.000Z</time>
      </trkpt>
      <trkpt lat="47.25968" lon="-2.33886">
        <ele>-1</ele>
        <time>2022-01-27T11:28:24.000Z</time>
      </trkpt>
      <trkpt lat="47.25974" lon="-2.33868">
        <ele>-1</ele>
        <time>2022-01-27T11:28:27.000Z</time>
      </trkpt>
      <trkpt lat="47.25978" lon="-2.33854">
        <ele>-1</ele>
        <time>2022-01-27T11:28:29.000Z</time>
      </trkpt>
      <trkpt lat="47.2599" lon="-2.3382">
        <ele>-1</ele>
        <time>2022-01-27T11:28:34.000Z</time>
      </trkpt>
      <trkpt lat="47.26008" lon="-2.33771">
        <ele>-1</ele>
        <time>2022-01-27T11:28:41.000Z</time>
      </trkpt>
      <trkpt lat="47.26027" lon="-2.3372">
        <ele>-1</ele>
        <time>2022-01-27T11:28:49.000Z</time>
      </trkpt>
      <trkpt lat="47.26033" lon="-2.33703">
        <ele>-1</ele>
        <time>2022-01-27T11:28:52.000Z</time>
      </trkpt>
      <trkpt lat="47.26036" lon="-2.3369">
        <ele>-1</ele>
        <time>2022-01-27T11:28:55.000Z</time>
      </trkpt>
      <trkpt lat="47.26037" lon="-2.33689">
        <ele>-1</ele>
        <time>2022-01-27T11:28:56.000Z</time>
      </trkpt>
      <trkpt lat="47.2604" lon="-2.33684">
        <ele>-1</ele>
        <time>2022-01-27T11:29:00.000Z</time>
      </trkpt>
      <trkpt lat="47.26047" lon="-2.33685">
        <ele>-1</ele>
        <time>2022-01-27T11:29:03.000Z</time>
      </trkpt>
      <trkpt lat="47.2605" lon="-2.33674">
        <ele>-1</ele>
        <time>2022-01-27T11:29:06.000Z</time>
      </trkpt>
      <trkpt lat="47.26051" lon="-2.33671">
        <ele>-1</ele>
        <time>2022-01-27T11:29:07.000Z</time>
      </trkpt>
      <trkpt lat="47.26059" lon="-2.33647">
        <ele>-1</ele>
        <time>2022-01-27T11:29:12.000Z</time>
      </trkpt>
      <trkpt lat="47.26073" lon="-2.33607">
        <ele>-1</ele>
        <time>2022-01-27T11:29:19.000Z</time>
      </trkpt>
      <trkpt lat="47.26086" lon="-2.33564">
        <ele>-1</ele>
        <time>2022-01-27T11:29:26.000Z</time>
      </trkpt>
      <trkpt lat="47.26089" lon="-2.33558">
        <ele>-1</ele>
        <time>2022-01-27T11:29:27.000Z</time>
      </trkpt>
      <trkpt lat="47.26109" lon="-2.33505">
        <ele>-1</ele>
        <time>2022-01-27T11:29:36.000Z</time>
      </trkpt>
      <trkpt lat="47.26115" lon="-2.33486">
        <ele>-1</ele>
        <time>2022-01-27T11:29:39.000Z</time>
      </trkpt>
      <trkpt lat="47.2612" lon="-2.33474">
        <ele>-1</ele>
        <time>2022-01-27T11:29:41.000Z</time>
      </trkpt>
      <trkpt lat="47.26129" lon="-2.33452">
        <ele>-1</ele>
        <time>2022-01-27T11:29:45.000Z</time>
      </trkpt>
      <trkpt lat="47.26133" lon="-2.33442">
        <ele>-1</ele>
        <time>2022-01-27T11:29:47.000Z</time>
      </trkpt>
      <trkpt lat="47.26137" lon="-2.33432">
        <ele>-1</ele>
        <time>2022-01-27T11:29:49.000Z</time>
      </trkpt>
      <trkpt lat="47.26135" lon="-2.33413">
        <ele>-1</ele>
        <time>2022-01-27T11:29:52.000Z</time>
      </trkpt>
      <trkpt lat="47.2612" lon="-2.33407">
        <ele>-1</ele>
        <time>2022-01-27T11:29:55.000Z</time>
      </trkpt>
      <trkpt lat="47.26115" lon="-2.33403">
        <ele>-1</ele>
        <time>2022-01-27T11:29:56.000Z</time>
      </trkpt>
      <trkpt lat="47.26106" lon="-2.33391">
        <ele>-1</ele>
        <time>2022-01-27T11:29:58.000Z</time>
      </trkpt>
      <trkpt lat="47.26092" lon="-2.33374">
        <ele>-1</ele>
        <time>2022-01-27T11:30:01.000Z</time>
      </trkpt>
      <trkpt lat="47.26079" lon="-2.33357">
        <ele>-1</ele>
        <time>2022-01-27T11:30:04.000Z</time>
      </trkpt>
      <trkpt lat="47.26068" lon="-2.33325">
        <ele>-1</ele>
        <time>2022-01-27T11:30:08.000Z</time>
      </trkpt>
      <trkpt lat="47.26048" lon="-2.33268">
        <ele>-1</ele>
        <time>2022-01-27T11:30:15.000Z</time>
      </trkpt>
      <trkpt lat="47.26023" lon="-2.33196">
        <ele>-1</ele>
        <time>2022-01-27T11:30:24.000Z</time>
      </trkpt>
      <trkpt lat="47.26001" lon="-2.33132">
        <ele>-1</ele>
        <time>2022-01-27T11:30:32.000Z</time>
      </trkpt>
      <trkpt lat="47.25992" lon="-2.33098">
        <ele>-1</ele>
        <time>2022-01-27T11:30:36.000Z</time>
      </trkpt>
      <trkpt lat="47.25988" lon="-2.33081">
        <ele>-1</ele>
        <time>2022-01-27T11:30:38.000Z</time>
      </trkpt>
      <trkpt lat="47.25972" lon="-2.33044">
        <ele>-1</ele>
        <time>2022-01-27T11:30:43.000Z</time>
      </trkpt>
      <trkpt lat="47.25956" lon="-2.32995">
        <ele>-1</ele>
        <time>2022-01-27T11:30:49.000Z</time>
      </trkpt>
      <trkpt lat="47.25935" lon="-2.32937">
        <ele>-1</ele>
        <time>2022-01-27T11:30:56.000Z</time>
      </trkpt>
      <trkpt lat="47.25914" lon="-2.32881">
        <ele>-1</ele>
        <time>2022-01-27T11:31:03.000Z</time>
      </trkpt>
      <trkpt lat="47.25896" lon="-2.32832">
        <ele>-1</ele>
        <time>2022-01-27T11:31:09.000Z</time>
      </trkpt>
      <trkpt lat="47.25877" lon="-2.32774">
        <ele>-1</ele>
        <time>2022-01-27T11:31:16.000Z</time>
      </trkpt>
      <trkpt lat="47.25863" lon="-2.32729">
        <ele>-1</ele>
        <time>2022-01-27T11:31:22.000Z</time>
      </trkpt>
      <trkpt lat="47.25864" lon="-2.32721">
        <ele>-1</ele>
        <time>2022-01-27T11:31:23.000Z</time>
      </trkpt>
      <trkpt lat="47.25862" lon="-2.32706">
        <ele>-1</ele>
        <time>2022-01-27T11:31:25.000Z</time>
      </trkpt>
      <trkpt lat="47.25858" lon="-2.32701">
        <ele>-1</ele>
        <time>2022-01-27T11:31:26.000Z</time>
      </trkpt>
      <trkpt lat="47.25852" lon="-2.32687">
        <ele>-1</ele>
        <time>2022-01-27T11:31:28.000Z</time>
      </trkpt>
      <trkpt lat="47.25844" lon="-2.32662">
        <ele>-1</ele>
        <time>2022-01-27T11:31:31.000Z</time>
      </trkpt>
      <trkpt lat="47.25826" lon="-2.32592">
        <ele>-1</ele>
        <time>2022-01-27T11:31:39.000Z</time>
      </trkpt>
      <trkpt lat="47.25807" lon="-2.32518">
        <ele>-1</ele>
        <time>2022-01-27T11:31:48.000Z</time>
      </trkpt>
      <trkpt lat="47.25799" lon="-2.32475">
        <ele>-1</ele>
        <time>2022-01-27T11:31:54.000Z</time>
      </trkpt>
      <trkpt lat="47.25806" lon="-2.3246">
        <ele>-1</ele>
        <time>2022-01-27T11:31:57.000Z</time>
      </trkpt>
      <trkpt lat="47.25809" lon="-2.32455">
        <ele>-1</ele>
        <time>2022-01-27T11:31:58.000Z</time>
      </trkpt>
      <trkpt lat="47.25814" lon="-2.32454">
        <ele>-1</ele>
        <time>2022-01-27T11:31:59.000Z</time>
      </trkpt>
      <trkpt lat="47.25824" lon="-2.32461">
        <ele>-1</ele>
        <time>2022-01-27T11:32:01.000Z</time>
      </trkpt>
      <trkpt lat="47.25834" lon="-2.32467">
        <ele>-1</ele>
        <time>2022-01-27T11:32:03.000Z</time>
      </trkpt>
      <trkpt lat="47.25856" lon="-2.32472">
        <ele>-1</ele>
        <time>2022-01-27T11:32:07.000Z</time>
      </trkpt>
      <trkpt lat="47.25871" lon="-2.32472">
        <ele>-1</ele>
        <time>2022-01-27T11:32:10.000Z</time>
      </trkpt>
      <trkpt lat="47.25882" lon="-2.32471">
        <ele>-1</ele>
        <time>2022-01-27T11:32:12.000Z</time>
      </trkpt>
      <trkpt lat="47.25892" lon="-2.32466">
        <ele>-1</ele>
        <time>2022-01-27T11:32:14.000Z</time>
      </trkpt>
      <trkpt lat="47.25902" lon="-2.32456">
        <ele>-1</ele>
        <time>2022-01-27T11:32:16.000Z</time>
      </trkpt>
      <trkpt lat="47.25907" lon="-2.3245">
        <ele>-1</ele>
        <time>2022-01-27T11:32:17.000Z</time>
      </trkpt>
      <trkpt lat="47.25927" lon="-2.32421">
        <ele>-1</ele>
        <time>2022-01-27T11:32:22.000Z</time>
      </trkpt>
      <trkpt lat="47.2596" lon="-2.32377">
        <ele>-1</ele>
        <time>2022-01-27T11:32:30.000Z</time>
      </trkpt>
      <trkpt lat="47.25991" lon="-2.32337">
        <ele>-1</ele>
        <time>2022-01-27T11:32:37.000Z</time>
      </trkpt>
      <trkpt lat="47.26022" lon="-2.32299">
        <ele>-1</ele>
        <time>2022-01-27T11:32:44.000Z</time>
      </trkpt>
      <trkpt lat="47.2606" lon="-2.32258">
        <ele>-1</ele>
        <time>2022-01-27T11:32:52.000Z</time>
      </trkpt>
      <trkpt lat="47.26093" lon="-2.32213">
        <ele>-1</ele>
        <time>2022-01-27T11:33:00.000Z</time>
      </trkpt>
      <trkpt lat="47.26111" lon="-2.32172">
        <ele>-1</ele>
        <time>2022-01-27T11:33:06.000Z</time>
      </trkpt>
      <trkpt lat="47.26126" lon="-2.32127">
        <ele>-1</ele>
        <time>2022-01-27T11:33:12.000Z</time>
      </trkpt>
      <trkpt lat="47.26141" lon="-2.32074">
        <ele>-1</ele>
        <time>2022-01-27T11:33:19.000Z</time>
      </trkpt>
      <trkpt lat="47.26151" lon="-2.32045">
        <ele>-1</ele>
        <time>2022-01-27T11:33:23.000Z</time>
      </trkpt>
      <trkpt lat="47.26156" lon="-2.32034">
        <ele>-1</ele>
        <time>2022-01-27T11:33:25.000Z</time>
      </trkpt>
      <trkpt lat="47.26159" lon="-2.32029">
        <ele>-1</ele>
        <time>2022-01-27T11:33:26.000Z</time>
      </trkpt>
      <trkpt lat="47.26171" lon="-2.32022">
        <ele>-1</ele>
        <time>2022-01-27T11:33:29.000Z</time>
      </trkpt>
      <trkpt lat="47.26184" lon="-2.32023">
        <ele>-1</ele>
        <time>2022-01-27T11:33:32.000Z</time>
      </trkpt>
      <trkpt lat="47.26188" lon="-2.32023">
        <ele>-1</ele>
        <time>2022-01-27T11:33:33.000Z</time>
      </trkpt>
      <trkpt lat="47.26197" lon="-2.32019">
        <ele>-1</ele>
        <time>2022-01-27T11:33:38.000Z</time>
      </trkpt>
      <trkpt lat="47.262" lon="-2.32005">
        <ele>-1</ele>
        <time>2022-01-27T11:33:42.000Z</time>
      </trkpt>
      <trkpt lat="47.26205" lon="-2.32002">
        <ele>-1</ele>
        <time>2022-01-27T11:33:44.000Z</time>
      </trkpt>
      <trkpt lat="47.26213" lon="-2.31993">
        <ele>-1</ele>
        <time>2022-01-27T11:33:47.000Z</time>
      </trkpt>
      <trkpt lat="47.26226" lon="-2.31975">
        <ele>-1</ele>
        <time>2022-01-27T11:33:52.000Z</time>
      </trkpt>
      <trkpt lat="47.26241" lon="-2.31962">
        <ele>-1</ele>
        <time>2022-01-27T11:33:57.000Z</time>
      </trkpt>
      <trkpt lat="47.26261" lon="-2.31929">
        <ele>-1</ele>
        <time>2022-01-27T11:34:05.000Z</time>
      </trkpt>
      <trkpt lat="47.26278" lon="-2.31907">
        <ele>-1</ele>
        <time>2022-01-27T11:34:11.000Z</time>
      </trkpt>
      <trkpt lat="47.26289" lon="-2.31895">
        <ele>-1</ele>
        <time>2022-01-27T11:34:14.000Z</time>
      </trkpt>
      <trkpt lat="47.26291" lon="-2.31885">
        <ele>-1</ele>
        <time>2022-01-27T11:34:16.000Z</time>
      </trkpt>
      <trkpt lat="47.26293" lon="-2.31861">
        <ele>-1</ele>
        <time>2022-01-27T11:34:20.000Z</time>
      </trkpt>
      <trkpt lat="47.26295" lon="-2.3183">
        <ele>-1</ele>
        <time>2022-01-27T11:34:25.000Z</time>
      </trkpt>
      <trkpt lat="47.26296" lon="-2.31798">
        <ele>-1</ele>
        <time>2022-01-27T11:34:30.000Z</time>
      </trkpt>
      <trkpt lat="47.26296" lon="-2.31763">
        <ele>-1</ele>
        <time>2022-01-27T11:34:35.000Z</time>
      </trkpt>
      <trkpt lat="47.26299" lon="-2.3172">
        <ele>-1</ele>
        <time>2022-01-27T11:34:41.000Z</time>
      </trkpt>
      <trkpt lat="47.26304" lon="-2.31717">
        <ele>-1</ele>
        <time>2022-01-27T11:34:42.000Z</time>
      </trkpt>
      <trkpt lat="47.26316" lon="-2.3171">
        <ele>-1</ele>
        <time>2022-01-27T11:34:45.000Z</time>
      </trkpt>
      <trkpt lat="47.26319" lon="-2.31709">
        <ele>-1</ele>
        <time>2022-01-27T11:34:46.000Z</time>
      </trkpt>
      <trkpt lat="47.26331" lon="-2.31697">
        <ele>-1</ele>
        <time>2022-01-27T11:34:50.000Z</time>
      </trkpt>
      <trkpt lat="47.26333" lon="-2.31692">
        <ele>-1</ele>
        <time>2022-01-27T11:34:51.000Z</time>
      </trkpt>
      <trkpt lat="47.26336" lon="-2.31689">
        <ele>-0.60000002384186</ele>
        <time>2022-01-27T11:34:52.000Z</time>
      </trkpt>
      <trkpt lat="47.26338" lon="-2.31686">
        <ele>-0.20000000298023</ele>
        <time>2022-01-27T11:34:53.000Z</time>
      </trkpt>
      <trkpt lat="47.26341" lon="-2.31684">
        <ele>0.40000000596046</ele>
        <time>2022-01-27T11:34:54.000Z</time>
      </trkpt>
      <trkpt lat="47.26343" lon="-2.31683">
        <ele>0.80000001192093</ele>
        <time>2022-01-27T11:34:55.000Z</time>
      </trkpt>
      <trkpt lat="47.26346" lon="-2.31681">
        <ele>1.2000000476837</ele>
        <time>2022-01-27T11:34:56.000Z</time>
      </trkpt>
      <trkpt lat="47.2637" lon="-2.31671">
        <ele>1.2000000476837</ele>
        <time>2022-01-27T11:35:03.000Z</time>
      </trkpt>
      <trkpt lat="47.26373" lon="-2.3167">
        <ele>1.6000000238419</ele>
        <time>2022-01-27T11:35:04.000Z</time>
      </trkpt>
      <trkpt lat="47.26376" lon="-2.31668">
        <ele>2</ele>
        <time>2022-01-27T11:35:05.000Z</time>
      </trkpt>
      <trkpt lat="47.2638" lon="-2.31667">
        <ele>2.4000000953674</ele>
        <time>2022-01-27T11:35:06.000Z</time>
      </trkpt>
      <trkpt lat="47.26383" lon="-2.31665">
        <ele>2.7999999523163</ele>
        <time>2022-01-27T11:35:07.000Z</time>
      </trkpt>
      <trkpt lat="47.26386" lon="-2.31663">
        <ele>3.2000000476837</ele>
        <time>2022-01-27T11:35:08.000Z</time>
      </trkpt>
      <trkpt lat="47.26392" lon="-2.31661">
        <ele>3.2000000476837</ele>
        <time>2022-01-27T11:35:10.000Z</time>
      </trkpt>
      <trkpt lat="47.26409" lon="-2.31651">
        <ele>3.2000000476837</ele>
        <time>2022-01-27T11:35:17.000Z</time>
      </trkpt>
      <trkpt lat="47.2641" lon="-2.31636">
        <ele>3.2000000476837</ele>
        <time>2022-01-27T11:35:21.000Z</time>
      </trkpt>
      <trkpt lat="47.2641" lon="-2.31605">
        <ele>3.2000000476837</ele>
        <time>2022-01-27T11:35:28.000Z</time>
      </trkpt>
      <trkpt lat="47.26411" lon="-2.31574">
        <ele>3.2000000476837</ele>
        <time>2022-01-27T11:35:35.000Z</time>
      </trkpt>
      <trkpt lat="47.26411" lon="-2.31554">
        <ele>3.2000000476837</ele>
        <time>2022-01-27T11:35:40.000Z</time>
      </trkpt>
      <trkpt lat="47.26412" lon="-2.31551">
        <ele>3.2000000476837</ele>
        <time>2022-01-27T11:35:41.000Z</time>
      </trkpt>
      <trkpt lat="47.26416" lon="-2.31552">
        <ele>3.5999999046326</ele>
        <time>2022-01-27T11:35:43.000Z</time>
      </trkpt>
      <trkpt lat="47.26417" lon="-2.31552">
        <ele>4</ele>
        <time>2022-01-27T11:35:44.000Z</time>
      </trkpt>
      <trkpt lat="47.26418" lon="-2.31552">
        <ele>4.4000000953674</ele>
        <time>2022-01-27T11:35:45.000Z</time>
      </trkpt>
      <trkpt lat="47.26418" lon="-2.31552">
        <ele>5</ele>
        <time>2022-01-27T11:35:46.000Z</time>
      </trkpt>
    </trkseg>
  </trk>
</gpx>